Work Boat No.22 — 0000000 — position and weather

sailwx.info

Track history (hours):
 
Tides and Currents Weather Stations Pressure Air Temp Water Temp Dewpoint Dewpoint Depression Visibility Wind Speed Wind Dir Waves Ship Positions

Work Boat No.22

Last reported at 2017-Oct-20 06:31 UTC. Time now 2017-Oct-20 06:43 UTC.
Position N 49°12' W 123°09'.

Length 30 m.

Type: Cargo ship. MMSI: 4150008.

Date/timePositionNaut miles runAvg speedWind from/ knotsBaromVisibWave heightAir tempDewpointWater temp
2017-Oct-20 06:31N 49°12' W 123°09'642423124934.2
2017-Oct-20 06:31N 21°11' E 110°25'246884495.6
2017-Oct-20 06:30N 22°41' E 114°31'55198860.4
2017-Oct-20 06:30N 22°55' E 113°33'44157229.9
2017-Oct-20 06:30N 22°34' E 114°15'6552356982.1
2017-Oct-20 06:30N 31°21' E 121°32'6572366462.0
2017-Oct-20 06:30N 22°57' E 113°37'6672399653.5
2017-Oct-20 06:30N 31°21' E 121°47'723611.4
2017-Oct-20 06:30N 31°23' E 121°40'6652393124.9
2017-Oct-20 06:30N 22°57' E 113°37'27077.7
2017-Oct-20 06:30N 22°55' E 113°36'516681.2
2017-Oct-20 06:30N 22°59' E 113°34'651780814.2
2017-Oct-20 06:30N 31°14' E 121°30'6642392151.6
2017-Oct-20 06:30N 22°45' E 113°30'681612924.1
2017-Oct-20 06:30N 31°17' E 121°54'6732422395.7
2017-Oct-20 06:30N 22°50' E 113°38'413493.0
2017-Oct-20 06:30N 22°52' E 113°34'5438883.1
2017-Oct-20 06:30N 22°40' E 114°31'62223888.0
2017-Oct-20 06:30N 22°55' E 113°26'6712414246.6
2017-Oct-20 06:30N 31°19' E 121°42'6452321202.3
2017-Oct-20 06:30N 22°41' E 114°32'5633879.4
2017-Oct-20 06:30N 22°59' E 113°34'78458.3
2017-Oct-20 06:30N 22°52' E 113°32'9731750816.7
2017-Oct-20 06:30N 37°43' E 121°06'9763514905.6
2017-Oct-20 06:30N 22°59' E 113°05'33118351.6
2017-Oct-20 06:30N 22°47' E 113°38'14155093579.8
2017-Oct-20 06:30N 01°20' E 103°37'14311030477.6
2017-Oct-20 06:30N 22°40' E 114°31'645331927.2
2017-Oct-20 06:30N 31°20' E 121°40'662794563.8
2017-Oct-20 06:30N 23°00' E 113°32'78157.1
2017-Oct-20 06:30N 22°54' E 113°35'43156053.3
2017-Oct-20 06:29N 22°35' E 114°17'6542354754.4
2017-Oct-20 06:29N 30°54' E 122°10'6602376818.9
2017-Oct-20 06:29N 23°05' E 113°28'1221699.0
2017-Oct-20 06:29N 22°56' E 113°37'97776.1
2017-Oct-20 06:29N 22°55' E 113°27'1448607.4
2017-Oct-20 06:29N 22°47' E 113°15'6872473159.2
2017-Oct-20 06:29N 31°21' E 121°47'689620357.1
2017-Oct-20 06:29N 22°47' E 113°11'1967457.8
2017-Oct-20 06:29N 22°52' E 113°31'45231.7
2017-Oct-20 06:29N 22°54' E 113°35'2010520.1
2017-Oct-20 06:29N 22°54' E 113°13'1715027.8
2017-Oct-20 06:29N 23°06' E 113°25'1416465.0
2017-Oct-20 06:29N 22°56' E 113°36'54312.8
2017-Oct-20 06:29N 22°53' E 113°31'6652395137.0
2017-Oct-20 06:29N 31°32' E 121°20'664797333.7
2017-Oct-20 06:29N 22°53' E 113°33'1346704.1
2017-Oct-20 06:29N 23°05' E 113°27'275494303.3
2017-Oct-20 06:29N 24°17' E 118°17'292524723.5
2017-Oct-20 06:29N 22°47' E 113°14'1315204.7
2017-Oct-20 06:29N 22°43' E 113°28'1760748.0
2017-Oct-20 06:29N 22°60' E 113°32'41350.8
2017-Oct-20 06:29N 23°03' E 113°32'1322786.4
2017-Oct-20 06:28N 22°51' E 113°35'6652393564.5
2017-Oct-20 06:28N 31°25' E 121°29'1629676.4
2017-Oct-20 06:28N 31°21' E 121°47'3625770.4
2017-Oct-20 06:28N 31°41' E 121°12'127186.8
2017-Oct-20 06:28N 31°31' E 121°21'6412309325.0
2017-Oct-20 06:28N 22°41' E 114°36'9603455860.5
2017-Oct-20 06:28N 37°34' E 121°23'374449376.9
2017-Oct-20 06:28N 31°19' E 121°34'128833.0
2017-Oct-20 06:28N 31°29' E 121°25'669602047.3
2017-Oct-20 06:28N 22°46' E 113°38'2719351.9
2017-Oct-20 06:28N 23°03' E 113°15'667599948.6
2017-Oct-20 06:28N 31°29' E 121°24'828468.3
2017-Oct-20 06:28N 31°25' E 121°32'6422311554.7
2017-Oct-20 06:28N 22°40' E 114°36'6501169548.1
2017-Oct-20 06:28N 31°24' E 121°48'660791838.4
2017-Oct-20 06:28N 22°36' E 114°24'6542353334.6
2017-Oct-20 06:28N 31°23' E 121°38'815051.6
2017-Oct-20 06:28N 31°21' E 121°47'664797252.3
2017-Oct-20 06:28N 23°04' E 113°32'655785617.0
2017-Oct-20 06:28N 31°31' E 121°18'657394250.7
2017-Oct-20 06:27N 22°59' E 113°34'34122217.0
2017-Oct-20 06:27N 22°28' E 113°50'3415301.3
2017-Oct-20 06:27N 22°59' E 113°33'78351.9
2017-Oct-20 06:27N 23°05' E 113°34'92202.8
2017-Oct-20 06:27N 22°56' E 113°36'237674.1
2017-Oct-20 06:27N 22°44' E 113°14'2036879.4
2017-Oct-20 06:27N 22°52' E 113°34'62597.6
2017-Oct-20 06:27N 22°47' E 113°30'6731211701.1
2017-Oct-20 06:27N 31°35' E 121°19'31362.8
2017-Oct-20 06:26N 31°37' E 121°23'1347067.8
2017-Oct-20 06:26N 31°25' E 121°29'657788012.3
2017-Oct-20 06:26N 23°03' E 113°32'65967813.9
2017-Oct-20 06:26N 31°20' E 121°39'668801315.2
2017-Oct-20 06:26N 22°52' E 113°33'42971.9
2017-Oct-20 06:26N 22°55' E 113°30'73906.3
2017-Oct-20 06:26N 23°01' E 113°32'3953.8
2017-Oct-20 06:25N 22°58' E 113°32'21856.2
2017-Oct-20 06:25N 22°58' E 113°30'1611855.3
2017-Oct-20 06:25N 22°47' E 113°17'367596.2
2017-Oct-20 06:25N 22°13' E 113°06'5729067.8
2017-Oct-20 06:25N 23°05' E 113°29'64230042.1
2017-Oct-20 06:25N 22°41' E 114°33'5566194.0
2017-Oct-20 06:25N 22°54' E 113°35'66588662.5
2017-Oct-20 06:24N 31°39' E 121°14'6722417536.6
2017-Oct-20 06:24N 22°44' E 113°37'156643.3
2017-Oct-20 06:24N 22°58' E 113°33'2677.5
2017-Oct-20 06:24N 23°00' E 113°35'41367.4
2017-Oct-20 06:24N 23°03' E 113°32'191640.1
2017-Oct-20 06:23N 22°47' E 113°21'679152672.6
2017-Oct-20 06:23N 31°24' E 121°35'661198433.7
2017-Oct-20 06:23N 23°02' E 113°31'666149757.5
2017-Oct-20 06:22N 31°36' E 121°27'669802869.7
2017-Oct-20 06:22N 22°58' E 113°30'73190.0
2017-Oct-20 06:22N 23°05' E 113°29'3765.9
2017-Oct-20 06:22N 23°03' E 113°32'171028.4
2017-Oct-20 06:21N 22°47' E 113°36'31012.7
2017-Oct-20 06:21N 22°49' E 113°35'4267.4
2017-Oct-20 06:20N 22°46' E 113°38'181181.1
2017-Oct-20 06:19N 22°50' E 113°19'163102.5
2017-Oct-20 06:19N 22°44' E 113°36'504775.2
2017-Oct-20 06:18N 22°18' E 114°22'67143934.9
2017-Oct-20 06:17N 31°37' E 121°18'677116111.3
2017-Oct-20 06:17N 22°59' E 113°07'68420694.3
2017-Oct-20 06:15N 31°29' E 121°39'366659473.7
2017-Oct-20 06:15N 37°36' E 121°26'114431914.3
2017-Oct-20 06:13N 21°07' E 110°25'20319237.6
2017-Oct-20 06:12N 22°52' E 113°33'142676.7
2017-Oct-20 06:12N 23°05' E 113°29'65814894.9
2017-Oct-20 06:09N 30°52' E 122°09'7352700.0
2017-Oct-20 06:09N 31°43' E 121°08'65910047.8
2017-Oct-20 06:05N 22°29' E 114°28'653138341.5
2017-Oct-20 06:05N 31°31' E 121°17'382114467.1
2017-Oct-20 06:04N 37°52' E 121°37'1006164602.7
2017-Oct-20 06:04N 22°45' E 113°14'222958.8
2017-Oct-20 06:04N 22°44' E 113°38'66331836.0
2017-Oct-20 06:02N 30°48' E 122°06'2054115561.2
2017-Oct-20 06:01N 01°27' E 103°45'2068165461.9
2017-Oct-20 06:01N 31°29' E 121°24'6622384451.1
2017-Oct-20 06:01N 22°56' E 113°33'6682403423.5
2017-Oct-20 06:00N 31°23' E 121°40'6632386787.4
2017-Oct-20 06:00N 23°05' E 113°28'6662399023.4
2017-Oct-20 06:00N 31°31' E 121°36'1138950.1
2017-Oct-20 06:00N 31°21' E 121°41'620455.6
2017-Oct-20 06:00N 31°21' E 121°47'6702410480.5
2017-Oct-20 06:00N 22°54' E 113°35'5599700.6
2017-Oct-20 06:00N 22°28' E 114°28'55199202.8
2017-Oct-20 06:00N 22°57' E 113°37'42151094.5
2017-Oct-20 06:00N 22°34' E 114°15'41148254.0
2017-Oct-20 06:00N 22°51' E 113°34'6662399243.4
2017-Oct-20 06:00N 31°26' E 121°30'6682403055.9
2017-Oct-20 06:00N 22°48' E 113°37'1221707.2
2017-Oct-20 06:00N 22°58' E 113°30'622806.2
2017-Oct-20 06:00N 22°52' E 113°33'814489.4
2017-Oct-20 06:00N 22°60' E 113°35'6780556.9
2017-Oct-20 06:00N 22°16' E 114°30'69249523.5
2017-Oct-20 06:00N 22°58' E 113°30'413817.4
2017-Oct-20 06:00N 22°59' E 113°34'6612379726.4
2017-Oct-20 06:00N 31°22' E 121°37'6712416192.0
2017-Oct-20 06:00N 22°54' E 113°24'6577421.3
2017-Oct-20 06:00N 22°41' E 114°32'56100931.4
2017-Oct-20 06:00N 23°00' E 113°35'415380.8
2017-Oct-20 06:00N 22°56' E 113°33'6542354979.7
2017-Oct-20 06:00N 31°13' E 121°30'1139203.4
2017-Oct-20 06:00N 31°20' E 121°40'67403.2
2017-Oct-20 06:00N 31°21' E 121°47'6672400312.1
2017-Oct-20 06:00N 22°59' E 113°34'56371.2
2017-Oct-20 06:00N 22°54' E 113°35'664796979.4
2017-Oct-20 06:00N 31°34' E 121°19'659474125.1
2017-Oct-20 06:00N 23°03' E 113°32'59212469.6
2017-Oct-20 06:00N 22°40' E 114°31'56101532.4
2017-Oct-20 06:00N 22°47' E 113°30'1552246.1
2017-Oct-20 06:00N 22°54' E 113°16'1553555.4
2017-Oct-20 06:00N 22°43' E 113°28'6732424503.8
2017-Oct-20 06:00N 31°31' E 121°18'8553076502.1
2017-Oct-20 06:00N 21°08' E 110°25'232119327.1
2017-Oct-20 05:59N 22°35' E 114°17'44157697.5
2017-Oct-20 05:59N 22°57' E 113°36'813569.6
2017-Oct-20 05:59N 23°03' E 113°32'2215977.3
2017-Oct-20 05:59N 22°54' E 113°10'1913606.8
2017-Oct-20 05:59N 22°52' E 113°31'674606671.8
2017-Oct-20 05:59N 31°21' E 121°47'6822454203.7
2017-Oct-20 05:59N 22°59' E 113°09'6742426571.3
2017-Oct-20 05:59N 31°24' E 121°31'661170006.0
2017-Oct-20 05:59N 22°56' E 113°36'53452.7
2017-Oct-20 05:59N 22°53' E 113°31'14212558264.4
2017-Oct-20 05:59N 01°16' E 103°36'14212557157.6
2017-Oct-20 05:59N 22°52' E 113°33'667600497.7
2017-Oct-20 05:59N 31°36' E 121°17'6672402594.2
2017-Oct-20 05:59N 22°49' E 113°37'1113501.5
2017-Oct-20 05:59N 22°60' E 113°32'661793448.5
2017-Oct-20 05:59N 31°25' E 121°32'667599917.1
2017-Oct-20 05:59N 22°51' E 113°35'665478712.9
2017-Oct-20 05:58N 31°25' E 121°29'1139544.1
2017-Oct-20 05:58N 31°36' E 121°27'2382816.6
2017-Oct-20 05:58N 31°21' E 121°47'73128.8
2017-Oct-20 05:58N 31°20' E 121°39'4591653368.3
2017-Oct-20 05:58N 24°17' E 118°16'269968558.4
2017-Oct-20 05:58N 22°57' E 113°36'9653475127.9
2017-Oct-20 05:58N 37°34' E 121°23'387199229.6
2017-Oct-20 05:58N 31°07' E 121°55'34120981.2
2017-Oct-20 05:58N 31°29' E 121°25'1451222.5
2017-Oct-20 05:58N 31°22' E 121°40'683245763.9
2017-Oct-20 05:58N 22°54' E 113°07'6811226122.9
2017-Oct-20 05:58N 31°24' E 121°35'6442316799.2
2017-Oct-20 05:58N 22°41' E 114°33'6122027.9
2017-Oct-20 05:58N 23°02' E 113°31'6582368854.6
2017-Oct-20 05:58N 30°51' E 122°08'44158382.3
2017-Oct-20 05:58N 31°28' E 121°41'2024151.8
2017-Oct-20 05:58N 31°31' E 121°18'674173202.5
2017-Oct-20 05:57N 22°48' E 113°20'1720410.9
2017-Oct-20 05:57N 22°59' E 113°34'1523.8
2017-Oct-20 05:57N 22°58' E 113°33'123359.5
2017-Oct-20 05:57N 22°47' E 113°36'670603418.4
2017-Oct-20 05:57N 31°41' E 121°12'667600251.4
2017-Oct-20 05:57N 22°52' E 113°34'665478522.7
2017-Oct-20 05:57N 31°24' E 121°30'6652395095.2
2017-Oct-20 05:57N 22°51' E 113°35'42832.7
2017-Oct-20 05:57N 22°55' E 113°36'661170046.8
2017-Oct-20 05:56N 31°25' E 121°29'666479812.7
2017-Oct-20 05:56N 22°49' E 113°35'665798032.8
2017-Oct-20 05:56N 31°19' E 121°34'680489864.3
2017-Oct-20 05:56N 22°46' E 113°13'203032.4
2017-Oct-20 05:56N 22°53' E 113°33'51581.3
2017-Oct-20 05:56N 22°57' E 113°37'74681.0
2017-Oct-20 05:56N 23°01' E 113°32'662238189.1
2017-Oct-20 05:55N 31°37' E 121°18'661793432.0
2017-Oct-20 05:55N 23°05' E 113°27'5610038.8
2017-Oct-20 05:55N 22°13' E 113°06'4742385.4
2017-Oct-20 05:55N 22°59' E 113°15'7769550.2
2017-Oct-20 05:55N 22°40' E 114°36'58104795.8
2017-Oct-20 05:55N 22°51' E 113°34'674485424.5
2017-Oct-20 05:55N 31°17' E 121°54'672201734.0
2017-Oct-20 05:55N 22°15' E 114°27'234843589.0
2017-Oct-20 05:55N 21°11' E 110°25'205147689.1
2017-Oct-20 05:54N 23°03' E 113°30'41972.3
2017-Oct-20 05:54N 23°05' E 113°34'960123407.0
2017-Oct-20 05:54N 37°43' E 121°06'977703743.0
2017-Oct-20 05:54N 22°45' E 113°40'661113356.9
2017-Oct-20 05:53N 30°47' E 122°06'609745.2
2017-Oct-20 05:53N 31°32' E 121°20'83040.2
2017-Oct-20 05:53N 31°35' E 121°28'669401317.2
2017-Oct-20 05:53N 22°58' E 113°30'161958.9
2017-Oct-20 05:52N 22°47' E 113°17'194567.0
2017-Oct-20 05:52N 22°46' E 113°38'247306.9
2017-Oct-20 05:52N 22°47' E 113°11'2014384.2
2017-Oct-20 05:52N 22°45' E 113°33'51953.1
2017-Oct-20 05:52N 22°44' E 113°38'2110556.7
2017-Oct-20 05:51N 22°47' E 113°16'681490487.9
2017-Oct-20 05:51N 31°32' E 121°24'66246710.1
2017-Oct-20 05:51N 23°01' E 113°31'6539196.3
2017-Oct-20 05:50N 22°20' E 114°26'6438526.9
2017-Oct-20 05:50N 22°55' E 113°27'111871.5
2017-Oct-20 05:50N 23°06' E 113°25'6599.2
2017-Oct-20 05:49N 23°03' E 113°32'4540750.1
2017-Oct-20 05:49N 22°22' E 113°13'687605.2
2017-Oct-20 05:49N 22°36' E 114°24'4935314.9
2017-Oct-20 05:49N 22°54' E 113°35'66049496.0
2017-Oct-20 05:48N 30°50' E 122°07'68030217.1
2017-Oct-20 05:47N 22°45' E 113°13'261136.0
2017-Oct-20 05:45N 23°04' E 113°32'645100959.3
2017-Oct-20 05:45N 31°10' E 121°28'734970.0
2017-Oct-20 05:44N 32°02' E 120°26'468263.3
2017-Oct-20 05:44N 31°39' E 121°13'66845402.6
2017-Oct-20 05:43N 22°15' E 114°30'66539899.9
2017-Oct-20 05:42N 31°24' E 121°31'72213906.7
2017-Oct-20 05:39N 21°52' E 113°17'582890.8
2017-Oct-20 05:37N 22°47' E 113°36'281286.0
2017-Oct-20 05:36N 22°59' E 113°10'140585735.4
2017-Oct-20 05:35N 01°28' E 103°44'174.5
2017-Oct-20 05:34N 01°27' E 103°45'1418212669.9
2017-Oct-20 05:34N 23°05' E 113°29'3110188.7
2017-Oct-20 05:33N 22°43' E 113°05'311270.4
2017-Oct-20 05:32N 23°03' E 113°31'6180241845.5
2017-Oct-20 05:31N 49°12' W 123°09'538819397978.7
2017-Oct-20 05:30N 30°48' E 122°06'40143394.4
2017-Oct-20 05:30N 31°21' E 121°41'6602377191.0
2017-Oct-20 05:30N 22°34' E 114°15'4275457.5
2017-Oct-20 05:30N 22°57' E 113°37'01390.6
2017-Oct-20 05:30N 22°57' E 113°37'44345321198.1
2017-Oct-20 05:30N 44°09' E 028°40'443515964679.1
2017-Oct-20 05:30N 22°54' E 113°35'1866139.7
2017-Oct-20 05:30N 22°57' E 113°16'1720397.8
2017-Oct-20 05:30N 22°54' E 113°34'516477.5
2017-Oct-20 05:30N 22°50' E 113°36'6682405773.7
2017-Oct-20 05:30N 31°24' E 121°35'6682406456.3
2017-Oct-20 05:30N 22°53' E 113°30'275330477.2
2017-Oct-20 05:30N 24°18' E 118°16'274986105.5
2017-Oct-20 05:30N 22°58' E 113°30'6642390300.2
2017-Oct-20 05:30N 31°10' E 121°51'1656640.3
2017-Oct-20 05:30N 31°22' E 121°39'6742425978.0
2017-Oct-20 05:30N 22°54' E 113°21'66237093.5
2017-Oct-20 05:30N 22°40' E 114°31'7387230.9
2017-Oct-20 05:30N 22°47' E 113°13'6812452469.2
2017-Oct-20 05:30N 31°24' E 121°31'1221486.6
2017-Oct-20 05:30N 31°31' E 121°20'667600127.8
2017-Oct-20 05:30N 22°44' E 113°42'31111501.1
2017-Oct-20 05:30N 22°54' E 113°10'2382866.6
2017-Oct-20 05:30N 22°59' E 113°34'60107425.4
2017-Oct-20 05:30N 22°25' E 114°27'56200870.8
2017-Oct-20 05:30N 22°52' E 113°34'1113101.8
2017-Oct-20 05:30N 22°43' E 113°28'1833170.6
2017-Oct-20 05:30N 23°01' E 113°31'14165095916.2
2017-Oct-20 05:30N 01°27' E 103°44'20687443396.4
2017-Oct-20 05:30N 31°24' E 121°30'6441158590.8
2017-Oct-20 05:30N 22°40' E 114°31'52186633.3
2017-Oct-20 05:30N 22°49' E 113°35'14615.0
2017-Oct-20 05:30N 22°49' E 113°34'14225118893.9
2017-Oct-20 05:30N 01°13' E 103°36'20937534044.1
2017-Oct-20 05:30N 31°31' E 121°36'6692408873.2
2017-Oct-20 05:30N 22°56' E 113°36'724000.9
2017-Oct-20 05:30N 22°49' E 113°36'1450249.0
2017-Oct-20 05:30N 23°02' E 113°31'668481027.7
2017-Oct-20 05:29N 31°26' E 121°44'1968701.4
2017-Oct-20 05:29N 31°31' E 121°23'6571183113.6
2017-Oct-20 05:29N 22°35' E 114°17'1760671.3
2017-Oct-20 05:29N 22°22' E 114°28'60107793.4
2017-Oct-20 05:29N 22°57' E 113°36'662793987.6
2017-Oct-20 05:29N 31°25' E 121°31'28847.9
2017-Oct-20 05:29N 31°25' E 121°29'6792444012.1
2017-Oct-20 05:29N 22°47' E 113°15'683614480.5
2017-Oct-20 05:29N 31°23' E 121°38'6701205858.5
2017-Oct-20 05:29N 22°52' E 113°31'105950.8
2017-Oct-20 05:29N 23°01' E 113°35'106080.8
2017-Oct-20 05:29N 23°06' E 113°25'205984.5
2017-Oct-20 05:29N 22°48' E 113°36'415549.9
2017-Oct-20 05:29N 22°52' E 113°33'78095.4
2017-Oct-20 05:29N 22°58' E 113°33'5842004.2
2017-Oct-20 05:29N 22°25' E 114°25'51182742.3
2017-Oct-20 05:29N 22°49' E 113°37'6682403968.1
2017-Oct-20 05:29N 31°20' E 121°39'661793417.0
2017-Oct-20 05:29N 23°02' E 113°31'2310464.6
2017-Oct-20 05:28N 22°49' E 113°09'6812450589.5
2017-Oct-20 05:28N 31°25' E 121°29'4935504.3
2017-Oct-20 05:28N 30°48' E 122°06'655336683.2
2017-Oct-20 05:28N 22°57' E 113°36'58207765.8
2017-Oct-20 05:28N 22°41' E 114°36'7645686.6
2017-Oct-20 05:28N 22°47' E 113°14'6811225843.8
2017-Oct-20 05:28N 31°29' E 121°25'660475497.2
2017-Oct-20 05:28N 23°01' E 113°31'6672402325.0
2017-Oct-20 05:28N 31°21' E 121°47'1324105.1
2017-Oct-20 05:28N 31°21' E 121°32'663795906.7
2017-Oct-20 05:28N 22°51' E 113°35'47168557.8
2017-Oct-20 05:28N 22°13' E 113°06'36129558.0
2017-Oct-20 05:28N 22°47' E 113°17'0138.5
2017-Oct-20 05:28N 22°47' E 113°17'63227728.0
2017-Oct-20 05:28N 22°36' E 114°24'650467839.5
2017-Oct-20 05:28N 31°31' E 121°18'6562359909.9
2017-Oct-20 05:28N 23°05' E 113°29'2239911.2
2017-Oct-20 05:28N 22°44' E 113°38'671483133.4
2017-Oct-20 05:28N 31°32' E 121°24'646775138.5
2017-Oct-20 05:27N 22°41' E 114°31'5620108.5
2017-Oct-20 05:27N 22°59' E 113°34'662140084.8
2017-Oct-20 05:27N 31°37' E 121°18'6612378703.6
2017-Oct-20 05:27N 23°00' E 113°35'658112830.4
2017-Oct-20 05:27N 31°24' E 121°31'212008.3
2017-Oct-20 05:26N 31°39' E 121°13'660339609.8
2017-Oct-20 05:26N 23°01' E 113°31'6611190596.0
2017-Oct-20 05:26N 31°12' E 121°49'681129079.6
2017-Oct-20 05:26N 22°55' E 113°07'2119202.1
2017-Oct-20 05:25N 22°55' E 113°30'93094.7
2017-Oct-20 05:25N 23°03' E 113°32'1418283503.9
2017-Oct-20 05:25N 01°27' E 103°45'13985032240.5
2017-Oct-20 05:25N 22°16' E 114°27'269403.2
2017-Oct-20 05:25N 22°40' E 114°36'6931085.2
2017-Oct-20 05:25N 23°04' E 113°26'6682403729.7
2017-Oct-20 05:25N 31°21' E 121°47'66666577.3
2017-Oct-20 05:24N 22°60' E 113°35'666159819.6
2017-Oct-20 05:24N 31°33' E 121°32'665171065.0
2017-Oct-20 05:24N 23°03' E 113°32'1221974.3
2017-Oct-20 05:24N 22°51' E 113°35'51469.3
2017-Oct-20 05:23N 22°56' E 113°37'32781.6
2017-Oct-20 05:23N 22°58' E 113°39'2322.8
2017-Oct-20 05:23N 22°57' E 113°37'63872.3
2017-Oct-20 05:23N 22°58' E 113°30'669133812.6
2017-Oct-20 05:22N 31°36' E 121°27'669185235.3
2017-Oct-20 05:22N 22°58' E 113°30'6621191708.6
2017-Oct-20 05:22N 31°32' E 121°20'2429022.9
2017-Oct-20 05:22N 31°09' E 121°27'84377813.4
2017-Oct-20 05:21N 21°11' E 110°25'11631046808.9
2017-Oct-20 05:21N 38°01' E 121°28'98449905.6
2017-Oct-20 05:20N 23°05' E 113°34'356982.4
2017-Oct-20 05:20N 22°44' E 113°05'643220.4
2017-Oct-20 05:19N 22°19' E 114°09'4714015.7
2017-Oct-20 05:19N 22°54' E 113°35'29102819.1
2017-Oct-20 05:19N 22°28' E 113°50'261720.4
2017-Oct-20 05:18N 22°47' E 113°30'16651.4
2017-Oct-20 05:16N 23°03' E 113°32'65869688.1
2017-Oct-20 05:16N 31°24' E 121°32'65859188.5
2017-Oct-20 05:15N 23°04' E 113°32'116.1
2017-Oct-20 05:13N 23°03' E 113°32'65964125.2
2017-Oct-20 05:12N 31°38' E 121°15'670141912.3
2017-Oct-20 05:12N 22°47' E 113°36'977439500.6
2017-Oct-20 05:12N 37°43' E 121°06'37453861.7
2017-Oct-20 05:11N 31°29' E 121°24'68136602.4
2017-Oct-20 05:10N 22°47' E 113°11'171395.0
2017-Oct-20 05:10N 22°55' E 113°27'121154.6
2017-Oct-20 05:09N 22°47' E 113°38'176791.9
2017-Oct-20 05:09N 23°03' E 113°32'10138.1
2017-Oct-20 05:04N 23°03' E 113°21'16583.4
2017-Oct-20 05:03N 22°58' E 113°37'658131611.6
2017-Oct-20 05:02N 31°29' E 121°24'15663.5
2017-Oct-20 05:01N 31°41' E 121°12'66091329.8
2017-Oct-20 05:01N 23°05' E 113°28'203732048.2
2017-Oct-20 05:01N 21°12' E 110°25'14509.7
2017-Oct-20 05:00N 21°11' E 110°25'8643111407.6
2017-Oct-20 05:00N 31°21' E 121°47'667800276.4
2017-Oct-20 05:00N 22°57' E 113°37'6672399669.4
2017-Oct-20 05:00N 31°21' E 121°47'7342642374.5
2017-Oct-20 05:00N 21°50' E 113°11'7351323868.8
2017-Oct-20 05:00N 31°23' E 121°47'725029.6
2017-Oct-20 05:00N 31°16' E 121°45'1761843.0
2017-Oct-20 05:00N 31°31' E 121°36'6722417784.4
2017-Oct-20 05:00N 22°55' E 113°33'1760930.4
2017-Oct-20 05:00N 22°47' E 113°17'6842460799.4
2017-Oct-20 05:00N 31°23' E 121°40'20887517133.3
2017-Oct-20 05:00N 01°12' E 103°39'24028647691.5
2017-Oct-20 05:00N 37°34' E 121°23'357642394.0
2017-Oct-20 05:00N 31°37' E 121°18'6612378557.8
2017-Oct-20 05:00N 22°29' E 114°24'6457858.0
2017-Oct-20 05:00N 22°53' E 113°20'6732424433.5
2017-Oct-20 05:00N 31°28' E 121°28'829984.0
2017-Oct-20 05:00N 31°21' E 121°32'6412307876.3
2017-Oct-20 05:00N 22°40' E 114°31'11081.7
2017-Oct-20 05:00N 22°41' E 114°32'56201931.0
2017-Oct-20 05:00N 22°60' E 113°35'0398.7
2017-Oct-20 05:00N 23°00' E 113°35'9723499102.9
2017-Oct-20 05:00N 37°42' E 121°29'9903563657.5
2017-Oct-20 05:00N 22°22' E 114°25'6255957.9
2017-Oct-20 05:00N 22°58' E 113°30'44518.5
2017-Oct-20 05:00N 22°59' E 113°34'9663476527.3
2017-Oct-20 05:00N 37°43' E 121°06'9663476820.3
2017-Oct-20 05:00N 23°03' E 113°25'662397158.7
2017-Oct-20 05:00N 31°24' E 121°30'6672399560.6
2017-Oct-20 05:00N 22°54' E 113°28'60214343.9
2017-Oct-20 05:00N 22°40' E 114°31'647776852.6
2017-Oct-20 05:00N 31°40' E 121°12'31111820.3
2017-Oct-20 05:00N 31°20' E 121°39'1018402.3
2017-Oct-20 05:00N 31°13' E 121°48'684351570.1
2017-Oct-20 04:59N 22°47' E 113°12'61110684.0
2017-Oct-20 04:59N 22°35' E 114°17'44157697.5
2017-Oct-20 04:59N 22°57' E 113°36'1787.8
2017-Oct-20 04:59N 22°56' E 113°37'2225875.6
2017-Oct-20 04:59N 22°47' E 113°15'6792444013.0
2017-Oct-20 04:59N 31°25' E 121°29'6651196970.2
2017-Oct-20 04:59N 22°51' E 113°35'44836.3
2017-Oct-20 04:59N 22°52' E 113°31'726268.6
2017-Oct-20 04:59N 22°59' E 113°31'6642390976.1
2017-Oct-20 04:59N 31°23' E 121°38'87517.3
2017-Oct-20 04:59N 31°21' E 121°47'2239643.3
2017-Oct-20 04:59N 31°29' E 121°23'659790296.5
2017-Oct-20 04:59N 23°06' E 113°25'219286.1
2017-Oct-20 04:59N 22°48' E 113°37'2279550.3
2017-Oct-20 04:59N 22°54' E 113°14'1821520.6
2017-Oct-20 04:59N 22°53' E 113°33'12266.1
2017-Oct-20 04:59N 22°52' E 113°33'725106.5
2017-Oct-20 04:59N 22°59' E 113°33'66778.1
2017-Oct-20 04:59N 22°53' E 113°31'74680.2
2017-Oct-20 04:59N 22°60' E 113°32'35421.4
2017-Oct-20 04:59N 23°02' E 113°31'13285.7
2017-Oct-20 04:59N 23°01' E 113°31'6612379416.1
2017-Oct-20 04:59N 31°25' E 121°32'6602375608.8
2017-Oct-20 04:59N 23°02' E 113°31'5598611.4
2017-Oct-20 04:59N 22°13' E 113°06'4843084.2
2017-Oct-20 04:58N 22°55' E 113°30'1968355.0
2017-Oct-20 04:58N 22°47' E 113°11'681490435.0
2017-Oct-20 04:58N 31°25' E 121°29'6731210655.5
2017-Oct-20 04:58N 22°54' E 113°17'911035.2
2017-Oct-20 04:58N 23°03' E 113°21'73131814.2
2017-Oct-20 04:58N 22°41' E 114°36'6441158556.5
2017-Oct-20 04:58N 31°22' E 121°40'6791222135.7
2017-Oct-20 04:58N 22°44' E 113°27'622980.7
2017-Oct-20 04:58N 22°48' E 113°21'1816443.6
2017-Oct-20 04:58N 23°03' E 113°32'6582368904.3
2017-Oct-20 04:58N 31°29' E 121°25'1037466.9
2017-Oct-20 04:58N 31°37' E 121°17'2072674.0
2017-Oct-20 04:58N 31°24' E 121°35'668267067.5
2017-Oct-20 04:58N 22°51' E 113°35'1345572.8
2017-Oct-20 04:58N 23°03' E 113°32'6376038.6
2017-Oct-20 04:58N 22°40' E 114°36'7387953.8
2017-Oct-20 04:58N 22°47' E 113°17'63227724.2
2017-Oct-20 04:58N 22°36' E 114°24'657591589.0
2017-Oct-20 04:58N 31°21' E 121°47'676811178.3
2017-Oct-20 04:58N 22°45' E 113°38'670126973.7
2017-Oct-20 04:57N 31°24' E 121°33'660264023.2
2017-Oct-20 04:57N 22°58' E 113°37'14141018414.5
2017-Oct-20 04:57N 01°27' E 103°45'1398279589.6
2017-Oct-20 04:57N 22°53' E 113°07'259816.3
2017-Oct-20 04:57N 23°00' E 113°32'93392.8
2017-Oct-20 04:56N 22°51' E 113°35'132573.9
2017-Oct-20 04:56N 22°47' E 113°21'162214.9
2017-Oct-20 04:56N 22°58' E 113°33'5721.7
2017-Oct-20 04:55N 23°03' E 113°32'52186.0
2017-Oct-20 04:55N 22°58' E 113°30'621213.6
2017-Oct-20 04:55N 22°57' E 113°36'5211779.9
2017-Oct-20 04:55N 22°12' E 113°06'13614899536.7
2017-Oct-20 04:55N 01°27' E 103°45'1408298197.6
2017-Oct-20 04:55N 22°55' E 113°27'107277.3
2017-Oct-20 04:54N 23°05' E 113°29'173727.1
2017-Oct-20 04:54N 22°49' E 113°34'667171529.0
2017-Oct-20 04:54N 31°32' E 121°20'133673.5
2017-Oct-20 04:54N 31°24' E 121°32'671241715.6
2017-Oct-20 04:54N 22°47' E 113°30'244259.8
2017-Oct-20 04:53N 22°46' E 113°04'803667.1
2017-Oct-20 04:52N 22°15' E 114°25'667133425.1
2017-Oct-20 04:52N 31°31' E 121°18'51053.1
2017-Oct-20 04:51N 31°32' E 121°24'241690.5
2017-Oct-20 04:50N 31°17' E 121°01'632151748.4
2017-Oct-20 04:50N 23°05' E 113°34'54173.8
2017-Oct-20 04:50N 23°02' E 113°31'199707.7
2017-Oct-20 04:50N 22°44' E 113°37'5667.5
2017-Oct-20 04:50N 22°49' E 113°37'66731606.8
2017-Oct-20 04:48N 31°29' E 121°27'462110799.2
2017-Oct-20 04:48N 24°19' E 118°17'27534115.6
2017-Oct-20 04:48N 22°44' E 113°36'672105148.4
2017-Oct-20 04:47N 31°34' E 121°20'65762209.7
2017-Oct-20 04:47N 23°03' E 113°36'64775181.5
2017-Oct-20 04:46N 31°13' E 121°30'319405.3
2017-Oct-20 04:46N 31°41' E 121°12'661340186.5
2017-Oct-20 04:46N 23°02' E 113°31'91667.8
2017-Oct-20 04:45N 22°54' E 113°35'7833.9
2017-Oct-20 04:45N 22°47' E 113°36'622069.5
2017-Oct-20 04:43N 22°18' E 114°36'66435131.4
2017-Oct-20 04:42N 31°40' E 121°12'67083186.8
2017-Oct-20 04:42N 22°47' E 113°36'175127.8
2017-Oct-20 04:41N 23°03' E 113°32'2810185.9
2017-Oct-20 04:41N 22°44' E 113°09'13165.9
2017-Oct-20 04:36N 22°45' E 113°23'67610725.2
2017-Oct-20 04:33N 31°24' E 121°31'65218067.4
2017-Oct-20 04:31N 22°27' E 114°34'616122179571.2
2017-Oct-20 04:30N 49°12' W 123°09'537819361966.0
2017-Oct-20 04:30N 31°23' E 121°40'20887516818.8
2017-Oct-20 04:30N 01°10' E 103°42'20893760639.9
2017-Oct-20 04:30N 31°21' E 121°47'6671200644.7
2017-Oct-20 04:30N 23°01' E 113°31'6612378658.2
2017-Oct-20 04:30N 31°27' E 121°29'2225862.2
2017-Oct-20 04:30N 31°13' E 121°49'6632388415.9
2017-Oct-20 04:30N 22°55' E 113°36'6681202044.0
2017-Oct-20 04:30N 31°18' E 121°50'2278435.1
2017-Oct-20 04:30N 31°28' E 121°27'6672401161.4
2017-Oct-20 04:30N 22°53' E 113°32'620807.4
2017-Oct-20 04:30N 22°55' E 113°26'9823533485.0
2017-Oct-20 04:30N 37°43' E 121°30'384691131.2
2017-Oct-20 04:30N 31°19' E 121°48'6611189012.9
2017-Oct-20 04:30N 22°32' E 114°21'67243.9
2017-Oct-20 04:30N 22°34' E 114°15'1658434.4
2017-Oct-20 04:30N 22°40' E 114°31'11087.8
2017-Oct-20 04:30N 22°41' E 114°32'244878589.7
2017-Oct-20 04:30N 21°14' E 110°26'205368299.7
2017-Oct-20 04:30N 22°60' E 113°35'6601188294.8
2017-Oct-20 04:30N 31°23' E 121°35'6602376194.6
2017-Oct-20 04:30N 23°00' E 113°35'54249.6
2017-Oct-20 04:30N 22°58' E 113°30'9681161679.6
2017-Oct-20 04:30N 37°43' E 121°06'379194877.6
2017-Oct-20 04:30N 31°24' E 121°30'6442317181.6
2017-Oct-20 04:30N 22°40' E 114°31'645774037.4
2017-Oct-20 04:30N 31°20' E 121°39'6642389644.8
2017-Oct-20 04:30N 22°55' E 113°36'650259969.3
2017-Oct-20 04:29N 30°44' E 121°60'641768949.6
2017-Oct-20 04:29N 22°35' E 114°17'4250700.7
2017-Oct-20 04:29N 22°51' E 113°35'1346150.9
2017-Oct-20 04:29N 23°04' E 113°32'931470.1
2017-Oct-20 04:29N 22°56' E 113°37'662794712.2
2017-Oct-20 04:29N 31°38' E 121°15'6622384956.5
2017-Oct-20 04:29N 22°57' E 113°36'312550.2
2017-Oct-20 04:29N 22°58' E 113°32'6611189888.4
2017-Oct-20 04:29N 31°25' E 121°29'3701333415.0
2017-Oct-20 04:29N 37°35' E 121°24'973875953.6
2017-Oct-20 04:29N 22°52' E 113°31'45387.2
2017-Oct-20 04:29N 22°50' E 113°35'6731211968.6
2017-Oct-20 04:29N 31°21' E 121°47'667800167.3
2017-Oct-20 04:29N 23°06' E 113°25'3316876.3
2017-Oct-20 04:29N 22°35' E 113°37'1913396.0
2017-Oct-20 04:29N 22°53' E 113°33'14532.3
2017-Oct-20 04:29N 22°52' E 113°33'6671200121.8
2017-Oct-20 04:29N 31°23' E 121°34'6622381570.8
2017-Oct-20 04:29N 22°59' E 113°33'11445.3
2017-Oct-20 04:29N 22°58' E 113°33'663795075.3
2017-Oct-20 04:29N 31°16' E 121°45'20683722482.8
2017-Oct-20 04:29N 01°27' E 103°43'14145089845.4
2017-Oct-20 04:29N 22°57' E 113°37'6622382169.5
2017-Oct-20 04:29N 31°39' E 121°14'660792298.7
2017-Oct-20 04:29N 23°02' E 113°31'0626.4
2017-Oct-20 04:29N 23°02' E 113°31'83092.2
2017-Oct-20 04:28N 23°02' E 113°23'1036128.1
2017-Oct-20 04:28N 22°55' E 113°30'1221799.5
2017-Oct-20 04:28N 22°53' E 113°17'6732423622.0
2017-Oct-20 04:28N 31°25' E 121°29'640768314.0
2017-Oct-20 04:28N 22°41' E 114°36'6412307525.7
2017-Oct-20 04:28N 31°26' E 121°29'6601188526.7
2017-Oct-20 04:28N 22°57' E 113°36'36062.7
2017-Oct-20 04:28N 22°54' E 113°35'6701205608.4
2017-Oct-20 04:28N 31°36' E 121°27'687823966.5
2017-Oct-20 04:28N 22°47' E 113°14'6812451501.6
2017-Oct-20 04:28N 31°29' E 121°25'6782442015.6
2017-Oct-20 04:28N 22°47' E 113°18'2071996.6
2017-Oct-20 04:28N 23°05' E 113°28'6523460.8
2017-Oct-20 04:28N 22°41' E 114°33'33338.1
2017-Oct-20 04:28N 22°40' E 114°36'56200167.5
2017-Oct-20 04:28N 22°49' E 113°36'4655284.8
2017-Oct-20 04:28N 22°36' E 114°24'654336099.2
2017-Oct-20 04:28N 31°37' E 121°16'6702413144.0
2017-Oct-20 04:28N 22°45' E 113°38'1451295.0
2017-Oct-20 04:28N 22°55' E 113°27'670804180.2
2017-Oct-20 04:28N 31°22' E 121°40'646581561.9
2017-Oct-20 04:27N 22°41' E 114°31'646581326.5
2017-Oct-20 04:27N 31°32' E 121°24'660474998.5
2017-Oct-20 04:27N 23°05' E 113°29'6571183222.9
2017-Oct-20 04:27N 31°32' E 121°20'6811226201.1
2017-Oct-20 04:27N 22°47' E 113°11'114431.2
2017-Oct-20 04:27N 22°45' E 113°23'174396.0
2017-Oct-20 04:27N 22°59' E 113°34'2023673.3
2017-Oct-20 04:27N 22°47' E 113°17'213122.9
2017-Oct-20 04:26N 23°03' E 113°32'660237632.2
2017-Oct-20 04:26N 31°37' E 121°18'6822454511.6
2017-Oct-20 04:26N 22°47' E 113°15'679222231.4
2017-Oct-20 04:26N 31°29' E 121°24'66039571.8
2017-Oct-20 04:25N 22°60' E 113°32'661132223.7
2017-Oct-20 04:25N 31°25' E 121°32'676608041.8
2017-Oct-20 04:25N 22°52' E 113°18'173527.9
2017-Oct-20 04:24N 22°44' E 113°34'27666354.1
2017-Oct-20 04:24N 24°20' E 118°17'16151162557.6
2017-Oct-20 04:24N 01°27' E 103°45'14171020100.2
2017-Oct-20 04:24N 23°03' E 113°30'658112838.5
2017-Oct-20 04:24N 31°24' E 121°31'65638695.3
2017-Oct-20 04:23N 23°03' E 113°36'1424405.0
2017-Oct-20 04:23N 22°49' E 113°34'2985.8
2017-Oct-20 04:22N 22°51' E 113°35'667218158.6
2017-Oct-20 04:22N 31°32' E 121°22'678813069.8
2017-Oct-20 04:22N 22°46' E 113°23'374869.6
2017-Oct-20 04:22N 22°13' E 113°06'536380.9
2017-Oct-20 04:21N 22°57' E 113°37'1137861.9
2017-Oct-20 04:21N 22°47' E 113°36'191094.6
2017-Oct-20 04:20N 23°05' E 113°34'5495.7
2017-Oct-20 04:20N 23°01' E 113°31'189450.6
2017-Oct-20 04:19N 22°43' E 113°28'67581023.4
2017-Oct-20 04:19N 31°24' E 121°31'657337870.6
2017-Oct-20 04:19N 23°03' E 113°32'248472.8
2017-Oct-20 04:19N 22°59' E 113°07'311112.6
2017-Oct-20 04:17N 22°47' E 113°38'665598742.4
2017-Oct-20 04:17N 31°31' E 121°18'664108659.3
2017-Oct-20 04:17N 22°49' E 113°37'151193.6
2017-Oct-20 04:16N 23°03' E 113°32'201617.1
2017-Oct-20 04:15N 22°45' E 113°24'192494.6
2017-Oct-20 04:15N 23°02' E 113°31'1449993.5
2017-Oct-20 04:15N 23°03' E 113°16'66737517.8
2017-Oct-20 04:14N 31°32' E 121°22'678135546.9
2017-Oct-20 04:13N 22°53' E 113°11'44362.4
2017-Oct-20 04:06N 22°28' E 113°50'383143.9
2017-Oct-20 04:05N 23°03' E 113°32'2115440.7
2017-Oct-20 04:05N 22°54' E 113°11'67755386.1
2017-Oct-20 04:05N 31°30' E 121°24'66045671.4
2017-Oct-20 04:04N 23°02' E 113°31'661125293.4
2017-Oct-20 04:03N 31°37' E 121°17'664341439.1
2017-Oct-20 04:03N 23°07' E 113°19'20434.0
2017-Oct-20 04:01N 22°47' E 113°17'2070664.2
2017-Oct-20 04:01N 23°02' E 113°31'1037050.7
2017-Oct-20 04:00N 22°52' E 113°34'54194573.2
2017-Oct-20 04:00N 22°41' E 114°31'6442316695.7
2017-Oct-20 04:00N 31°26' E 121°28'6652394513.4
2017-Oct-20 04:00N 22°55' E 113°30'6722419695.5
2017-Oct-20 04:00N 31°21' E 121°47'6672399761.6
2017-Oct-20 04:00N 22°57' E 113°37'661793363.4
2017-Oct-20 04:00N 31°36' E 121°18'445116023679.8
2017-Oct-20 04:00N 44°09' E 028°40'443515966293.0
2017-Oct-20 04:00N 22°52' E 113°34'4250433.2
2017-Oct-20 04:00N 22°34' E 114°15'41148456.0
2017-Oct-20 04:00N 22°51' E 113°35'519114.3
2017-Oct-20 04:00N 22°55' E 113°30'1018394.7
2017-Oct-20 04:00N 23°05' E 113°29'6442318802.6
2017-Oct-20 04:00N 30°43' E 121°57'2138677.9
2017-Oct-20 04:00N 31°04' E 122°02'6792444562.8
2017-Oct-20 04:00N 22°43' E 113°28'1034965.7
2017-Oct-20 04:00N 22°45' E 113°38'38137315.1
2017-Oct-20 04:00N 22°33' E 114°18'2694879.4
2017-Oct-20 04:00N 22°28' E 113°50'40145531.6
2017-Oct-20 04:00N 22°40' E 114°31'66118416.8
2017-Oct-20 04:00N 22°48' E 113°21'1761616.1
2017-Oct-20 04:00N 22°57' E 113°37'6602376871.5
2017-Oct-20 04:00N 31°29' E 121°25'1348533.5
2017-Oct-20 04:00N 31°39' E 121°13'6591187004.1
2017-Oct-20 04:00N 23°00' E 113°35'6621191723.3
2017-Oct-20 04:00N 31°18' E 121°45'386694953.6
2017-Oct-20 04:00N 37°43' E 121°06'383689821.4
2017-Oct-20 04:00N 31°21' E 121°47'2239389.6
2017-Oct-20 04:00N 31°29' E 121°24'6622383450.8
2017-Oct-20 04:00N 22°58' E 113°30'610648.2
2017-Oct-20 04:00N 22°55' E 113°36'39955.2
2017-Oct-20 04:00N 22°57' E 113°37'6592373159.5
2017-Oct-20 04:00N 31°24' E 121°31'644772524.8
2017-Oct-20 04:00N 22°40' E 114°31'58103968.8
2017-Oct-20 04:00N 23°00' E 113°32'712261.5
2017-Oct-20 04:00N 22°54' E 113°35'273982854.6
2017-Oct-20 04:00N 24°20' E 118°18'24573381.8
2017-Oct-20 03:59N 22°35' E 114°17'5045177.9
2017-Oct-20 03:59N 23°03' E 113°32'1864983.9
2017-Oct-20 03:59N 22°49' E 113°20'6782439657.5
2017-Oct-20 03:59N 31°10' E 121°52'6622384565.6
2017-Oct-20 03:59N 22°56' E 113°37'13930.0
2017-Oct-20 03:59N 22°57' E 113°36'611568.8
2017-Oct-20 03:59N 23°01' E 113°31'1140231.1
2017-Oct-20 03:59N 22°51' E 113°35'1553211.1
2017-Oct-20 03:59N 23°05' E 113°34'9603455226.0
2017-Oct-20 03:59N 37°35' E 121°24'367661434.0
2017-Oct-20 03:59N 31°28' E 121°26'6742427626.6
2017-Oct-20 03:59N 22°54' E 113°16'1450111.1
2017-Oct-20 03:59N 22°52' E 113°31'675810130.8
2017-Oct-20 03:59N 31°31' E 121°36'1119435.2
2017-Oct-20 03:59N 31°22' E 121°41'6612378889.7
2017-Oct-20 03:59N 23°04' E 113°32'622977.8
2017-Oct-20 03:59N 23°06' E 113°25'155850.7
2017-Oct-20 03:59N 22°53' E 113°33'1657453.5
2017-Oct-20 03:59N 22°47' E 113°17'713122.6
2017-Oct-20 03:59N 22°54' E 113°21'1221083.3
2017-Oct-20 03:59N 22°52' E 113°33'1241544.9
2017-Oct-20 03:59N 22°48' E 113°21'209001.9
2017-Oct-20 03:59N 23°03' E 113°36'1416416.2
2017-Oct-20 03:59N 22°49' E 113°37'22829.4
2017-Oct-20 03:59N 22°47' E 113°36'4439748.3
2017-Oct-20 03:58N 22°13' E 113°06'4513474.5
2017-Oct-20 03:58N 22°49' E 113°34'58209508.6
2017-Oct-20 03:58N 22°41' E 114°36'6402304942.1
2017-Oct-20 03:58N 31°25' E 121°29'663795430.4
2017-Oct-20 03:58N 22°53' E 113°35'670803756.2
2017-Oct-20 03:58N 31°36' E 121°27'75935.7
2017-Oct-20 03:58N 31°29' E 121°25'667218410.2
2017-Oct-20 03:58N 22°48' E 113°37'53189620.3
2017-Oct-20 03:58N 22°41' E 114°33'33338.1
2017-Oct-20 03:58N 22°40' E 114°36'1214166.6
2017-Oct-20 03:58N 22°36' E 114°24'6521173794.4
2017-Oct-20 03:58N 31°25' E 121°32'667109120.0
2017-Oct-20 03:57N 22°53' E 113°31'35959.2
2017-Oct-20 03:57N 22°54' E 113°35'663265229.4
2017-Oct-20 03:57N 31°24' E 121°30'74830.7
2017-Oct-20 03:57N 31°23' E 121°38'6702411034.0
2017-Oct-20 03:57N 22°55' E 113°27'6692408316.1
2017-Oct-20 03:57N 31°18' E 121°42'668150392.7
2017-Oct-20 03:57N 22°55' E 113°29'668801027.1
2017-Oct-20 03:57N 31°30' E 121°26'659593341.1
2017-Oct-20 03:57N 23°03' E 113°32'6582367545.8
2017-Oct-20 03:57N 31°24' E 121°31'662794146.5
2017-Oct-20 03:57N 22°55' E 113°36'663159046.9
2017-Oct-20 03:56N 31°34' E 121°19'659395470.5
2017-Oct-20 03:56N 22°60' E 113°35'6622383217.7
2017-Oct-20 03:56N 31°22' E 121°40'6801223570.4
2017-Oct-20 03:56N 22°54' E 113°12'677121932.8
2017-Oct-20 03:56N 31°37' E 121°17'2544947.1
2017-Oct-20 03:56N 31°20' E 121°39'662238421.6
2017-Oct-20 03:56N 22°58' E 113°33'6622382632.3
2017-Oct-20 03:56N 31°36' E 121°17'66248616.8
2017-Oct-20 03:55N 22°57' E 113°36'1417170045.7
2017-Oct-20 03:54N 01°25' E 103°40'1406117700.6
2017-Oct-20 03:54N 22°47' E 113°30'933480.0
2017-Oct-20 03:54N 22°49' E 113°20'676270233.3
2017-Oct-20 03:53N 31°24' E 121°31'663596271.3
2017-Oct-20 03:53N 23°07' E 113°19'151341.9
2017-Oct-20 03:53N 22°59' E 113°33'81822.8
2017-Oct-20 03:52N 22°51' E 113°35'91202.9
2017-Oct-20 03:52N 22°60' E 113°32'662595745.8
2017-Oct-20 03:52N 31°41' E 121°12'6591186630.0
2017-Oct-20 03:52N 23°03' E 113°32'2112.6
2017-Oct-20 03:51N 23°03' E 113°30'658790010.9
2017-Oct-20 03:51N 31°31' E 121°22'71652.4
2017-Oct-20 03:51N 31°27' E 121°29'66674875.4
2017-Oct-20 03:50N 23°03' E 113°20'101035.1
2017-Oct-20 03:50N 23°01' E 113°31'18433.5
2017-Oct-20 03:47N 22°44' E 113°27'227821.8
2017-Oct-20 03:47N 23°03' E 113°16'3219.7
2017-Oct-20 03:46N 23°03' E 113°19'101289.8
2017-Oct-20 03:46N 23°02' E 113°31'4605.9
2017-Oct-20 03:45N 22°59' E 113°34'693311.8
2017-Oct-20 03:44N 21°54' E 113°11'724869206.6
2017-Oct-20 03:44N 31°32' E 121°20'165080.9
2017-Oct-20 03:44N 31°23' E 121°34'65835908.1
2017-Oct-20 03:43N 23°03' E 113°32'7920286.9
2017-Oct-20 03:42N 22°20' E 114°44'791608.2
2017-Oct-20 03:39N 23°02' E 113°31'66655782.5
2017-Oct-20 03:39N 31°33' E 121°32'3868325.1
2017-Oct-20 03:36N 37°60' E 121°28'100626828.4
2017-Oct-20 03:34N 22°47' E 113°17'373157.8
2017-Oct-20 03:33N 22°12' E 113°06'578993.8
2017-Oct-20 03:33N 23°05' E 113°29'128739.2
2017-Oct-20 03:33N 23°01' E 113°41'65694503.3
2017-Oct-20 03:32N 31°38' E 121°16'25915.4
2017-Oct-20 03:31N 31°22' E 121°38'1968560.2
2017-Oct-20 03:31N 31°32' E 121°20'6582367211.7
2017-Oct-20 03:30N 22°34' E 114°15'6642389139.5
2017-Oct-20 03:30N 31°21' E 121°47'8643111422.2
2017-Oct-20 03:30N 21°11' E 110°25'207744753.5
2017-Oct-20 03:30N 22°57' E 113°37'621672.4
2017-Oct-20 03:30N 22°60' E 113°31'44283984927.7
2017-Oct-20 03:30N 44°09' E 028°40'44325318831.0
2017-Oct-20 03:30N 22°53' E 113°31'14225117936.4
2017-Oct-20 03:30N 01°11' E 103°49'14192553931.1
2017-Oct-20 03:30N 22°54' E 113°22'1242800.7
2017-Oct-20 03:30N 22°54' E 113°35'50180009.8
2017-Oct-20 03:30N 22°12' E 113°06'7161288476.6
2017-Oct-20 03:30N 31°21' E 121°39'674606477.7
2017-Oct-20 03:30N 22°47' E 113°31'6722420167.3
2017-Oct-20 03:30N 31°28' E 121°28'6702411871.7
2017-Oct-20 03:30N 22°45' E 113°38'1657702.8
2017-Oct-20 03:30N 23°00' E 113°41'51183712.0
2017-Oct-20 03:30N 22°41' E 114°32'88316616.2
2017-Oct-20 03:30N 21°53' E 113°12'58207836.6
2017-Oct-20 03:30N 22°51' E 113°18'1816196.3
2017-Oct-20 03:30N 23°00' E 113°35'666399387.5
2017-Oct-20 03:30N 31°21' E 121°47'1138594.0
2017-Oct-20 03:30N 31°23' E 121°35'1760784.9
2017-Oct-20 03:30N 31°17' E 121°53'2529658.2
2017-Oct-20 03:30N 31°33' E 121°32'671603567.5
2017-Oct-20 03:30N 22°58' E 113°30'59105500.3
2017-Oct-20 03:30N 22°40' E 114°31'6422312003.6
2017-Oct-20 03:30N 31°23' E 121°30'6631193039.3
2017-Oct-20 03:30N 23°02' E 113°22'6652393800.3
2017-Oct-20 03:30N 31°34' E 121°19'6672401286.4
2017-Oct-20 03:30N 22°50' E 113°35'53421.8
2017-Oct-20 03:30N 22°55' E 113°34'1659110.1
2017-Oct-20 03:29N 22°47' E 113°18'6781221054.2
2017-Oct-20 03:29N 31°24' E 121°31'677812109.6
2017-Oct-20 03:29N 22°48' E 113°19'1917428.9
2017-Oct-20 03:29N 23°03' E 113°32'84523.2
2017-Oct-20 03:29N 22°57' E 113°36'9681741574.8
2017-Oct-20 03:29N 37°35' E 121°24'983884440.8
2017-Oct-20 03:29N 22°43' E 113°28'6762433173.1
2017-Oct-20 03:29N 31°29' E 121°24'6542354518.3
2017-Oct-20 03:29N 22°21' E 114°45'80143276.6
2017-Oct-20 03:29N 22°55' E 113°27'119812.0
2017-Oct-20 03:29N 23°06' E 113°25'667600117.7
2017-Oct-20 03:29N 31°21' E 121°47'623214.0
2017-Oct-20 03:29N 31°20' E 121°40'32262.9
2017-Oct-20 03:29N 31°23' E 121°38'669802849.1
2017-Oct-20 03:29N 22°52' E 113°33'6672400082.5
2017-Oct-20 03:29N 31°23' E 121°34'6581184043.5
2017-Oct-20 03:29N 23°04' E 113°32'1425854912.1
2017-Oct-20 03:29N 01°22' E 103°39'14255130908.9
2017-Oct-20 03:29N 23°03' E 113°36'1412312.2
2017-Oct-20 03:29N 22°49' E 113°37'1614845.6
2017-Oct-20 03:28N 22°50' E 113°19'3935023.0
2017-Oct-20 03:28N 22°13' E 113°06'7132568516.9
2017-Oct-20 03:28N 31°25' E 121°32'86052.9
2017-Oct-20 03:28N 31°20' E 121°39'665266093.6
2017-Oct-20 03:28N 22°53' E 113°35'6631193005.1
2017-Oct-20 03:28N 31°25' E 121°29'3791364851.2
2017-Oct-20 03:28N 37°44' E 121°33'9883557967.3
2017-Oct-20 03:28N 22°54' E 113°16'1448670.5
2017-Oct-20 03:28N 22°55' E 113°30'6661198119.9
2017-Oct-20 03:28N 31°29' E 121°25'14821.9
2017-Oct-20 03:28N 31°29' E 121°24'62980.5
2017-Oct-20 03:28N 31°34' E 121°20'12248.9
2017-Oct-20 03:28N 31°33' E 121°20'6441158546.9
2017-Oct-20 03:28N 22°41' E 114°33'6432315939.6
2017-Oct-20 03:28N 31°31' E 121°23'6612380049.8
2017-Oct-20 03:28N 22°57' E 113°36'57103358.7
2017-Oct-20 03:28N 22°40' E 114°36'7365965.8
2017-Oct-20 03:28N 22°47' E 113°17'680349905.4
2017-Oct-20 03:28N 31°37' E 121°16'646232688.5
2017-Oct-20 03:27N 22°41' E 114°31'6740413.5
2017-Oct-20 03:27N 22°47' E 113°19'6792445750.7
2017-Oct-20 03:27N 31°32' E 121°24'661793262.8
2017-Oct-20 03:27N 23°02' E 113°31'659263594.8
2017-Oct-20 03:27N 31°24' E 121°30'6751215421.7
2017-Oct-20 03:27N 22°28' E 113°50'3923512.4
2017-Oct-20 03:27N 23°03' E 113°30'51974.4
2017-Oct-20 03:27N 22°59' E 113°34'2942.2
2017-Oct-20 03:27N 22°60' E 113°32'12753.6
2017-Oct-20 03:27N 23°00' E 113°32'209052.6
2017-Oct-20 03:27N 22°47' E 113°15'2118744.6
2017-Oct-20 03:26N 22°56' E 113°36'2443569.7
2017-Oct-20 03:26N 22°47' E 113°11'2590230.7
2017-Oct-20 03:26N 22°60' E 113°35'5930.4
2017-Oct-20 03:26N 22°58' E 113°30'662397133.6
2017-Oct-20 03:26N 31°25' E 121°29'664239103.0
2017-Oct-20 03:26N 22°53' E 113°33'1619148.5
2017-Oct-20 03:26N 22°47' E 113°17'682272923.8
2017-Oct-20 03:26N 31°22' E 121°40'669200701.1
2017-Oct-20 03:25N 22°51' E 113°35'156539.7
2017-Oct-20 03:25N 22°36' E 113°36'5650672.3
2017-Oct-20 03:25N 22°41' E 114°36'649955.5
2017-Oct-20 03:25N 22°58' E 113°30'1034765.9
2017-Oct-20 03:25N 22°49' E 113°34'66585516.9
2017-Oct-20 03:24N 31°21' E 121°32'657262754.0
2017-Oct-20 03:24N 22°59' E 113°34'71921.7
2017-Oct-20 03:24N 23°05' E 113°29'4683.4
2017-Oct-20 03:24N 23°01' E 113°31'86866.9
2017-Oct-20 03:24N 22°55' E 113°36'103673.4
2017-Oct-20 03:23N 23°04' E 113°30'103960.6
2017-Oct-20 03:23N 22°56' E 113°37'81760.6
2017-Oct-20 03:23N 23°03' E 113°32'5919.0
2017-Oct-20 03:23N 22°58' E 113°33'41078.5
2017-Oct-20 03:22N 23°01' E 113°31'666126162.2
2017-Oct-20 03:22N 31°36' E 121°27'664159280.9
2017-Oct-20 03:22N 23°03' E 113°32'3228.7
2017-Oct-20 03:21N 23°00' E 113°32'121402.0
2017-Oct-20 03:21N 23°03' E 113°19'14548.6
2017-Oct-20 03:19N 22°54' E 113°31'724205.3
2017-Oct-20 03:19N 22°57' E 113°37'66254141.9
2017-Oct-20 03:18N 31°37' E 121°18'65739403.3
2017-Oct-20 03:17N 23°05' E 113°34'518454.0
2017-Oct-20 03:17N 23°04' E 113°29'151448.9
2017-Oct-20 03:17N 22°50' E 113°36'65951572.8
2017-Oct-20 03:16N 30°48' E 122°04'651167491.5
2017-Oct-20 03:16N 23°03' E 113°32'171615.6
2017-Oct-20 03:15N 22°47' E 113°36'1322513.0
2017-Oct-20 03:15N 22°55' E 113°26'66820737.1
2017-Oct-20 03:13N 31°28' E 121°28'4192.8
2017-Oct-20 03:12N 31°24' E 121°31'3368.9
2017-Oct-20 03:11N 31°24' E 121°35'66040279.9
2017-Oct-20 03:10N 23°05' E 113°29'6502338767.5
2017-Oct-20 03:10N 31°13' E 121°30'66339776.4
2017-Oct-20 03:09N 22°44' E 113°34'674220473.1
2017-Oct-20 03:09N 31°41' E 121°12'182182.3
2017-Oct-20 03:08N 31°28' E 121°28'67265393.2
2017-Oct-20 03:08N 22°54' E 113°22'12219.7
2017-Oct-20 03:05N 22°58' E 113°33'684601.6
2017-Oct-20 03:04N 21°53' E 113°12'731814.1
2017-Oct-20 03:01N 23°04' E 113°29'6180436267.0
2017-Oct-20 03:01N 49°12' W 123°09'537419346419.4
2017-Oct-20 03:00N 31°22' E 121°48'2279053.9
2017-Oct-20 03:00N 31°29' E 121°24'6432316500.9
2017-Oct-20 03:00N 22°41' E 114°31'6472330780.4
2017-Oct-20 03:00N 31°23' E 121°40'1730930.7
2017-Oct-20 03:00N 31°32' E 121°23'1140510.0
2017-Oct-20 03:00N 31°31' E 121°36'815237.6
2017-Oct-20 03:00N 31°29' E 121°26'1347473.4
2017-Oct-20 03:00N 31°22' E 121°40'6602375383.8
2017-Oct-20 03:00N 22°34' E 114°16'46164494.2
2017-Oct-20 03:00N 22°53' E 113°31'6672401730.2
2017-Oct-20 03:00N 31°24' E 121°33'668801783.2
2017-Oct-20 03:00N 22°54' E 113°28'725167.4
2017-Oct-20 03:00N 22°55' E 113°36'310529.1
2017-Oct-20 03:00N 22°52' E 113°34'619997.4
2017-Oct-20 03:00N 22°58' E 113°33'6602377457.8
2017-Oct-20 03:00N 31°25' E 121°29'6601188284.4
2017-Oct-20 03:00N 22°56' E 113°36'664796263.4
2017-Oct-20 03:00N 31°21' E 121°40'1865213.1
2017-Oct-20 03:00N 31°32' E 121°22'6601188207.0
2017-Oct-20 03:00N 23°02' E 113°31'6622384083.6
2017-Oct-20 03:00N 31°21' E 121°40'76557.6
2017-Oct-20 03:00N 31°21' E 121°32'4071171.8
2017-Oct-20 03:00N 30°59' E 122°11'42151380.5
2017-Oct-20 03:00N 31°25' E 121°32'6722419922.9
2017-Oct-20 03:00N 22°45' E 113°33'1139537.2
2017-Oct-20 03:00N 22°47' E 113°21'6841230372.7
2017-Oct-20 03:00N 31°21' E 121°47'726180.3
2017-Oct-20 03:00N 31°17' E 121°54'2487383.2
2017-Oct-20 03:00N 31°27' E 121°28'6592371544.8
2017-Oct-20 03:00N 23°05' E 113°29'1451541.2
2017-Oct-20 03:00N 22°53' E 113°20'6742427105.3
2017-Oct-20 03:00N 31°20' E 121°39'827811.7
2017-Oct-20 03:00N 31°25' E 121°32'22472.7
2017-Oct-20 03:00N 31°24' E 121°30'6622382799.6
2017-Oct-20 03:00N 22°57' E 113°33'666599260.6
2017-Oct-20 03:00N 31°22' E 121°41'3821376904.6
2017-Oct-20 03:00N 37°44' E 121°33'380683766.7
2017-Oct-20 03:00N 31°24' E 121°31'053.0
2017-Oct-20 02:59N 31°24' E 121°31'665797465.9
2017-Oct-20 02:59N 23°02' E 113°21'14221706968.5
2017-Oct-20 02:59N 01°19' E 103°37'14285140088.9
2017-Oct-20 02:59N 23°03' E 113°32'84523.2
2017-Oct-20 02:59N 22°57' E 113°36'610587.7
2017-Oct-20 02:59N 22°51' E 113°35'668480830.4
2017-Oct-20 02:59N 31°24' E 121°35'6672402547.8
2017-Oct-20 02:59N 22°52' E 113°35'1611797.5
2017-Oct-20 02:59N 23°06' E 113°25'659395145.9
2017-Oct-20 02:59N 31°25' E 121°29'1719866.2
2017-Oct-20 02:59N 31°21' E 121°47'6721209738.0
2017-Oct-20 02:59N 22°53' E 113°33'668801544.0
2017-Oct-20 02:59N 31°23' E 121°38'6692408507.3
2017-Oct-20 02:59N 22°52' E 113°33'1017776.2
2017-Oct-20 02:59N 22°43' E 113°28'1611617.3
2017-Oct-20 02:59N 22°58' E 113°33'78063.5
2017-Oct-20 02:59N 22°52' E 113°31'1113637.6
2017-Oct-20 02:59N 23°03' E 113°36'206370976.4
2017-Oct-20 02:59N 21°16' E 110°25'200721512.7
2017-Oct-20 02:59N 22°49' E 113°37'138042.1
2017-Oct-20 02:58N 23°01' E 113°31'54193240.1
2017-Oct-20 02:58N 22°13' E 113°06'7132568516.9
2017-Oct-20 02:58N 31°25' E 121°32'642330089.9
2017-Oct-20 02:58N 22°41' E 114°36'5741054.5
2017-Oct-20 02:58N 22°57' E 113°37'413844.9
2017-Oct-20 02:58N 22°53' E 113°35'6701205489.0
2017-Oct-20 02:58N 31°36' E 121°27'6782441163.1
2017-Oct-20 02:58N 22°45' E 113°32'6632387981.5
2017-Oct-20 02:58N 31°13' E 121°30'1629636.3
2017-Oct-20 02:58N 31°29' E 121°25'6682403789.3
2017-Oct-20 02:58N 22°55' E 113°26'43583.0
2017-Oct-20 02:58N 22°54' E 113°31'5935539.0
2017-Oct-20 02:58N 22°41' E 114°33'55196594.9
2017-Oct-20 02:58N 22°51' E 113°35'1760527.9
2017-Oct-20 02:58N 22°47' E 113°17'6345391.9
2017-Oct-20 02:58N 22°36' E 114°24'63227728.0
2017-Oct-20 02:58N 22°47' E 113°17'68172124.4
2017-Oct-20 02:57N 31°18' E 121°43'645580320.7
2017-Oct-20 02:57N 22°40' E 114°31'1725.2
2017-Oct-20 02:57N 22°41' E 114°32'6472328384.2
2017-Oct-20 02:57N 31°37' E 121°18'673161620.2
2017-Oct-20 02:57N 22°52' E 113°24'1311859.9
2017-Oct-20 02:57N 22°57' E 113°37'610290.1
2017-Oct-20 02:57N 23°00' E 113°32'39921.1
2017-Oct-20 02:57N 22°58' E 113°30'105767.6
2017-Oct-20 02:57N 22°49' E 113°34'112782.4
2017-Oct-20 02:56N 22°60' E 113°35'45061.8
2017-Oct-20 02:56N 23°03' E 113°32'659790550.2
2017-Oct-20 02:56N 31°39' E 121°13'357642259.3
2017-Oct-20 02:56N 37°35' E 121°24'9823533547.6
2017-Oct-20 02:56N 22°47' E 113°21'178659.9
2017-Oct-20 02:56N 22°57' E 113°36'75135398.3
2017-Oct-20 02:56N 22°22' E 114°49'799459.1
2017-Oct-20 02:56N 22°44' E 113°27'217404.6
2017-Oct-20 02:55N 23°04' E 113°32'154553.7
2017-Oct-20 02:55N 22°49' E 113°36'184886.5
2017-Oct-20 02:55N 22°47' E 113°17'7365967.2
2017-Oct-20 02:55N 22°40' E 114°36'453573.4
2017-Oct-20 02:54N 22°28' E 113°50'43156132.6
2017-Oct-20 02:54N 22°54' E 113°11'75220.9
2017-Oct-20 02:54N 22°53' E 113°19'1710317.7
2017-Oct-20 02:54N 22°47' E 113°36'977703193.0
2017-Oct-20 02:54N 37°43' E 121°06'983590062.3
2017-Oct-20 02:54N 22°47' E 113°16'29221871.7
2017-Oct-20 02:53N 24°19' E 118°18'464104432.7
2017-Oct-20 02:53N 31°34' E 121°20'41044.2
2017-Oct-20 02:52N 31°31' E 121°24'661297369.2
2017-Oct-20 02:52N 23°01' E 113°31'2314.1
2017-Oct-20 02:52N 23°03' E 113°32'0163.3
2017-Oct-20 02:52N 23°03' E 113°32'221000.5
2017-Oct-20 02:51N 22°47' E 113°15'224567.8
2017-Oct-20 02:50N 22°56' E 113°37'1034579.6
2017-Oct-20 02:50N 23°05' E 113°34'2850097.6
2017-Oct-20 02:50N 22°47' E 113°11'231237.4
2017-Oct-20 02:49N 23°05' E 113°26'66017091.4
2017-Oct-20 02:47N 31°23' E 121°34'66033962.9
2017-Oct-20 02:46N 23°05' E 113°26'65971886.3
2017-Oct-20 02:45N 31°32' E 121°20'669481413.9
2017-Oct-20 02:45N 22°45' E 113°38'669141605.0
2017-Oct-20 02:45N 31°24' E 121°31'26184.5
2017-Oct-20 02:36N 31°17' E 121°01'63661860.4
2017-Oct-20 02:36N 23°05' E 113°29'65917832.1
2017-Oct-20 02:33N 31°33' E 121°20'66917458.8
2017-Oct-20 02:31N 22°47' E 113°36'7975.4
2017-Oct-20 02:31N 22°54' E 113°35'203731136.7
2017-Oct-20 02:31N 21°11' E 110°25'11514142576.6
2017-Oct-20 02:31N 37°44' E 121°35'3761352190.9
2017-Oct-20 02:30N 31°28' E 121°27'6442319449.7
2017-Oct-20 02:30N 22°41' E 114°31'6452322385.0
2017-Oct-20 02:30N 31°30' E 121°26'6592372195.4
2017-Oct-20 02:30N 22°34' E 114°15'4250200.5
2017-Oct-20 02:30N 22°57' E 113°37'44347981787.4
2017-Oct-20 02:30N 44°09' E 028°40'442915943574.1
2017-Oct-20 02:30N 22°59' E 113°32'4887090.7
2017-Oct-20 02:30N 22°34' E 114°17'657591082.0
2017-Oct-20 02:30N 31°26' E 121°28'89295.3
2017-Oct-20 02:30N 31°23' E 121°36'6681202423.9
2017-Oct-20 02:30N 22°53' E 113°31'1035158.7
2017-Oct-20 02:30N 22°54' E 113°21'6731210746.7
2017-Oct-20 02:30N 31°30' E 121°26'2070519.8
2017-Oct-20 02:30N 31°23' E 121°47'6772436116.3
2017-Oct-20 02:30N 22°55' E 113°26'933433.6
2017-Oct-20 02:30N 22°56' E 113°36'1759681.5
2017-Oct-20 02:30N 22°53' E 113°18'127044.4
2017-Oct-20 02:30N 22°57' E 113°30'664478260.4
2017-Oct-20 02:30N 31°26' E 121°30'3771358619.0
2017-Oct-20 02:30N 37°43' E 121°06'9661158836.0
2017-Oct-20 02:30N 22°59' E 113°34'1347003.5
2017-Oct-20 02:30N 22°49' E 113°25'1315302.6
2017-Oct-20 02:30N 23°00' E 113°32'58103968.8
2017-Oct-20 02:30N 22°40' E 114°31'6442317181.6
2017-Oct-20 02:30N 31°24' E 121°30'108626.8
2017-Oct-20 02:30N 31°22' E 121°41'1138850.5
2017-Oct-20 02:30N 31°31' E 121°36'6872473154.4
2017-Oct-20 02:30N 22°47' E 113°17'680611603.4
2017-Oct-20 02:30N 31°32' E 121°22'6611190150.8
2017-Oct-20 02:29N 22°57' E 113°36'6582368708.8
2017-Oct-20 02:29N 31°21' E 121°32'6681203192.5
2017-Oct-20 02:29N 22°54' E 113°22'117684.2
2017-Oct-20 02:29N 23°00' E 113°31'712340.4
2017-Oct-20 02:29N 22°55' E 113°36'665598091.0
2017-Oct-20 02:29N 31°08' E 121°56'389699492.6
2017-Oct-20 02:29N 37°35' E 121°24'9823533586.1
2017-Oct-20 02:29N 22°47' E 113°21'620146.0
2017-Oct-20 02:29N 22°47' E 113°15'683491911.5
2017-Oct-20 02:29N 31°22' E 121°40'670804421.7
2017-Oct-20 02:29N 22°52' E 113°31'312102.3
2017-Oct-20 02:29N 22°52' E 113°35'665798599.4
2017-Oct-20 02:29N 31°33' E 121°19'2713948.8
2017-Oct-20 02:29N 31°21' E 121°47'672806459.1
2017-Oct-20 02:29N 22°53' E 113°33'12362.5
2017-Oct-20 02:29N 22°52' E 113°33'6682403997.1
2017-Oct-20 02:29N 31°20' E 121°39'38138218.8
2017-Oct-20 02:29N 30°56' E 122°14'6811224942.5
2017-Oct-20 02:29N 22°43' E 113°28'1614521.6
2017-Oct-20 02:29N 22°58' E 113°33'14281713069.2
2017-Oct-20 02:29N 01°16' E 103°36'14322578018.6
2017-Oct-20 02:29N 23°03' E 113°36'206247317.8
2017-Oct-20 02:29N 21°16' E 110°25'200721522.8
2017-Oct-20 02:28N 22°49' E 113°37'22985.4
2017-Oct-20 02:28N 22°51' E 113°35'667399940.6
2017-Oct-20 02:28N 31°25' E 121°32'7131284258.9
2017-Oct-20 02:28N 22°13' E 113°06'7122563402.1
2017-Oct-20 02:28N 31°32' E 121°20'1322557.0
2017-Oct-20 02:28N 31°24' E 121°31'6601187352.8
2017-Oct-20 02:28N 23°01' E 113°31'98047.1
2017-Oct-20 02:28N 22°53' E 113°35'670803704.8
2017-Oct-20 02:28N 31°36' E 121°27'77970.4
2017-Oct-20 02:28N 31°29' E 121°25'645331549.1
2017-Oct-20 02:28N 22°40' E 114°31'69248243.6
2017-Oct-20 02:28N 22°47' E 113°17'7332982.9
2017-Oct-20 02:28N 22°40' E 114°36'1221249.9
2017-Oct-20 02:28N 22°36' E 114°24'63113864.0
2017-Oct-20 02:28N 22°47' E 113°17'1659261.9
2017-Oct-20 02:28N 22°58' E 113°30'665399276.9
2017-Oct-20 02:28N 31°19' E 121°43'664796716.5
2017-Oct-20 02:28N 22°58' E 113°33'2335.2
2017-Oct-20 02:27N 22°59' E 113°34'6592372180.8
2017-Oct-20 02:27N 31°24' E 121°31'666399368.4
2017-Oct-20 02:27N 22°53' E 113°31'667300222.9
2017-Oct-20 02:27N 31°30' E 121°26'6702413247.9
2017-Oct-20 02:27N 22°45' E 113°38'126175.7
2017-Oct-20 02:27N 22°56' E 113°37'5331914.1
2017-Oct-20 02:27N 22°12' E 113°06'5715852.4
2017-Oct-20 02:27N 23°06' E 113°26'173582.2
2017-Oct-20 02:26N 22°51' E 113°35'664132818.5
2017-Oct-20 02:26N 30°52' E 122°07'4733584.5
2017-Oct-20 02:26N 31°25' E 121°29'681188618.0
2017-Oct-20 02:26N 22°47' E 113°11'2631005.3
2017-Oct-20 02:26N 22°57' E 113°37'6611190607.5
2017-Oct-20 02:26N 31°24' E 121°35'66770675.3
2017-Oct-20 02:25N 22°54' E 113°31'276248798.2
2017-Oct-20 02:25N 24°18' E 118°18'273981036.7
2017-Oct-20 02:25N 23°03' E 113°32'61109050.9
2017-Oct-20 02:25N 22°41' E 114°33'555208.4
2017-Oct-20 02:24N 22°55' E 113°36'81779.3
2017-Oct-20 02:24N 22°47' E 113°36'164515.4
2017-Oct-20 02:24N 23°02' E 113°31'66041684.2
2017-Oct-20 02:23N 31°23' E 121°34'659790478.6
2017-Oct-20 02:23N 23°05' E 113°29'173310.7
2017-Oct-20 02:22N 22°49' E 113°34'161680.6
2017-Oct-20 02:22N 23°03' E 113°25'66032102.3
2017-Oct-20 02:21N 31°19' E 121°34'65998802.8
2017-Oct-20 02:20N 22°57' E 113°36'8400.4
2017-Oct-20 02:19N 23°04' E 113°32'151.0
2017-Oct-20 02:18N 23°03' E 113°32'101620.5
2017-Oct-20 02:18N 22°54' E 113°35'666114133.1
2017-Oct-20 02:18N 31°37' E 121°18'661339806.0
2017-Oct-20 02:18N 23°00' E 113°35'4301.1
2017-Oct-20 02:17N 23°03' E 113°32'207115.4
2017-Oct-20 02:17N 22°44' E 113°27'26862.2
2017-Oct-20 02:15N 22°28' E 113°50'2239652.9
2017-Oct-20 02:15N 22°41' E 113°30'171099.5
2017-Oct-20 02:14N 22°57' E 113°38'661238001.3
2017-Oct-20 02:14N 31°23' E 121°37'6622383675.1
2017-Oct-20 02:14N 22°60' E 113°32'6494.9
2017-Oct-20 02:13N 23°05' E 113°29'111947.8
2017-Oct-20 02:12N 22°57' E 113°38'8470.3
2017-Oct-20 02:11N 23°02' E 113°31'65923047.3
2017-Oct-20 02:10N 31°24' E 121°31'101296.2
2017-Oct-20 02:09N 31°32' E 121°24'670804287.7
2017-Oct-20 02:09N 22°47' E 113°36'1404561610.4
2017-Oct-20 02:09N 01°27' E 103°45'1418121508.7
2017-Oct-20 02:08N 23°05' E 113°29'3210403.7
2017-Oct-20 02:08N 22°34' E 113°37'287690.4
2017-Oct-20 02:08N 23°01' E 113°31'3255.5
2017-Oct-20 02:07N 23°04' E 113°29'192665.4
2017-Oct-20 02:07N 22°47' E 113°21'13410.8
2017-Oct-20 02:05N 22°58' E 113°30'660103354.3
2017-Oct-20 02:04N 31°21' E 121°31'66892520.0
2017-Oct-20 02:04N 22°44' E 113°36'2338.9
2017-Oct-20 02:04N 22°46' E 113°38'12227.6
2017-Oct-20 02:01N 22°34' E 113°37'2484902.6
2017-Oct-20 02:00N 22°54' E 113°24'9861774554.6
2017-Oct-20 02:00N 37°44' E 121°36'3821376838.8
2017-Oct-20 02:00N 31°21' E 121°30'932596.9
2017-Oct-20 02:00N 31°21' E 121°41'725812.4
2017-Oct-20 02:00N 31°15' E 121°47'6622383351.2
2017-Oct-20 02:00N 22°57' E 113°37'42150601.6
2017-Oct-20 02:00N 22°34' E 114°15'246885084.4
2017-Oct-20 02:00N 24°18' E 118°18'460316572510.2
2017-Oct-20 02:00N 44°09' E 028°40'441915908123.8
2017-Oct-20 02:00N 22°54' E 113°15'61219117.4
2017-Oct-20 02:00N 22°34' E 114°18'6562362476.5
2017-Oct-20 02:00N 31°28' E 121°26'6721209506.3
2017-Oct-20 02:00N 22°54' E 113°20'672604886.0
2017-Oct-20 02:00N 31°25' E 121°30'78037.2
2017-Oct-20 02:00N 31°31' E 121°25'6671200881.0
2017-Oct-20 02:00N 22°51' E 113°34'1138430.8
2017-Oct-20 02:00N 23°01' E 113°31'60215237.8
2017-Oct-20 02:00N 22°41' E 114°32'246443045.9
2017-Oct-20 02:00N 21°11' E 110°25'201722457.3
2017-Oct-20 02:00N 22°54' E 113°31'44643.6
2017-Oct-20 02:00N 22°54' E 113°35'6711206955.6
2017-Oct-20 02:00N 31°21' E 121°47'383344852.9
2017-Oct-20 02:00N 37°43' E 121°06'376676468.8
2017-Oct-20 02:00N 31°28' E 121°28'6702413374.6
2017-Oct-20 02:00N 22°44' E 113°37'1554376.9
2017-Oct-20 02:00N 22°59' E 113°34'5628583.6
2017-Oct-20 02:00N 22°40' E 114°31'646465064.2
2017-Oct-20 02:00N 31°22' E 121°38'1527802.2
2017-Oct-20 02:00N 31°31' E 121°24'1712487.0
2017-Oct-20 01:59N 31°22' E 121°41'114858.8
2017-Oct-20 01:59N 31°31' E 121°36'1864943.7
2017-Oct-20 01:59N 31°18' E 121°50'20883758814.3
2017-Oct-20 01:59N 01°13' E 103°36'14291714957.4
2017-Oct-20 01:59N 22°56' E 113°36'933041.9
2017-Oct-20 01:59N 23°05' E 113°34'1017289.8
2017-Oct-20 01:59N 22°56' E 113°37'6622384067.7
2017-Oct-20 01:59N 31°20' E 121°39'2795900.4
2017-Oct-20 01:59N 31°37' E 121°15'6811225186.5
2017-Oct-20 01:59N 22°47' E 113°15'2112422.1
2017-Oct-20 01:59N 23°06' E 113°25'1426037.2
2017-Oct-20 01:59N 22°52' E 113°31'32420.5
2017-Oct-20 01:59N 22°52' E 113°35'67317.9
2017-Oct-20 01:59N 22°57' E 113°37'6591185479.4
2017-Oct-20 01:59N 31°25' E 121°29'829689.1
2017-Oct-20 01:59N 31°23' E 121°38'6662397205.1
2017-Oct-20 01:59N 22°58' E 113°30'6701205988.3
2017-Oct-20 01:59N 31°21' E 121°47'6732423175.7
2017-Oct-20 01:59N 22°52' E 113°33'6672400065.5
2017-Oct-20 01:59N 31°23' E 121°34'86086.1
2017-Oct-20 01:59N 31°29' E 121°27'6612380841.1
2017-Oct-20 01:59N 22°56' E 113°37'1110124.5
2017-Oct-20 01:59N 23°05' E 113°29'669601959.8
2017-Oct-20 01:59N 31°23' E 121°52'677811901.3
2017-Oct-20 01:58N 22°49' E 113°37'21408.9
2017-Oct-20 01:58N 22°47' E 113°36'96212.0
2017-Oct-20 01:58N 22°48' E 113°27'4072789.4
2017-Oct-20 01:58N 22°13' E 113°06'88318497.1
2017-Oct-20 01:58N 22°41' E 114°36'5869150.4
2017-Oct-20 01:58N 22°51' E 113°35'39894.8
2017-Oct-20 01:58N 22°53' E 113°35'670803699.1
2017-Oct-20 01:58N 31°36' E 121°27'61220789.6
2017-Oct-20 01:58N 30°52' E 122°17'58103850.5
2017-Oct-20 01:58N 31°29' E 121°25'59063.7
2017-Oct-20 01:58N 31°25' E 121°29'643578764.1
2017-Oct-20 01:58N 22°40' E 114°31'6982747.9
2017-Oct-20 01:58N 22°47' E 113°17'2176681.4
2017-Oct-20 01:58N 23°03' E 113°32'61218094.1
2017-Oct-20 01:58N 22°41' E 114°33'5565467.5
2017-Oct-20 01:58N 22°51' E 113°35'610809.7
2017-Oct-20 01:58N 22°55' E 113°30'5496485.1
2017-Oct-20 01:58N 22°36' E 114°24'63113862.1
2017-Oct-20 01:58N 22°47' E 113°17'680489541.7
2017-Oct-20 01:58N 31°25' E 121°32'1723.4
2017-Oct-20 01:58N 31°24' E 121°31'65849.1
2017-Oct-20 01:57N 31°22' E 121°38'196670.9
2017-Oct-20 01:57N 31°32' E 121°20'412711.3
2017-Oct-20 01:57N 31°32' E 121°24'724727.3
2017-Oct-20 01:57N 31°37' E 121°18'4987639.2
2017-Oct-20 01:57N 31°05' E 122°01'3319714.5
2017-Oct-20 01:57N 31°24' E 121°30'666399319.0
2017-Oct-20 01:57N 22°53' E 113°31'102944.5
2017-Oct-20 01:57N 22°44' E 113°36'179922.1
2017-Oct-20 01:57N 23°00' E 113°32'6611190172.5
2017-Oct-20 01:57N 31°23' E 121°35'669602099.8
2017-Oct-20 01:57N 23°03' E 113°15'2018354.6
2017-Oct-20 01:57N 22°55' E 113°36'813833.5
2017-Oct-20 01:57N 23°02' E 113°31'76190.2
2017-Oct-20 01:56N 22°57' E 113°36'4572.8
2017-Oct-20 01:56N 22°60' E 113°35'45056.6
2017-Oct-20 01:56N 23°03' E 113°32'54344.2
2017-Oct-20 01:56N 22°58' E 113°32'51019.1
2017-Oct-20 01:56N 22°56' E 113°37'663340807.4
2017-Oct-20 01:56N 31°24' E 121°35'7151287624.6
2017-Oct-20 01:56N 22°12' E 113°06'7151286348.8
2017-Oct-20 01:56N 31°22' E 121°36'3923376.7
2017-Oct-20 01:55N 30°55' E 122°09'65962440.2
2017-Oct-20 01:55N 23°04' E 113°32'1553025.5
2017-Oct-20 01:55N 22°49' E 113°34'105787.6
2017-Oct-20 01:55N 22°58' E 113°30'51715.2
2017-Oct-20 01:54N 22°55' E 113°26'101397.5
2017-Oct-20 01:54N 23°05' E 113°27'126299.5
2017-Oct-20 01:54N 22°57' E 113°38'1761224.1
2017-Oct-20 01:54N 22°42' E 113°30'8112701.5
2017-Oct-20 01:54N 22°33' E 114°57'6362289169.6
2017-Oct-20 01:54N 31°24' E 121°31'678305301.6
2017-Oct-20 01:53N 22°47' E 113°17'20870.5
2017-Oct-20 01:52N 23°02' E 113°31'1119.8
2017-Oct-20 01:52N 23°03' E 113°31'1416231738.0
2017-Oct-20 01:51N 01°27' E 103°45'1415391804.4
2017-Oct-20 01:51N 22°59' E 113°34'344222.8
2017-Oct-20 01:51N 22°28' E 113°50'321128.5
2017-Oct-20 01:49N 22°47' E 113°21'67660801.3
2017-Oct-20 01:48N 31°24' E 121°31'68131848.8
2017-Oct-20 01:47N 22°47' E 113°11'19281.1
2017-Oct-20 01:43N 22°54' E 113°31'172567.6
2017-Oct-20 01:43N 23°06' E 113°18'28563.2
2017-Oct-20 01:40N 22°46' E 113°38'670482721.5
2017-Oct-20 01:40N 31°09' E 121°55'67930943.9
2017-Oct-20 01:38N 22°47' E 113°21'67535201.3
2017-Oct-20 01:37N 31°23' E 121°30'5193.6
2017-Oct-20 01:36N 31°27' E 121°29'660791841.3
2017-Oct-20 01:36N 23°02' E 113°31'201412.3
2017-Oct-20 01:35N 22°45' E 113°40'17756.0
2017-Oct-20 01:33N 22°37' E 113°23'18871.1
2017-Oct-20 01:32N 22°54' E 113°31'471789.1
2017-Oct-20 01:31N 22°13' E 113°06'7152573916.4
2017-Oct-20 01:30N 31°08' E 121°56'2748539.9
2017-Oct-20 01:30N 31°24' E 121°31'310158.6
2017-Oct-20 01:30N 31°27' E 121°29'2280966.7
2017-Oct-20 01:30N 31°22' E 121°55'2589134.9
2017-Oct-20 01:30N 31°29' E 121°27'3751349874.2
2017-Oct-20 01:30N 37°44' E 121°38'423115233019.8
2017-Oct-20 01:30N 44°09' E 028°40'448416143206.2
2017-Oct-20 01:30N 31°17' E 121°44'34680.2
2017-Oct-20 01:30N 31°15' E 121°46'1760064.6
2017-Oct-20 01:30N 31°25' E 121°31'622424.1
2017-Oct-20 01:30N 31°23' E 121°37'4601655977.6
2017-Oct-20 01:30N 24°18' E 118°18'270971404.6
2017-Oct-20 01:30N 22°57' E 113°37'65456.9
2017-Oct-20 01:30N 22°52' E 113°33'6672400817.4
2017-Oct-20 01:30N 31°27' E 121°29'6691203575.5
2017-Oct-20 01:30N 22°55' E 113°26'98477.4
2017-Oct-20 01:30N 23°04' E 113°30'6632388282.9
2017-Oct-20 01:30N 31°23' E 121°40'6742428040.5
2017-Oct-20 01:30N 22°54' E 113°23'1139812.2
2017-Oct-20 01:30N 22°54' E 113°35'33424.6
2017-Oct-20 01:30N 22°56' E 113°33'35005.9
2017-Oct-20 01:30N 22°55' E 113°30'516487.6
2017-Oct-20 01:30N 22°54' E 113°35'661793252.0
2017-Oct-20 01:30N 31°21' E 121°32'6592370803.5
2017-Oct-20 01:30N 22°56' E 113°36'9681742023.4
2017-Oct-20 01:30N 37°43' E 121°06'9663476547.4
2017-Oct-20 01:30N 22°59' E 113°34'661297304.3
2017-Oct-20 01:30N 31°27' E 121°29'665797417.2
2017-Oct-20 01:30N 22°54' E 113°35'6721208833.2
2017-Oct-20 01:30N 31°31' E 121°36'1119435.2
2017-Oct-20 01:30N 31°22' E 121°41'20872504178.0
2017-Oct-20 01:30N 01°11' E 103°39'20872504042.8
2017-Oct-20 01:29N 31°23' E 121°38'6671200412.8
2017-Oct-20 01:29N 22°57' E 113°30'667799801.4
2017-Oct-20 01:29N 31°22' E 121°39'109150.8
2017-Oct-20 01:29N 31°18' E 121°50'672345633.5
2017-Oct-20 01:29N 22°51' E 113°35'610576.9
2017-Oct-20 01:29N 22°57' E 113°36'6780418.7
2017-Oct-20 01:29N 21°53' E 113°14'7261306544.7
2017-Oct-20 01:29N 31°16' E 121°46'6622383324.2
2017-Oct-20 01:29N 23°06' E 113°25'1417358.1
2017-Oct-20 01:29N 22°52' E 113°31'78282.5
2017-Oct-20 01:29N 22°56' E 113°37'65467.3
2017-Oct-20 01:29N 22°54' E 113°31'1119161.4
2017-Oct-20 01:29N 22°44' E 113°36'933103.5
2017-Oct-20 01:29N 22°53' E 113°33'6642390893.5
2017-Oct-20 01:29N 31°25' E 121°29'665598738.2
2017-Oct-20 01:29N 22°52' E 113°33'6672400082.5
2017-Oct-20 01:29N 31°23' E 121°34'6692407407.5
2017-Oct-20 01:29N 22°46' E 113°37'137603.7
2017-Oct-20 01:29N 22°58' E 113°33'51451.6
2017-Oct-20 01:28N 23°03' E 113°32'1345115.0
2017-Oct-20 01:28N 22°51' E 113°35'665399079.5
2017-Oct-20 01:28N 31°32' E 121°20'641577231.4
2017-Oct-20 01:28N 22°41' E 114°36'70125719.6
2017-Oct-20 01:28N 22°47' E 113°21'1412787.6
2017-Oct-20 01:28N 22°53' E 113°35'667800335.0
2017-Oct-20 01:28N 31°22' E 121°40'1425365.5
2017-Oct-20 01:28N 31°29' E 121°25'56042.5
2017-Oct-20 01:28N 31°25' E 121°29'643771685.5
2017-Oct-20 01:28N 22°40' E 114°31'58207979.8
2017-Oct-20 01:28N 22°54' E 113°31'1517410.9
2017-Oct-20 01:28N 22°47' E 113°17'71254218.1
2017-Oct-20 01:28N 22°41' E 114°33'61219970.7
2017-Oct-20 01:28N 23°03' E 113°31'5633637.8
2017-Oct-20 01:28N 22°36' E 114°24'63113862.1
2017-Oct-20 01:28N 22°47' E 113°17'9813532469.1
2017-Oct-20 01:28N 37°34' E 121°23'374336477.7
2017-Oct-20 01:28N 31°20' E 121°39'53192.2
2017-Oct-20 01:28N 31°24' E 121°35'645464534.4
2017-Oct-20 01:27N 22°41' E 114°31'644116004.9
2017-Oct-20 01:27N 31°18' E 121°43'6622384700.3
2017-Oct-20 01:27N 22°60' E 113°32'58104359.6
2017-Oct-20 01:27N 22°41' E 114°32'5323699.8
2017-Oct-20 01:27N 22°57' E 113°38'1138426.7
2017-Oct-20 01:27N 22°55' E 113°26'666799321.9
2017-Oct-20 01:27N 31°23' E 121°30'1012487.3
2017-Oct-20 01:27N 31°32' E 121°24'662794064.3
2017-Oct-20 01:27N 23°00' E 113°32'3642803.6
2017-Oct-20 01:27N 22°28' E 113°50'40143656.5
2017-Oct-20 01:27N 22°40' E 114°31'6441158555.0
2017-Oct-20 01:27N 31°24' E 121°31'661475826.0
2017-Oct-20 01:27N 22°58' E 113°33'412897.2
2017-Oct-20 01:27N 22°55' E 113°36'1214411.5
2017-Oct-20 01:27N 23°05' E 113°29'1113402.7
2017-Oct-20 01:26N 22°57' E 113°36'2010314.9
2017-Oct-20 01:26N 22°47' E 113°17'249681.1
2017-Oct-20 01:26N 23°05' E 113°34'656181747.5
2017-Oct-20 01:26N 31°41' E 121°12'667343220.3
2017-Oct-20 01:26N 22°52' E 113°35'86769.4
2017-Oct-20 01:26N 22°58' E 113°30'663477001.0
2017-Oct-20 01:26N 31°24' E 121°31'659474484.3
2017-Oct-20 01:26N 23°02' E 113°31'20290799.9
2017-Oct-20 01:26N 21°16' E 110°25'191114844.3
2017-Oct-20 01:25N 22°42' E 113°30'2321147.1
2017-Oct-20 01:25N 23°05' E 113°29'1821341.2
2017-Oct-20 01:25N 22°47' E 113°30'674485219.1
2017-Oct-20 01:25N 31°37' E 121°18'65951600.3
2017-Oct-20 01:24N 23°04' E 113°32'66488593.2
2017-Oct-20 01:24N 31°21' E 121°47'675121444.8
2017-Oct-20 01:24N 22°45' E 113°39'156145.0
2017-Oct-20 01:24N 23°00' E 113°35'223456.1
2017-Oct-20 01:23N 22°47' E 113°15'121278.4
2017-Oct-20 01:23N 22°44' E 113°28'68187616.7
2017-Oct-20 01:22N 31°36' E 121°27'68261386.5
2017-Oct-20 01:21N 22°43' E 113°28'17854.4
2017-Oct-20 01:20N 22°60' E 113°31'1511119.1
2017-Oct-20 01:20N 22°47' E 113°21'182935.8
2017-Oct-20 01:20N 22°60' E 113°35'25618.1
2017-Oct-20 01:17N 22°47' E 113°11'2529896.9
2017-Oct-20 01:17N 23°03' E 113°32'64932009.1
2017-Oct-20 01:16N 31°13' E 121°30'101987.3
2017-Oct-20 01:16N 31°24' E 121°31'668185048.5
2017-Oct-20 01:16N 22°46' E 113°38'164129.7
2017-Oct-20 01:15N 22°37' E 113°23'283971.6
2017-Oct-20 01:15N 23°03' E 113°32'98149044.9
2017-Oct-20 01:14N 37°54' E 121°29'98525318.1
2017-Oct-20 01:11N 22°57' E 113°37'123499.8
2017-Oct-20 01:11N 22°46' E 113°37'6688945.3
2017-Oct-20 01:07N 31°24' E 121°31'65823688.5
2017-Oct-20 01:05N 23°05' E 113°29'66639322.7
2017-Oct-20 01:04N 31°37' E 121°29'223971.0
2017-Oct-20 01:04N 31°15' E 121°32'9169.6
2017-Oct-20 01:01N 31°24' E 121°31'2485579.1
2017-Oct-20 01:01N 31°21' E 121°59'6722420268.1
2017-Oct-20 01:01N 23°03' E 113°31'618022246578.2
2017-Oct-20 01:00N 49°12' W 123°09'617011106755.4
2017-Oct-20 01:00N 22°34' E 114°15'43154016.5
2017-Oct-20 01:00N 22°54' E 113°34'47774.0
2017-Oct-20 01:00N 22°57' E 113°37'9793524216.8
2017-Oct-20 01:00N 37°44' E 121°38'372446469.1
2017-Oct-20 01:00N 31°31' E 121°36'726128.4
2017-Oct-20 01:00N 31°27' E 121°29'2073614.2
2017-Oct-20 01:00N 31°14' E 121°47'6622383436.6
2017-Oct-20 01:00N 23°01' E 113°31'6642392064.3
2017-Oct-20 01:00N 31°23' E 121°40'930794.5
2017-Oct-20 01:00N 31°23' E 121°30'6651197759.8
2017-Oct-20 01:00N 22°54' E 113°29'713232.8
2017-Oct-20 01:00N 22°54' E 113°21'6732421593.0
2017-Oct-20 01:00N 31°34' E 121°21'660792452.4
2017-Oct-20 01:00N 23°02' E 113°31'1656130.6
2017-Oct-20 01:00N 22°48' E 113°36'6691203732.0
2017-Oct-20 01:00N 31°27' E 121°29'6442319916.3
2017-Oct-20 01:00N 22°41' E 114°32'644579280.6
2017-Oct-20 01:00N 31°05' E 122°01'666299886.5
2017-Oct-20 01:00N 22°54' E 113°35'34715.5
2017-Oct-20 01:00N 22°56' E 113°36'518623.7
2017-Oct-20 01:00N 22°58' E 113°30'34870.8
2017-Oct-20 01:00N 22°55' E 113°30'931734.2
2017-Oct-20 01:00N 22°46' E 113°32'2487018.9
2017-Oct-20 01:00N 22°28' E 113°50'4071831.4
2017-Oct-20 01:00N 22°40' E 114°31'644772393.9
2017-Oct-20 01:00N 31°24' E 121°30'662595568.7
2017-Oct-20 01:00N 22°55' E 113°36'53060.2
2017-Oct-20 00:59N 23°00' E 113°35'661595349.4
2017-Oct-20 00:59N 31°23' E 121°38'1968340.3
2017-Oct-20 00:59N 31°33' E 121°19'668343742.2
2017-Oct-20 00:59N 22°46' E 113°37'6741213849.4
2017-Oct-20 00:59N 31°18' E 121°50'20881879473.2
2017-Oct-20 00:59N 01°09' E 103°43'14245128019.8
2017-Oct-20 00:59N 22°51' E 113°35'6662396237.4
2017-Oct-20 00:59N 31°24' E 121°31'76519.5
2017-Oct-20 00:59N 31°22' E 121°40'6642391235.0
2017-Oct-20 00:59N 22°57' E 113°36'71912.3
2017-Oct-20 00:59N 23°03' E 113°32'1036893.9
2017-Oct-20 00:59N 22°53' E 113°33'11149.1
2017-Oct-20 00:59N 22°52' E 113°33'6732423139.8
2017-Oct-20 00:59N 31°21' E 121°47'622599.6
2017-Oct-20 00:59N 31°23' E 121°40'671268466.7
2017-Oct-20 00:59N 22°52' E 113°31'197177390.4
2017-Oct-20 00:59N 21°16' E 110°25'200119921.4
2017-Oct-20 00:58N 22°51' E 113°35'21873.7
2017-Oct-20 00:58N 22°50' E 113°34'6702410298.2
2017-Oct-20 00:58N 31°37' E 121°18'6782442074.4
2017-Oct-20 00:58N 22°42' E 113°30'6771218423.5
2017-Oct-20 00:58N 31°25' E 121°32'660593589.8
2017-Oct-20 00:58N 22°60' E 113°35'60108159.8
2017-Oct-20 00:58N 22°41' E 114°36'5869735.1
2017-Oct-20 00:58N 22°53' E 113°35'6551179098.2
2017-Oct-20 00:58N 31°13' E 121°30'7042534309.3
2017-Oct-20 00:58N 22°13' E 113°06'713855642.4
2017-Oct-20 00:58N 31°29' E 121°25'645580210.9
2017-Oct-20 00:58N 22°40' E 114°31'643771685.5
2017-Oct-20 00:58N 31°25' E 121°29'641577035.0
2017-Oct-20 00:58N 22°41' E 114°33'6432314609.7
2017-Oct-20 00:58N 31°20' E 121°40'652469707.9
2017-Oct-20 00:58N 22°36' E 114°24'9681743160.4
2017-Oct-20 00:58N 37°34' E 121°23'9581724256.6
2017-Oct-20 00:58N 23°05' E 113°34'725338.9
2017-Oct-20 00:58N 22°58' E 113°33'6682403587.2
2017-Oct-20 00:58N 31°21' E 121°47'117876.9
2017-Oct-20 00:58N 31°24' E 121°35'672806410.3
2017-Oct-20 00:58N 22°44' E 113°36'152488.5
2017-Oct-20 00:57N 22°59' E 113°34'31375.3
2017-Oct-20 00:57N 22°57' E 113°36'6672402872.1
2017-Oct-20 00:57N 31°21' E 121°47'673302860.4
2017-Oct-20 00:57N 22°53' E 113°31'664796215.8
2017-Oct-20 00:57N 31°21' E 121°32'456205249.0
2017-Oct-20 00:57N 24°18' E 118°18'29261883.8
2017-Oct-20 00:56N 22°47' E 113°15'225972.0
2017-Oct-20 00:56N 22°56' E 113°37'96601.2
2017-Oct-20 00:56N 22°47' E 113°38'96723.1
2017-Oct-20 00:56N 22°54' E 113°31'41169.3
2017-Oct-20 00:56N 22°58' E 113°30'6622383265.0
2017-Oct-20 00:56N 31°25' E 121°29'1037734.9
2017-Oct-20 00:56N 31°22' E 121°40'81247.9
2017-Oct-20 00:55N 31°25' E 121°32'68055631.3
2017-Oct-20 00:55N 22°47' E 113°17'98375288.6
2017-Oct-20 00:54N 37°43' E 121°06'985253202.2
2017-Oct-20 00:54N 22°47' E 113°11'682116850.5
2017-Oct-20 00:53N 31°24' E 121°31'659169482.2
2017-Oct-20 00:53N 23°06' E 113°25'111359.1
2017-Oct-20 00:53N 22°58' E 113°33'81546.5
2017-Oct-20 00:52N 23°05' E 113°29'664217322.6
2017-Oct-20 00:52N 31°36' E 121°27'93558.9
2017-Oct-20 00:52N 31°27' E 121°29'6602376974.5
2017-Oct-20 00:52N 22°57' E 113°38'188128.8
2017-Oct-20 00:52N 22°47' E 113°21'42833.1
2017-Oct-20 00:52N 22°47' E 113°17'679174587.3
2017-Oct-20 00:51N 31°24' E 121°31'0102.7
2017-Oct-20 00:51N 31°24' E 121°31'65930052.6
2017-Oct-20 00:50N 23°02' E 113°31'0887.4
2017-Oct-20 00:50N 23°02' E 113°31'660339414.4
2017-Oct-20 00:50N 31°23' E 121°34'660264046.2
2017-Oct-20 00:50N 22°59' E 113°34'6538.4
2017-Oct-20 00:49N 22°54' E 113°31'66663056.5
2017-Oct-20 00:48N 31°31' E 121°23'171590.2
2017-Oct-20 00:48N 31°15' E 121°30'65238469.2
2017-Oct-20 00:47N 22°57' E 113°37'131458.6
2017-Oct-20 00:46N 22°44' E 113°34'184307.1
2017-Oct-20 00:46N 23°02' E 113°31'66433195.2
2017-Oct-20 00:45N 30°58' E 122°10'66328094.2
2017-Oct-20 00:43N 22°57' E 113°37'6371147106.7
2017-Oct-20 00:43N 31°17' E 121°01'40669516.2
2017-Oct-20 00:43N 38°02' E 121°29'100269364.6
2017-Oct-20 00:42N 22°47' E 113°36'73677.6
2017-Oct-20 00:42N 22°54' E 113°35'13518.3
2017-Oct-20 00:40N 23°05' E 113°29'211151.2
2017-Oct-20 00:39N 22°47' E 113°17'213247.5
2017-Oct-20 00:39N 23°06' E 113°27'5533.0
2017-Oct-20 00:38N 23°03' E 113°32'18621.2
2017-Oct-20 00:37N 22°46' E 113°38'18337.3
2017-Oct-20 00:33N 23°03' E 113°32'491083.2
2017-Oct-20 00:31N 22°34' E 114°15'39138763.3
2017-Oct-20 00:31N 22°48' E 113°36'618922281673.8
2017-Oct-20 00:30N 49°12' W 123°09'618822276883.3
2017-Oct-20 00:30N 22°54' E 113°31'726842.2
2017-Oct-20 00:30N 22°49' E 113°36'46164783.9
2017-Oct-20 00:30N 22°13' E 113°06'5395153.0
2017-Oct-20 00:30N 22°57' E 113°37'12794.1
2017-Oct-20 00:30N 22°58' E 113°37'443415962447.6
2017-Oct-20 00:30N 44°09' E 028°40'446716080845.2
2017-Oct-20 00:30N 31°26' E 121°29'6671200002.7
2017-Oct-20 00:30N 22°49' E 113°35'1138218.8
2017-Oct-20 00:30N 22°59' E 113°31'13875.5
2017-Oct-20 00:30N 22°58' E 113°30'828916.7
2017-Oct-20 00:30N 22°51' E 113°34'1244358.7
2017-Oct-20 00:30N 23°03' E 113°32'2176664.9
2017-Oct-20 00:30N 22°47' E 113°17'9833538834.9
2017-Oct-20 00:30N 37°43' E 121°06'9701746756.7
2017-Oct-20 00:30N 22°54' E 113°35'6632386501.0
2017-Oct-20 00:30N 31°32' E 121°20'1222352.6
2017-Oct-20 00:30N 31°25' E 121°32'13602.1
2017-Oct-20 00:30N 31°25' E 121°31'0715.4
2017-Oct-20 00:30N 31°26' E 121°31'1346981.7
2017-Oct-20 00:30N 31°18' E 121°43'6442319241.2
2017-Oct-20 00:30N 22°41' E 114°32'9753508989.4
2017-Oct-20 00:30N 37°44' E 121°36'3931416225.4
2017-Oct-20 00:30N 31°10' E 121°52'1110195.9
2017-Oct-20 00:30N 31°21' E 121°47'20872504999.4
2017-Oct-20 00:30N 01°10' E 103°47'20913763386.4
2017-Oct-20 00:30N 31°31' E 121°36'830491.4
2017-Oct-20 00:30N 31°24' E 121°31'6572365480.1
2017-Oct-20 00:30N 23°04' E 113°32'517633.2
2017-Oct-20 00:30N 22°59' E 113°34'6622381655.4
2017-Oct-20 00:30N 31°11' E 121°51'6512344829.1
2017-Oct-20 00:30N 22°36' E 114°24'655471508.1
2017-Oct-20 00:30N 31°37' E 121°18'6692407289.2
2017-Oct-20 00:30N 22°51' E 113°35'53190626.6
2017-Oct-20 00:30N 22°40' E 114°31'6441158590.8
2017-Oct-20 00:30N 31°24' E 121°30'662264697.2
2017-Oct-20 00:30N 22°55' E 113°36'668160421.7
2017-Oct-20 00:29N 31°18' E 121°50'672483883.7
2017-Oct-20 00:29N 22°51' E 113°35'66740.9
2017-Oct-20 00:29N 22°56' E 113°37'1760054.8
2017-Oct-20 00:29N 22°48' E 113°21'518657.6
2017-Oct-20 00:29N 22°47' E 113°15'1611316.0
2017-Oct-20 00:29N 22°54' E 113°31'54660.1
2017-Oct-20 00:29N 22°57' E 113°36'67390.2
2017-Oct-20 00:29N 22°52' E 113°31'22776.6
2017-Oct-20 00:29N 22°53' E 113°33'1412191.3
2017-Oct-20 00:29N 22°48' E 113°20'6802447649.5
2017-Oct-20 00:29N 31°22' E 121°40'6692409355.3
2017-Oct-20 00:29N 22°52' E 113°33'673605789.2
2017-Oct-20 00:29N 31°21' E 121°47'6742424653.1
2017-Oct-20 00:29N 22°49' E 113°36'20079966.7
2017-Oct-20 00:29N 21°16' E 110°25'199716265.6
2017-Oct-20 00:28N 22°51' E 113°34'1598.2
2017-Oct-20 00:28N 22°51' E 113°35'6652393442.7
2017-Oct-20 00:28N 31°25' E 121°29'675607668.1
2017-Oct-20 00:28N 22°42' E 113°30'1864965.3
2017-Oct-20 00:28N 22°60' E 113°31'11477.5
2017-Oct-20 00:28N 23°01' E 113°31'6476248.4
2017-Oct-20 00:28N 22°41' E 114°36'60108159.8
2017-Oct-20 00:28N 22°60' E 113°35'660791603.7
2017-Oct-20 00:28N 31°25' E 121°32'76531.0
2017-Oct-20 00:28N 31°29' E 121°25'645580210.9
2017-Oct-20 00:28N 22°40' E 114°31'6231121001.0
2017-Oct-20 00:28N 31°17' E 121°01'643578910.5
2017-Oct-20 00:28N 22°54' E 113°31'59213234.1
2017-Oct-20 00:28N 22°41' E 114°33'6431157313.4
2017-Oct-20 00:28N 31°20' E 121°40'652587139.1
2017-Oct-20 00:28N 22°36' E 114°24'9681743160.4
2017-Oct-20 00:28N 37°34' E 121°23'373335899.4
2017-Oct-20 00:28N 31°21' E 121°47'4621663013.8
2017-Oct-20 00:28N 24°18' E 118°19'275197746.7
2017-Oct-20 00:28N 23°02' E 113°31'6621191346.4
2017-Oct-20 00:28N 31°24' E 121°35'519153.0
2017-Oct-20 00:28N 31°20' E 121°39'661103492.3
2017-Oct-20 00:27N 22°59' E 113°34'988592855.9
2017-Oct-20 00:27N 37°59' E 121°28'9903563392.9
2017-Oct-20 00:27N 22°57' E 113°36'6631194090.2
2017-Oct-20 00:27N 31°23' E 121°38'661125166.6
2017-Oct-20 00:27N 23°03' E 113°32'1968931.1
2017-Oct-20 00:27N 22°44' E 113°34'2211435.1
2017-Oct-20 00:27N 23°06' E 113°27'2200.1
2017-Oct-20 00:26N 23°06' E 113°25'659107769.3
2017-Oct-20 00:26N 31°25' E 121°29'681163470.0
2017-Oct-20 00:25N 22°47' E 113°11'2631002.6
2017-Oct-20 00:25N 22°57' E 113°37'65987875.8
2017-Oct-20 00:25N 31°24' E 121°31'660132040.9
2017-Oct-20 00:25N 22°58' E 113°33'134830.4
2017-Oct-20 00:24N 22°46' E 113°38'11813.8
2017-Oct-20 00:24N 22°56' E 113°37'11992.1
2017-Oct-20 00:24N 22°56' E 113°36'3221.5
2017-Oct-20 00:23N 22°58' E 113°33'31268.5
2017-Oct-20 00:23N 22°58' E 113°30'141518.5
2017-Oct-20 00:22N 22°44' E 113°34'218537.7
2017-Oct-20 00:22N 23°02' E 113°22'121928.7
2017-Oct-20 00:22N 23°05' E 113°34'7426528.6
2017-Oct-20 00:22N 21°55' E 113°12'72617308.5
2017-Oct-20 00:19N 31°37' E 121°18'661475692.7
2017-Oct-20 00:19N 23°04' E 113°29'204583.6
2017-Oct-20 00:19N 22°47' E 113°17'201098.6
2017-Oct-20 00:18N 23°02' E 113°31'1112.2
2017-Oct-20 00:17N 23°02' E 113°31'233129.2
2017-Oct-20 00:17N 22°54' E 113°07'67953130.6
2017-Oct-20 00:16N 31°25' E 121°31'658131645.2
2017-Oct-20 00:16N 23°05' E 113°29'7360.6
2017-Oct-20 00:14N 23°00' E 113°35'10700.7
2017-Oct-20 00:14N 22°55' E 113°26'241139.9
2017-Oct-20 00:12N 22°34' E 113°37'25659.7
2017-Oct-20 00:10N 22°58' E 113°30'65511495.2
2017-Oct-20 00:07N 31°14' E 121°30'37328576.5
2017-Oct-20 00:06N 37°27' E 121°34'97319559.0
2017-Oct-20 00:03N 22°47' E 113°36'671127134.1
2017-Oct-20 00:03N 30°55' E 122°12'68027813.4
2017-Oct-20 00:01N 22°47' E 113°21'67760887.7
2017-Oct-20 00:01N 31°28' E 121°27'3761354396.9
2017-Oct-20 00:01N 37°44' E 121°35'3831378612.9
2017-Oct-20 00:00N 31°21' E 121°48'1934499.7
2017-Oct-20 00:00N 31°28' E 121°27'6792443757.7
2017-Oct-20 00:00N 22°47' E 113°17'6561181553.6
2017-Oct-20 00:00N 31°17' E 121°01'6432314822.9
2017-Oct-20 00:00N 22°55' E 113°30'443015948586.7
2017-Oct-20 00:00N 44°09' E 028°40'450216207676.3
2017-Oct-20 00:00N 31°07' E 121°58'7152575182.7
2017-Oct-20 00:00N 22°13' E 113°06'7132565551.1
2017-Oct-20 00:00N 31°26' E 121°29'6662397344.3
2017-Oct-20 00:00N 22°51' E 113°35'620612.0
2017-Oct-20 00:00N 22°55' E 113°30'6652394212.7
2017-Oct-20 00:00N 31°31' E 121°23'6642389127.2
2017-Oct-20 00:00N 22°53' E 113°35'1864237.7
2017-Oct-20 00:00N 22°47' E 113°17'14095071861.1
2017-Oct-20 00:00N 01°12' E 103°51'20793741552.1
2017-Oct-20 00:00N 31°24' E 121°31'412712.5
2017-Oct-20 00:00N 31°21' E 121°32'538719393473.6
2017-Oct-20 00:00N 49°12' W 123°09'620122323597.1
2017-Oct-20 00:00N 22°50' E 113°18'1759400.5
2017-Oct-20 00:00N 22°55' E 113°36'6642390902.7
2017-Oct-20 00:00N 31°18' E 121°43'621545.9
2017-Oct-20 00:00N 31°23' E 121°40'1923013.7
2017-Oct-20 00:00N 31°09' E 121°55'2530407.6
2017-Oct-20 00:00N 31°24' E 121°31'6681201859.5
2017-Oct-20 00:00N 22°47' E 113°36'4620593.7
2017-Oct-20 00:00N 22°36' E 114°24'4988187.6
2017-Oct-20 00:00N 22°54' E 113°35'667800165.0
2017-Oct-20 00:00N 31°40' E 121°16'675404870.9
2017-Oct-20 00:00N 22°44' E 113°34'2023406.6
2017-Oct-20 00:00N 23°04' E 113°32'5942727.1
2017-Oct-20 00:00N 22°41' E 114°31'56200115.0
2017-Oct-19 23:59N 23°00' E 113°35'6772435803.9
2017-Oct-19 23:59N 31°21' E 122°06'678813661.4
2017-Oct-19 23:59N 23°02' E 113°31'74810.0
2017-Oct-19 23:59N 23°05' E 113°25'76399.6
2017-Oct-19 23:59N 23°03' E 113°32'6642390512.8
2017-Oct-19 23:59N 31°18' E 121°50'6461162474.9
2017-Oct-19 23:59N 22°41' E 114°36'518948.4
2017-Oct-19 23:59N 22°40' E 114°31'5394502.9
2017-Oct-19 23:59N 22°51' E 113°35'63609.5
2017-Oct-19 23:59N 22°57' E 113°36'2277457.2
2017-Oct-19 23:59N 22°47' E 113°15'293351370.5
2017-Oct-19 23:59N 24°18' E 118°19'238858586.1
2017-Oct-19 23:59N 22°35' E 114°24'5089113.2
2017-Oct-19 23:59N 22°56' E 113°36'85906.5
2017-Oct-19 23:59N 22°48' E 113°37'6702411530.7
2017-Oct-19 23:59N 31°22' E 121°40'828061.1
2017-Oct-19 23:59N 31°25' E 121°32'6452321298.9
2017-Oct-19 23:59N 22°40' E 114°31'5464395.9
2017-Oct-19 23:59N 22°52' E 113°35'34036.5
2017-Oct-19 23:59N 22°52' E 113°31'6682403359.7
2017-Oct-19 23:59N 31°23' E 121°34'4250068.2
2017-Oct-19 23:59N 30°56' E 122°11'3358713.5
2017-Oct-19 23:59N 31°21' E 121°47'1759660.9
2017-Oct-19 23:59N 31°25' E 121°29'641192335.8
2017-Oct-19 23:58N 22°41' E 114°33'55196402.5
2017-Oct-19 23:58N 22°51' E 113°35'21279.5
2017-Oct-19 23:58N 22°49' E 113°37'666342362.9
2017-Oct-19 23:58N 31°32' E 121°20'2024537.1
2017-Oct-19 23:58N 31°20' E 121°39'1513566.4
2017-Oct-19 23:58N 31°29' E 121°25'659474173.9
2017-Oct-19 23:58N 23°03' E 113°31'657591665.9
2017-Oct-19 23:58N 31°25' E 121°29'310708.5
2017-Oct-19 23:58N 31°25' E 121°32'6672399458.9
2017-Oct-19 23:58N 22°54' E 113°31'5331821.2
2017-Oct-19 23:58N 22°36' E 114°24'9681743160.4
2017-Oct-19 23:58N 37°34' E 121°23'357642467.6
2017-Oct-19 23:58N 31°37' E 121°18'6812451799.8
2017-Oct-19 23:58N 22°47' E 113°17'1968324.3
2017-Oct-19 23:58N 22°58' E 113°33'2529817.1
2017-Oct-19 23:58N 22°34' E 113°37'135758.8
2017-Oct-19 23:57N 22°47' E 113°38'174493.5
2017-Oct-19 23:57N 23°03' E 113°32'32756.7
2017-Oct-19 23:57N 23°05' E 113°34'2421810.7
2017-Oct-19 23:57N 22°47' E 113°17'209190.6
2017-Oct-19 23:57N 22°56' E 113°37'668185079.6
2017-Oct-19 23:57N 31°31' E 121°36'1863035.9
2017-Oct-19 23:57N 31°15' E 121°30'6601188658.8
2017-Oct-19 23:57N 22°47' E 113°36'668801529.7
2017-Oct-19 23:57N 31°24' E 121°30'1981.7
2017-Oct-19 23:57N 31°24' E 121°31'82509.3
2017-Oct-19 23:56N 31°22' E 121°40'672201529.6
2017-Oct-19 23:56N 22°44' E 113°40'135745.2
2017-Oct-19 23:56N 22°56' E 113°37'1450717.2
2017-Oct-19 23:56N 23°06' E 113°25'133357.2
2017-Oct-19 23:56N 22°57' E 113°36'54576.3
2017-Oct-19 23:56N 22°56' E 113°30'58796.8
2017-Oct-19 23:56N 22°52' E 113°33'82296.5
2017-Oct-19 23:56N 22°59' E 113°34'181562.0
2017-Oct-19 23:55N 22°42' E 113°30'2112802.9
2017-Oct-19 23:55N 23°03' E 113°32'98295592.2
2017-Oct-19 23:54N 37°53' E 121°34'99576207.1
2017-Oct-19 23:53N 22°47' E 113°37'20014118.3
2017-Oct-19 23:52N 21°16' E 110°25'20138063.2
2017-Oct-19 23:52N 23°06' E 113°27'232712.6
2017-Oct-19 23:52N 22°45' E 113°39'1357.1
2017-Oct-19 23:51N 22°46' E 113°38'66334567.8
2017-Oct-19 23:50N 31°15' E 121°33'67136587.2
2017-Oct-19 23:49N 22°47' E 113°21'668601203.8
2017-Oct-19 23:49N 31°13' E 121°30'111130.4
2017-Oct-19 23:49N 31°24' E 121°35'66195229.7
2017-Oct-19 23:48N 22°59' E 113°34'108810.6
2017-Oct-19 23:48N 23°02' E 113°24'74277.9
2017-Oct-19 23:48N 23°03' E 113°32'1113.3
2017-Oct-19 23:47N 23°02' E 113°31'602509.7
2017-Oct-19 23:46N 22°41' E 114°32'532730.0
2017-Oct-19 23:45N 22°57' E 113°37'7259.9
2017-Oct-19 23:43N 22°58' E 113°30'6140.8
2017-Oct-19 23:41N 22°53' E 113°33'21912.2
2017-Oct-19 23:39N 22°47' E 113°11'242776.7
2017-Oct-19 23:39N 23°05' E 113°29'171555.8
2017-Oct-19 23:38N 22°51' E 113°18'18242.1
2017-Oct-19 23:34N 22°60' E 113°35'541180.1
2017-Oct-19 23:31N 22°13' E 113°07'527550.0
2017-Oct-19 23:31N 22°57' E 113°37'663149135.3
2017-Oct-19 23:31N 31°04' E 122°02'537819361623.1
2017-Oct-19 23:31N 49°12' W 123°09'617122215343.1
2017-Oct-19 23:30N 22°34' E 114°15'248892348.7
2017-Oct-19 23:30N 24°19' E 118°20'276992213.0
2017-Oct-19 23:30N 23°03' E 113°30'1139389.4
2017-Oct-19 23:30N 22°52' E 113°33'611122.2
2017-Oct-19 23:30N 22°57' E 113°37'9713494251.2
2017-Oct-19 23:30N 37°46' E 121°09'405728658.5
2017-Oct-19 23:30N 31°04' E 122°03'6632387498.3
2017-Oct-19 23:30N 23°06' E 113°26'56101346.7
2017-Oct-19 23:30N 22°13' E 113°06'47167614.1
2017-Oct-19 23:30N 22°54' E 113°30'6692408742.8
2017-Oct-19 23:30N 31°08' E 121°56'6692406803.4
2017-Oct-19 23:30N 22°53' E 113°31'25890.3
2017-Oct-19 23:30N 22°55' E 113°30'1426068.7
2017-Oct-19 23:30N 22°47' E 113°17'3664041.7
2017-Oct-19 23:30N 22°13' E 113°07'4886585.7
2017-Oct-19 23:30N 22°54' E 113°34'6662397740.3
2017-Oct-19 23:30N 31°18' E 121°43'1243138.9
2017-Oct-19 23:30N 31°24' E 121°31'6662397029.7
2017-Oct-19 23:30N 22°52' E 113°32'518256.3
2017-Oct-19 23:30N 22°57' E 113°32'6631193702.2
2017-Oct-19 23:30N 31°25' E 121°32'6672401180.3
2017-Oct-19 23:30N 22°53' E 113°31'1241973.0
2017-Oct-19 23:30N 23°03' E 113°25'2023438.0
2017-Oct-19 23:30N 22°47' E 113°36'6711208363.1
2017-Oct-19 23:30N 31°23' E 121°38'663477390.0
2017-Oct-19 23:30N 23°00' E 113°32'54195122.7
2017-Oct-19 23:30N 22°36' E 114°24'652586900.8
2017-Oct-19 23:30N 31°20' E 121°39'666798905.0
2017-Oct-19 23:30N 22°54' E 113°34'1311986.5
2017-Oct-19 23:30N 22°49' E 113°20'1614447.1
2017-Oct-19 23:30N 22°56' E 113°36'11018.3
2017-Oct-19 23:29N 22°55' E 113°36'980881983.0
2017-Oct-19 23:29N 37°44' E 121°33'9811177545.0
2017-Oct-19 23:29N 22°54' E 113°35'670803730.5
2017-Oct-19 23:29N 31°18' E 121°50'6661198483.1
2017-Oct-19 23:29N 22°57' E 113°37'6601187496.5
2017-Oct-19 23:29N 31°28' E 121°26'6442318397.9
2017-Oct-19 23:29N 22°41' E 114°31'5347669.9
2017-Oct-19 23:29N 22°51' E 113°35'1712532.7
2017-Oct-19 23:29N 23°06' E 113°25'1450717.2
2017-Oct-19 23:29N 22°56' E 113°37'5741265.2
2017-Oct-19 23:29N 22°41' E 114°36'59473.8
2017-Oct-19 23:29N 22°40' E 114°31'1430571836.7
2017-Oct-19 23:29N 01°14' E 103°54'14225119406.4
2017-Oct-19 23:29N 22°56' E 113°37'519060.8
2017-Oct-19 23:29N 22°52' E 113°35'12400.2
2017-Oct-19 23:29N 22°52' E 113°33'6692409372.2
2017-Oct-19 23:29N 31°22' E 121°40'62488.1
2017-Oct-19 23:29N 31°21' E 121°47'6671199847.0
2017-Oct-19 23:29N 22°59' E 113°34'827938.2
2017-Oct-19 23:29N 22°52' E 113°31'6661199065.1
2017-Oct-19 23:28N 31°25' E 121°29'3541893.5
2017-Oct-19 23:28N 31°21' E 122°09'685822053.3
2017-Oct-19 23:28N 22°51' E 113°35'668480937.4
2017-Oct-19 23:28N 31°37' E 121°18'6691203394.9
2017-Oct-19 23:28N 22°49' E 113°37'915518.0
2017-Oct-19 23:28N 22°42' E 113°42'4834356.3
2017-Oct-19 23:28N 22°41' E 114°33'60217570.2
2017-Oct-19 23:28N 22°58' E 113°30'667599967.6
2017-Oct-19 23:28N 31°22' E 121°40'47768.2
2017-Oct-19 23:28N 31°24' E 121°35'1510982.1
2017-Oct-19 23:28N 31°32' E 121°20'6582368860.4
2017-Oct-19 23:28N 22°60' E 113°35'107234.4
2017-Oct-19 23:28N 22°50' E 113°35'5395503.4
2017-Oct-19 23:28N 22°41' E 114°32'6431156515.9
2017-Oct-19 23:28N 31°25' E 121°29'6652392762.1
2017-Oct-19 23:28N 22°54' E 113°31'9701163441.8
2017-Oct-19 23:28N 37°34' E 121°23'373268719.5
2017-Oct-19 23:28N 31°21' E 121°47'1448999.6
2017-Oct-19 23:28N 31°25' E 121°32'15128.0
2017-Oct-19 23:28N 31°24' E 121°31'76441.3
2017-Oct-19 23:28N 31°29' E 121°25'676221381.7
2017-Oct-19 23:27N 22°42' E 113°30'103692.4
2017-Oct-19 23:27N 22°34' E 113°37'33118969.3
2017-Oct-19 23:27N 23°06' E 113°27'96476.5
2017-Oct-19 23:27N 22°59' E 113°34'2014477.7
2017-Oct-19 23:27N 22°47' E 113°17'219419.6
2017-Oct-19 23:27N 23°05' E 113°29'89033.5
2017-Oct-19 23:27N 22°59' E 113°34'65018.3
2017-Oct-19 23:27N 22°54' E 113°35'61349.6
2017-Oct-19 23:26N 23°00' E 113°35'227947.8
2017-Oct-19 23:26N 22°47' E 113°15'2313512.6
2017-Oct-19 23:26N 23°04' E 113°32'85873.0
2017-Oct-19 23:26N 22°57' E 113°36'2589653.2
2017-Oct-19 23:26N 22°47' E 113°11'689275437.9
2017-Oct-19 23:26N 31°20' E 121°48'683153663.0
2017-Oct-19 23:26N 22°54' E 113°12'7438220.2
2017-Oct-19 23:26N 22°40' E 114°31'4987642.8
2017-Oct-19 23:26N 22°46' E 113°39'201240959.3
2017-Oct-19 23:25N 21°16' E 110°25'19965228.3
2017-Oct-19 23:25N 22°58' E 113°30'66464557.9
2017-Oct-19 23:25N 31°23' E 121°34'389879.4
2017-Oct-19 23:24N 30°59' E 122°10'6721210331.6
2017-Oct-19 23:24N 22°46' E 113°38'185510.3
2017-Oct-19 23:24N 23°03' E 113°32'65769594.5
2017-Oct-19 23:24N 31°24' E 121°30'636208060.1
2017-Oct-19 23:23N 22°33' E 114°59'7813997.8
2017-Oct-19 23:23N 22°48' E 113°36'2138380.0
2017-Oct-19 23:23N 22°46' E 113°13'2590206.2
2017-Oct-19 23:23N 22°57' E 113°37'2239.9
2017-Oct-19 23:23N 22°57' E 113°36'8813.0
2017-Oct-19 23:22N 22°55' E 113°27'6582369766.0
2017-Oct-19 23:22N 31°13' E 121°30'642110080.8
2017-Oct-19 23:22N 22°36' E 114°24'65232154.6
2017-Oct-19 23:21N 31°07' E 121°58'67936491.3
2017-Oct-19 23:19N 22°50' E 113°19'67657928.5
2017-Oct-19 23:19N 31°25' E 121°30'6274413.0
2017-Oct-19 23:19N 31°57' E 120°27'653180892.3
2017-Oct-19 23:18N 22°58' E 113°32'64046993.0
2017-Oct-19 23:18N 31°17' E 121°01'63835337.4
2017-Oct-19 23:17N 22°60' E 113°32'3223.1
2017-Oct-19 23:16N 23°02' E 113°31'208991.8
2017-Oct-19 23:16N 22°47' E 113°17'531507.1
2017-Oct-19 23:14N 21°54' E 113°12'723260448.8
2017-Oct-19 23:13N 31°31' E 121°22'65943910.8
2017-Oct-19 23:12N 22°58' E 113°37'66174353.6
2017-Oct-19 23:12N 31°41' E 121°12'65955191.7
2017-Oct-19 23:11N 23°03' E 113°32'253.4
2017-Oct-19 23:09N 23°02' E 113°31'25888.0
2017-Oct-19 23:07N 22°39' E 113°41'6716885.7
2017-Oct-19 23:01N 31°24' E 121°31'676143171.3
2017-Oct-19 23:01N 22°47' E 113°21'6201531539.0
2017-Oct-19 23:01N 49°12' W 123°09'620122322910.1
2017-Oct-19 23:00N 22°54' E 113°14'1553513.6
2017-Oct-19 23:00N 23°04' E 113°26'1036387.1
2017-Oct-19 23:00N 22°57' E 113°33'915808.9
2017-Oct-19 23:00N 22°48' E 113°35'932424.1
2017-Oct-19 23:00N 22°57' E 113°37'9773518202.2
2017-Oct-19 23:00N 37°44' E 121°33'3791365209.4
2017-Oct-19 23:00N 31°25' E 121°32'6672399649.6
2017-Oct-19 23:00N 22°52' E 113°32'43586.3
2017-Oct-19 23:00N 22°56' E 113°33'58941.9
2017-Oct-19 23:00N 22°54' E 113°28'915307.6
2017-Oct-19 23:00N 22°60' E 113°35'2175216.0
2017-Oct-19 23:00N 22°47' E 113°17'36129160.1
2017-Oct-19 23:00N 22°13' E 113°06'7122564913.1
2017-Oct-19 23:00N 31°32' E 121°21'662794724.4
2017-Oct-19 23:00N 22°57' E 113°33'6652392342.5
2017-Oct-19 23:00N 31°18' E 121°43'6642390952.2
2017-Oct-19 23:00N 22°55' E 113°36'6651196572.1
2017-Oct-19 23:00N 31°08' E 121°57'662794628.1
2017-Oct-19 23:00N 23°06' E 113°26'2125321.2
2017-Oct-19 23:00N 22°47' E 113°36'4620590.5
2017-Oct-19 23:00N 22°36' E 114°24'52187178.1
2017-Oct-19 23:00N 22°59' E 113°34'6591185873.7
2017-Oct-19 23:00N 31°25' E 121°29'6611190376.1
2017-Oct-19 23:00N 22°55' E 113°36'12518.7
2017-Oct-19 23:00N 22°54' E 113°35'1527300.6
2017-Oct-19 23:00N 23°05' E 113°23'1730969.4
2017-Oct-19 23:00N 22°51' E 113°34'623024.6
2017-Oct-19 23:00N 22°44' E 113°34'1656851.6
2017-Oct-19 23:00N 22°47' E 113°17'148533.8
2017-Oct-19 23:00N 22°53' E 113°31'813691.9
2017-Oct-19 22:59N 23°00' E 113°35'662793851.7
2017-Oct-19 22:59N 31°23' E 121°38'6641195148.5
2017-Oct-19 22:59N 22°56' E 113°36'22927.1
2017-Oct-19 22:59N 22°57' E 113°37'659474553.2
2017-Oct-19 22:59N 31°24' E 121°31'657788600.4
2017-Oct-19 22:59N 23°03' E 113°32'664796837.6
2017-Oct-19 22:59N 31°18' E 121°50'667799884.5
2017-Oct-19 22:59N 22°56' E 113°37'1425096.0
2017-Oct-19 22:59N 23°06' E 113°25'1450717.2
2017-Oct-19 22:59N 22°56' E 113°37'830073.8
2017-Oct-19 22:59N 23°02' E 113°31'260934921.9
2017-Oct-19 22:59N 24°12' E 118°04'278999336.5
2017-Oct-19 22:59N 22°47' E 113°15'1425844.6
2017-Oct-19 22:59N 22°54' E 113°29'82294640.8
2017-Oct-19 22:59N 22°33' E 114°55'82296097.7
2017-Oct-19 22:59N 22°54' E 113°29'1012241.1
2017-Oct-19 22:59N 23°04' E 113°32'1018005.7
2017-Oct-19 22:59N 22°54' E 113°31'1417147.2
2017-Oct-19 22:59N 22°47' E 113°17'1719942.4
2017-Oct-19 22:59N 22°52' E 113°35'14600.2
2017-Oct-19 22:59N 22°52' E 113°33'6692409264.5
2017-Oct-19 22:59N 31°22' E 121°40'6471163842.3
2017-Oct-19 22:59N 22°40' E 114°31'5935630.4
2017-Oct-19 22:59N 23°02' E 113°31'6671200536.8
2017-Oct-19 22:59N 31°21' E 121°47'6752429836.0
2017-Oct-19 22:59N 22°55' E 113°26'931538.9
2017-Oct-19 22:59N 22°59' E 113°34'657788527.1
2017-Oct-19 22:58N 31°21' E 121°32'59478.4
2017-Oct-19 22:58N 31°25' E 121°29'665598330.4
2017-Oct-19 22:58N 22°51' E 113°35'1517658.0
2017-Oct-19 22:58N 22°36' E 113°36'51185385.6
2017-Oct-19 22:58N 22°40' E 114°31'50179756.4
2017-Oct-19 22:58N 22°46' E 113°38'660215933.0
2017-Oct-19 22:58N 31°13' E 121°30'633175217.3
2017-Oct-19 22:58N 22°41' E 114°33'104005.5
2017-Oct-19 22:58N 22°36' E 114°24'9681743160.4
2017-Oct-19 22:58N 37°34' E 121°23'9651737612.6
2017-Oct-19 22:58N 22°57' E 113°36'6671201317.0
2017-Oct-19 22:58N 31°21' E 121°47'2175344.2
2017-Oct-19 22:58N 31°20' E 122°12'662794053.5
2017-Oct-19 22:58N 22°41' E 114°32'644386476.7
2017-Oct-19 22:57N 31°25' E 121°32'679814697.8
2017-Oct-19 22:57N 22°34' E 113°37'679349422.4
2017-Oct-19 22:57N 31°20' E 121°39'661158635.0
2017-Oct-19 22:57N 22°59' E 113°34'1422731073.2
2017-Oct-19 22:57N 01°15' E 103°57'20733731116.1
2017-Oct-19 22:57N 31°24' E 121°32'660593975.5
2017-Oct-19 22:57N 23°00' E 113°32'663125635.3
2017-Oct-19 22:57N 31°05' E 122°00'673173054.9
2017-Oct-19 22:56N 22°40' E 113°41'672241878.2
2017-Oct-19 22:56N 31°25' E 121°32'1646.2
2017-Oct-19 22:56N 31°24' E 121°31'3510.5
2017-Oct-19 22:56N 31°23' E 121°34'660396031.9
2017-Oct-19 22:56N 23°02' E 113°31'202181649.9
2017-Oct-19 22:56N 21°16' E 110°25'19951250.8
2017-Oct-19 22:55N 22°58' E 113°30'1119552.8
2017-Oct-19 22:55N 22°49' E 113°37'668801808.0
2017-Oct-19 22:55N 31°24' E 121°35'1917371.8
2017-Oct-19 22:55N 31°37' E 121°18'68187569.8
2017-Oct-19 22:55N 22°47' E 113°17'67887209.8
2017-Oct-19 22:54N 31°32' E 121°20'658197422.4
2017-Oct-19 22:54N 23°02' E 113°32'275329860.1
2017-Oct-19 22:54N 24°19' E 118°20'29721836.3
2017-Oct-19 22:53N 22°47' E 113°11'1120432.3
2017-Oct-19 22:53N 22°45' E 113°23'68133119.7
2017-Oct-19 22:52N 31°01' E 122°06'4010242.2
2017-Oct-19 22:52N 31°31' E 121°36'679116389.9
2017-Oct-19 22:51N 22°39' E 113°43'670219412.0
2017-Oct-19 22:51N 31°24' E 121°30'66032104.4
2017-Oct-19 22:50N 22°60' E 113°32'161491.6
2017-Oct-19 22:49N 22°47' E 113°21'2267.2
2017-Oct-19 22:49N 22°48' E 113°19'67253773.3
2017-Oct-19 22:48N 31°16' E 121°33'659148182.2
2017-Oct-19 22:48N 22°54' E 113°35'6219.3
2017-Oct-19 22:46N 22°58' E 113°30'655785551.5
2017-Oct-19 22:46N 31°14' E 121°30'68211860.7
2017-Oct-19 22:43N 22°41' E 113°06'365426.2
2017-Oct-19 22:42N 23°05' E 113°34'5103.5
2017-Oct-19 22:39N 23°02' E 113°31'253370.2
2017-Oct-19 22:39N 22°44' E 113°11'683189067.2
2017-Oct-19 22:39N 31°20' E 121°34'39330739.3
2017-Oct-19 22:38N 37°52' E 121°39'40739646.2
2017-Oct-19 22:37N 31°05' E 121°59'255196.3
2017-Oct-19 22:37N 31°15' E 121°33'65644529.9
2017-Oct-19 22:36N 22°58' E 113°33'61190.8
2017-Oct-19 22:36N 22°59' E 113°39'81009.6
2017-Oct-19 22:35N 23°02' E 113°31'164455.1
2017-Oct-19 22:35N 22°47' E 113°36'211374.8
2017-Oct-19 22:34N 23°06' E 113°27'65913246.9
2017-Oct-19 22:31N 31°30' E 121°23'66158041.5
2017-Oct-19 22:31N 22°59' E 113°33'442915945980.2
2017-Oct-19 22:31N 44°09' E 028°40'625722525881.2
2017-Oct-19 22:31N 49°12' W 123°09'538319379957.0
2017-Oct-19 22:30N 31°25' E 121°32'6681203127.4
2017-Oct-19 22:30N 22°43' E 113°43'31110824.8
2017-Oct-19 22:30N 22°34' E 114°15'9811765592.3
2017-Oct-19 22:30N 37°48' E 121°07'385693596.1
2017-Oct-19 22:30N 31°23' E 121°40'6472329988.9
2017-Oct-19 22:30N 22°41' E 114°32'6442318086.4
2017-Oct-19 22:30N 31°06' E 121°60'7292625540.9
2017-Oct-19 22:30N 21°50' E 113°11'10473768384.7
2017-Oct-19 22:30N 37°43' E 121°31'399478617.1
2017-Oct-19 22:30N 31°05' E 122°00'662595899.6
2017-Oct-19 22:30N 23°06' E 113°27'1345375.4
2017-Oct-19 22:30N 22°57' E 113°37'44554.6
2017-Oct-19 22:30N 22°58' E 113°33'413244.1
2017-Oct-19 22:30N 22°57' E 113°37'6642388619.0
2017-Oct-19 22:30N 31°22' E 121°40'6662395837.9
2017-Oct-19 22:30N 22°55' E 113°36'516681.2
2017-Oct-19 22:30N 22°59' E 113°34'621480.0
2017-Oct-19 22:30N 22°55' E 113°30'667800759.4
2017-Oct-19 22:30N 31°24' E 121°35'4682551.1
2017-Oct-19 22:30N 30°48' E 122°08'4452303.6
2017-Oct-19 22:30N 31°23' E 121°38'6671199935.2
2017-Oct-19 22:30N 22°54' E 113°34'5060559.2
2017-Oct-19 22:30N 22°36' E 114°24'5293589.0
2017-Oct-19 22:30N 22°59' E 113°34'667800052.0
2017-Oct-19 22:30N 31°21' E 121°47'666799787.2
2017-Oct-19 22:30N 22°57' E 113°37'6592372749.4
2017-Oct-19 22:30N 31°24' E 121°30'671805046.3
2017-Oct-19 22:30N 22°44' E 113°34'2138291.5
2017-Oct-19 22:30N 23°05' E 113°29'73335.1
2017-Oct-19 22:29N 23°00' E 113°35'813711.6
2017-Oct-19 22:29N 22°53' E 113°31'96482.0
2017-Oct-19 22:29N 23°02' E 113°31'1524.8
2017-Oct-19 22:29N 23°03' E 113°32'1346690.9
2017-Oct-19 22:29N 22°51' E 113°35'6722419519.1
2017-Oct-19 22:29N 31°18' E 121°50'6661198999.7
2017-Oct-19 22:29N 23°06' E 113°25'2226268.6
2017-Oct-19 22:29N 22°47' E 113°13'1416326.8
2017-Oct-19 22:29N 22°55' E 113°25'675809592.5
2017-Oct-19 22:29N 31°20' E 121°48'666399363.7
2017-Oct-19 22:29N 23°06' E 113°26'662340630.5
2017-Oct-19 22:29N 31°22' E 121°40'6682405558.4
2017-Oct-19 22:29N 22°52' E 113°34'12775.6
2017-Oct-19 22:29N 22°52' E 113°35'666799175.7
2017-Oct-19 22:29N 31°23' E 121°34'6662398444.6
2017-Oct-19 22:29N 22°51' E 113°35'1243931.0
2017-Oct-19 22:29N 22°54' E 113°22'678813136.7
2017-Oct-19 22:29N 31°21' E 121°47'860774122.0
2017-Oct-19 22:29N 21°16' E 110°25'243874322.0
2017-Oct-19 22:28N 22°40' E 114°31'231208202.7
2017-Oct-19 22:28N 24°18' E 118°19'4581650333.4
2017-Oct-19 22:28N 31°25' E 121°29'6602376794.5
2017-Oct-19 22:28N 22°59' E 113°31'713153.0
2017-Oct-19 22:28N 22°52' E 113°31'6692409215.1
2017-Oct-19 22:28N 31°37' E 121°18'665598511.2
2017-Oct-19 22:28N 22°58' E 113°30'2327997.3
2017-Oct-19 22:28N 22°44' E 113°10'2812511.9
2017-Oct-19 22:28N 22°56' E 113°37'6522346199.4
2017-Oct-19 22:28N 31°13' E 121°30'661339688.4
2017-Oct-19 22:28N 22°42' E 113°41'6711207245.4
2017-Oct-19 22:28N 31°20' E 121°39'652234802.8
2017-Oct-19 22:28N 22°36' E 114°24'9681743160.4
2017-Oct-19 22:28N 37°34' E 121°23'3691327360.7
2017-Oct-19 22:28N 31°25' E 121°29'678813806.8
2017-Oct-19 22:28N 22°47' E 113°17'679407602.1
2017-Oct-19 22:28N 31°29' E 121°25'6612378815.6
2017-Oct-19 22:28N 23°00' E 113°31'183784.8
2017-Oct-19 22:27N 22°44' E 113°39'1658359.2
2017-Oct-19 22:27N 22°60' E 113°35'3409.3
2017-Oct-19 22:27N 23°00' E 113°32'6602374621.2
2017-Oct-19 22:27N 31°24' E 121°31'682613469.4
2017-Oct-19 22:27N 22°47' E 113°11'59884.0
2017-Oct-19 22:27N 22°47' E 113°17'676187311.6
2017-Oct-19 22:27N 31°22' E 121°30'657394068.5
2017-Oct-19 22:26N 23°02' E 113°31'6602377193.0
2017-Oct-19 22:26N 31°25' E 121°32'671402592.1
2017-Oct-19 22:26N 22°54' E 113°23'14389.3
2017-Oct-19 22:26N 22°54' E 113°24'1119517.9
2017-Oct-19 22:26N 22°47' E 113°15'67289652.8
2017-Oct-19 22:26N 31°15' E 121°30'653470092.2
2017-Oct-19 22:26N 22°60' E 113°32'661595095.0
2017-Oct-19 22:26N 31°45' E 121°05'5363392.3
2017-Oct-19 22:26N 31°10' E 121°51'661594730.9
2017-Oct-19 22:26N 22°59' E 113°34'311062.0
2017-Oct-19 22:26N 22°57' E 113°36'163078.6
2017-Oct-19 22:25N 22°47' E 113°21'674346686.7
2017-Oct-19 22:25N 31°21' E 121°32'65894748.4
2017-Oct-19 22:25N 22°57' E 113°36'1113467.1
2017-Oct-19 22:25N 23°05' E 113°28'1417425160.4
2017-Oct-19 22:24N 01°28' E 103°43'1404337030.7
2017-Oct-19 22:24N 22°47' E 113°36'67137747.6
2017-Oct-19 22:23N 31°04' E 122°02'664477819.0
2017-Oct-19 22:23N 22°56' E 113°37'91122.0
2017-Oct-19 22:23N 23°04' E 113°32'87246.4
2017-Oct-19 22:22N 22°56' E 113°36'3122437.2
2017-Oct-19 22:22N 22°43' E 113°05'681111377.5
2017-Oct-19 22:22N 31°14' E 121°30'657102899.8
2017-Oct-19 22:22N 22°52' E 113°33'659263480.5
2017-Oct-19 22:22N 31°15' E 121°31'650130079.9
2017-Oct-19 22:21N 23°03' E 113°32'680174971.3
2017-Oct-19 22:21N 31°20' E 122°15'6912485855.3
2017-Oct-19 22:21N 22°47' E 113°36'99876477.8
2017-Oct-19 22:20N 37°59' E 121°27'3881395249.4
2017-Oct-19 22:20N 31°31' E 121°36'166439.5
2017-Oct-19 22:20N 31°35' E 121°18'65930012.0
2017-Oct-19 22:19N 23°03' E 113°32'103493.2
2017-Oct-19 22:19N 22°55' E 113°26'1210447.2
2017-Oct-19 22:18N 22°43' E 113°27'191262.9
2017-Oct-19 22:18N 23°02' E 113°23'7471.2
2017-Oct-19 22:17N 23°02' E 113°31'151032.1
2017-Oct-19 22:16N 22°48' E 113°37'155410.8
2017-Oct-19 22:16N 23°02' E 113°31'2443175.1
2017-Oct-19 22:16N 22°40' E 113°42'67130968.1
2017-Oct-19 22:14N 31°07' E 121°55'362103.7
2017-Oct-19 22:13N 31°30' E 121°23'9344.4
2017-Oct-19 22:12N 31°24' E 121°31'65862383.1
2017-Oct-19 22:11N 23°02' E 113°31'181562.9
2017-Oct-19 22:10N 22°46' E 113°38'666114234.6
2017-Oct-19 22:10N 31°20' E 121°34'691936.8
2017-Oct-19 22:08N 31°59' E 120°27'82676.1
2017-Oct-19 22:01N 31°18' E 121°50'6662396621.6
2017-Oct-19 22:01N 23°02' E 113°31'6602376671.1
2017-Oct-19 22:00N 31°25' E 121°32'6592371449.5
2017-Oct-19 22:00N 22°34' E 114°15'6591185898.1
2017-Oct-19 22:00N 31°25' E 121°32'6662397727.0
2017-Oct-19 22:00N 22°52' E 113°34'518731.1
2017-Oct-19 22:00N 22°57' E 113°37'6611189319.2
2017-Oct-19 22:00N 31°37' E 121°16'471847249.8
2017-Oct-19 22:00N 24°16' E 118°10'465837179.8
2017-Oct-19 22:00N 31°23' E 121°37'6702412967.5
2017-Oct-19 22:00N 22°55' E 113°27'279502828.5
2017-Oct-19 22:00N 24°16' E 118°18'8281489910.7
2017-Oct-19 22:00N 37°52' E 121°04'9831769999.0
2017-Oct-19 22:00N 22°48' E 113°35'45160457.5
2017-Oct-19 22:00N 22°13' E 113°06'53191210.1
2017-Oct-19 22:00N 22°57' E 113°37'46578.0
2017-Oct-19 22:00N 22°60' E 113°35'56201931.1
2017-Oct-19 22:00N 22°41' E 114°32'5650713.3
2017-Oct-19 22:00N 22°59' E 113°34'64296.0
2017-Oct-19 22:00N 22°55' E 113°30'64054.6
2017-Oct-19 22:00N 23°00' E 113°32'713313.8
2017-Oct-19 22:00N 22°53' E 113°31'67578.6
2017-Oct-19 22:00N 22°56' E 113°37'516905.1
2017-Oct-19 22:00N 22°53' E 113°34'6721209535.2
2017-Oct-19 22:00N 31°21' E 121°47'6732423903.9
2017-Oct-19 22:00N 22°50' E 113°35'666799172.0
2017-Oct-19 22:00N 31°24' E 121°30'665798047.6
2017-Oct-19 22:00N 22°52' E 113°34'1629619.9
2017-Oct-19 22:00N 23°03' E 113°21'74793.8
2017-Oct-19 22:00N 23°06' E 113°27'6602377744.8
2017-Oct-19 21:59N 31°20' E 121°39'6641194839.3
2017-Oct-19 21:59N 22°55' E 113°36'1036789.6
2017-Oct-19 21:59N 23°04' E 113°30'2314099.6
2017-Oct-19 21:59N 22°43' E 113°41'2443027.5
2017-Oct-19 21:59N 23°04' E 113°29'660475466.2
2017-Oct-19 21:59N 31°08' E 121°53'676405460.0
2017-Oct-19 21:59N 22°53' E 113°17'673605948.6
2017-Oct-19 21:59N 31°32' E 121°20'6602377442.8
2017-Oct-19 21:59N 22°56' E 113°36'2124989.6
2017-Oct-19 21:59N 22°47' E 113°15'6861235321.4
2017-Oct-19 21:59N 31°20' E 121°48'6652392737.5
2017-Oct-19 21:59N 23°05' E 113°29'656393438.1
2017-Oct-19 21:59N 31°21' E 121°32'664477835.1
2017-Oct-19 21:59N 22°52' E 113°33'1518522.1
2017-Oct-19 21:59N 22°47' E 113°17'680611572.8
2017-Oct-19 21:59N 31°23' E 121°34'660396071.9
2017-Oct-19 21:59N 22°59' E 113°34'11777.5
2017-Oct-19 21:59N 23°00' E 113°35'56100057.5
2017-Oct-19 21:58N 22°41' E 114°31'643771592.6
2017-Oct-19 21:58N 31°24' E 121°31'6651197482.2
2017-Oct-19 21:58N 22°51' E 113°35'6651196669.0
2017-Oct-19 21:58N 31°25' E 121°29'6561181518.2
2017-Oct-19 21:58N 23°04' E 113°32'610845.0
2017-Oct-19 21:58N 22°58' E 113°30'64229003.6
2017-Oct-19 21:58N 22°41' E 114°36'59473.8
2017-Oct-19 21:58N 22°40' E 114°31'60214931.3
2017-Oct-19 21:58N 23°02' E 113°31'1417362.0
2017-Oct-19 21:58N 22°49' E 113°37'115414.7
2017-Oct-19 21:58N 22°58' E 113°30'5916353.8
2017-Oct-19 21:58N 22°40' E 114°31'6881960.6
2017-Oct-19 21:58N 22°53' E 113°19'975877651.0
2017-Oct-19 21:58N 37°34' E 121°23'369331840.2
2017-Oct-19 21:58N 31°25' E 121°29'53021.2
2017-Oct-19 21:58N 31°29' E 121°25'1658758.0
2017-Oct-19 21:58N 31°13' E 121°30'6512344978.4
2017-Oct-19 21:58N 23°02' E 113°31'1816194.6
2017-Oct-19 21:57N 22°44' E 113°27'36159.0
2017-Oct-19 21:57N 22°42' E 113°30'1214031.3
2017-Oct-19 21:57N 22°53' E 113°31'668240533.2
2017-Oct-19 21:57N 31°37' E 121°18'663795687.2
2017-Oct-19 21:57N 22°57' E 113°36'33189.8
2017-Oct-19 21:57N 22°58' E 113°33'6641195191.8
2017-Oct-19 21:57N 31°22' E 121°40'672345431.9
2017-Oct-19 21:57N 22°47' E 113°36'2219693.2
2017-Oct-19 21:57N 22°28' E 113°50'433320.1
2017-Oct-19 21:56N 23°06' E 113°25'148452.9
2017-Oct-19 21:56N 22°56' E 113°37'664140565.3
2017-Oct-19 21:56N 31°22' E 121°40'856220078.5
2017-Oct-19 21:55N 21°16' E 110°25'18739570.6
2017-Oct-19 21:55N 22°47' E 113°21'172639.2
2017-Oct-19 21:55N 22°57' E 113°36'1730860.7
2017-Oct-19 21:55N 22°41' E 113°43'3969547.1
2017-Oct-19 21:55N 22°36' E 114°24'65937678.3
2017-Oct-19 21:54N 31°31' E 121°36'67348465.4
2017-Oct-19 21:53N 22°53' E 113°33'2541.0
2017-Oct-19 21:53N 22°52' E 113°35'7953.9
2017-Oct-19 21:52N 22°46' E 113°38'18610.1
2017-Oct-19 21:50N 23°03' E 113°32'19403.0
2017-Oct-19 21:48N 22°44' E 113°34'6732421688.4
2017-Oct-19 21:48N 31°14' E 121°47'686617352.2
2017-Oct-19 21:48N 22°43' E 113°13'256461.4
2017-Oct-19 21:47N 23°02' E 113°31'52370.9
2017-Oct-19 21:47N 22°58' E 113°33'65337304.2
2017-Oct-19 21:46N 31°13' E 121°30'65042530.6
2017-Oct-19 21:45N 23°03' E 113°32'301244.2
2017-Oct-19 21:44N 22°47' E 113°04'29812.8
2017-Oct-19 21:42N 22°54' E 113°35'231707.5
2017-Oct-19 21:41N 22°47' E 113°11'68453492.3
2017-Oct-19 21:40N 31°41' E 121°12'47330436.3
2017-Oct-19 21:39N 24°16' E 118°09'25812229.5
2017-Oct-19 21:38N 23°05' E 113°38'141257.5
2017-Oct-19 21:37N 22°55' E 113°27'311444.1
2017-Oct-19 21:36N 22°28' E 113°11'31376.9
2017-Oct-19 21:31N 22°47' E 113°38'4442888303.4
2017-Oct-19 21:31N 44°09' E 028°40'444215989949.1
2017-Oct-19 21:31N 22°47' E 113°38'6732424515.7
2017-Oct-19 21:31N 31°18' E 121°50'1730603.9
2017-Oct-19 21:30N 31°25' E 121°32'661475843.5
2017-Oct-19 21:30N 22°57' E 113°37'622891.2
2017-Oct-19 21:30N 22°53' E 113°31'11102.1
2017-Oct-19 21:30N 22°53' E 113°31'273491115.1
2017-Oct-19 21:30N 24°17' E 118°14'461553546.7
2017-Oct-19 21:30N 31°24' E 121°32'6611190602.3
2017-Oct-19 21:30N 22°59' E 113°33'59211088.3
2017-Oct-19 21:30N 22°41' E 114°33'615022139592.1
2017-Oct-19 21:30N 49°12' W 123°09'507318262237.4
2017-Oct-19 21:30N 37°41' E 121°29'977879409.8
2017-Oct-19 21:30N 22°55' E 113°33'6632388321.8
2017-Oct-19 21:30N 31°24' E 121°31'662794350.1
2017-Oct-19 21:30N 22°55' E 113°36'516702.2
2017-Oct-19 21:30N 22°59' E 113°34'139362.1
2017-Oct-19 21:30N 22°47' E 113°36'68122253.6
2017-Oct-19 21:30N 22°31' E 114°48'76271986.1
2017-Oct-19 21:30N 22°55' E 113°30'620293.8
2017-Oct-19 21:30N 23°00' E 113°32'1425323.4
2017-Oct-19 21:30N 22°47' E 113°38'4553601.3
2017-Oct-19 21:30N 22°36' E 114°24'52187168.4
2017-Oct-19 21:30N 22°59' E 113°34'724644.1
2017-Oct-19 21:30N 22°53' E 113°31'275247948.2
2017-Oct-19 21:30N 24°17' E 118°18'4621662025.7
2017-Oct-19 21:30N 31°24' E 121°35'667800995.0
2017-Oct-19 21:30N 22°52' E 113°34'1242944.5
2017-Oct-19 21:30N 23°03' E 113°32'1968502.6
2017-Oct-19 21:30N 22°44' E 113°34'2327485.6
2017-Oct-19 21:30N 23°05' E 113°23'659197749.5
2017-Oct-19 21:29N 31°21' E 121°32'664796362.0
2017-Oct-19 21:29N 22°52' E 113°33'1119023.2
2017-Oct-19 21:29N 23°02' E 113°31'2647038.4
2017-Oct-19 21:29N 22°44' E 113°11'2341632.9
2017-Oct-19 21:29N 22°51' E 113°35'1315903.2
2017-Oct-19 21:29N 23°03' E 113°30'6601188881.4
2017-Oct-19 21:29N 31°20' E 121°40'6622381567.6
2017-Oct-19 21:29N 23°06' E 113°25'1316180.4
2017-Oct-19 21:29N 22°53' E 113°20'1449513.3
2017-Oct-19 21:29N 23°06' E 113°26'1316128.6
2017-Oct-19 21:29N 22°56' E 113°37'2277609.2
2017-Oct-19 21:29N 22°47' E 113°15'2174968.8
2017-Oct-19 21:29N 22°56' E 113°36'42928.4
2017-Oct-19 21:29N 22°53' E 113°33'1751.7
2017-Oct-19 21:29N 22°52' E 113°33'6692409298.4
2017-Oct-19 21:29N 31°22' E 121°40'6821227878.6
2017-Oct-19 21:29N 22°47' E 113°17'2014665.7
2017-Oct-19 21:29N 22°56' E 113°37'6612379134.4
2017-Oct-19 21:29N 31°23' E 121°34'853511723.2
2017-Oct-19 21:29N 21°16' E 110°25'8603096504.0
2017-Oct-19 21:28N 31°21' E 121°47'673403567.4
2017-Oct-19 21:28N 22°51' E 113°35'665797768.2
2017-Oct-19 21:28N 31°25' E 121°29'662794421.7
2017-Oct-19 21:28N 22°58' E 113°30'5953152.2
2017-Oct-19 21:28N 22°41' E 114°31'5145935.3
2017-Oct-19 21:28N 22°49' E 113°37'667800508.0
2017-Oct-19 21:28N 31°25' E 121°32'1513574.3
2017-Oct-19 21:28N 31°16' E 121°45'6412308738.6
2017-Oct-19 21:28N 22°41' E 114°36'64229529.5
2017-Oct-19 21:28N 23°04' E 113°32'6571181826.5
2017-Oct-19 21:28N 31°32' E 121°20'1244701.5
2017-Oct-19 21:28N 31°24' E 121°31'2341507.6
2017-Oct-19 21:28N 31°41' E 121°12'655235722.2
2017-Oct-19 21:28N 22°36' E 114°24'9681743160.4
2017-Oct-19 21:28N 37°34' E 121°23'965695045.0
2017-Oct-19 21:28N 22°57' E 113°36'6602374484.8
2017-Oct-19 21:28N 31°25' E 121°29'1759487.2
2017-Oct-19 21:28N 31°21' E 121°47'6502339049.8
2017-Oct-19 21:28N 22°40' E 114°31'6451160413.2
2017-Oct-19 21:28N 31°29' E 121°25'6762435215.7
2017-Oct-19 21:28N 22°42' E 113°30'2036016.2
2017-Oct-19 21:28N 23°02' E 113°31'662595699.7
2017-Oct-19 21:27N 31°37' E 121°18'660158477.7
2017-Oct-19 21:27N 23°03' E 113°32'44820.6
2017-Oct-19 21:27N 23°05' E 113°28'661793579.8
2017-Oct-19 21:27N 31°18' E 121°43'677243768.5
2017-Oct-19 21:27N 22°28' E 113°50'4129521.3
2017-Oct-19 21:27N 22°41' E 114°32'5323857.5
2017-Oct-19 21:27N 22°57' E 113°37'659593190.8
2017-Oct-19 21:27N 31°24' E 121°30'657181980.8
2017-Oct-19 21:26N 23°03' E 113°32'174356.9
2017-Oct-19 21:26N 22°53' E 113°17'681163347.4
2017-Oct-19 21:26N 31°20' E 121°48'665398792.3
2017-Oct-19 21:26N 23°05' E 113°29'191821.8
2017-Oct-19 21:25N 22°47' E 113°21'674269539.9
2017-Oct-19 21:25N 31°31' E 121°18'642462579.4
2017-Oct-19 21:25N 22°40' E 114°31'62966595.9
2017-Oct-19 21:24N 30°44' E 122°01'5262302.6
2017-Oct-19 21:24N 31°31' E 121°36'67250368.5
2017-Oct-19 21:24N 22°54' E 113°35'66391836.9
2017-Oct-19 21:23N 31°24' E 121°32'68677161.2
2017-Oct-19 21:23N 22°48' E 113°03'67881324.4
2017-Oct-19 21:22N 31°13' E 121°30'6551178468.7
2017-Oct-19 21:22N 22°58' E 113°30'5370.6
2017-Oct-19 21:21N 22°55' E 113°26'1424586.5
2017-Oct-19 21:21N 22°46' E 113°38'134393.1
2017-Oct-19 21:21N 22°58' E 113°33'8355.9
2017-Oct-19 21:20N 23°05' E 113°38'18653.4
2017-Oct-19 21:18N 22°47' E 113°36'6601187340.2
2017-Oct-19 21:18N 31°14' E 121°30'65040357.7
2017-Oct-19 21:17N 23°02' E 113°32'8681.5
2017-Oct-19 21:16N 22°59' E 113°39'64843225.3
2017-Oct-19 21:16N 31°13' E 121°30'65816344.1
2017-Oct-19 21:13N 22°55' E 113°27'6686199.8
2017-Oct-19 21:07N 31°38' E 121°15'72622342.2
2017-Oct-19 21:05N 21°53' E 113°13'671911.9
2017-Oct-19 21:03N 22°57' E 113°37'14499.2
2017-Oct-19 21:01N 22°45' E 113°31'263849.4
2017-Oct-19 21:01N 22°48' E 113°03'68122243.9
2017-Oct-19 21:01N 22°34' E 114°15'55198337.9
2017-Oct-19 21:01N 23°06' E 113°26'1969546.4
2017-Oct-19 21:01N 22°48' E 113°35'619022282784.4
2017-Oct-19 21:00N 49°12' W 123°09'53839689969.4
2017-Oct-19 21:00N 31°25' E 121°32'6612380442.8
2017-Oct-19 21:00N 22°56' E 113°37'6622382016.3
2017-Oct-19 21:00N 31°13' E 121°48'1221905.7
2017-Oct-19 21:00N 31°23' E 121°40'6642390128.3
2017-Oct-19 21:00N 23°02' E 113°31'911003.4
2017-Oct-19 21:00N 22°53' E 113°31'6672401146.3
2017-Oct-19 21:00N 31°25' E 121°32'11513.8
2017-Oct-19 21:00N 31°24' E 121°31'7241303192.6
2017-Oct-19 21:00N 21°53' E 113°14'7261305976.2
2017-Oct-19 21:00N 31°16' E 121°45'7142571437.9
2017-Oct-19 21:00N 22°13' E 113°06'52188111.6
2017-Oct-19 21:00N 22°59' E 113°33'1866494.9
2017-Oct-19 21:00N 22°47' E 113°17'1220842.9
2017-Oct-19 21:00N 22°55' E 113°27'2801007698.4
2017-Oct-19 21:00N 24°19' E 118°18'274985837.5
2017-Oct-19 21:00N 22°57' E 113°33'1412879.1
2017-Oct-19 21:00N 22°52' E 113°18'1760323.3
2017-Oct-19 21:00N 22°59' E 113°34'5768748.3
2017-Oct-19 21:00N 22°41' E 114°33'6071503.1
2017-Oct-19 21:00N 23°00' E 113°32'78280325.6
2017-Oct-19 21:00N 22°33' E 114°51'640460841.6
2017-Oct-19 21:00N 31°27' E 121°28'652781889.6
2017-Oct-19 21:00N 22°36' E 114°24'6571182831.5
2017-Oct-19 21:00N 31°21' E 121°47'6741213063.5
2017-Oct-19 21:00N 22°48' E 113°37'6651196265.0
2017-Oct-19 21:00N 31°21' E 121°32'47418.1
2017-Oct-19 21:00N 31°24' E 121°30'4601655859.2
2017-Oct-19 21:00N 24°20' E 118°10'460551652.0
2017-Oct-19 21:00N 31°24' E 121°31'662397057.0
2017-Oct-19 20:59N 22°55' E 113°36'665171051.5
2017-Oct-19 20:59N 31°21' E 121°40'669803310.7
2017-Oct-19 20:59N 22°49' E 113°36'116379.0
2017-Oct-19 20:59N 22°60' E 113°35'711913.0
2017-Oct-19 20:59N 22°55' E 113°30'667800633.4
2017-Oct-19 20:59N 31°20' E 121°40'667400149.2
2017-Oct-19 20:59N 22°53' E 113°33'47321.0
2017-Oct-19 20:59N 22°56' E 113°36'53121.6
2017-Oct-19 20:59N 22°52' E 113°33'1555566.4
2017-Oct-19 20:59N 22°47' E 113°17'678221731.8
2017-Oct-19 20:59N 31°31' E 121°20'6581184788.0
2017-Oct-19 20:59N 22°59' E 113°34'13538.9
2017-Oct-19 20:58N 23°00' E 113°35'6662396152.4
2017-Oct-19 20:58N 31°21' E 121°47'6671200545.2
2017-Oct-19 20:58N 23°02' E 113°31'1113656.0
2017-Oct-19 20:58N 22°51' E 113°35'665398881.2
2017-Oct-19 20:58N 31°25' E 121°29'6661199057.0
2017-Oct-19 20:58N 22°52' E 113°31'669802817.7
2017-Oct-19 20:58N 31°24' E 121°35'1513730.5
2017-Oct-19 20:58N 31°32' E 121°20'2137068.3
2017-Oct-19 20:58N 31°13' E 121°30'6551178435.0
2017-Oct-19 20:58N 22°58' E 113°30'665797963.8
2017-Oct-19 20:58N 31°16' E 121°45'6441159024.3
2017-Oct-19 20:58N 22°41' E 114°31'51303.9
2017-Oct-19 20:58N 22°41' E 114°36'1243733.7
2017-Oct-19 20:58N 22°36' E 114°24'9681743160.4
2017-Oct-19 20:58N 37°34' E 121°23'965695045.0
2017-Oct-19 20:58N 22°57' E 113°36'661594723.6
2017-Oct-19 20:58N 31°29' E 121°25'518109.7
2017-Oct-19 20:58N 31°25' E 121°29'668160234.6
2017-Oct-19 20:57N 22°46' E 113°38'677811861.4
2017-Oct-19 20:57N 31°31' E 121°36'676608801.1
2017-Oct-19 20:57N 22°47' E 113°36'1729992.6
2017-Oct-19 20:57N 23°03' E 113°32'662595528.2
2017-Oct-19 20:57N 31°22' E 121°40'672302252.9
2017-Oct-19 20:57N 22°47' E 113°36'528864.3
2017-Oct-19 20:57N 22°41' E 114°32'646581076.0
2017-Oct-19 20:57N 31°22' E 121°40'685154177.1
2017-Oct-19 20:56N 22°47' E 113°11'247128.9
2017-Oct-19 20:56N 23°03' E 113°30'219562.5
2017-Oct-19 20:56N 22°47' E 113°15'2710971.4
2017-Oct-19 20:56N 23°05' E 113°38'83470.2
2017-Oct-19 20:56N 22°58' E 113°33'20290990.2
2017-Oct-19 20:56N 21°16' E 110°25'19951251.6
2017-Oct-19 20:55N 22°58' E 113°30'41549.4
2017-Oct-19 20:55N 22°55' E 113°27'101127.7
2017-Oct-19 20:55N 23°04' E 113°32'82634.8
2017-Oct-19 20:54N 22°59' E 113°39'163161.1
2017-Oct-19 20:54N 23°05' E 113°23'161110.2
2017-Oct-19 20:53N 22°52' E 113°33'1119023.2
2017-Oct-19 20:53N 23°02' E 113°31'7409.7
2017-Oct-19 20:52N 22°57' E 113°35'665299320.9
2017-Oct-19 20:52N 31°02' E 122°06'333302.0
2017-Oct-19 20:52N 31°13' E 121°30'65128932.4
2017-Oct-19 20:50N 22°57' E 113°37'66162626.9
2017-Oct-19 20:50N 31°38' E 121°16'6601187805.7
2017-Oct-19 20:50N 23°06' E 113°27'28896.1
2017-Oct-19 20:48N 22°46' E 113°05'291410.5
2017-Oct-19 20:46N 23°02' E 113°31'1144.7
2017-Oct-19 20:46N 23°01' E 113°31'98738198.2
2017-Oct-19 20:44N 37°59' E 121°28'98486408.2
2017-Oct-19 20:44N 23°05' E 113°29'181584.2
2017-Oct-19 20:43N 22°49' E 113°37'132086.7
2017-Oct-19 20:43N 22°54' E 113°24'143837.7
2017-Oct-19 20:42N 22°42' E 113°30'66751112.7
2017-Oct-19 20:42N 31°14' E 121°30'45112774.8
2017-Oct-19 20:40N 24°17' E 118°17'46063750.5
2017-Oct-19 20:39N 31°24' E 121°31'6579736.4
2017-Oct-19 20:35N 23°03' E 113°32'623295.8
2017-Oct-19 20:35N 23°06' E 113°25'6237245.3
2017-Oct-19 20:35N 22°35' E 114°24'442305.3
2017-Oct-19 20:34N 22°46' E 113°38'994137632.2
2017-Oct-19 20:33N 37°52' E 121°34'37832421.8
2017-Oct-19 20:33N 31°33' E 121°32'67932165.2
2017-Oct-19 20:31N 22°45' E 113°33'533550.5
2017-Oct-19 20:31N 22°40' E 114°31'6492337499.5
2017-Oct-19 20:31N 31°20' E 121°48'6742426916.2
2017-Oct-19 20:30N 22°48' E 113°35'40142590.2
2017-Oct-19 20:30N 22°34' E 114°15'6592371484.3
2017-Oct-19 20:30N 31°25' E 121°32'6771218475.5
2017-Oct-19 20:30N 22°42' E 113°30'1037571.3
2017-Oct-19 20:30N 22°51' E 113°34'13866.4
2017-Oct-19 20:30N 22°52' E 113°34'6661198927.0
2017-Oct-19 20:30N 31°25' E 121°32'915767.2
2017-Oct-19 20:30N 31°30' E 121°23'666599108.7
2017-Oct-19 20:30N 22°53' E 113°31'59431.8
2017-Oct-19 20:30N 22°57' E 113°35'5293611.3
2017-Oct-19 20:30N 22°13' E 113°06'84100672.6
2017-Oct-19 20:30N 22°40' E 114°31'6452323225.3
2017-Oct-19 20:30N 31°19' E 121°42'6621192311.7
2017-Oct-19 20:30N 23°01' E 113°31'6621191620.7
2017-Oct-19 20:30N 31°18' E 121°43'6781220510.0
2017-Oct-19 20:30N 22°50' E 113°19'620122323596.9
2017-Oct-19 20:30N 49°12' W 123°09'618022249158.8
2017-Oct-19 20:30N 22°59' E 113°34'930980.1
2017-Oct-19 20:30N 22°51' E 113°35'1011750.8
2017-Oct-19 20:30N 23°00' E 113°32'147225.8
2017-Oct-19 20:30N 22°47' E 113°37'1214931.7
2017-Oct-19 20:30N 22°59' E 113°34'5262392.7
2017-Oct-19 20:30N 22°36' E 114°24'6572365679.9
2017-Oct-19 20:30N 31°21' E 121°47'55844.5
2017-Oct-19 20:30N 31°18' E 121°43'1222151.6
2017-Oct-19 20:30N 31°24' E 121°31'6821226938.8
2017-Oct-19 20:30N 22°47' E 113°11'690354903.7
2017-Oct-19 20:29N 31°31' E 121°36'678488303.9
2017-Oct-19 20:29N 22°54' E 113°23'9963584579.6
2017-Oct-19 20:29N 37°58' E 121°27'989889799.8
2017-Oct-19 20:29N 22°56' E 113°37'610386.3
2017-Oct-19 20:29N 22°52' E 113°33'1112682.2
2017-Oct-19 20:29N 23°02' E 113°31'62867.1
2017-Oct-19 20:29N 23°06' E 113°25'623295.8
2017-Oct-19 20:29N 23°03' E 113°32'1720504.3
2017-Oct-19 20:29N 22°47' E 113°36'1315977.8
2017-Oct-19 20:29N 22°60' E 113°35'2239551.9
2017-Oct-19 20:29N 22°47' E 113°15'683409939.2
2017-Oct-19 20:29N 31°22' E 121°40'664797211.1
2017-Oct-19 20:29N 22°56' E 113°36'724933.5
2017-Oct-19 20:29N 23°02' E 113°31'1036227.6
2017-Oct-19 20:29N 22°52' E 113°33'668801634.4
2017-Oct-19 20:29N 31°41' E 121°12'681816652.2
2017-Oct-19 20:29N 22°47' E 113°17'1017114.6
2017-Oct-19 20:29N 22°45' E 113°07'688825620.2
2017-Oct-19 20:29N 31°37' E 121°18'662794019.0
2017-Oct-19 20:29N 22°59' E 113°34'667599923.5
2017-Oct-19 20:28N 31°21' E 121°47'139636.7
2017-Oct-19 20:28N 31°21' E 121°32'52710.8
2017-Oct-19 20:28N 31°25' E 121°29'6662398130.2
2017-Oct-19 20:28N 22°52' E 113°31'85434.3
2017-Oct-19 20:28N 22°57' E 113°37'75887.9
2017-Oct-19 20:28N 22°58' E 113°30'6552356869.2
2017-Oct-19 20:28N 31°13' E 121°30'1315480.3
2017-Oct-19 20:28N 31°16' E 121°45'3212807.4
2017-Oct-19 20:28N 31°37' E 121°17'6601188874.9
2017-Oct-19 20:28N 23°02' E 113°31'5650724.7
2017-Oct-19 20:28N 22°36' E 114°24'9683486320.8
2017-Oct-19 20:28N 37°34' E 121°23'9613461228.6
2017-Oct-19 20:28N 22°41' E 114°31'65117235.3
2017-Oct-19 20:28N 22°54' E 113°22'1243764.4
2017-Oct-19 20:28N 23°06' E 113°26'268965948.4
2017-Oct-19 20:28N 24°23' E 118°07'263472646.0
2017-Oct-19 20:28N 22°57' E 113°36'6602374484.8
2017-Oct-19 20:28N 31°25' E 121°29'41148843.8
2017-Oct-19 20:28N 31°01' E 122°08'46166030.2
2017-Oct-19 20:28N 31°29' E 121°25'6421155406.9
2017-Oct-19 20:28N 22°41' E 114°36'6822248.9
2017-Oct-19 20:27N 22°37' E 113°23'165780.4
2017-Oct-19 20:27N 22°46' E 113°38'1917126.9
2017-Oct-19 20:27N 22°47' E 113°17'670402270.9
2017-Oct-19 20:27N 31°14' E 121°30'119619.1
2017-Oct-19 20:27N 31°24' E 121°30'6681202371.3
2017-Oct-19 20:27N 22°47' E 113°36'181045.1
2017-Oct-19 20:26N 23°03' E 113°30'1119486.6
2017-Oct-19 20:26N 22°53' E 113°33'139118.5
2017-Oct-19 20:26N 23°05' E 113°38'83470.2
2017-Oct-19 20:26N 22°58' E 113°33'14141017964.9
2017-Oct-19 20:26N 01°28' E 103°43'14165097047.0
2017-Oct-19 20:26N 22°58' E 113°39'657147822.2
2017-Oct-19 20:25N 31°32' E 121°20'66655793.5
2017-Oct-19 20:25N 22°48' E 113°37'272162999.7
2017-Oct-19 20:24N 24°17' E 118°17'27197567.0
2017-Oct-19 20:24N 23°04' E 113°32'91764.1
2017-Oct-19 20:24N 22°55' E 113°36'66288240.4
2017-Oct-19 20:24N 31°24' E 121°31'661297545.6
2017-Oct-19 20:23N 23°05' E 113°23'2512728.0
2017-Oct-19 20:23N 22°48' E 113°03'2716424.7
2017-Oct-19 20:23N 22°22' E 113°13'16914493.2
2017-Oct-19 20:22N 21°16' E 110°25'854180901.0
2017-Oct-19 20:22N 31°24' E 121°35'66159466.7
2017-Oct-19 20:22N 23°06' E 113°27'5738.5
2017-Oct-19 20:21N 23°03' E 113°32'81429.0
2017-Oct-19 20:21N 22°59' E 113°39'153674.6
2017-Oct-19 20:21N 22°44' E 113°34'474830.8
2017-Oct-19 20:20N 22°35' E 114°24'526429.5
2017-Oct-19 20:19N 23°00' E 113°35'91461.0
2017-Oct-19 20:19N 22°55' E 113°27'115403.2
2017-Oct-19 20:19N 22°49' E 113°37'53236.9
2017-Oct-19 20:19N 22°44' E 113°34'997112156.3
2017-Oct-19 20:18N 37°51' E 121°33'99589591.8
2017-Oct-19 20:18N 22°43' E 113°40'218562.0
2017-Oct-19 20:18N 23°03' E 113°32'102386.4
2017-Oct-19 20:17N 22°54' E 113°35'665113997.1
2017-Oct-19 20:17N 31°41' E 121°11'3329810.8
2017-Oct-19 20:17N 31°20' E 121°40'66112136.4
2017-Oct-19 20:14N 23°02' E 113°32'6509555.9
2017-Oct-19 20:10N 31°13' E 121°30'201384.1
2017-Oct-19 20:09N 31°33' E 121°32'66630745.6
2017-Oct-19 20:07N 23°02' E 113°31'643128670.8
2017-Oct-19 20:07N 31°06' E 121°28'64624474.7
2017-Oct-19 20:06N 22°58' E 113°33'65912293.1
2017-Oct-19 20:02N 31°19' E 121°33'65722306.8
2017-Oct-19 20:01N 23°03' E 113°30'6582369856.5
2017-Oct-19 20:01N 31°25' E 121°29'1760825.7
2017-Oct-19 20:00N 31°20' E 121°48'6662397774.0
2017-Oct-19 20:00N 22°59' E 113°34'723775.2
2017-Oct-19 20:00N 22°53' E 113°32'1241712.0
2017-Oct-19 20:00N 22°42' E 113°30'1730029.3
2017-Oct-19 20:00N 22°57' E 113°37'268482878.4
2017-Oct-19 20:00N 24°17' E 118°17'4611658551.1
2017-Oct-19 20:00N 31°24' E 121°31'6411153191.9
2017-Oct-19 20:00N 22°41' E 114°36'6422311007.1
2017-Oct-19 20:00N 31°25' E 121°32'6662397820.7
2017-Oct-19 20:00N 22°52' E 113°34'5396137.6
2017-Oct-19 20:00N 22°40' E 114°31'6352285683.1
2017-Oct-19 20:00N 31°14' E 121°30'31110498.6
2017-Oct-19 20:00N 31°41' E 121°12'2646885.2
2017-Oct-19 20:00N 31°21' E 121°32'658789968.9
2017-Oct-19 20:00N 22°57' E 113°35'6632386623.5
2017-Oct-19 20:00N 31°37' E 121°18'2951408.2
2017-Oct-19 20:00N 31°18' E 121°43'6781220343.7
2017-Oct-19 20:00N 22°49' E 113°20'1730461.1
2017-Oct-19 20:00N 22°44' E 113°38'1866596.9
2017-Oct-19 20:00N 23°01' E 113°31'827969.8
2017-Oct-19 20:00N 22°55' E 113°36'516681.2
2017-Oct-19 20:00N 22°59' E 113°34'6611189376.2
2017-Oct-19 20:00N 31°40' E 121°12'6612381054.6
2017-Oct-19 20:00N 23°00' E 113°32'5869948.0
2017-Oct-19 20:00N 22°40' E 114°31'61527382826.5
2017-Oct-19 20:00N 49°12' W 123°09'53866463048.6
2017-Oct-19 20:00N 31°33' E 121°20'665342098.3
2017-Oct-19 20:00N 22°55' E 113°30'55801.8
2017-Oct-19 20:00N 22°52' E 113°34'2485168.7
2017-Oct-19 20:00N 22°44' E 113°10'2631494.5
2017-Oct-19 20:00N 23°02' E 113°31'6144270.7
2017-Oct-19 19:59N 22°41' E 114°33'5524821.0
2017-Oct-19 19:59N 22°54' E 113°35'687618695.3
2017-Oct-19 19:59N 31°21' E 122°16'665341885.5
2017-Oct-19 19:59N 22°41' E 114°32'6659543.0
2017-Oct-19 19:59N 23°06' E 113°25'623295.8
2017-Oct-19 19:59N 23°03' E 113°32'228904.0
2017-Oct-19 19:59N 22°47' E 113°15'2238804.6
2017-Oct-19 19:59N 22°56' E 113°37'52453.0
2017-Oct-19 19:59N 22°52' E 113°33'74049.8
2017-Oct-19 19:59N 22°58' E 113°33'20290991.5
2017-Oct-19 19:59N 21°16' E 110°25'8563081553.1
2017-Oct-19 19:58N 31°22' E 121°40'78048.2
2017-Oct-19 19:58N 31°21' E 121°47'666799176.8
2017-Oct-19 19:58N 23°02' E 113°31'1243337.6
2017-Oct-19 19:58N 22°51' E 113°35'668267058.5
2017-Oct-19 19:58N 31°24' E 121°35'6691204226.5
2017-Oct-19 19:58N 22°52' E 113°31'6672399803.4
2017-Oct-19 19:58N 31°24' E 121°31'6601187810.1
2017-Oct-19 19:58N 22°56' E 113°37'6682404954.2
2017-Oct-19 19:58N 31°17' E 121°54'6871236409.5
2017-Oct-19 19:58N 22°47' E 113°17'6702413506.0
2017-Oct-19 19:58N 31°13' E 121°30'658591810.7
2017-Oct-19 19:58N 22°49' E 113°37'147299.7
2017-Oct-19 19:58N 22°54' E 113°23'272140070.0
2017-Oct-19 19:58N 24°25' E 118°03'8072905846.6
2017-Oct-19 19:58N 37°34' E 121°23'9681743160.4
2017-Oct-19 19:58N 22°36' E 114°24'5029955.4
2017-Oct-19 19:58N 22°52' E 113°33'620502.4
2017-Oct-19 19:58N 22°57' E 113°36'6611189439.0
2017-Oct-19 19:58N 31°29' E 121°25'6552357816.9
2017-Oct-19 19:58N 23°05' E 113°34'6462326214.4
2017-Oct-19 19:58N 31°13' E 121°30'634761247.1
2017-Oct-19 19:57N 22°41' E 114°31'644773185.7
2017-Oct-19 19:57N 31°25' E 121°32'712428.7
2017-Oct-19 19:57N 31°29' E 121°25'89350.5
2017-Oct-19 19:57N 31°35' E 121°19'670185435.4
2017-Oct-19 19:57N 22°46' E 113°38'1865086.3
2017-Oct-19 19:57N 23°03' E 113°32'1907.1
2017-Oct-19 19:57N 23°04' E 113°32'58637.2
2017-Oct-19 19:57N 22°59' E 113°34'135160.6
2017-Oct-19 19:57N 22°47' E 113°38'4414522.8
2017-Oct-19 19:57N 22°36' E 114°24'4742316.6
2017-Oct-19 19:57N 22°44' E 113°34'222348.5
2017-Oct-19 19:56N 22°47' E 113°11'85795.0
2017-Oct-19 19:56N 22°53' E 113°18'64115284.1
2017-Oct-19 19:56N 22°35' E 114°24'618402.9
2017-Oct-19 19:56N 23°06' E 113°27'916199.8
2017-Oct-19 19:55N 23°00' E 113°35'54567.0
2017-Oct-19 19:55N 22°58' E 113°30'0141.3
2017-Oct-19 19:55N 22°58' E 113°30'6622384000.4
2017-Oct-19 19:55N 31°32' E 121°20'104567.3
2017-Oct-19 19:55N 31°25' E 121°29'657262889.3
2017-Oct-19 19:55N 23°05' E 113°29'1119158.2
2017-Oct-19 19:55N 22°56' E 113°36'101836.5
2017-Oct-19 19:55N 23°04' E 113°29'141780983.0
2017-Oct-19 19:54N 01°28' E 103°43'1416231752.9
2017-Oct-19 19:53N 23°02' E 113°31'66418395.9
2017-Oct-19 19:51N 30°59' E 122°10'68294383.5
2017-Oct-19 19:51N 22°48' E 113°20'173790.5
2017-Oct-19 19:50N 23°05' E 113°23'121366.3
2017-Oct-19 19:50N 22°60' E 113°35'56500.5
2017-Oct-19 19:50N 23°03' E 113°30'92666.7
2017-Oct-19 19:50N 22°57' E 113°37'983321617.4
2017-Oct-19 19:49N 37°51' E 121°31'40581030.2
2017-Oct-19 19:49N 31°06' E 121°28'64035972.0
2017-Oct-19 19:48N 22°60' E 113°41'8117.1
2017-Oct-19 19:44N 22°58' E 113°33'663183701.5
2017-Oct-19 19:44N 31°20' E 121°40'661103423.4
2017-Oct-19 19:43N 23°02' E 113°32'28917657.5
2017-Oct-19 19:42N 24°31' E 118°32'28426889.7
2017-Oct-19 19:42N 22°59' E 113°39'165600.8
2017-Oct-19 19:42N 22°44' E 113°35'68028779.8
2017-Oct-19 19:40N 31°31' E 121°36'184558.5
2017-Oct-19 19:40N 31°16' E 121°45'68332346.3
2017-Oct-19 19:39N 22°54' E 113°05'279649.3
2017-Oct-19 19:39N 23°03' E 113°32'91586.9
2017-Oct-19 19:38N 22°55' E 113°27'201776.0
2017-Oct-19 19:38N 22°44' E 113°09'253305.7
2017-Oct-19 19:37N 22°47' E 113°36'8140.9
2017-Oct-19 19:34N 22°53' E 113°32'101387.6
2017-Oct-19 19:33N 22°44' E 113°37'2522810.1
2017-Oct-19 19:33N 22°44' E 113°10'69014873.7
2017-Oct-19 19:31N 31°23' E 121°40'447716117812.2
2017-Oct-19 19:31N 44°09' E 028°40'625722525903.0
2017-Oct-19 19:30N 49°12' W 123°09'618422262785.8
2017-Oct-19 19:30N 22°57' E 113°33'6631193114.4
2017-Oct-19 19:30N 31°23' E 121°33'6582368817.4
2017-Oct-19 19:30N 22°34' E 114°15'42151411.1
2017-Oct-19 19:30N 22°57' E 113°37'621082.5
2017-Oct-19 19:30N 22°59' E 113°31'414248.4
2017-Oct-19 19:30N 23°03' E 113°30'34845.7
2017-Oct-19 19:30N 23°05' E 113°28'6601187614.6
2017-Oct-19 19:30N 31°36' E 121°17'47943.8
2017-Oct-19 19:30N 31°33' E 121°20'1657220.7
2017-Oct-19 19:30N 31°21' E 121°32'657787989.6
2017-Oct-19 19:30N 23°06' E 113°26'5625342.6
2017-Oct-19 19:30N 22°13' E 113°06'7152572279.9
2017-Oct-19 19:30N 31°18' E 121°43'6452322308.5
2017-Oct-19 19:30N 22°40' E 114°31'5347617.4
2017-Oct-19 19:30N 22°55' E 113°36'26520.8
2017-Oct-19 19:30N 22°56' E 113°37'610538.2
2017-Oct-19 19:30N 23°00' E 113°32'6601187665.2
2017-Oct-19 19:30N 31°24' E 121°31'6591186349.0
2017-Oct-19 19:30N 23°02' E 113°31'273490569.2
2017-Oct-19 19:30N 24°17' E 118°17'270973224.1
2017-Oct-19 19:30N 22°59' E 113°34'829052.4
2017-Oct-19 19:30N 22°51' E 113°35'4829096.6
2017-Oct-19 19:30N 22°36' E 114°24'6572365696.7
2017-Oct-19 19:30N 31°21' E 121°47'6721210210.8
2017-Oct-19 19:30N 22°55' E 113°30'58209841.6
2017-Oct-19 19:30N 22°40' E 114°31'69246930.6
2017-Oct-19 19:30N 22°47' E 113°17'1451528.9
2017-Oct-19 19:30N 22°45' E 113°33'6712417159.7
2017-Oct-19 19:30N 31°24' E 121°31'11103.6
2017-Oct-19 19:30N 31°24' E 121°30'6591185329.9
2017-Oct-19 19:29N 23°05' E 113°28'661183033.3
2017-Oct-19 19:29N 31°20' E 121°40'6642389109.0
2017-Oct-19 19:29N 23°05' E 113°23'2340849.6
2017-Oct-19 19:29N 22°44' E 113°34'6721210084.1
2017-Oct-19 19:29N 31°24' E 121°33'660791494.4
2017-Oct-19 19:29N 23°02' E 113°31'664597246.8
2017-Oct-19 19:29N 30°58' E 122°10'662794599.0
2017-Oct-19 19:29N 23°03' E 113°32'104702.8
2017-Oct-19 19:29N 22°53' E 113°33'12249.4
2017-Oct-19 19:29N 22°52' E 113°34'2213090.0
2017-Oct-19 19:29N 22°47' E 113°11'814487.6
2017-Oct-19 19:29N 22°53' E 113°18'1656878.5
2017-Oct-19 19:29N 23°04' E 113°30'65196.2
2017-Oct-19 19:29N 22°58' E 113°33'668600904.9
2017-Oct-19 19:29N 31°21' E 121°47'6661198467.6
2017-Oct-19 19:29N 23°03' E 113°30'56593.3
2017-Oct-19 19:28N 22°59' E 113°34'84359.4
2017-Oct-19 19:28N 22°51' E 113°35'657157696.5
2017-Oct-19 19:28N 31°13' E 121°30'670804502.0
2017-Oct-19 19:28N 22°47' E 113°17'6782440873.2
2017-Oct-19 19:28N 31°25' E 121°29'1715383.8
2017-Oct-19 19:28N 31°16' E 121°45'6681201900.8
2017-Oct-19 19:28N 22°49' E 113°37'1412774.4
2017-Oct-19 19:28N 22°54' E 113°23'973437625.7
2017-Oct-19 19:28N 37°34' E 121°23'9683486320.8
2017-Oct-19 19:28N 22°36' E 114°24'659474746.8
2017-Oct-19 19:28N 31°31' E 121°36'668802195.7
2017-Oct-19 19:28N 22°57' E 113°36'6611189439.0
2017-Oct-19 19:28N 31°29' E 121°25'153791.0
2017-Oct-19 19:27N 31°22' E 121°40'2618560.6
2017-Oct-19 19:27N 31°21' E 122°10'689247867.5
2017-Oct-19 19:27N 22°46' E 113°38'2327021.8
2017-Oct-19 19:27N 22°43' E 113°13'2444054.6
2017-Oct-19 19:27N 22°19' E 113°11'4655007.6
2017-Oct-19 19:27N 22°59' E 113°34'1346789.0
2017-Oct-19 19:27N 22°47' E 113°36'6701206096.1
2017-Oct-19 19:27N 31°38' E 121°16'659215533.5
2017-Oct-19 19:27N 23°04' E 113°32'83226.9
2017-Oct-19 19:27N 22°57' E 113°37'827767.3
2017-Oct-19 19:27N 23°03' E 113°32'91586.9
2017-Oct-19 19:26N 22°55' E 113°27'670301585.4
2017-Oct-19 19:26N 31°22' E 121°40'658394833.4
2017-Oct-19 19:26N 23°05' E 113°34'62850.3
2017-Oct-19 19:26N 22°60' E 113°35'6591186460.4
2017-Oct-19 19:26N 31°28' E 121°28'852161448.4
2017-Oct-19 19:26N 21°16' E 110°25'19955194.0
2017-Oct-19 19:25N 22°58' E 113°30'2271.5
2017-Oct-19 19:25N 22°58' E 113°33'661158591.4
2017-Oct-19 19:24N 31°32' E 121°20'675607943.1
2017-Oct-19 19:24N 22°42' E 113°30'81554.2
2017-Oct-19 19:24N 22°47' E 113°36'2213195.1
2017-Oct-19 19:24N 22°28' E 113°50'1003361055.1
2017-Oct-19 19:24N 37°49' E 121°29'994255475.0
2017-Oct-19 19:24N 22°44' E 113°34'112963.4
2017-Oct-19 19:23N 22°55' E 113°36'85081.4
2017-Oct-19 19:23N 22°47' E 113°38'76664.9
2017-Oct-19 19:23N 22°54' E 113°35'155952.5
2017-Oct-19 19:23N 23°06' E 113°25'171373.3
2017-Oct-19 19:22N 22°49' E 113°20'678487914.5
2017-Oct-19 19:22N 31°24' E 121°35'196927.1
2017-Oct-19 19:22N 31°06' E 121°28'643165261.2
2017-Oct-19 19:22N 23°05' E 113°29'116386.1
2017-Oct-19 19:22N 22°56' E 113°36'45285.2
2017-Oct-19 19:22N 22°52' E 113°34'2124972.5
2017-Oct-19 19:22N 22°46' E 113°13'6822455886.0
2017-Oct-19 19:22N 31°24' E 121°31'9255.2
2017-Oct-19 19:20N 31°30' E 121°23'6802447004.3
2017-Oct-19 19:20N 22°47' E 113°15'51233.0
2017-Oct-19 19:19N 22°47' E 113°21'171544.6
2017-Oct-19 19:19N 23°01' E 113°31'5300.4
2017-Oct-19 19:18N 23°06' E 113°27'235972.9
2017-Oct-19 19:17N 22°44' E 113°37'87470.3
2017-Oct-19 19:17N 22°52' E 113°33'252860.3
2017-Oct-19 19:17N 22°53' E 113°06'223471.3
2017-Oct-19 19:16N 22°58' E 113°30'66113440.9
2017-Oct-19 19:13N 31°19' E 121°33'221829.8
2017-Oct-19 19:13N 31°37' E 121°18'661475973.8
2017-Oct-19 19:13N 23°03' E 113°30'6539794.9
2017-Oct-19 19:09N 31°15' E 121°32'65327009.7
2017-Oct-19 19:07N 23°02' E 113°32'12255.5
2017-Oct-19 19:04N 22°53' E 113°22'131236.4
2017-Oct-19 19:04N 23°04' E 113°29'2312.4
2017-Oct-19 19:03N 23°05' E 113°27'66015048.0
2017-Oct-19 19:01N 31°25' E 121°32'538319379384.6
2017-Oct-19 19:01N 49°12' W 123°09'538519384490.8
2017-Oct-19 19:00N 31°32' E 121°23'1730787.7
2017-Oct-19 19:00N 31°23' E 121°40'6702410892.4
2017-Oct-19 19:00N 22°52' E 113°34'666799104.3
2017-Oct-19 19:00N 31°25' E 121°32'6742427699.9
2017-Oct-19 19:00N 22°45' E 113°30'443715973479.2
2017-Oct-19 19:00N 44°09' E 028°40'442015912685.5
2017-Oct-19 19:00N 23°04' E 113°25'55197741.8
2017-Oct-19 19:00N 22°34' E 114°15'42151398.5
2017-Oct-19 19:00N 22°52' E 113°34'312034.5
2017-Oct-19 19:00N 22°49' E 113°36'725775.8
2017-Oct-19 19:00N 22°56' E 113°37'6602375008.5
2017-Oct-19 19:00N 31°32' E 121°20'6592373266.7
2017-Oct-19 19:00N 22°57' E 113°37'611445.6
2017-Oct-19 19:00N 22°53' E 113°31'933053.3
2017-Oct-19 19:00N 23°02' E 113°31'1553301.5
2017-Oct-19 19:00N 22°48' E 113°35'670344483.0
2017-Oct-19 19:00N 31°18' E 121°43'715857426.6
2017-Oct-19 19:00N 22°13' E 113°06'7192587847.3
2017-Oct-19 19:00N 31°20' E 121°48'1553677.5
2017-Oct-19 19:00N 31°22' E 122°05'6932494789.9
2017-Oct-19 19:00N 22°44' E 113°28'1760319.7
2017-Oct-19 19:00N 22°59' E 113°34'1220835.7
2017-Oct-19 19:00N 23°05' E 113°23'6612380809.3
2017-Oct-19 19:00N 31°24' E 121°31'382275069.7
2017-Oct-19 19:00N 37°46' E 121°29'9753511334.4
2017-Oct-19 19:00N 22°59' E 113°39'55573.9
2017-Oct-19 19:00N 22°59' E 113°34'1034474.5
2017-Oct-19 19:00N 23°06' E 113°26'6155136.6
2017-Oct-19 19:00N 22°36' E 114°24'6522346118.4
2017-Oct-19 19:00N 31°30' E 121°24'659791117.8
2017-Oct-19 19:00N 23°02' E 113°31'6016583.4
2017-Oct-19 18:59N 22°40' E 114°31'643210597.7
2017-Oct-19 18:59N 31°31' E 121°20'658394845.1
2017-Oct-19 18:59N 23°06' E 113°25'65824.0
2017-Oct-19 18:59N 23°03' E 113°32'6154517.8
2017-Oct-19 18:59N 22°41' E 114°33'7251970.5
2017-Oct-19 18:59N 22°47' E 113°15'2238809.0
2017-Oct-19 18:59N 22°56' E 113°37'416041.7
2017-Oct-19 18:59N 22°52' E 113°34'1618.7
2017-Oct-19 18:59N 22°52' E 113°33'47486.0
2017-Oct-19 18:59N 22°55' E 113°30'1242711.2
2017-Oct-19 18:59N 22°53' E 113°17'1628213.2
2017-Oct-19 18:59N 22°58' E 113°33'6631193678.1
2017-Oct-19 18:59N 30°55' E 122°10'670482581.5
2017-Oct-19 18:59N 22°47' E 113°36'53372.8
2017-Oct-19 18:58N 22°51' E 113°35'6731210865.9
2017-Oct-19 18:58N 31°21' E 121°47'6731210718.1
2017-Oct-19 18:58N 22°51' E 113°35'668300442.9
2017-Oct-19 18:58N 31°24' E 121°35'517842.2
2017-Oct-19 18:58N 31°26' E 121°30'2316454.0
2017-Oct-19 18:58N 31°17' E 121°54'675809767.4
2017-Oct-19 18:58N 22°52' E 113°31'96262.2
2017-Oct-19 18:58N 23°00' E 113°35'662793961.4
2017-Oct-19 18:58N 31°22' E 121°40'372121900.9
2017-Oct-19 18:58N 37°34' E 121°23'966695375.6
2017-Oct-19 18:58N 22°56' E 113°36'56226.8
2017-Oct-19 18:58N 22°52' E 113°33'620502.4
2017-Oct-19 18:58N 22°57' E 113°36'2589653.2
2017-Oct-19 18:58N 22°47' E 113°11'6822456252.9
2017-Oct-19 18:58N 31°29' E 121°25'681613064.4
2017-Oct-19 18:58N 22°47' E 113°14'2072497.3
2017-Oct-19 18:57N 23°04' E 113°25'222936.3
2017-Oct-19 18:57N 22°45' E 113°13'2313865.3
2017-Oct-19 18:57N 23°00' E 113°32'6601187289.5
2017-Oct-19 18:57N 31°24' E 121°30'1267.7
2017-Oct-19 18:57N 31°24' E 121°31'173580.7
2017-Oct-19 18:56N 31°37' E 121°18'659593399.8
2017-Oct-19 18:56N 23°04' E 113°32'2277683.8
2017-Oct-19 18:56N 22°47' E 113°17'158983.0
2017-Oct-19 18:56N 22°45' E 113°33'214697.9
2017-Oct-19 18:56N 23°05' E 113°34'54540.5
2017-Oct-19 18:56N 23°05' E 113°29'234503.5
2017-Oct-19 18:56N 22°47' E 113°14'2213339.9
2017-Oct-19 18:56N 23°03' E 113°30'202728359.8
2017-Oct-19 18:56N 21°16' E 110°25'203365763.8
2017-Oct-19 18:55N 22°59' E 113°34'41496.9
2017-Oct-19 18:55N 22°58' E 113°30'01110.5
2017-Oct-19 18:55N 22°58' E 113°30'1424466.0
2017-Oct-19 18:55N 22°47' E 113°21'668267201.7
2017-Oct-19 18:55N 31°13' E 121°30'127047.9
2017-Oct-19 18:55N 31°25' E 121°29'1730761.5
2017-Oct-19 18:55N 31°16' E 121°45'660198000.4
2017-Oct-19 18:55N 23°05' E 113°29'211718.1
2017-Oct-19 18:54N 22°46' E 113°38'675105699.7
2017-Oct-19 18:54N 31°21' E 121°47'690621075.7
2017-Oct-19 18:54N 22°44' E 113°14'2545364.3
2017-Oct-19 18:54N 23°03' E 113°32'59068.8
2017-Oct-19 18:54N 23°06' E 113°27'142781.0
2017-Oct-19 18:53N 22°54' E 113°35'665479052.8
2017-Oct-19 18:53N 31°20' E 121°40'66045705.4
2017-Oct-19 18:52N 23°05' E 113°29'3681.8
2017-Oct-19 18:52N 23°02' E 113°32'5612497.7
2017-Oct-19 18:52N 22°36' E 114°24'5820975.2
2017-Oct-19 18:52N 23°04' E 113°29'33581.3
2017-Oct-19 18:52N 23°01' E 113°31'192869.0
2017-Oct-19 18:51N 22°47' E 113°17'67269077.4
2017-Oct-19 18:51N 31°15' E 121°30'65221322.2
2017-Oct-19 18:49N 23°05' E 113°28'3610651.6
2017-Oct-19 18:49N 22°33' E 113°45'151026.0
2017-Oct-19 18:48N 22°44' E 113°34'669601946.5
2017-Oct-19 18:48N 31°19' E 121°33'171133.9
2017-Oct-19 18:47N 31°31' E 121°20'5595.7
2017-Oct-19 18:46N 31°30' E 121°24'67944427.8
2017-Oct-19 18:45N 22°55' E 113°07'242511.5
2017-Oct-19 18:45N 22°58' E 113°33'6711.9
2017-Oct-19 18:44N 22°55' E 113°27'9392.0
2017-Oct-19 18:43N 22°57' E 113°37'661264221.1
2017-Oct-19 18:43N 31°38' E 121°14'67216235.9
2017-Oct-19 18:40N 22°53' E 113°22'651473.4
2017-Oct-19 18:38N 22°41' E 114°32'98619284.4
2017-Oct-19 18:34N 37°60' E 121°24'41533224.7
2017-Oct-19 18:34N 31°05' E 120°60'411164309.4
2017-Oct-19 18:34N 37°55' E 121°23'421383794.6
2017-Oct-19 18:31N 44°09' E 028°40'447716117826.5
2017-Oct-19 18:31N 31°23' E 121°40'662794303.7
2017-Oct-19 18:30N 22°34' E 114°15'42151668.1
2017-Oct-19 18:30N 22°55' E 113°36'34515.6
2017-Oct-19 18:30N 22°57' E 113°37'1323661.6
2017-Oct-19 18:30N 23°06' E 113°26'6562363338.0
2017-Oct-19 18:30N 31°22' E 121°30'538719394672.0
2017-Oct-19 18:30N 49°12' W 123°09'618811138165.7
2017-Oct-19 18:30N 22°52' E 113°33'97986.3
2017-Oct-19 18:30N 22°44' E 113°29'2125207.9
2017-Oct-19 18:30N 22°54' E 113°09'2240395.6
2017-Oct-19 18:30N 23°03' E 113°31'6562362013.7
2017-Oct-19 18:30N 31°21' E 121°32'6801224089.6
2017-Oct-19 18:30N 22°44' E 113°16'413851.6
2017-Oct-19 18:30N 22°47' E 113°17'35126256.9
2017-Oct-19 18:30N 22°28' E 113°50'4417427.6
2017-Oct-19 18:30N 22°13' E 113°06'3621569.3
2017-Oct-19 18:30N 22°47' E 113°17'991713196.2
2017-Oct-19 18:30N 37°42' E 121°28'978879917.8
2017-Oct-19 18:30N 22°36' E 114°24'6572365981.3
2017-Oct-19 18:30N 31°21' E 121°47'34122268.3
2017-Oct-19 18:30N 30°53' E 122°09'6701206625.5
2017-Oct-19 18:30N 22°44' E 113°34'6712414872.9
2017-Oct-19 18:30N 31°32' E 121°20'6412308907.9
2017-Oct-19 18:30N 22°41' E 114°36'64229104.9
2017-Oct-19 18:30N 23°03' E 113°32'59211834.9
2017-Oct-19 18:30N 22°40' E 114°31'58103940.7
2017-Oct-19 18:30N 22°55' E 113°30'6651196757.6
2017-Oct-19 18:29N 31°24' E 121°30'682613451.1
2017-Oct-19 18:29N 22°47' E 113°11'6811226655.0
2017-Oct-19 18:29N 31°32' E 121°20'6611189545.6
2017-Oct-19 18:29N 23°04' E 113°25'1922346.1
2017-Oct-19 18:29N 22°45' E 113°24'678487984.2
2017-Oct-19 18:29N 31°25' E 121°33'6631192771.0
2017-Oct-19 18:29N 23°05' E 113°23'21436.0
2017-Oct-19 18:29N 23°06' E 113°25'85805.2
2017-Oct-19 18:29N 23°05' E 113°34'1311279.9
2017-Oct-19 18:29N 22°53' E 113°33'2018023.1
2017-Oct-19 18:29N 22°36' E 113°44'197610.7
2017-Oct-19 18:29N 22°52' E 113°33'668601163.2
2017-Oct-19 18:29N 31°20' E 121°40'6762433951.9
2017-Oct-19 18:29N 22°53' E 113°17'1656433.9
2017-Oct-19 18:29N 22°58' E 113°33'39719.1
2017-Oct-19 18:29N 23°00' E 113°31'2114886.7
2017-Oct-19 18:29N 22°47' E 113°14'181651055.9
2017-Oct-19 18:28N 21°16' E 110°25'244219565.1
2017-Oct-19 18:28N 22°41' E 114°32'5464721.4
2017-Oct-19 18:28N 22°51' E 113°35'6652395209.2
2017-Oct-19 18:28N 31°24' E 121°31'661339729.8
2017-Oct-19 18:28N 22°56' E 113°36'6632386746.3
2017-Oct-19 18:28N 31°24' E 121°35'673807964.7
2017-Oct-19 18:28N 22°53' E 113°22'82621.2
2017-Oct-19 18:28N 22°52' E 113°31'6662398114.0
2017-Oct-19 18:28N 31°25' E 121°29'6581183647.8
2017-Oct-19 18:28N 23°03' E 113°30'116302.6
2017-Oct-19 18:28N 22°53' E 113°32'5231091.8
2017-Oct-19 18:28N 22°36' E 114°24'4843281.0
2017-Oct-19 18:28N 22°51' E 113°35'932664.7
2017-Oct-19 18:28N 22°60' E 113°35'414257.8
2017-Oct-19 18:28N 22°56' E 113°37'0750.7
2017-Oct-19 18:28N 22°57' E 113°36'6611189451.9
2017-Oct-19 18:28N 31°29' E 121°25'660396123.3
2017-Oct-19 18:27N 23°01' E 113°31'659474502.4
2017-Oct-19 18:27N 31°25' E 121°29'678143613.0
2017-Oct-19 18:27N 22°47' E 113°17'1000720064.8
2017-Oct-19 18:27N 37°55' E 121°23'982707378.1
2017-Oct-19 18:27N 23°00' E 113°32'24131.0
2017-Oct-19 18:27N 22°59' E 113°34'0212.1
2017-Oct-19 18:27N 22°59' E 113°34'2881037664.7
2017-Oct-19 18:27N 24°31' E 118°32'29530388.4
2017-Oct-19 18:26N 22°55' E 113°27'712752.2
2017-Oct-19 18:26N 22°54' E 113°35'5448336.2
2017-Oct-19 18:26N 22°40' E 114°31'6471163776.8
2017-Oct-19 18:26N 31°22' E 121°40'397158865.0
2017-Oct-19 18:26N 37°59' E 121°24'993596017.6
2017-Oct-19 18:26N 22°52' E 113°34'71219.2
2017-Oct-19 18:25N 22°59' E 113°34'41291.3
2017-Oct-19 18:25N 22°58' E 113°30'1424474.6
2017-Oct-19 18:25N 22°47' E 113°21'71141.5
2017-Oct-19 18:25N 22°54' E 113°23'116865.1
2017-Oct-19 18:25N 23°02' E 113°32'9623463019.3
2017-Oct-19 18:25N 37°34' E 121°23'356213365.5
2017-Oct-19 18:25N 31°38' E 121°14'4149293.6
2017-Oct-19 18:25N 31°22' E 121°58'675121467.7
2017-Oct-19 18:24N 22°60' E 113°32'658592172.6
2017-Oct-19 18:24N 31°19' E 121°33'65759146.6
2017-Oct-19 18:24N 22°57' E 113°37'661182938.8
2017-Oct-19 18:23N 31°25' E 121°32'659124785.1
2017-Oct-19 18:23N 23°03' E 113°32'31529.3
2017-Oct-19 18:23N 23°05' E 113°29'7741.5
2017-Oct-19 18:22N 22°58' E 113°30'51074.6
2017-Oct-19 18:22N 23°00' E 113°35'116726.2
2017-Oct-19 18:22N 22°49' E 113°37'101958.0
2017-Oct-19 18:22N 22°42' E 113°30'82796.1
2017-Oct-19 18:21N 22°47' E 113°36'27365469.9
2017-Oct-19 18:21N 24°18' E 118°17'26641660.4
2017-Oct-19 18:21N 22°59' E 113°39'1417154536.7
2017-Oct-19 18:20N 01°28' E 103°43'2073155450.8
2017-Oct-19 18:19N 31°37' E 121°18'71271204.1
2017-Oct-19 18:19N 22°14' E 113°09'70622898.0
2017-Oct-19 18:17N 31°17' E 121°34'3053340.0
2017-Oct-19 18:17N 31°41' E 121°12'6592372050.5
2017-Oct-19 18:17N 23°04' E 113°32'66552064.6
2017-Oct-19 18:16N 31°17' E 121°54'66654506.5
2017-Oct-19 18:15N 23°05' E 113°29'66585458.1
2017-Oct-19 18:15N 31°20' E 121°47'665266177.7
2017-Oct-19 18:15N 23°03' E 113°30'193.4
2017-Oct-19 18:14N 23°02' E 113°31'5596.9
2017-Oct-19 18:13N 23°05' E 113°27'668600806.0
2017-Oct-19 18:13N 31°31' E 121°36'23942.6
2017-Oct-19 18:12N 31°41' E 121°12'66234064.3
2017-Oct-19 18:11N 22°56' E 113°37'628161382.7
2017-Oct-19 18:11N 31°06' E 120°57'424235.4
2017-Oct-19 18:10N 31°16' E 121°45'66211130.4
2017-Oct-19 18:06N 23°02' E 113°31'662103611.4
2017-Oct-19 18:06N 31°18' E 121°43'312926.4
2017-Oct-19 18:05N 30°59' E 122°11'381737.8
2017-Oct-19 18:04N 31°13' E 121°30'447675648.1
2017-Oct-19 18:01N 44°09' E 028°40'444015985694.5
2017-Oct-19 18:01N 22°13' E 113°08'7081275286.0
2017-Oct-19 18:00N 31°21' E 121°32'6592370803.5
2017-Oct-19 18:00N 22°56' E 113°36'6662395991.7
2017-Oct-19 18:00N 31°23' E 121°40'814351.9
2017-Oct-19 18:00N 31°24' E 121°31'6592371761.2
2017-Oct-19 18:00N 23°06' E 113°26'6602377071.9
2017-Oct-19 18:00N 31°41' E 121°12'2176162.6
2017-Oct-19 18:00N 31°25' E 121°29'1138975.8
2017-Oct-19 18:00N 31°36' E 121°27'3054554.7
2017-Oct-19 18:00N 31°17' E 121°54'6741213825.4
2017-Oct-19 18:00N 22°54' E 113°30'6662397657.3
2017-Oct-19 18:00N 31°30' E 121°22'63047.2
2017-Oct-19 18:00N 31°27' E 121°28'6622384862.3
2017-Oct-19 18:00N 22°58' E 113°32'662794922.2
2017-Oct-19 18:00N 31°27' E 121°29'1712537.2
2017-Oct-19 18:00N 31°20' E 121°47'1526339.6
2017-Oct-19 18:00N 31°24' E 121°31'7122563936.4
2017-Oct-19 18:00N 22°13' E 113°06'3632359.2
2017-Oct-19 18:00N 22°47' E 113°17'10031203269.4
2017-Oct-19 18:00N 37°57' E 121°24'1004516140.8
2017-Oct-19 18:00N 22°43' E 113°26'684616007.1
2017-Oct-19 18:00N 31°21' E 121°47'6831229873.8
2017-Oct-19 18:00N 22°48' E 113°21'6772437643.0
2017-Oct-19 18:00N 31°25' E 121°32'6712416250.2
2017-Oct-19 18:00N 22°54' E 113°23'6558457.2
2017-Oct-19 18:00N 22°41' E 114°31'5363299.6
2017-Oct-19 17:59N 22°56' E 113°37'611290.6
2017-Oct-19 17:59N 22°55' E 113°30'517709.8
2017-Oct-19 17:59N 22°55' E 113°36'5327268.9
2017-Oct-19 17:59N 22°40' E 114°31'229103207.4
2017-Oct-19 17:59N 24°19' E 118°17'269322612.2
2017-Oct-19 17:59N 22°28' E 113°50'4478750.9
2017-Oct-19 17:59N 23°05' E 113°23'106172.0
2017-Oct-19 17:59N 23°05' E 113°34'5852520.1
2017-Oct-19 17:59N 22°40' E 114°31'55198340.6
2017-Oct-19 17:59N 22°53' E 113°33'1410.1
2017-Oct-19 17:59N 22°52' E 113°33'1913706.4
2017-Oct-19 17:59N 22°54' E 113°13'2071099.9
2017-Oct-19 17:59N 22°58' E 113°33'610157.0
2017-Oct-19 17:59N 22°53' E 113°31'1346368.0
2017-Oct-19 17:59N 22°53' E 113°17'187168079.9
2017-Oct-19 17:58N 21°16' E 110°25'245883525.8
2017-Oct-19 17:58N 22°41' E 114°33'648333188.1
2017-Oct-19 17:58N 31°21' E 121°47'670804071.2
2017-Oct-19 17:58N 22°58' E 113°30'665342024.5
2017-Oct-19 17:58N 31°37' E 121°18'2125064.7
2017-Oct-19 17:58N 31°23' E 121°36'119586.8
2017-Oct-19 17:58N 31°13' E 121°30'6512345337.1
2017-Oct-19 17:58N 22°57' E 113°37'659296637.0
2017-Oct-19 17:58N 31°25' E 121°29'6661199065.1
2017-Oct-19 17:58N 22°52' E 113°31'971437132.7
2017-Oct-19 17:58N 37°34' E 121°23'965347522.5
2017-Oct-19 17:58N 22°57' E 113°36'6612378936.4
2017-Oct-19 17:58N 31°29' E 121°25'6832460416.9
2017-Oct-19 17:58N 22°41' E 113°18'1138909.3
2017-Oct-19 17:58N 22°42' E 113°30'207343.6
2017-Oct-19 17:57N 23°02' E 113°31'663596268.4
2017-Oct-19 17:57N 31°22' E 121°40'207861.6
2017-Oct-19 17:57N 31°32' E 121°20'6572366321.0
2017-Oct-19 17:57N 23°05' E 113°29'2137905.3
2017-Oct-19 17:57N 22°47' E 113°17'6822455838.9
2017-Oct-19 17:57N 31°22' E 121°40'663298413.3
2017-Oct-19 17:57N 23°00' E 113°32'1425596.5
2017-Oct-19 17:57N 22°47' E 113°36'668400790.4
2017-Oct-19 17:57N 31°24' E 121°30'651260286.2
2017-Oct-19 17:57N 22°36' E 114°24'655589160.2
2017-Oct-19 17:57N 31°41' E 121°12'659474700.9
2017-Oct-19 17:57N 23°03' E 113°32'1120225.7
2017-Oct-19 17:56N 22°52' E 113°34'135129.6
2017-Oct-19 17:56N 23°04' E 113°29'67239439.6
2017-Oct-19 17:56N 22°41' E 114°36'6533581.1
2017-Oct-19 17:56N 22°55' E 113°27'92900.9
2017-Oct-19 17:56N 23°04' E 113°25'2811238.8
2017-Oct-19 17:56N 22°40' E 113°42'1714856.5
2017-Oct-19 17:56N 22°56' E 113°37'97849.1
2017-Oct-19 17:56N 23°04' E 113°32'1836.3
2017-Oct-19 17:56N 23°03' E 113°31'656157462.4
2017-Oct-19 17:55N 31°19' E 121°33'661396498.9
2017-Oct-19 17:55N 22°58' E 113°30'1315955.2
2017-Oct-19 17:55N 22°47' E 113°21'1323267.5
2017-Oct-19 17:55N 22°51' E 113°35'73068.8
2017-Oct-19 17:55N 22°44' E 113°34'169443.9
2017-Oct-19 17:55N 23°00' E 113°35'53248.2
2017-Oct-19 17:55N 23°03' E 113°30'1628207.4
2017-Oct-19 17:55N 22°49' E 113°37'1410421.2
2017-Oct-19 17:55N 23°02' E 113°31'56101454.5
2017-Oct-19 17:55N 22°36' E 114°24'5816136.4
2017-Oct-19 17:55N 23°04' E 113°29'661103436.6
2017-Oct-19 17:54N 31°18' E 121°43'661170062.7
2017-Oct-19 17:54N 22°59' E 113°34'1011672.2
2017-Oct-19 17:54N 23°02' E 113°24'61556.8
2017-Oct-19 17:54N 23°01' E 113°31'65687493.2
2017-Oct-19 17:53N 30°49' E 122°07'4532064.7
2017-Oct-19 17:53N 31°24' E 121°35'6621190778.2
2017-Oct-19 17:53N 23°06' E 113°25'64657.6
2017-Oct-19 17:53N 23°03' E 113°32'21442.5
2017-Oct-19 17:53N 23°02' E 113°31'668104494.2
2017-Oct-19 17:53N 31°31' E 121°36'668801125.8
2017-Oct-19 17:52N 22°59' E 113°34'2410899.8
2017-Oct-19 17:52N 22°47' E 113°11'211772.7
2017-Oct-19 17:52N 22°52' E 113°33'113814.4
2017-Oct-19 17:51N 23°02' E 113°32'66018138.3
2017-Oct-19 17:49N 31°41' E 121°11'397747.8
2017-Oct-19 17:49N 31°16' E 121°45'660108060.5
2017-Oct-19 17:49N 22°60' E 113°35'3588.9
2017-Oct-19 17:48N 22°58' E 113°33'81155.1
2017-Oct-19 17:48N 23°05' E 113°29'96553430.7
2017-Oct-19 17:47N 37°37' E 121°26'97890291.1
2017-Oct-19 17:46N 22°53' E 113°22'6539253.1
2017-Oct-19 17:46N 22°41' E 114°32'63721.3
2017-Oct-19 17:41N 23°05' E 113°29'977135236.3
2017-Oct-19 17:40N 37°52' E 121°23'98526264.8
2017-Oct-19 17:38N 22°54' E 113°35'27726953.5
2017-Oct-19 17:38N 24°21' E 118°22'30436493.5
2017-Oct-19 17:37N 22°45' E 113°07'687176567.1
2017-Oct-19 17:37N 31°38' E 121°14'652766.2
2017-Oct-19 17:35N 30°57' E 122°12'69038232.1
2017-Oct-19 17:34N 22°44' E 113°11'68532865.7
2017-Oct-19 17:33N 31°24' E 121°31'67038298.2
2017-Oct-19 17:32N 22°54' E 113°22'68127545.7
2017-Oct-19 17:31N 31°24' E 121°50'1656979.3
2017-Oct-19 17:31N 31°24' E 121°31'7132566079.7
2017-Oct-19 17:30N 22°12' E 113°06'54193001.8
2017-Oct-19 17:30N 23°00' E 113°32'48172702.6
2017-Oct-19 17:30N 22°34' E 114°15'53190254.1
2017-Oct-19 17:30N 22°48' E 113°20'1729779.0
2017-Oct-19 17:30N 22°56' E 113°36'15084.4
2017-Oct-19 17:30N 22°57' E 113°37'443415963577.1
2017-Oct-19 17:30N 44°09' E 028°40'447716117812.2
2017-Oct-19 17:30N 31°23' E 121°40'1761939.1
2017-Oct-19 17:30N 31°36' E 121°27'1139274.3
2017-Oct-19 17:30N 31°25' E 121°29'2342096.7
2017-Oct-19 17:30N 31°17' E 121°54'398477518.3
2017-Oct-19 17:30N 37°54' E 121°24'9891779704.9
2017-Oct-19 17:30N 22°55' E 113°27'827566.6
2017-Oct-19 17:30N 23°01' E 113°31'810054.5
2017-Oct-19 17:30N 22°53' E 113°32'6662398026.6
2017-Oct-19 17:30N 31°24' E 121°31'3711336450.5
2017-Oct-19 17:30N 37°36' E 121°25'3721340860.6
2017-Oct-19 17:30N 31°23' E 121°34'6832457520.1
2017-Oct-19 17:30N 22°47' E 113°11'813998.0
2017-Oct-19 17:30N 22°54' E 113°16'6762435341.3
2017-Oct-19 17:30N 31°18' E 121°43'48085.3
2017-Oct-19 17:30N 31°20' E 121°47'6662399320.2
2017-Oct-19 17:30N 23°00' E 113°32'6591186851.6
2017-Oct-19 17:30N 31°32' E 121°20'659790420.7
2017-Oct-19 17:30N 22°59' E 113°34'5496761.2
2017-Oct-19 17:30N 22°13' E 113°06'3632354.0
2017-Oct-19 17:30N 22°47' E 113°17'2211089.2
2017-Oct-19 17:30N 22°44' E 113°40'42149467.3
2017-Oct-19 17:30N 22°36' E 114°24'6375880.3
2017-Oct-19 17:30N 22°47' E 113°17'2175599.4
2017-Oct-19 17:30N 23°00' E 113°35'658592359.7
2017-Oct-19 17:30N 31°24' E 121°31'1662.2
2017-Oct-19 17:29N 31°24' E 121°30'662794108.6
2017-Oct-19 17:29N 22°55' E 113°36'517709.4
2017-Oct-19 17:29N 22°55' E 113°30'5829926.2
2017-Oct-19 17:29N 22°41' E 114°31'635457121.8
2017-Oct-19 17:29N 31°15' E 121°30'6321138262.3
2017-Oct-19 17:29N 22°41' E 114°36'224268441.0
2017-Oct-19 17:29N 24°18' E 118°16'229411305.9
2017-Oct-19 17:29N 22°40' E 114°31'65235110.2
2017-Oct-19 17:29N 23°06' E 113°25'814512.9
2017-Oct-19 17:29N 23°05' E 113°34'35257.5
2017-Oct-19 17:29N 23°03' E 113°32'109421.6
2017-Oct-19 17:29N 22°53' E 113°33'1756.3
2017-Oct-19 17:29N 22°52' E 113°34'516364.9
2017-Oct-19 17:29N 22°56' E 113°37'6641194624.2
2017-Oct-19 17:29N 31°22' E 121°40'669803014.7
2017-Oct-19 17:29N 22°52' E 113°33'5549488.7
2017-Oct-19 17:29N 22°40' E 114°31'5363555.0
2017-Oct-19 17:29N 22°57' E 113°37'63138.4
2017-Oct-19 17:28N 22°53' E 113°31'1119087.9
2017-Oct-19 17:28N 23°04' E 113°32'664398698.7
2017-Oct-19 17:28N 31°21' E 121°47'6671201237.9
2017-Oct-19 17:28N 22°56' E 113°37'65724.9
2017-Oct-19 17:28N 22°58' E 113°30'86116.4
2017-Oct-19 17:28N 22°53' E 113°22'1141363.0
2017-Oct-19 17:28N 22°51' E 113°35'664239088.6
2017-Oct-19 17:28N 31°31' E 121°19'643771011.2
2017-Oct-19 17:28N 22°41' E 114°32'6421156460.3
2017-Oct-19 17:28N 31°25' E 121°29'6691204669.4
2017-Oct-19 17:28N 22°54' E 113°23'973583504.2
2017-Oct-19 17:28N 37°34' E 121°23'357642274.2
2017-Oct-19 17:28N 31°37' E 121°18'668481000.7
2017-Oct-19 17:28N 22°51' E 113°35'26843.2
2017-Oct-19 17:28N 22°52' E 113°33'6731211693.0
2017-Oct-19 17:28N 31°21' E 121°47'2174173.1
2017-Oct-19 17:28N 31°29' E 121°25'676608780.5
2017-Oct-19 17:28N 22°42' E 113°30'679188105.9
2017-Oct-19 17:27N 31°22' E 121°40'6621191903.0
2017-Oct-19 17:27N 23°02' E 113°32'163066.6
2017-Oct-19 17:27N 22°47' E 113°36'174580.3
2017-Oct-19 17:27N 23°02' E 113°30'1518150.1
2017-Oct-19 17:27N 22°53' E 113°17'176052.3
2017-Oct-19 17:27N 23°03' E 113°32'101628.0
2017-Oct-19 17:26N 22°54' E 113°35'4240636055.1
2017-Oct-19 17:26N 31°49' E 034°39'41161234737.2
2017-Oct-19 17:26N 21°16' E 110°25'85156731.5
2017-Oct-19 17:25N 31°38' E 121°14'65969808.7
2017-Oct-19 17:24N 23°04' E 113°30'66052792.0
2017-Oct-19 17:23N 31°39' E 121°14'64534146.3
2017-Oct-19 17:22N 22°41' E 114°33'6514723.3
2017-Oct-19 17:22N 22°41' E 113°22'67856799.6
2017-Oct-19 17:21N 31°21' E 121°32'2793.5
2017-Oct-19 17:21N 31°19' E 121°33'285090.8
2017-Oct-19 17:21N 31°41' E 121°12'678271311.1
2017-Oct-19 17:21N 22°45' E 113°24'288345870.1
2017-Oct-19 17:21N 24°20' E 118°21'446200672.6
2017-Oct-19 17:20N 30°56' E 122°12'571308.6
2017-Oct-19 17:18N 31°32' E 121°20'6665017.0
2017-Oct-19 17:10N 22°49' E 113°37'4655123.4
2017-Oct-19 17:10N 22°36' E 114°24'523904.8
2017-Oct-19 17:09N 22°59' E 113°34'114235.3
2017-Oct-19 17:09N 22°54' E 113°24'660593963.5
2017-Oct-19 17:09N 30°45' E 122°02'66470296.2
2017-Oct-19 17:08N 22°28' E 113°50'342434.2
2017-Oct-19 17:07N 22°58' E 113°30'654196316.2
2017-Oct-19 17:07N 31°13' E 121°30'6632385644.0
2017-Oct-19 17:07N 22°44' E 113°34'192339.6
2017-Oct-19 17:07N 23°03' E 113°30'2106.1
2017-Oct-19 17:05N 23°02' E 113°31'66285093.4
2017-Oct-19 17:05N 31°24' E 121°35'12703.9
2017-Oct-19 17:04N 31°16' E 121°45'4210782.8
2017-Oct-19 17:04N 31°01' E 120°59'62636348.4
2017-Oct-19 17:03N 23°04' E 113°25'814259.5
2017-Oct-19 17:03N 22°60' E 113°32'6833.8
2017-Oct-19 17:02N 22°55' E 113°27'66663130.9
2017-Oct-19 17:02N 31°24' E 121°31'66151727.8
2017-Oct-19 17:01N 22°58' E 113°33'102124.7
2017-Oct-19 17:01N 22°48' E 113°35'28992.8
2017-Oct-19 17:01N 22°47' E 113°38'6682406326.6
2017-Oct-19 17:00N 31°25' E 121°32'6591186180.1
2017-Oct-19 17:00N 22°34' E 114°15'50180779.9
2017-Oct-19 17:00N 22°46' E 113°22'1017848.9
2017-Oct-19 17:00N 22°52' E 113°31'726584.7
2017-Oct-19 17:00N 22°57' E 113°37'6622382080.1
2017-Oct-19 17:00N 31°41' E 121°12'444415997418.5
2017-Oct-19 17:00N 44°09' E 028°40'44323191225.0
2017-Oct-19 17:00N 22°45' E 113°24'105865.4
2017-Oct-19 17:00N 22°55' E 113°25'619222291595.2
2017-Oct-19 17:00N 49°12' W 123°09'53859692376.2
2017-Oct-19 17:00N 31°24' E 121°31'6602376311.3
2017-Oct-19 17:00N 22°56' E 113°37'312572.0
2017-Oct-19 17:00N 22°55' E 113°34'24406.3
2017-Oct-19 17:00N 22°53' E 113°32'725495.0
2017-Oct-19 17:00N 23°00' E 113°32'667800135.0
2017-Oct-19 17:00N 31°20' E 121°47'669802214.4
2017-Oct-19 17:00N 22°55' E 113°36'54175.6
2017-Oct-19 17:00N 22°59' E 113°34'5448371.2
2017-Oct-19 17:00N 22°13' E 113°06'3664687.4
2017-Oct-19 17:00N 22°47' E 113°17'2024557.9
2017-Oct-19 17:00N 23°06' E 113°26'660594276.4
2017-Oct-19 17:00N 31°41' E 121°12'6542356178.9
2017-Oct-19 17:00N 22°36' E 114°24'5363731.5
2017-Oct-19 17:00N 22°58' E 113°32'1323189.5
2017-Oct-19 17:00N 22°53' E 113°19'6741212834.6
2017-Oct-19 17:00N 31°25' E 121°32'1761412.9
2017-Oct-19 17:00N 31°37' E 121°17'2036704.9
2017-Oct-19 16:59N 31°21' E 121°32'680815417.7
2017-Oct-19 16:59N 22°39' E 113°23'2110848.2
2017-Oct-19 16:59N 22°58' E 113°33'712591.0
2017-Oct-19 16:59N 22°51' E 113°35'9873552988.4
2017-Oct-19 16:59N 37°51' E 121°24'428769702.0
2017-Oct-19 16:59N 30°45' E 122°01'6562362224.8
2017-Oct-19 16:59N 22°55' E 113°27'664341586.4
2017-Oct-19 16:59N 31°22' E 121°30'6571182456.3
2017-Oct-19 16:59N 23°06' E 113°25'662793831.1
2017-Oct-19 16:59N 31°24' E 121°35'6621190807.9
2017-Oct-19 16:59N 22°57' E 113°37'1513494.6
2017-Oct-19 16:59N 23°05' E 113°23'1554307.3
2017-Oct-19 16:59N 22°53' E 113°33'1018618.6
2017-Oct-19 16:59N 23°03' E 113°32'5970675.5
2017-Oct-19 16:59N 22°40' E 114°31'5294209.8
2017-Oct-19 16:59N 22°56' E 113°37'1311897.6
2017-Oct-19 16:59N 22°54' E 113°22'1036432.5
2017-Oct-19 16:59N 22°52' E 113°33'63644.8
2017-Oct-19 16:59N 22°57' E 113°37'204104941.7
2017-Oct-19 16:58N 21°16' E 110°25'203731527.6
2017-Oct-19 16:58N 22°59' E 113°34'620667.0
2017-Oct-19 16:58N 22°55' E 113°30'6671201469.5
2017-Oct-19 16:58N 31°37' E 121°18'6472330372.9
2017-Oct-19 16:58N 22°40' E 114°31'5363700.9
2017-Oct-19 16:58N 22°51' E 113°35'6732421817.1
2017-Oct-19 16:58N 31°21' E 121°47'6702412260.9
2017-Oct-19 16:58N 22°58' E 113°30'124172.0
2017-Oct-19 16:58N 23°03' E 113°19'674606306.8
2017-Oct-19 16:58N 31°17' E 121°54'666799499.7
2017-Oct-19 16:58N 23°05' E 113°29'168181.9
2017-Oct-19 16:58N 22°50' E 113°35'665479051.4
2017-Oct-19 16:58N 31°25' E 121°29'369331845.0
2017-Oct-19 16:58N 37°34' E 121°23'9683486320.8
2017-Oct-19 16:58N 22°36' E 114°24'97668.5
2017-Oct-19 16:58N 22°41' E 114°32'5549762.6
2017-Oct-19 16:58N 22°52' E 113°33'1243462.2
2017-Oct-19 16:58N 23°03' E 113°30'6592371619.0
2017-Oct-19 16:58N 31°29' E 121°25'75206.6
2017-Oct-19 16:57N 31°24' E 121°31'133003.4
2017-Oct-19 16:57N 31°32' E 121°20'134541.6
2017-Oct-19 16:57N 31°24' E 121°31'668300612.0
2017-Oct-19 16:57N 22°47' E 113°36'666199905.6
2017-Oct-19 16:57N 31°22' E 121°30'82546.7
2017-Oct-19 16:57N 31°22' E 121°40'94571.1
2017-Oct-19 16:56N 31°24' E 121°30'64389038.0
2017-Oct-19 16:56N 22°41' E 114°31'568109.3
2017-Oct-19 16:56N 22°58' E 113°33'61848.6
2017-Oct-19 16:55N 22°53' E 113°31'1311592.2
2017-Oct-19 16:55N 22°53' E 113°17'134503.1
2017-Oct-19 16:55N 22°58' E 113°30'611369.9
2017-Oct-19 16:55N 23°04' E 113°32'1935099.2
2017-Oct-19 16:55N 22°44' E 113°34'2115090.0
2017-Oct-19 16:55N 23°03' E 113°25'6780017.0
2017-Oct-19 16:55N 22°41' E 114°33'5314586.9
2017-Oct-19 16:55N 22°49' E 113°37'669150456.7
2017-Oct-19 16:54N 31°18' E 121°43'661595173.9
2017-Oct-19 16:54N 22°60' E 113°35'415015.3
2017-Oct-19 16:54N 23°02' E 113°31'0111.0
2017-Oct-19 16:54N 23°01' E 113°31'42065.1
2017-Oct-19 16:54N 23°05' E 113°29'122095.9
2017-Oct-19 16:54N 23°00' E 113°41'661793791.1
2017-Oct-19 16:54N 31°34' E 121°29'3614218.8
2017-Oct-19 16:54N 31°07' E 121°56'67068932.1
2017-Oct-19 16:53N 22°55' E 113°25'9510.1
2017-Oct-19 16:52N 22°51' E 113°35'111263.0
2017-Oct-19 16:51N 22°42' E 113°30'1519.7
2017-Oct-19 16:51N 22°42' E 113°29'163536.4
2017-Oct-19 16:51N 22°58' E 113°32'81030.9
2017-Oct-19 16:51N 23°05' E 113°29'2118934.8
2017-Oct-19 16:51N 22°47' E 113°17'66877619.8
2017-Oct-19 16:50N 31°12' E 121°29'644772794.1
2017-Oct-19 16:50N 23°05' E 113°34'65636356.8
2017-Oct-19 16:49N 31°16' E 121°45'66236113.8
2017-Oct-19 16:48N 22°60' E 113°32'261681.1
2017-Oct-19 16:47N 22°44' E 113°09'68756238.9
2017-Oct-19 16:46N 31°20' E 121°40'438640.8
2017-Oct-19 16:46N 30°38' E 121°52'65323043.2
2017-Oct-19 16:44N 22°28' E 113°50'2920560.0
2017-Oct-19 16:44N 22°54' E 113°35'66115254.7
2017-Oct-19 16:41N 31°19' E 121°33'65511510.1
2017-Oct-19 16:38N 23°03' E 113°32'30537.7
2017-Oct-19 16:35N 22°46' E 113°05'67810893.6
2017-Oct-19 16:31N 31°58' E 120°27'66291617.7
2017-Oct-19 16:31N 22°54' E 113°22'6752429363.9
2017-Oct-19 16:31N 31°23' E 121°40'665598364.8
2017-Oct-19 16:30N 22°56' E 113°37'42151202.8
2017-Oct-19 16:30N 22°34' E 114°15'4784728.1
2017-Oct-19 16:30N 22°45' E 113°25'1036847.5
2017-Oct-19 16:30N 22°53' E 113°20'1425849.8
2017-Oct-19 16:30N 22°42' E 113°29'1966698.8
2017-Oct-19 16:30N 22°60' E 113°35'6602375985.9
2017-Oct-19 16:30N 31°08' E 121°53'6682405801.4
2017-Oct-19 16:30N 22°52' E 113°31'6722419471.8
2017-Oct-19 16:30N 31°18' E 121°47'1762755.9
2017-Oct-19 16:30N 31°25' E 121°29'6592372602.1
2017-Oct-19 16:30N 23°01' E 113°31'9793524742.5
2017-Oct-19 16:30N 37°51' E 121°26'379454254.5
2017-Oct-19 16:30N 31°32' E 121°20'11664.3
2017-Oct-19 16:30N 31°33' E 121°20'2545479.4
2017-Oct-19 16:30N 31°18' E 121°43'676810787.8
2017-Oct-19 16:30N 22°44' E 113°30'931309.8
2017-Oct-19 16:30N 22°53' E 113°31'87009.7
2017-Oct-19 16:30N 22°54' E 113°23'1113751.5
2017-Oct-19 16:30N 22°55' E 113°36'5022708.7
2017-Oct-19 16:30N 22°13' E 113°06'5191143.7
2017-Oct-19 16:30N 22°57' E 113°33'1781.7
2017-Oct-19 16:30N 22°56' E 113°33'1035978.0
2017-Oct-19 16:30N 22°54' E 113°22'6781219722.3
2017-Oct-19 16:30N 31°21' E 121°47'6661198887.9
2017-Oct-19 16:30N 23°02' E 113°31'6652395203.9
2017-Oct-19 16:30N 31°20' E 121°47'665598203.1
2017-Oct-19 16:30N 23°05' E 113°29'153884.6
2017-Oct-19 16:29N 22°51' E 113°35'1018271.1
2017-Oct-19 16:29N 22°44' E 113°27'677812279.9
2017-Oct-19 16:29N 31°25' E 121°32'666399764.3
2017-Oct-19 16:29N 22°52' E 113°34'6632386083.1
2017-Oct-19 16:29N 31°21' E 121°32'6571182823.1
2017-Oct-19 16:29N 23°06' E 113°25'2381072.9
2017-Oct-19 16:29N 22°47' E 113°11'2124634.1
2017-Oct-19 16:29N 23°05' E 113°23'663796195.4
2017-Oct-19 16:29N 31°37' E 121°18'2825333.7
2017-Oct-19 16:29N 31°10' E 121°28'630378279.4
2017-Oct-19 16:29N 22°41' E 114°31'53189924.4
2017-Oct-19 16:29N 22°56' E 113°37'56586.9
2017-Oct-19 16:29N 22°52' E 113°33'60214381.1
2017-Oct-19 16:29N 22°40' E 114°36'77278876.7
2017-Oct-19 16:29N 23°03' E 113°16'1759844.7
2017-Oct-19 16:29N 22°58' E 113°33'1988.2
2017-Oct-19 16:29N 22°60' E 113°32'202181762.5
2017-Oct-19 16:28N 21°16' E 110°25'203365763.8
2017-Oct-19 16:28N 22°59' E 113°34'662794260.9
2017-Oct-19 16:28N 31°16' E 121°46'668601134.7
2017-Oct-19 16:28N 22°51' E 113°35'6732421801.2
2017-Oct-19 16:28N 31°21' E 121°47'6722420658.6
2017-Oct-19 16:28N 22°55' E 113°30'6631193846.5
2017-Oct-19 16:28N 31°22' E 121°30'642329994.1
2017-Oct-19 16:28N 22°40' E 114°31'6438522.8
2017-Oct-19 16:28N 22°46' E 113°22'125623.9
2017-Oct-19 16:28N 22°51' E 113°35'139199.1
2017-Oct-19 16:28N 23°04' E 113°32'1112710.9
2017-Oct-19 16:28N 22°53' E 113°31'5869879.1
2017-Oct-19 16:28N 22°41' E 114°33'643231396.2
2017-Oct-19 16:28N 31°29' E 121°25'661140057.5
2017-Oct-19 16:27N 22°56' E 113°36'664265624.7
2017-Oct-19 16:27N 31°22' E 121°40'663265259.8
2017-Oct-19 16:27N 23°00' E 113°32'21032.7
2017-Oct-19 16:27N 22°59' E 113°34'0418.7
2017-Oct-19 16:27N 22°59' E 113°34'2752.6
2017-Oct-19 16:27N 22°58' E 113°33'661148704.5
2017-Oct-19 16:26N 31°24' E 121°30'82340.4
2017-Oct-19 16:26N 31°21' E 121°39'51343.6
2017-Oct-19 16:26N 31°24' E 121°35'660339294.6
2017-Oct-19 16:26N 23°03' E 113°32'666119843.3
2017-Oct-19 16:26N 31°31' E 121°36'679111165.5
2017-Oct-19 16:25N 22°53' E 113°22'283127560.8
2017-Oct-19 16:25N 24°20' E 118°17'454272572.2
2017-Oct-19 16:25N 31°16' E 121°45'64474747.9
2017-Oct-19 16:24N 22°41' E 114°32'5262500.7
2017-Oct-19 16:24N 22°32' E 113°36'3515901.0
2017-Oct-19 16:24N 23°06' E 113°26'910701.9
2017-Oct-19 16:24N 22°57' E 113°30'214521.2
2017-Oct-19 16:24N 22°36' E 113°27'182847.3
2017-Oct-19 16:24N 22°54' E 113°28'670803942.6
2017-Oct-19 16:23N 31°47' E 121°06'1831852.1
2017-Oct-19 16:23N 31°34' E 121°20'679271726.8
2017-Oct-19 16:23N 22°47' E 113°17'204319.6
2017-Oct-19 16:23N 22°57' E 113°37'7841.5
2017-Oct-19 16:22N 23°02' E 113°31'154082.7
2017-Oct-19 16:22N 22°53' E 113°18'187050.0
2017-Oct-19 16:22N 22°44' E 113°34'671150989.2
2017-Oct-19 16:22N 31°28' E 121°25'666239735.5
2017-Oct-19 16:22N 22°49' E 113°37'65168895.5
2017-Oct-19 16:21N 30°43' E 121°56'4724037.0
2017-Oct-19 16:21N 31°24' E 121°31'6681202375.4
2017-Oct-19 16:21N 22°47' E 113°36'13465.8
2017-Oct-19 16:19N 22°58' E 113°30'655471423.0
2017-Oct-19 16:19N 31°59' E 120°27'650111348.3
2017-Oct-19 16:19N 23°05' E 113°29'4188.3
2017-Oct-19 16:18N 23°03' E 113°25'1810825.1
2017-Oct-19 16:18N 22°47' E 113°17'67127431.3
2017-Oct-19 16:16N 31°13' E 121°30'65025704.0
2017-Oct-19 16:15N 23°05' E 113°29'5591.2
2017-Oct-19 16:14N 23°01' E 113°31'658124650.7
2017-Oct-19 16:14N 31°19' E 121°33'68635798.8
2017-Oct-19 16:13N 22°44' E 113°05'67231032.2
2017-Oct-19 16:11N 30°41' E 121°55'638127616.3
2017-Oct-19 16:11N 23°05' E 113°34'5217.7
2017-Oct-19 16:10N 23°02' E 113°30'070.0
2017-Oct-19 16:09N 23°02' E 113°30'646105713.8
2017-Oct-19 16:09N 31°09' E 121°27'655392759.1
2017-Oct-19 16:09N 22°46' E 113°38'201746.4
2017-Oct-19 16:08N 22°28' E 113°50'371554.4
2017-Oct-19 16:07N 22°47' E 113°15'68250080.6
2017-Oct-19 16:06N 31°41' E 121°11'2417216.4
2017-Oct-19 16:06N 31°24' E 121°31'66095101.9
2017-Oct-19 16:05N 22°59' E 113°33'4236179406.8
2017-Oct-19 16:04N 31°49' E 034°39'79213516.2
2017-Oct-19 16:01N 44°09' E 028°40'443515966411.6
2017-Oct-19 16:01N 22°52' E 113°34'6672402591.9
2017-Oct-19 16:01N 31°37' E 121°18'6661199283.6
2017-Oct-19 16:00N 22°54' E 113°34'518774.8
2017-Oct-19 16:00N 22°59' E 113°33'6602377673.6
2017-Oct-19 16:00N 31°28' E 121°25'6681201752.6
2017-Oct-19 16:00N 22°48' E 113°35'931604.7
2017-Oct-19 16:00N 22°56' E 113°30'667800005.5
2017-Oct-19 16:00N 31°12' E 121°49'6772436511.1
2017-Oct-19 16:00N 22°44' E 113°28'1220726.5
2017-Oct-19 16:00N 22°54' E 113°23'1035158.2
2017-Oct-19 16:00N 22°53' E 113°34'6682405922.8
2017-Oct-19 16:00N 31°19' E 121°45'6461163216.9
2017-Oct-19 16:00N 22°41' E 114°32'57206784.2
2017-Oct-19 16:00N 22°52' E 113°31'9881778941.9
2017-Oct-19 16:00N 37°51' E 121°28'9833537751.7
2017-Oct-19 16:00N 22°56' E 113°36'6621192038.3
2017-Oct-19 16:00N 31°21' E 121°37'916024.3
2017-Oct-19 16:00N 31°22' E 121°47'6742427859.9
2017-Oct-19 16:00N 22°54' E 113°30'76300.7
2017-Oct-19 16:00N 23°00' E 113°32'6612381236.3
2017-Oct-19 16:00N 31°41' E 121°12'6632386813.3
2017-Oct-19 16:00N 22°59' E 113°32'621465.5
2017-Oct-19 16:00N 22°55' E 113°27'89692.5
2017-Oct-19 16:00N 22°55' E 113°36'6622382406.7
2017-Oct-19 16:00N 31°24' E 121°31'659474422.3
2017-Oct-19 16:00N 22°59' E 113°34'6572364785.6
2017-Oct-19 16:00N 31°21' E 121°32'658789322.5
2017-Oct-19 16:00N 22°57' E 113°37'9813530859.5
2017-Oct-19 16:00N 37°50' E 121°26'9983591816.4
2017-Oct-19 16:00N 22°43' E 113°25'1221418.6
2017-Oct-19 16:00N 22°51' E 113°35'1715168.1
2017-Oct-19 16:00N 22°47' E 113°17'2175612.8
2017-Oct-19 16:00N 23°00' E 113°35'660215859.8
2017-Oct-19 15:59N 31°25' E 121°32'6591186476.4
2017-Oct-19 15:59N 23°05' E 113°29'118096.3
2017-Oct-19 15:59N 22°56' E 113°37'620908.3
2017-Oct-19 15:59N 22°51' E 113°35'1720058.3
2017-Oct-19 15:59N 22°47' E 113°17'6842460773.7
2017-Oct-19 15:59N 31°23' E 121°40'665797819.0
2017-Oct-19 15:59N 23°01' E 113°31'63347.7
2017-Oct-19 15:59N 23°05' E 113°34'6571181967.8
2017-Oct-19 15:59N 31°24' E 121°35'6791221489.3
2017-Oct-19 15:59N 22°45' E 113°24'128361.2
2017-Oct-19 15:59N 22°53' E 113°33'109309.3
2017-Oct-19 15:59N 23°03' E 113°32'6572366972.3
2017-Oct-19 15:59N 31°24' E 121°31'89690.1
2017-Oct-19 15:59N 31°22' E 121°40'6631192967.0
2017-Oct-19 15:59N 22°59' E 113°34'47041.4
2017-Oct-19 15:59N 22°56' E 113°37'519760.6
2017-Oct-19 15:59N 22°52' E 113°33'76071.5
2017-Oct-19 15:59N 22°58' E 113°33'5628961.8
2017-Oct-19 15:59N 22°41' E 114°31'244438320.3
2017-Oct-19 15:58N 21°16' E 110°25'860281520.0
2017-Oct-19 15:58N 31°21' E 121°47'174963.4
2017-Oct-19 15:58N 31°13' E 121°30'1242738.9
2017-Oct-19 15:58N 31°22' E 121°40'647211590.1
2017-Oct-19 15:58N 22°40' E 114°31'963433459.5
2017-Oct-19 15:58N 37°35' E 121°23'9703491395.1
2017-Oct-19 15:58N 22°36' E 114°24'4620671.3
2017-Oct-19 15:58N 22°49' E 113°37'827424.2
2017-Oct-19 15:58N 22°57' E 113°36'54369.8
2017-Oct-19 15:58N 22°59' E 113°32'660237434.8
2017-Oct-19 15:57N 31°22' E 121°30'6592374016.2
2017-Oct-19 15:57N 23°04' E 113°25'2921209.5
2017-Oct-19 15:57N 22°34' E 113°29'682223045.8
2017-Oct-19 15:57N 31°32' E 121°20'668300584.6
2017-Oct-19 15:57N 22°47' E 113°36'656262314.3
2017-Oct-19 15:57N 31°10' E 121°28'1526297.1
2017-Oct-19 15:57N 31°24' E 121°30'1401.3
2017-Oct-19 15:57N 31°24' E 121°31'4710506.5
2017-Oct-19 15:56N 30°43' E 121°56'650156027.0
2017-Oct-19 15:56N 22°55' E 113°30'635023.8
2017-Oct-19 15:55N 22°40' E 114°36'6457252.4
2017-Oct-19 15:55N 22°58' E 113°30'660594444.2
2017-Oct-19 15:55N 31°19' E 121°33'7804.7
2017-Oct-19 15:55N 31°25' E 121°29'641177539.4
2017-Oct-19 15:54N 22°41' E 114°33'58209628.8
2017-Oct-19 15:54N 22°53' E 113°31'674186659.0
2017-Oct-19 15:54N 31°30' E 121°38'133773.5
2017-Oct-19 15:54N 31°18' E 121°43'239086.7
2017-Oct-19 15:54N 31°32' E 121°22'122799.3
2017-Oct-19 15:54N 31°41' E 121°12'660339197.9
2017-Oct-19 15:54N 23°05' E 113°29'117979.4
2017-Oct-19 15:53N 22°57' E 113°37'668400886.7
2017-Oct-19 15:53N 31°31' E 121°36'674151608.0
2017-Oct-19 15:53N 22°51' E 113°35'8773.9
2017-Oct-19 15:52N 22°59' E 113°34'84359.8
2017-Oct-19 15:52N 22°51' E 113°35'123900.4
2017-Oct-19 15:52N 22°53' E 113°22'673186396.1
2017-Oct-19 15:52N 31°16' E 121°45'68162836.8
2017-Oct-19 15:51N 22°47' E 113°17'205248.8
2017-Oct-19 15:51N 23°03' E 113°30'18436.7
2017-Oct-19 15:49N 22°47' E 113°36'462704.9
2017-Oct-19 15:48N 22°36' E 114°24'506198.6
2017-Oct-19 15:47N 22°52' E 113°33'113803.6
2017-Oct-19 15:47N 22°42' E 113°30'6772437492.2
2017-Oct-19 15:47N 31°44' E 121°06'5319.0
2017-Oct-19 15:46N 31°41' E 121°10'68331515.0
2017-Oct-19 15:45N 22°47' E 113°11'171881.0
2017-Oct-19 15:44N 22°55' E 113°27'6125.2
2017-Oct-19 15:41N 22°58' E 113°33'66334072.9
2017-Oct-19 15:40N 31°11' E 121°49'661125177.7
2017-Oct-19 15:40N 23°02' E 113°30'66020853.9
2017-Oct-19 15:38N 31°43' E 121°08'361519.8
2017-Oct-19 15:37N 31°10' E 121°28'65943919.7
2017-Oct-19 15:36N 22°44' E 113°34'6739217.6
2017-Oct-19 15:31N 31°41' E 121°12'66851163.5
2017-Oct-19 15:31N 22°53' E 113°31'4580615.9
2017-Oct-19 15:30N 22°34' E 114°15'6552357311.1
2017-Oct-19 15:30N 31°21' E 121°32'6652395646.1
2017-Oct-19 15:30N 22°48' E 113°35'621812.5
2017-Oct-19 15:30N 22°53' E 113°31'621678.2
2017-Oct-19 15:30N 22°57' E 113°37'6631193822.3
2017-Oct-19 15:30N 31°22' E 121°40'6652392775.9
2017-Oct-19 15:30N 22°59' E 113°31'6612381254.3
2017-Oct-19 15:30N 31°15' E 121°42'6612378649.2
2017-Oct-19 15:30N 22°59' E 113°33'6652395531.0
2017-Oct-19 15:30N 31°23' E 121°40'1243308.5
2017-Oct-19 15:30N 31°28' E 121°27'6782440264.7
2017-Oct-19 15:30N 22°48' E 113°19'6861234687.0
2017-Oct-19 15:30N 31°28' E 121°42'6852464531.5
2017-Oct-19 15:30N 22°42' E 113°29'58127.0
2017-Oct-19 15:30N 22°43' E 113°25'620322329141.0
2017-Oct-19 15:30N 49°12' W 123°09'538419380981.3
2017-Oct-19 15:30N 31°37' E 121°18'3741344895.5
2017-Oct-19 15:30N 37°51' E 121°25'3861391343.5
2017-Oct-19 15:30N 31°24' E 121°31'6672400557.2
2017-Oct-19 15:30N 22°48' E 113°37'713289.3
2017-Oct-19 15:30N 22°52' E 113°31'6661199617.6
2017-Oct-19 15:30N 31°32' E 121°20'6622384635.0
2017-Oct-19 15:30N 22°56' E 113°33'42127.2
2017-Oct-19 15:30N 22°53' E 113°30'1966700.1
2017-Oct-19 15:30N 22°47' E 113°11'2327422.6
2017-Oct-19 15:30N 23°05' E 113°28'661396392.8
2017-Oct-19 15:30N 31°12' E 121°49'6612379309.9
2017-Oct-19 15:30N 22°59' E 113°34'46351.3
2017-Oct-19 15:30N 22°57' E 113°37'1348555.6
2017-Oct-19 15:30N 22°54' E 113°22'1211061.3
2017-Oct-19 15:30N 23°05' E 113°29'89107.6
2017-Oct-19 15:30N 23°00' E 113°35'659791321.4
2017-Oct-19 15:30N 31°23' E 121°35'126182.6
2017-Oct-19 15:29N 31°31' E 121°25'828116.1
2017-Oct-19 15:29N 31°24' E 121°30'22786.1
2017-Oct-19 15:29N 31°25' E 121°32'4641669745.6
2017-Oct-19 15:29N 24°16' E 118°12'266957445.7
2017-Oct-19 15:29N 22°55' E 113°36'665798581.5
2017-Oct-19 15:29N 31°22' E 121°40'6791221604.9
2017-Oct-19 15:29N 22°28' E 113°50'1005452075.5
2017-Oct-19 15:29N 37°51' E 121°31'388465630.2
2017-Oct-19 15:29N 31°23' E 121°51'6702412522.0
2017-Oct-19 15:29N 23°06' E 113°25'270972092.2
2017-Oct-19 15:29N 24°19' E 118°09'267192412.7
2017-Oct-19 15:29N 22°53' E 113°33'666799678.0
2017-Oct-19 15:29N 31°42' E 121°10'659790570.1
2017-Oct-19 15:29N 23°03' E 113°32'659339016.0
2017-Oct-19 15:29N 31°41' E 121°12'6681202166.7
2017-Oct-19 15:29N 22°52' E 113°33'33010.1
2017-Oct-19 15:29N 22°50' E 113°35'1145.5
2017-Oct-19 15:28N 22°51' E 113°35'6731210908.6
2017-Oct-19 15:28N 31°21' E 121°47'6742426235.3
2017-Oct-19 15:28N 22°55' E 113°27'61218456.2
2017-Oct-19 15:28N 22°41' E 114°31'52421.5
2017-Oct-19 15:28N 22°41' E 114°36'53157.9
2017-Oct-19 15:28N 22°40' E 114°31'646774942.0
2017-Oct-19 15:28N 31°24' E 121°35'37195528.5
2017-Oct-19 15:28N 37°35' E 121°23'9703491395.1
2017-Oct-19 15:28N 22°36' E 114°24'84751.9
2017-Oct-19 15:28N 22°40' E 114°31'6431157464.1
2017-Oct-19 15:28N 31°25' E 121°29'518112.6
2017-Oct-19 15:28N 31°29' E 121°25'191956.2
2017-Oct-19 15:27N 31°18' E 121°43'6622381703.0
2017-Oct-19 15:27N 22°57' E 113°37'1112648.5
2017-Oct-19 15:27N 22°47' E 113°36'670804281.5
2017-Oct-19 15:27N 31°38' E 121°16'714367380.0
2017-Oct-19 15:27N 22°13' E 113°06'5448915.5
2017-Oct-19 15:27N 22°60' E 113°35'91804.8
2017-Oct-19 15:26N 22°51' E 113°35'176018.0
2017-Oct-19 15:26N 22°47' E 113°17'2036200.9
2017-Oct-19 15:26N 22°59' E 113°34'61432.0
2017-Oct-19 15:26N 22°55' E 113°30'19824559.7
2017-Oct-19 15:25N 21°16' E 110°25'203365763.8
2017-Oct-19 15:25N 22°59' E 113°34'1195.2
2017-Oct-19 15:25N 22°58' E 113°33'58455.9
2017-Oct-19 15:25N 23°02' E 113°30'6672402201.3
2017-Oct-19 15:25N 31°17' E 121°54'668100224.9
2017-Oct-19 15:25N 22°57' E 113°36'652335248.9
2017-Oct-19 15:25N 31°13' E 121°30'63463413.9
2017-Oct-19 15:24N 22°41' E 114°32'637254740.4
2017-Oct-19 15:24N 31°15' E 121°33'673201994.0
2017-Oct-19 15:24N 22°47' E 113°17'682153345.0
2017-Oct-19 15:23N 31°09' E 121°54'66361182.4
2017-Oct-19 15:23N 22°56' E 113°37'6986.0
2017-Oct-19 15:22N 22°58' E 113°30'123654.7
2017-Oct-19 15:22N 22°53' E 113°18'68298192.8
2017-Oct-19 15:22N 31°31' E 121°36'674404574.2
2017-Oct-19 15:22N 22°49' E 113°37'152048.4
2017-Oct-19 15:21N 23°04' E 113°32'10534.4
2017-Oct-19 15:20N 22°54' E 113°35'12720.2
2017-Oct-19 15:19N 23°05' E 113°34'1916966.0
2017-Oct-19 15:19N 22°47' E 113°36'161614.0
2017-Oct-19 15:18N 23°02' E 113°31'649129801.0
2017-Oct-19 15:18N 31°12' E 121°29'649467325.6
2017-Oct-19 15:18N 23°01' E 113°31'173913.9
2017-Oct-19 15:18N 22°44' E 113°34'141144.4
2017-Oct-19 15:17N 22°58' E 113°33'65344335.7
2017-Oct-19 15:16N 31°13' E 121°30'134222.2
2017-Oct-19 15:16N 31°16' E 121°45'455092.8
2017-Oct-19 15:15N 31°46' E 121°06'681817501.6
2017-Oct-19 15:15N 22°54' E 113°07'14349.9
2017-Oct-19 15:13N 22°48' E 113°21'71173.7
2017-Oct-19 15:13N 22°43' E 113°25'12433.2
2017-Oct-19 15:11N 22°35' E 113°36'481975.5
2017-Oct-19 15:09N 21°52' E 113°15'51895.7
2017-Oct-19 15:06N 22°39' E 113°33'13452.4
2017-Oct-19 15:04N 22°47' E 113°21'67869687.5
2017-Oct-19 15:04N 31°29' E 121°26'7353.3
2017-Oct-19 15:03N 31°24' E 121°31'65819920.4
2017-Oct-19 15:01N 23°03' E 113°30'1036157.8
2017-Oct-19 15:01N 22°53' E 113°31'6672402803.2
2017-Oct-19 15:00N 31°36' E 121°18'6622382766.2
2017-Oct-19 15:00N 22°60' E 113°31'6582370010.5
2017-Oct-19 15:00N 31°21' E 121°32'4611661236.2
2017-Oct-19 15:00N 24°15' E 118°10'3081107096.1
2017-Oct-19 15:00N 21°51' E 113°14'425015299608.3
2017-Oct-19 15:00N 31°49' E 034°39'429615465675.3
2017-Oct-19 15:00N 22°40' E 114°31'6451160164.4
2017-Oct-19 15:00N 31°25' E 121°31'2952357.4
2017-Oct-19 15:00N 31°07' E 121°58'6691203378.1
2017-Oct-19 15:00N 22°52' E 113°34'6681202314.5
2017-Oct-19 15:00N 31°20' E 121°40'6842463466.3
2017-Oct-19 15:00N 22°47' E 113°11'44207956127.5
2017-Oct-19 15:00N 44°09' E 028°40'446316065230.4
2017-Oct-19 15:00N 31°29' E 121°27'6772436555.9
2017-Oct-19 15:00N 22°42' E 113°29'1451045.0
2017-Oct-19 15:00N 22°54' E 113°21'139043.5
2017-Oct-19 15:00N 22°51' E 113°34'611116.0
2017-Oct-19 15:00N 22°57' E 113°37'6592372993.3
2017-Oct-19 15:00N 31°25' E 121°29'1451529.1
2017-Oct-19 15:00N 31°18' E 121°43'669802838.8
2017-Oct-19 15:00N 22°52' E 113°31'724847.4
2017-Oct-19 15:00N 22°56' E 113°37'1035447.7
2017-Oct-19 15:00N 22°47' E 113°36'87567.4
2017-Oct-19 15:00N 22°55' E 113°36'1119585.5
2017-Oct-19 15:00N 22°44' E 113°34'1552976.8
2017-Oct-19 15:00N 22°59' E 113°33'5262792.3
2017-Oct-19 15:00N 22°13' E 113°06'5667533.0
2017-Oct-19 15:00N 23°06' E 113°26'1966949.7
2017-Oct-19 15:00N 22°49' E 113°36'1112855.8
2017-Oct-19 15:00N 22°60' E 113°35'47985.8
2017-Oct-19 15:00N 23°02' E 113°31'828367.8
2017-Oct-19 15:00N 22°57' E 113°37'63175.5
2017-Oct-19 14:59N 22°51' E 113°35'75369.5
2017-Oct-19 14:59N 22°45' E 113°30'6731211464.6
2017-Oct-19 14:59N 31°24' E 121°30'25572.3
2017-Oct-19 14:59N 31°25' E 121°32'1112948.7
2017-Oct-19 14:59N 31°15' E 121°29'1034559.6
2017-Oct-19 14:59N 31°24' E 121°31'6752431380.4
2017-Oct-19 14:59N 22°28' E 113°50'3518083.0
2017-Oct-19 14:59N 22°47' E 113°17'2012127.3
2017-Oct-19 14:59N 23°06' E 113°25'158773.0
2017-Oct-19 14:59N 22°53' E 113°33'6631193411.0
2017-Oct-19 14:59N 31°22' E 121°30'6651197475.6
2017-Oct-19 14:59N 22°47' E 113°38'83798.9
2017-Oct-19 14:59N 22°53' E 113°31'21840.6
2017-Oct-19 14:59N 22°52' E 113°33'519777.8
2017-Oct-19 14:59N 22°56' E 113°37'1720571.3
2017-Oct-19 14:59N 22°43' E 113°25'188112738.5
2017-Oct-19 14:59N 21°16' E 110°25'203182881.9
2017-Oct-19 14:58N 22°59' E 113°34'84356.7
2017-Oct-19 14:58N 22°51' E 113°35'6631193832.3
2017-Oct-19 14:58N 31°19' E 121°33'6642391777.6
2017-Oct-19 14:58N 22°55' E 113°27'674606558.8
2017-Oct-19 14:58N 31°21' E 121°47'3021331.8
2017-Oct-19 14:58N 31°37' E 121°18'2442444.5
2017-Oct-19 14:58N 31°22' E 121°40'646581579.0
2017-Oct-19 14:58N 22°41' E 114°31'646465036.6
2017-Oct-19 14:58N 31°22' E 121°40'643463210.1
2017-Oct-19 14:58N 22°41' E 114°36'54736.9
2017-Oct-19 14:58N 22°40' E 114°31'9633468264.7
2017-Oct-19 14:58N 37°35' E 121°23'9701745707.5
2017-Oct-19 14:58N 22°36' E 114°24'6511171337.9
2017-Oct-19 14:58N 31°24' E 121°31'6611189511.5
2017-Oct-19 14:58N 22°58' E 113°33'662595481.6
2017-Oct-19 14:58N 31°29' E 121°25'661792975.7
2017-Oct-19 14:58N 22°57' E 113°36'827424.2
2017-Oct-19 14:58N 22°49' E 113°37'6582367371.8
2017-Oct-19 14:58N 31°13' E 121°30'646465242.9
2017-Oct-19 14:57N 23°05' E 113°34'94500.9
2017-Oct-19 14:57N 22°57' E 113°37'71920.0
2017-Oct-19 14:57N 23°02' E 113°31'72311.0
2017-Oct-19 14:57N 22°56' E 113°36'5416268.9
2017-Oct-19 14:57N 22°41' E 114°32'5136453.8
2017-Oct-19 14:57N 22°47' E 113°38'202210.5
2017-Oct-19 14:56N 23°05' E 113°29'8840.5
2017-Oct-19 14:56N 22°59' E 113°34'659107837.8
2017-Oct-19 14:55N 31°32' E 121°20'3313283.3
2017-Oct-19 14:55N 31°17' E 121°54'212491.1
2017-Oct-19 14:55N 31°13' E 121°30'1425799.7
2017-Oct-19 14:54N 31°14' E 121°47'661169915.0
2017-Oct-19 14:54N 23°03' E 113°30'114004.9
2017-Oct-19 14:54N 22°54' E 113°22'133099.0
2017-Oct-19 14:54N 23°04' E 113°32'53407.5
2017-Oct-19 14:54N 22°59' E 113°34'1510903.8
2017-Oct-19 14:54N 22°44' E 113°34'169696.8
2017-Oct-19 14:54N 22°47' E 113°17'2118899.9
2017-Oct-19 14:54N 23°00' E 113°35'933560.3
2017-Oct-19 14:53N 22°55' E 113°27'67037081.7
2017-Oct-19 14:52N 31°24' E 121°35'98385059555.2
2017-Oct-19 14:52N 36°46' W 076°18'99071229855.8
2017-Oct-19 14:52N 23°02' E 113°31'1729964.7
2017-Oct-19 14:52N 22°50' E 113°19'133342.3
2017-Oct-19 14:52N 22°52' E 113°33'2313905.1
2017-Oct-19 14:51N 22°54' E 113°08'24610.0
2017-Oct-19 14:49N 22°58' E 113°33'662149025.3
2017-Oct-19 14:49N 31°16' E 121°45'661297490.7
2017-Oct-19 14:49N 23°02' E 113°30'127065.3
2017-Oct-19 14:49N 22°51' E 113°35'674808564.6
2017-Oct-19 14:49N 31°31' E 121°36'196306.5
2017-Oct-19 14:48N 31°38' E 121°15'661125321.4
2017-Oct-19 14:48N 23°00' E 113°32'2545.2
2017-Oct-19 14:48N 23°01' E 113°31'111114.8
2017-Oct-19 14:47N 22°51' E 113°35'563612.2
2017-Oct-19 14:46N 22°21' E 114°26'75135662.3
2017-Oct-19 14:46N 22°54' E 113°13'66816025.7
2017-Oct-19 14:44N 31°14' E 121°30'70632589.8
2017-Oct-19 14:43N 22°10' E 113°06'389213.5
2017-Oct-19 14:42N 22°38' E 113°35'161372.4
2017-Oct-19 14:42N 22°38' E 113°18'65763950.2
2017-Oct-19 14:41N 31°06' E 121°05'64516226.5
2017-Oct-19 14:39N 23°00' E 113°10'241860.0
2017-Oct-19 14:38N 22°54' E 113°35'2410745.2
2017-Oct-19 14:38N 22°54' E 113°09'132047.7
2017-Oct-19 14:37N 22°47' E 113°21'366525.6
2017-Oct-19 14:37N 22°14' E 113°05'42541.9
2017-Oct-19 14:32N 22°55' E 113°14'14467.9
2017-Oct-19 14:31N 22°54' E 113°30'829379.7
2017-Oct-19 14:31N 22°49' E 113°37'1137903.2
2017-Oct-19 14:30N 22°59' E 113°33'5496779.0
2017-Oct-19 14:30N 22°11' E 113°06'28096.6
2017-Oct-19 14:30N 22°13' E 113°05'4683466.0
2017-Oct-19 14:30N 22°54' E 113°30'1222222.9
2017-Oct-19 14:30N 23°06' E 113°26'1347115.5
2017-Oct-19 14:30N 22°57' E 113°37'618122250500.0
2017-Oct-19 14:30N 49°12' W 123°09'61917429500.5
2017-Oct-19 14:30N 22°44' E 113°37'415912.0
2017-Oct-19 14:30N 22°48' E 113°35'6682403640.4
2017-Oct-19 14:30N 31°24' E 121°31'6602374396.4
2017-Oct-19 14:30N 22°57' E 113°37'828820.1
2017-Oct-19 14:30N 22°54' E 113°29'611205.0
2017-Oct-19 14:30N 22°51' E 113°35'1347581.3
2017-Oct-19 14:30N 23°03' E 113°30'61219933.7
2017-Oct-19 14:30N 22°40' E 114°31'9781760437.2
2017-Oct-19 14:30N 37°49' E 121°29'3861390734.1
2017-Oct-19 14:30N 31°23' E 121°36'6682405972.9
2017-Oct-19 14:30N 22°49' E 113°36'1221205.9
2017-Oct-19 14:30N 23°00' E 113°32'659791006.5
2017-Oct-19 14:30N 31°25' E 121°29'6662397114.1
2017-Oct-19 14:30N 22°49' E 113°36'6592371941.6
2017-Oct-19 14:30N 31°15' E 121°30'396284981.9
2017-Oct-19 14:30N 37°51' E 121°30'9893561031.5
2017-Oct-19 14:30N 22°52' E 113°31'5942145.6
2017-Oct-19 14:30N 22°41' E 114°33'65234670.5
2017-Oct-19 14:30N 22°54' E 113°24'669300976.4
2017-Oct-19 14:30N 31°24' E 121°31'6571182339.5
2017-Oct-19 14:30N 23°04' E 113°32'2278114.1
2017-Oct-19 14:30N 22°47' E 113°17'6942497084.0
2017-Oct-19 14:30N 31°20' E 122°01'693831030.9
2017-Oct-19 14:30N 22°54' E 113°11'76273841.2
2017-Oct-19 14:30N 22°41' E 114°32'6451160645.4
2017-Oct-19 14:29N 31°33' E 121°21'124010.4
2017-Oct-19 14:29N 31°25' E 121°32'683189152.8
2017-Oct-19 14:29N 22°47' E 113°11'2381072.9
2017-Oct-19 14:29N 23°06' E 113°25'153151.3
2017-Oct-19 14:29N 22°54' E 113°35'1656278.8
2017-Oct-19 14:29N 22°51' E 113°18'6732423042.5
2017-Oct-19 14:29N 31°22' E 121°30'78628.8
2017-Oct-19 14:29N 31°28' E 121°25'6661198486.7
2017-Oct-19 14:29N 22°52' E 113°33'519795.0
2017-Oct-19 14:29N 22°56' E 113°37'664796420.8
2017-Oct-19 14:29N 31°22' E 121°40'74285.5
2017-Oct-19 14:28N 31°21' E 121°32'8503059461.2
2017-Oct-19 14:28N 21°16' E 110°25'203243838.8
2017-Oct-19 14:28N 22°59' E 113°34'1911148.5
2017-Oct-19 14:28N 22°55' E 113°15'2801006871.6
2017-Oct-19 14:28N 24°14' E 118°07'268483004.6
2017-Oct-19 14:28N 22°55' E 113°27'413944.3
2017-Oct-19 14:28N 22°58' E 113°30'666479729.7
2017-Oct-19 14:28N 31°22' E 121°40'724287.1
2017-Oct-19 14:28N 31°21' E 121°47'668600960.2
2017-Oct-19 14:28N 22°58' E 113°33'668802159.9
2017-Oct-19 14:28N 31°17' E 121°54'678174391.9
2017-Oct-19 14:28N 22°54' E 113°22'9743505995.2
2017-Oct-19 14:28N 37°35' E 121°23'9631733167.6
2017-Oct-19 14:28N 22°41' E 114°31'6244381.6
2017-Oct-19 14:28N 22°43' E 113°25'685616669.2
2017-Oct-19 14:28N 31°21' E 121°47'6671201444.0
2017-Oct-19 14:28N 22°57' E 113°36'53189897.1
2017-Oct-19 14:28N 22°40' E 114°31'7132112.1
2017-Oct-19 14:27N 22°54' E 113°15'2613335.7
2017-Oct-19 14:27N 22°36' E 113°36'6712416382.0
2017-Oct-19 14:27N 31°16' E 121°33'654470737.0
2017-Oct-19 14:27N 23°02' E 113°30'55196668.0
2017-Oct-19 14:27N 22°13' E 113°06'714214346.7
2017-Oct-19 14:27N 31°18' E 121°43'2544102.9
2017-Oct-19 14:27N 31°32' E 121°20'659148276.0
2017-Oct-19 14:27N 22°59' E 113°34'662238194.0
2017-Oct-19 14:27N 31°24' E 121°35'6612377921.8
2017-Oct-19 14:27N 23°00' E 113°35'658263250.6
2017-Oct-19 14:26N 31°24' E 121°30'662794102.9
2017-Oct-19 14:26N 22°55' E 113°36'44917.7
2017-Oct-19 14:26N 22°51' E 113°35'664398236.5
2017-Oct-19 14:26N 31°20' E 121°33'663198904.2
2017-Oct-19 14:26N 22°53' E 113°33'169576.9
2017-Oct-19 14:26N 22°47' E 113°17'2036669.2
2017-Oct-19 14:26N 22°56' E 113°37'651167347.4
2017-Oct-19 14:26N 31°12' E 121°30'718215309.9
2017-Oct-19 14:25N 21°50' E 113°11'5729560.9
2017-Oct-19 14:25N 22°47' E 113°21'91385.3
2017-Oct-19 14:25N 22°38' E 113°19'6027139.8
2017-Oct-19 14:25N 22°36' E 114°24'652293445.2
2017-Oct-19 14:25N 31°29' E 121°25'666799363.9
2017-Oct-19 14:25N 22°51' E 113°35'52067.7
2017-Oct-19 14:24N 22°56' E 113°33'143041.0
2017-Oct-19 14:24N 22°42' E 113°29'152407.3
2017-Oct-19 14:24N 22°56' E 113°36'663795944.1
2017-Oct-19 14:24N 31°37' E 121°18'6742425526.3
2017-Oct-19 14:24N 22°44' E 113°34'556575.0
2017-Oct-19 14:23N 22°24' E 114°29'6913158.0
2017-Oct-19 14:23N 23°05' E 113°29'659139590.0
2017-Oct-19 14:23N 31°36' E 121°17'661340184.4
2017-Oct-19 14:22N 22°60' E 113°32'2249.1
2017-Oct-19 14:22N 22°58' E 113°33'66552032.4
2017-Oct-19 14:21N 31°03' E 122°03'67848829.0
2017-Oct-19 14:20N 22°59' E 113°10'4817296.3
2017-Oct-19 14:20N 22°28' E 113°50'418273.3
2017-Oct-19 14:20N 23°05' E 113°29'8442.1
2017-Oct-19 14:19N 22°60' E 113°35'4212.6
2017-Oct-19 14:18N 23°01' E 113°31'28047.6
2017-Oct-19 14:18N 23°03' E 113°32'6224.3
2017-Oct-19 14:16N 23°04' E 113°26'596.6
2017-Oct-19 14:13N 23°02' E 113°31'651195289.2
2017-Oct-19 14:13N 31°13' E 121°30'670120611.7
2017-Oct-19 14:13N 22°54' E 113°09'651586160.6
2017-Oct-19 14:13N 31°08' E 121°05'33880.9
2017-Oct-19 14:10N 31°41' E 121°12'65824.5
2017-Oct-19 14:10N 31°44' E 121°05'6761217289.5
2017-Oct-19 14:10N 22°54' E 113°12'231654.5
2017-Oct-19 14:09N 23°05' E 113°34'192437.4
2017-Oct-19 14:09N 22°47' E 113°36'0 2.5
2017-Oct-19 14:05N 22°47' E 113°36'6609692.7
2017-Oct-19 14:01N 31°14' E 121°30'659296646.9
2017-Oct-19 14:01N 22°48' E 113°35'64982.5
2017-Oct-19 14:00N 22°53' E 113°32'6612377863.4
2017-Oct-19 14:00N 31°16' E 121°33'6542355015.2
2017-Oct-19 14:00N 22°57' E 113°37'415787.7
2017-Oct-19 14:00N 22°54' E 113°34'621358.7
2017-Oct-19 14:00N 22°55' E 113°28'6682404197.4
2017-Oct-19 14:00N 31°34' E 121°19'1967760.4
2017-Oct-19 14:00N 31°22' E 121°36'538219376716.8
2017-Oct-19 14:00N 49°12' W 123°09'619922316716.5
2017-Oct-19 14:00N 22°53' E 113°17'6732423346.9
2017-Oct-19 14:00N 31°25' E 121°29'6572363556.6
2017-Oct-19 14:00N 22°34' E 114°16'50181175.0
2017-Oct-19 14:00N 23°03' E 113°32'1657053.4
2017-Oct-19 14:00N 22°53' E 113°19'89410.5
2017-Oct-19 14:00N 22°55' E 113°27'1214545.8
2017-Oct-19 14:00N 22°43' E 113°25'1922700.0
2017-Oct-19 14:00N 23°00' E 113°32'6631193125.5
2017-Oct-19 14:00N 31°21' E 121°41'84520.7
2017-Oct-19 14:00N 31°21' E 121°32'657787989.6
2017-Oct-19 14:00N 23°06' E 113°26'65234128.2
2017-Oct-19 14:00N 22°40' E 114°31'641461528.8
2017-Oct-19 14:00N 31°21' E 121°31'32114880.5
2017-Oct-19 14:00N 31°45' E 121°06'29104540.4
2017-Oct-19 14:00N 31°31' E 121°36'6752430359.9
2017-Oct-19 14:00N 22°52' E 113°31'4682456.1
2017-Oct-19 14:00N 22°13' E 113°06'1033531494.7
2017-Oct-19 14:00N 37°49' E 121°31'9823533941.0
2017-Oct-19 14:00N 22°57' E 113°37'5465148.7
2017-Oct-19 14:00N 22°41' E 114°33'643289266.9
2017-Oct-19 13:59N 31°25' E 121°33'1720802.8
2017-Oct-19 13:59N 31°37' E 121°18'679814239.4
2017-Oct-19 13:59N 22°28' E 113°50'1628605.7
2017-Oct-19 13:59N 22°42' E 113°41'670804068.9
2017-Oct-19 13:59N 31°25' E 121°32'6712416342.0
2017-Oct-19 13:59N 22°54' E 113°23'139593.7
2017-Oct-19 13:59N 22°56' E 113°37'6602376204.6
2017-Oct-19 13:59N 31°24' E 121°31'659791111.3
2017-Oct-19 13:59N 23°06' E 113°25'633379840.3
2017-Oct-19 13:59N 31°08' E 121°06'6391149696.1
2017-Oct-19 13:59N 22°53' E 113°33'165746.9
2017-Oct-19 13:59N 22°47' E 113°17'2118839.1
2017-Oct-19 13:59N 23°05' E 113°29'1424872.6
2017-Oct-19 13:59N 22°52' E 113°33'6642390734.9
2017-Oct-19 13:59N 31°22' E 121°30'1243347.6
2017-Oct-19 13:59N 31°10' E 121°28'6482333995.7
2017-Oct-19 13:59N 22°56' E 113°37'652234703.1
2017-Oct-19 13:58N 31°14' E 121°30'1315107.6
2017-Oct-19 13:58N 31°17' E 121°44'6681201779.3
2017-Oct-19 13:58N 22°51' E 113°35'85818.5
2017-Oct-19 13:58N 22°55' E 113°27'670241262.1
2017-Oct-19 13:58N 31°22' E 121°40'78102.7
2017-Oct-19 13:58N 31°21' E 121°47'2693455.7
2017-Oct-19 13:58N 31°32' E 121°20'33119247.1
2017-Oct-19 13:58N 31°17' E 121°54'690414085.3
2017-Oct-19 13:58N 22°47' E 113°11'2646838.1
2017-Oct-19 13:58N 22°57' E 113°38'982442057.0
2017-Oct-19 13:58N 37°50' E 121°32'987592156.6
2017-Oct-19 13:58N 22°55' E 113°30'666798768.3
2017-Oct-19 13:58N 31°29' E 121°25'6762432692.3
2017-Oct-19 13:58N 22°44' E 113°28'1526959.5
2017-Oct-19 13:58N 22°57' E 113°36'5395697.5
2017-Oct-19 13:58N 22°41' E 114°31'5191870.6
2017-Oct-19 13:57N 22°49' E 113°37'46391.8
2017-Oct-19 13:57N 22°46' E 113°39'5942.1
2017-Oct-19 13:57N 22°49' E 113°34'669301273.0
2017-Oct-19 13:57N 31°18' E 121°43'1451529.1
2017-Oct-19 13:57N 31°25' E 121°29'6681201635.6
2017-Oct-19 13:57N 22°47' E 113°36'133281.7
2017-Oct-19 13:57N 22°59' E 113°34'33810.5
2017-Oct-19 13:57N 22°56' E 113°36'663340973.0
2017-Oct-19 13:57N 31°24' E 121°35'661792676.7
2017-Oct-19 13:56N 23°00' E 113°35'83425.4
2017-Oct-19 13:56N 22°53' E 113°31'135108.0
2017-Oct-19 13:56N 22°53' E 113°18'151089.1
2017-Oct-19 13:55N 23°02' E 113°30'96499108.2
2017-Oct-19 13:55N 37°35' E 121°23'9701163805.0
2017-Oct-19 13:55N 22°36' E 114°24'514844.2
2017-Oct-19 13:54N 22°42' E 113°29'198340.0
2017-Oct-19 13:54N 22°60' E 113°35'658148120.1
2017-Oct-19 13:54N 31°28' E 121°25'6918.8
2017-Oct-19 13:53N 31°24' E 121°30'666159767.7
2017-Oct-19 13:53N 22°52' E 113°33'134268.2
2017-Oct-19 13:53N 23°04' E 113°29'143599.8
2017-Oct-19 13:53N 22°51' E 113°35'20065327.3
2017-Oct-19 13:52N 21°16' E 110°25'19129843.2
2017-Oct-19 13:52N 22°53' E 113°22'81922.0
2017-Oct-19 13:52N 22°54' E 113°14'171519.3
2017-Oct-19 13:51N 23°01' E 113°31'3853.6
2017-Oct-19 13:51N 23°03' E 113°30'2466.9
2017-Oct-19 13:51N 23°01' E 113°31'5611817.2
2017-Oct-19 13:50N 22°36' E 114°24'5226897.9
2017-Oct-19 13:50N 22°58' E 113°33'65998783.8
2017-Oct-19 13:50N 31°21' E 121°30'655235829.3
2017-Oct-19 13:50N 23°03' E 113°32'65998908.8
2017-Oct-19 13:49N 31°41' E 121°12'665299085.6
2017-Oct-19 13:49N 22°58' E 113°30'171796.7
2017-Oct-19 13:49N 22°54' E 113°12'1934706.6
2017-Oct-19 13:49N 22°37' E 113°22'686176328.3
2017-Oct-19 13:48N 31°24' E 121°35'66419741.7
2017-Oct-19 13:46N 23°05' E 113°23'13871.4
2017-Oct-19 13:46N 22°54' E 113°31'111196.4
2017-Oct-19 13:45N 22°44' E 113°35'16853.3
2017-Oct-19 13:44N 22°60' E 113°32'662158951.5
2017-Oct-19 13:44N 31°22' E 121°37'678116312.4
2017-Oct-19 13:43N 22°47' E 113°21'221519.2
2017-Oct-19 13:42N 23°05' E 113°34'65444441.2
2017-Oct-19 13:42N 31°24' E 121°31'658236779.5
2017-Oct-19 13:41N 23°05' E 113°29'15308.7
2017-Oct-19 13:38N 22°51' E 113°35'11895.4
2017-Oct-19 13:38N 22°44' E 113°26'676101386.4
2017-Oct-19 13:37N 31°24' E 121°32'206832088.0
2017-Oct-19 13:33N 01°28' E 103°43'140443566.9
2017-Oct-19 13:31N 22°53' E 113°20'68745823.3
2017-Oct-19 13:31N 31°20' E 122°02'44968093126.6
2017-Oct-19 13:31N 44°09' E 028°40'44848070757.1
2017-Oct-19 13:31N 31°18' E 121°44'6632388067.8
2017-Oct-19 13:30N 22°59' E 113°33'621464.5
2017-Oct-19 13:30N 22°53' E 113°30'724311.6
2017-Oct-19 13:30N 22°57' E 113°37'6582369157.0
2017-Oct-19 13:30N 31°22' E 121°30'6591185895.8
2017-Oct-19 13:30N 22°60' E 113°31'622126.4
2017-Oct-19 13:30N 22°57' E 113°37'910807.6
2017-Oct-19 13:30N 22°48' E 113°35'6591187014.7
2017-Oct-19 13:30N 31°14' E 121°29'3811370855.6
2017-Oct-19 13:30N 37°35' E 121°24'3721338300.1
2017-Oct-19 13:30N 31°24' E 121°33'1242173.2
2017-Oct-19 13:30N 31°17' E 121°44'445316031018.1
2017-Oct-19 13:30N 31°49' E 034°39'42373813318.1
2017-Oct-19 13:30N 22°44' E 113°27'1138801.9
2017-Oct-19 13:30N 22°54' E 113°20'6701205329.3
2017-Oct-19 13:30N 31°21' E 121°32'518956.9
2017-Oct-19 13:30N 31°25' E 121°29'6431157966.2
2017-Oct-19 13:30N 22°40' E 114°31'6461162105.3
2017-Oct-19 13:30N 31°32' E 121°22'1214259.2
2017-Oct-19 13:30N 31°31' E 121°36'98017.2
2017-Oct-19 13:30N 31°25' E 121°29'6581184696.0
2017-Oct-19 13:30N 23°06' E 113°26'124615.4
2017-Oct-19 13:30N 22°54' E 113°24'1138580.3
2017-Oct-19 13:30N 22°59' E 113°34'01239.3
2017-Oct-19 13:30N 22°59' E 113°34'827482.9
2017-Oct-19 13:30N 22°52' E 113°31'46164930.8
2017-Oct-19 13:30N 22°13' E 113°06'53190307.4
2017-Oct-19 13:30N 22°57' E 113°37'1656545.8
2017-Oct-19 13:30N 22°54' E 113°20'6742427734.1
2017-Oct-19 13:30N 31°22' E 121°39'3053488.1
2017-Oct-19 13:30N 31°09' E 121°08'36130588.8
2017-Oct-19 13:30N 31°21' E 121°47'657394302.5
2017-Oct-19 13:29N 22°36' E 114°24'6512344417.2
2017-Oct-19 13:29N 31°28' E 121°25'63366.5
2017-Oct-19 13:29N 31°24' E 121°30'662794097.2
2017-Oct-19 13:29N 22°55' E 113°36'664597968.0
2017-Oct-19 13:29N 31°37' E 121°18'1710152.9
2017-Oct-19 13:29N 31°24' E 121°31'666479444.4
2017-Oct-19 13:29N 22°52' E 113°33'667240174.7
2017-Oct-19 13:29N 31°25' E 121°32'413258.6
2017-Oct-19 13:29N 31°24' E 121°36'669481685.9
2017-Oct-19 13:29N 22°50' E 113°35'2978.7
2017-Oct-19 13:29N 22°52' E 113°33'54948.8
2017-Oct-19 13:29N 22°56' E 113°37'664796722.7
2017-Oct-19 13:29N 31°22' E 121°40'8563081445.6
2017-Oct-19 13:29N 21°16' E 110°25'19864800.8
2017-Oct-19 13:28N 22°53' E 113°31'47459.2
2017-Oct-19 13:28N 22°55' E 113°27'674151629.9
2017-Oct-19 13:28N 31°21' E 121°47'667800772.4
2017-Oct-19 13:28N 22°56' E 113°37'82133.2
2017-Oct-19 13:28N 23°03' E 113°31'189511.1
2017-Oct-19 13:28N 22°54' E 113°14'6762432604.0
2017-Oct-19 13:28N 31°29' E 121°25'661792964.8
2017-Oct-19 13:28N 22°57' E 113°36'621388.7
2017-Oct-19 13:28N 22°55' E 113°30'12515.9
2017-Oct-19 13:28N 22°54' E 113°31'196759.0
2017-Oct-19 13:27N 22°37' E 113°23'1821404.0
2017-Oct-19 13:27N 22°51' E 113°35'52123.2
2017-Oct-19 13:27N 22°56' E 113°36'1730810.4
2017-Oct-19 13:27N 22°43' E 113°25'680272053.0
2017-Oct-19 13:27N 31°18' E 121°43'662340241.7
2017-Oct-19 13:27N 22°59' E 113°34'663397568.1
2017-Oct-19 13:27N 31°22' E 121°40'682188909.5
2017-Oct-19 13:27N 22°47' E 113°17'670603414.3
2017-Oct-19 13:26N 31°14' E 121°30'633207068.9
2017-Oct-19 13:26N 22°41' E 114°33'5598606.4
2017-Oct-19 13:26N 22°51' E 113°35'1451383.1
2017-Oct-19 13:26N 22°53' E 113°20'675405008.6
2017-Oct-19 13:26N 31°19' E 121°42'667184738.1
2017-Oct-19 13:26N 22°53' E 113°33'910671.1
2017-Oct-19 13:26N 23°02' E 113°31'0556.1
2017-Oct-19 13:26N 23°01' E 113°31'198544.5
2017-Oct-19 13:26N 22°47' E 113°17'218370.9
2017-Oct-19 13:26N 23°05' E 113°29'623028.2
2017-Oct-19 13:26N 22°60' E 113°32'59763.0
2017-Oct-19 13:25N 22°57' E 113°38'143192.9
2017-Oct-19 13:25N 22°54' E 113°23'990713083.3
2017-Oct-19 13:25N 37°49' E 121°34'11178.8
2017-Oct-19 13:25N 37°49' E 121°34'38669481.3
2017-Oct-19 13:25N 31°23' E 121°30'659215579.9
2017-Oct-19 13:25N 22°58' E 113°33'105983.5
2017-Oct-19 13:24N 22°49' E 113°37'78054.5
2017-Oct-19 13:24N 22°43' E 113°40'222748.6
2017-Oct-19 13:24N 23°03' E 113°30'138.5
2017-Oct-19 13:22N 23°04' E 113°29'589129.0
2017-Oct-19 13:22N 22°36' E 114°24'4028890.0
2017-Oct-19 13:22N 22°41' E 113°41'8636.6
2017-Oct-19 13:21N 22°47' E 113°36'376930.9
2017-Oct-19 13:21N 22°18' E 113°11'705317094.4
2017-Oct-19 13:20N 31°24' E 121°31'675270099.5
2017-Oct-19 13:20N 22°28' E 113°50'326396.5
2017-Oct-19 13:20N 22°59' E 113°39'5223411.1
2017-Oct-19 13:20N 22°41' E 114°32'6026863.3
2017-Oct-19 13:20N 23°03' E 113°32'102387.8
2017-Oct-19 13:20N 22°54' E 113°35'143425.7
2017-Oct-19 13:19N 22°47' E 113°21'140070013.0
2017-Oct-19 13:18N 01°27' E 103°42'139748345.6
2017-Oct-19 13:16N 22°47' E 113°11'251146.5
2017-Oct-19 13:15N 23°00' E 113°35'66099012.0
2017-Oct-19 13:15N 31°40' E 121°12'66172073.8
2017-Oct-19 13:14N 23°06' E 113°25'102498.8
2017-Oct-19 13:14N 22°58' E 113°33'3286.7
2017-Oct-19 13:13N 22°58' E 113°30'5551.8
2017-Oct-19 13:13N 22°60' E 113°35'6949.1
2017-Oct-19 13:12N 23°05' E 113°34'65475975.2
2017-Oct-19 13:12N 31°24' E 121°31'65836994.6
2017-Oct-19 13:11N 23°05' E 113°29'271045.7
2017-Oct-19 13:09N 22°42' E 113°45'669126748.9
2017-Oct-19 13:09N 31°24' E 121°35'207369088.3
2017-Oct-19 13:07N 01°15' E 104°02'1423232843.9
2017-Oct-19 13:07N 23°05' E 113°29'75268825.6
2017-Oct-19 13:07N 21°51' E 113°15'711616.9
2017-Oct-19 13:04N 23°01' E 113°31'65960874.6
2017-Oct-19 13:03N 31°24' E 121°31'65833860.2
2017-Oct-19 13:02N 23°02' E 113°31'4426150307.8
2017-Oct-19 13:01N 44°09' E 028°40'443515964213.0
2017-Oct-19 13:01N 22°52' E 113°33'51183048.4
2017-Oct-19 13:01N 22°30' E 114°23'6581183984.3
2017-Oct-19 13:00N 31°28' E 121°28'620968.1
2017-Oct-19 13:00N 31°22' E 121°30'6642390932.5
2017-Oct-19 13:00N 22°49' E 113°37'828356.7
2017-Oct-19 13:00N 22°57' E 113°37'424115266946.4
2017-Oct-19 13:00N 31°49' E 034°39'44478003845.0
2017-Oct-19 13:00N 31°23' E 121°40'6652394311.2
2017-Oct-19 13:00N 22°59' E 113°33'6602376263.2
2017-Oct-19 13:00N 31°24' E 121°31'6592373945.7
2017-Oct-19 13:00N 22°57' E 113°37'827130.5
2017-Oct-19 13:00N 23°02' E 113°31'12399.1
2017-Oct-19 13:00N 23°02' E 113°31'7286817.1
2017-Oct-19 13:00N 21°51' E 113°15'7252610838.9
2017-Oct-19 13:00N 31°25' E 121°31'6672401421.7
2017-Oct-19 13:00N 22°49' E 113°36'6682404274.5
2017-Oct-19 13:00N 31°30' E 121°25'6492336659.3
2017-Oct-19 13:00N 22°32' E 114°38'6779886.4
2017-Oct-19 13:00N 23°00' E 113°32'28047.7
2017-Oct-19 13:00N 22°58' E 113°33'27879.9
2017-Oct-19 13:00N 22°56' E 113°33'43736.1
2017-Oct-19 13:00N 23°00' E 113°35'6582367574.2
2017-Oct-19 13:00N 31°25' E 121°29'658473859.7
2017-Oct-19 13:00N 23°03' E 113°30'658592359.7
2017-Oct-19 13:00N 31°25' E 121°29'6612380760.1
2017-Oct-19 13:00N 22°55' E 113°36'53190887.9
2017-Oct-19 13:00N 22°40' E 114°31'6452323118.1
2017-Oct-19 13:00N 31°21' E 121°39'642770586.0
2017-Oct-19 13:00N 22°41' E 114°36'60217282.5
2017-Oct-19 13:00N 22°59' E 113°34'659790676.7
2017-Oct-19 13:00N 31°24' E 121°31'7122563833.4
2017-Oct-19 13:00N 22°13' E 113°06'5650659.9
2017-Oct-19 13:00N 23°06' E 113°26'2174002.3
2017-Oct-19 13:00N 22°47' E 113°17'2011742.6
2017-Oct-19 12:59N 22°56' E 113°36'6641195295.2
2017-Oct-19 12:59N 31°22' E 121°40'6661199283.9
2017-Oct-19 12:59N 22°55' E 113°33'55199730.3
2017-Oct-19 12:59N 22°40' E 114°31'4072769.0
2017-Oct-19 12:59N 22°28' E 113°50'679203608.0
2017-Oct-19 12:59N 31°22' E 121°40'645386765.6
2017-Oct-19 12:59N 22°41' E 114°33'5438983.2
2017-Oct-19 12:59N 22°48' E 113°35'518814.5
2017-Oct-19 12:59N 22°53' E 113°33'666266424.2
2017-Oct-19 12:59N 31°25' E 121°32'680489570.7
2017-Oct-19 12:59N 22°47' E 113°17'1511079.3
2017-Oct-19 12:59N 22°52' E 113°33'1526708.3
2017-Oct-19 12:59N 22°53' E 113°17'1347761.3
2017-Oct-19 12:59N 22°53' E 113°31'76696.9
2017-Oct-19 12:59N 22°54' E 113°23'1284.8
2017-Oct-19 12:58N 22°54' E 113°23'34138.4
2017-Oct-19 12:58N 22°53' E 113°19'1526303.3
2017-Oct-19 12:58N 22°51' E 113°35'620873.4
2017-Oct-19 12:58N 22°56' E 113°37'1012400.2
2017-Oct-19 12:58N 22°55' E 113°26'14125081482.5
2017-Oct-19 12:58N 01°25' E 103°40'1421852306.7
2017-Oct-19 12:58N 23°02' E 113°31'635163319.2
2017-Oct-19 12:58N 31°09' E 121°10'628205420.1
2017-Oct-19 12:58N 22°36' E 114°24'52186532.4
2017-Oct-19 12:58N 22°60' E 113°35'659395405.5
2017-Oct-19 12:58N 31°29' E 121°25'1614689.5
2017-Oct-19 12:58N 31°13' E 121°30'2692614.0
2017-Oct-19 12:58N 31°20' E 121°59'128406.6
2017-Oct-19 12:57N 31°14' E 121°48'152924.0
2017-Oct-19 12:57N 31°21' E 121°32'641329528.0
2017-Oct-19 12:57N 22°41' E 114°31'7690949.0
2017-Oct-19 12:57N 22°21' E 113°12'348210.7
2017-Oct-19 12:57N 22°46' E 113°38'78683.2
2017-Oct-19 12:57N 22°44' E 113°30'673127574.5
2017-Oct-19 12:56N 31°24' E 121°30'1811091.1
2017-Oct-19 12:56N 31°14' E 121°48'663298286.0
2017-Oct-19 12:56N 23°00' E 113°31'660475174.4
2017-Oct-19 12:56N 31°32' E 121°20'6612377802.1
2017-Oct-19 12:56N 22°58' E 113°33'207999.4
2017-Oct-19 12:56N 22°40' E 113°41'671402410.2
2017-Oct-19 12:56N 31°24' E 121°31'643578468.1
2017-Oct-19 12:56N 22°41' E 114°32'5419576.4
2017-Oct-19 12:56N 22°50' E 113°34'659791189.9
2017-Oct-19 12:55N 31°15' E 121°30'652469203.6
2017-Oct-19 12:55N 22°59' E 113°34'85413.5
2017-Oct-19 12:55N 23°05' E 113°29'78559.5
2017-Oct-19 12:55N 22°58' E 113°30'6701205996.6
2017-Oct-19 12:55N 31°21' E 121°47'75236.4
2017-Oct-19 12:55N 31°17' E 121°54'68066142.3
2017-Oct-19 12:55N 22°19' E 114°09'677135369.7
2017-Oct-19 12:54N 31°37' E 121°18'2911413.6
2017-Oct-19 12:54N 31°18' E 121°43'5784.0
2017-Oct-19 12:54N 31°21' E 121°47'67893846.3
2017-Oct-19 12:53N 22°54' E 113°22'672345635.6
2017-Oct-19 12:53N 31°40' E 121°13'659338767.8
2017-Oct-19 12:53N 22°59' E 113°39'6714.7
2017-Oct-19 12:53N 22°60' E 113°32'161265.0
2017-Oct-19 12:52N 22°51' E 113°18'17403.5
2017-Oct-19 12:49N 23°03' E 113°31'1947.0
2017-Oct-19 12:49N 23°03' E 113°32'141507.5
2017-Oct-19 12:49N 22°54' E 113°21'67133552.4
2017-Oct-19 12:47N 31°24' E 121°31'665184265.2
2017-Oct-19 12:47N 22°51' E 113°35'176842.1
2017-Oct-19 12:47N 23°06' E 113°25'151410.3
2017-Oct-19 12:46N 22°54' E 113°35'13641.0
2017-Oct-19 12:45N 23°05' E 113°29'660182803.1
2017-Oct-19 12:45N 31°24' E 121°35'10681.8
2017-Oct-19 12:44N 31°18' E 121°44'2074324604.8
2017-Oct-19 12:44N 01°14' E 103°58'1407281418.6
2017-Oct-19 12:43N 22°45' E 113°31'556803.5
2017-Oct-19 12:43N 21°51' E 113°17'1051145530.5
2017-Oct-19 12:43N 37°48' E 121°37'393108833.7
2017-Oct-19 12:42N 31°16' E 121°45'67083150.2
2017-Oct-19 12:42N 22°47' E 113°36'67047327.5
2017-Oct-19 12:41N 31°41' E 121°12'66244998.1
2017-Oct-19 12:40N 22°60' E 113°31'9477.5
2017-Oct-19 12:39N 22°51' E 113°35'16236.1
2017-Oct-19 12:35N 23°02' E 113°22'92477.4
2017-Oct-19 12:35N 23°02' E 113°31'442664250.9
2017-Oct-19 12:31N 44°09' E 028°40'444315994493.0
2017-Oct-19 12:31N 22°46' E 113°39'6721209379.8
2017-Oct-19 12:30N 31°23' E 121°40'6802448457.9
2017-Oct-19 12:30N 22°49' E 113°20'6762433479.6
2017-Oct-19 12:30N 31°24' E 121°32'6661199483.9
2017-Oct-19 12:30N 22°49' E 113°37'6681203118.5
2017-Oct-19 12:30N 31°16' E 121°45'1347377.8
2017-Oct-19 12:30N 31°13' E 121°30'6572365430.7
2017-Oct-19 12:30N 22°51' E 113°34'620506.2
2017-Oct-19 12:30N 22°57' E 113°37'662794626.4
2017-Oct-19 12:30N 31°22' E 121°37'6691203813.1
2017-Oct-19 12:30N 22°54' E 113°29'74981.3
2017-Oct-19 12:30N 23°00' E 113°32'23277.9
2017-Oct-19 12:30N 22°58' E 113°32'13778.5
2017-Oct-19 12:30N 22°58' E 113°33'6612378627.0
2017-Oct-19 12:30N 31°25' E 121°30'659790387.3
2017-Oct-19 12:30N 23°00' E 113°35'6602375353.0
2017-Oct-19 12:30N 31°23' E 121°36'1018775.5
2017-Oct-19 12:30N 31°28' E 121°25'1034565.1
2017-Oct-19 12:30N 31°31' E 121°36'932213.3
2017-Oct-19 12:30N 31°25' E 121°29'6581184194.3
2017-Oct-19 12:30N 23°06' E 113°27'6438590.7
2017-Oct-19 12:30N 22°41' E 114°31'56100753.3
2017-Oct-19 12:30N 22°59' E 113°34'6591185873.7
2017-Oct-19 12:30N 31°25' E 121°29'675485961.4
2017-Oct-19 12:30N 22°49' E 113°20'1323411.5
2017-Oct-19 12:30N 22°49' E 113°34'22657.6
2017-Oct-19 12:30N 22°52' E 113°34'5842061.0
2017-Oct-19 12:30N 22°41' E 114°36'6422311081.4
2017-Oct-19 12:29N 31°27' E 121°30'611350.1
2017-Oct-19 12:29N 31°21' E 121°32'6482334350.3
2017-Oct-19 12:29N 22°36' E 114°24'3359518.5
2017-Oct-19 12:29N 22°28' E 113°50'675810281.1
2017-Oct-19 12:29N 31°24' E 121°30'6622382274.7
2017-Oct-19 12:29N 22°55' E 113°36'65382.7
2017-Oct-19 12:29N 22°49' E 113°34'659338866.4
2017-Oct-19 12:29N 31°14' E 121°30'6352284849.9
2017-Oct-19 12:29N 22°40' E 114°31'66118493.2
2017-Oct-19 12:29N 23°06' E 113°25'1347599.3
2017-Oct-19 12:29N 22°54' E 113°20'1221824.8
2017-Oct-19 12:29N 22°52' E 113°33'668601284.0
2017-Oct-19 12:29N 31°24' E 121°35'644289613.9
2017-Oct-19 12:29N 22°41' E 114°33'643257144.8
2017-Oct-19 12:29N 31°25' E 121°32'661595213.2
2017-Oct-19 12:29N 22°56' E 113°37'6621191796.9
2017-Oct-19 12:29N 31°11' E 121°51'668601033.4
2017-Oct-19 12:29N 22°53' E 113°31'5768585.5
2017-Oct-19 12:28N 22°41' E 114°32'244878260.3
2017-Oct-19 12:28N 21°16' E 110°25'198101747.1
2017-Oct-19 12:28N 22°55' E 113°30'621485.9
2017-Oct-19 12:28N 22°51' E 113°35'643463107.5
2017-Oct-19 12:28N 31°11' E 121°09'349440.0
2017-Oct-19 12:28N 31°21' E 121°47'176014.8
2017-Oct-19 12:28N 31°14' E 121°30'650390080.4
2017-Oct-19 12:28N 22°60' E 113°35'5293266.2
2017-Oct-19 12:28N 22°36' E 114°24'49177260.5
2017-Oct-19 12:28N 22°54' E 113°35'31483.6
2017-Oct-19 12:28N 22°57' E 113°36'14222559224.6
2017-Oct-19 12:28N 01°21' E 103°38'2076415272.8
2017-Oct-19 12:27N 31°24' E 121°31'125422.1
2017-Oct-19 12:27N 31°18' E 121°43'664797210.8
2017-Oct-19 12:27N 22°57' E 113°33'665798462.9
2017-Oct-19 12:27N 31°22' E 121°40'661595241.1
2017-Oct-19 12:27N 23°03' E 113°31'1954.1
2017-Oct-19 12:27N 23°03' E 113°30'114372.2
2017-Oct-19 12:27N 22°52' E 113°31'4655001.7
2017-Oct-19 12:27N 22°13' E 113°06'7152573841.3
2017-Oct-19 12:27N 31°37' E 121°18'681350279.2
2017-Oct-19 12:27N 22°47' E 113°17'176078.6
2017-Oct-19 12:26N 22°51' E 113°35'669401451.3
2017-Oct-19 12:26N 31°22' E 121°40'730262960.7
2017-Oct-19 12:26N 21°50' E 113°12'730875501.5
2017-Oct-19 12:26N 31°39' E 121°14'680144066.1
2017-Oct-19 12:26N 22°47' E 113°17'1000276979.1
2017-Oct-19 12:26N 37°49' E 121°39'9813532543.1
2017-Oct-19 12:26N 23°02' E 113°31'93551.9
2017-Oct-19 12:25N 22°54' E 113°35'112943.1
2017-Oct-19 12:25N 22°54' E 113°23'678348484.3
2017-Oct-19 12:25N 31°17' E 121°54'2824922.2
2017-Oct-19 12:25N 31°29' E 121°25'672186213.6
2017-Oct-19 12:25N 22°54' E 113°20'1425246.1
2017-Oct-19 12:25N 23°05' E 113°29'7426.5
2017-Oct-19 12:24N 22°59' E 113°34'4904.8
2017-Oct-19 12:23N 22°57' E 113°37'142349.1
2017-Oct-19 12:23N 22°45' E 113°31'1614727.7
2017-Oct-19 12:23N 22°59' E 113°39'828097.8
2017-Oct-19 12:23N 23°03' E 113°32'81001.0
2017-Oct-19 12:23N 22°56' E 113°37'42382.3
2017-Oct-19 12:22N 22°59' E 113°34'102194.6
2017-Oct-19 12:22N 22°50' E 113°34'68072022.8
2017-Oct-19 12:22N 31°21' E 121°57'232407.3
2017-Oct-19 12:21N 31°24' E 121°31'668480975.8
2017-Oct-19 12:21N 22°47' E 113°36'207122.6
2017-Oct-19 12:21N 23°05' E 113°29'65981784.5
2017-Oct-19 12:20N 31°38' E 121°14'211310.6
2017-Oct-19 12:19N 31°23' E 121°30'661216279.7
2017-Oct-19 12:19N 22°58' E 113°30'4663.2
2017-Oct-19 12:19N 22°55' E 113°27'66169962.7
2017-Oct-19 12:18N 30°47' E 122°05'591287.9
2017-Oct-19 12:15N 31°32' E 121°20'71120478.2
2017-Oct-19 12:13N 22°13' E 113°07'5514209.8
2017-Oct-19 12:13N 23°03' E 113°32'17332.4
2017-Oct-19 12:10N 22°53' E 113°18'271487.7
2017-Oct-19 12:09N 22°42' E 113°44'48692.4
2017-Oct-19 12:05N 22°18' E 114°29'691156.1
2017-Oct-19 12:01N 22°47' E 113°21'999143815.2
2017-Oct-19 12:01N 37°49' E 121°39'4229761193.1
2017-Oct-19 12:01N 44°09' E 028°40'447616114705.0
2017-Oct-19 12:01N 31°23' E 121°40'6702413410.4
2017-Oct-19 12:00N 22°52' E 113°33'6672401186.5
2017-Oct-19 12:00N 31°25' E 121°31'6642391249.4
2017-Oct-19 12:00N 22°55' E 113°33'66118860.3
2017-Oct-19 12:00N 21°52' E 113°14'69247614.2
2017-Oct-19 12:00N 22°57' E 113°37'516833.0
2017-Oct-19 12:00N 22°59' E 113°33'24177.0
2017-Oct-19 12:00N 22°57' E 113°33'620962.7
2017-Oct-19 12:00N 22°51' E 113°35'14907.3
2017-Oct-19 12:00N 22°50' E 113°35'6682405816.7
2017-Oct-19 12:00N 31°09' E 121°54'673807932.5
2017-Oct-19 12:00N 22°54' E 113°22'6712416044.9
2017-Oct-19 12:00N 31°25' E 121°31'2226009.4
2017-Oct-19 12:00N 31°17' E 121°54'537319344563.9
2017-Oct-19 12:00N 49°12' W 123°09'618222254838.6
2017-Oct-19 12:00N 22°58' E 113°33'1137859.2
2017-Oct-19 12:00N 22°48' E 113°35'14172550476.6
2017-Oct-19 12:00N 01°11' E 103°52'14085068434.0
2017-Oct-19 12:00N 22°43' E 113°25'1425959.2
2017-Oct-19 12:00N 22°54' E 113°34'1017211.2
2017-Oct-19 12:00N 22°54' E 113°23'932067.6
2017-Oct-19 12:00N 22°47' E 113°18'1715440.0
2017-Oct-19 12:00N 22°47' E 113°36'6681201575.0
2017-Oct-19 12:00N 31°25' E 121°29'667799960.6
2017-Oct-19 12:00N 22°46' E 113°38'610432.7
2017-Oct-19 12:00N 22°51' E 113°35'1619203.6
2017-Oct-19 12:00N 22°47' E 113°18'1424773.6
2017-Oct-19 12:00N 22°54' E 113°30'610616.2
2017-Oct-19 12:00N 22°59' E 113°34'6582367466.8
2017-Oct-19 12:00N 31°22' E 121°30'35447.2
2017-Oct-19 12:00N 31°25' E 121°29'1494.8
2017-Oct-19 12:00N 31°26' E 121°29'667300010.0
2017-Oct-19 11:59N 22°52' E 113°31'725156.0
2017-Oct-19 11:59N 22°57' E 113°37'3154939.0
2017-Oct-19 11:59N 22°28' E 113°50'3946568.9
2017-Oct-19 11:59N 22°18' E 114°30'70125491.4
2017-Oct-19 11:59N 22°47' E 113°21'1555087.7
2017-Oct-19 11:59N 22°55' E 113°36'414925.4
2017-Oct-19 11:59N 22°51' E 113°35'58207561.2
2017-Oct-19 11:59N 22°41' E 114°36'6412308673.2
2017-Oct-19 11:59N 31°30' E 121°23'20817492422.1
2017-Oct-19 11:59N 01°18' E 103°37'1429643181.4
2017-Oct-19 11:59N 23°06' E 113°25'2238934.4
2017-Oct-19 11:59N 22°45' E 113°31'1619636.9
2017-Oct-19 11:59N 22°59' E 113°39'6552356249.8
2017-Oct-19 11:59N 31°21' E 121°32'98490.9
2017-Oct-19 11:59N 31°28' E 121°25'644772689.2
2017-Oct-19 11:59N 22°40' E 114°31'645580298.7
2017-Oct-19 11:59N 31°25' E 121°32'643178023.3
2017-Oct-19 11:59N 22°41' E 114°33'245147254.3
2017-Oct-19 11:59N 21°16' E 110°25'204733150.6
2017-Oct-19 11:58N 22°56' E 113°37'42382.3
2017-Oct-19 11:58N 22°59' E 113°34'119648.0
2017-Oct-19 11:58N 22°49' E 113°36'84949.9
2017-Oct-19 11:58N 22°57' E 113°37'87271.5
2017-Oct-19 11:58N 22°50' E 113°34'932175.7
2017-Oct-19 11:58N 22°58' E 113°30'51054.7
2017-Oct-19 11:58N 22°53' E 113°31'43732.0
2017-Oct-19 11:58N 22°55' E 113°27'5667221.7
2017-Oct-19 11:58N 22°36' E 114°24'52186532.4
2017-Oct-19 11:58N 22°60' E 113°35'667480043.8
2017-Oct-19 11:58N 31°31' E 121°36'933730.3
2017-Oct-19 11:58N 31°29' E 121°25'29103433.2
2017-Oct-19 11:58N 31°21' E 121°57'2590066.6
2017-Oct-19 11:58N 31°14' E 121°29'652335184.6
2017-Oct-19 11:57N 22°56' E 113°37'6641194486.6
2017-Oct-19 11:57N 31°22' E 121°40'6712413827.9
2017-Oct-19 11:57N 22°49' E 113°35'992595167.5
2017-Oct-19 11:57N 37°49' E 121°39'9973589457.3
2017-Oct-19 11:57N 22°50' E 113°18'166440.8
2017-Oct-19 11:57N 23°00' E 113°32'659474597.5
2017-Oct-19 11:57N 31°25' E 121°29'660198044.7
2017-Oct-19 11:57N 22°56' E 113°36'86111.4
2017-Oct-19 11:57N 23°03' E 113°30'659296370.8
2017-Oct-19 11:57N 31°24' E 121°30'915998.7
2017-Oct-19 11:57N 31°22' E 121°40'654196072.9
2017-Oct-19 11:56N 22°36' E 114°24'4611741.1
2017-Oct-19 11:56N 22°48' E 113°37'328101.4
2017-Oct-19 11:56N 22°28' E 113°11'222886.2
2017-Oct-19 11:55N 22°42' E 113°29'5811529.1
2017-Oct-19 11:55N 22°41' E 114°32'649194751.9
2017-Oct-19 11:55N 31°21' E 121°47'67897685.4
2017-Oct-19 11:55N 22°53' E 113°22'1348122.7
2017-Oct-19 11:55N 22°57' E 113°36'71564.2
2017-Oct-19 11:54N 22°54' E 113°29'121298.8
2017-Oct-19 11:54N 23°06' E 113°26'2773.1
2017-Oct-19 11:54N 23°05' E 113°29'152714.2
2017-Oct-19 11:53N 22°51' E 113°35'3646.8
2017-Oct-19 11:53N 22°53' E 113°33'2149.4
2017-Oct-19 11:52N 22°54' E 113°35'66376953.9
2017-Oct-19 11:52N 31°24' E 121°31'658107594.6
2017-Oct-19 11:51N 23°03' E 113°31'158905.1
2017-Oct-19 11:51N 22°49' E 113°37'464275.9
2017-Oct-19 11:51N 22°13' E 113°06'482028.4
2017-Oct-19 11:49N 22°55' E 113°30'67263694.5
2017-Oct-19 11:49N 31°21' E 121°47'68290895.0
2017-Oct-19 11:48N 22°52' E 113°18'155996.4
2017-Oct-19 11:48N 23°02' E 113°31'4519.8
2017-Oct-19 11:48N 23°00' E 113°35'4514.7
2017-Oct-19 11:47N 23°03' E 113°32'0 4.9
2017-Oct-19 11:46N 23°03' E 113°32'3229.7
2017-Oct-19 11:45N 23°05' E 113°34'656787300.4
2017-Oct-19 11:45N 31°38' E 121°16'67053621.3
2017-Oct-19 11:45N 22°46' E 113°38'7713.2
2017-Oct-19 11:44N 22°39' E 113°41'5227.9
2017-Oct-19 11:43N 22°44' E 113°38'66633793.4
2017-Oct-19 11:41N 31°21' E 121°30'65712653.2
2017-Oct-19 11:38N 23°01' E 113°31'229.7
2017-Oct-19 11:33N 22°60' E 113°32'247.4
2017-Oct-19 11:31N 22°58' E 113°33'1518454.8
2017-Oct-19 11:31N 22°47' E 113°21'161259.1
2017-Oct-19 11:31N 22°59' E 113°33'6612379003.6
2017-Oct-19 11:31N 31°28' E 121°26'6672401840.5
2017-Oct-19 11:30N 22°48' E 113°36'6592373476.7
2017-Oct-19 11:30N 31°15' E 121°30'1424574.7
2017-Oct-19 11:30N 31°28' E 121°26'6672402508.8
2017-Oct-19 11:30N 22°47' E 113°38'933666.0
2017-Oct-19 11:30N 22°57' E 113°37'01331.7
2017-Oct-19 11:30N 22°57' E 113°37'414666.8
2017-Oct-19 11:30N 22°54' E 113°34'311679.4
2017-Oct-19 11:30N 22°53' E 113°30'0190.6
2017-Oct-19 11:30N 22°53' E 113°30'666798632.1
2017-Oct-19 11:30N 31°25' E 121°29'1017300.6
2017-Oct-19 11:30N 31°23' E 121°40'6682404473.4
2017-Oct-19 11:30N 22°57' E 113°30'36174.0
2017-Oct-19 11:30N 22°58' E 113°33'28065.1
2017-Oct-19 11:30N 23°00' E 113°32'61109107.9
2017-Oct-19 11:30N 22°42' E 114°35'642577477.0
2017-Oct-19 11:30N 31°25' E 121°32'6672402535.4
2017-Oct-19 11:30N 22°54' E 113°30'32867.4
2017-Oct-19 11:30N 22°55' E 113°26'671402424.0
2017-Oct-19 11:30N 31°07' E 121°58'28102042.8
2017-Oct-19 11:30N 31°24' E 121°31'28730.5
2017-Oct-19 11:30N 31°25' E 121°29'369663669.6
2017-Oct-19 11:30N 37°34' E 121°23'9673481561.4
2017-Oct-19 11:30N 22°55' E 113°36'76551.5
2017-Oct-19 11:30N 22°48' E 113°36'1213936.2
2017-Oct-19 11:30N 22°59' E 113°34'56501.8
2017-Oct-19 11:30N 23°03' E 113°30'6581184691.2
2017-Oct-19 11:30N 31°25' E 121°29'118049.9
2017-Oct-19 11:30N 31°14' E 121°30'6502340110.4
2017-Oct-19 11:29N 22°60' E 113°35'14322577186.8
2017-Oct-19 11:29N 01°09' E 103°47'14302574557.6
2017-Oct-19 11:29N 22°36' E 114°24'5262361.5
2017-Oct-19 11:29N 22°52' E 113°31'45396.1
2017-Oct-19 11:29N 22°49' E 113°35'53190775.1
2017-Oct-19 11:29N 22°41' E 114°31'6442318203.4
2017-Oct-19 11:29N 31°29' E 121°26'76744.5
2017-Oct-19 11:29N 31°34' E 121°19'6592371986.2
2017-Oct-19 11:29N 23°06' E 113°26'1345351.8
2017-Oct-19 11:29N 22°56' E 113°36'813581.1
2017-Oct-19 11:29N 23°03' E 113°32'5942479.1
2017-Oct-19 11:29N 22°40' E 114°31'54736.9
2017-Oct-19 11:29N 22°41' E 114°36'6421155448.1
2017-Oct-19 11:29N 31°25' E 121°32'051.8
2017-Oct-19 11:29N 31°25' E 121°32'6742427071.6
2017-Oct-19 11:29N 22°45' E 113°31'19377350.4
2017-Oct-19 11:28N 21°16' E 110°25'245126218.0
2017-Oct-19 11:28N 22°41' E 114°33'6431157363.1
2017-Oct-19 11:28N 31°34' E 121°19'6662396912.9
2017-Oct-19 11:28N 22°51' E 113°35'55454.4
2017-Oct-19 11:28N 22°53' E 113°31'47123.5
2017-Oct-19 11:28N 22°54' E 113°35'42209.4
2017-Oct-19 11:28N 22°50' E 113°34'6671200603.2
2017-Oct-19 11:28N 31°32' E 121°20'20857507645.9
2017-Oct-19 11:28N 01°13' E 103°36'14381726023.0
2017-Oct-19 11:28N 22°41' E 114°32'217573.5
2017-Oct-19 11:28N 22°20' E 114°33'6661198186.2
2017-Oct-19 11:28N 31°21' E 121°47'1312045.9
2017-Oct-19 11:28N 31°21' E 121°32'3891399561.7
2017-Oct-19 11:28N 37°49' E 121°37'993397138.1
2017-Oct-19 11:28N 22°53' E 113°22'1222242.0
2017-Oct-19 11:28N 22°55' E 113°36'113841.9
2017-Oct-19 11:27N 23°05' E 113°34'658197416.7
2017-Oct-19 11:27N 31°22' E 121°40'663397845.5
2017-Oct-19 11:27N 22°57' E 113°37'1866111.9
2017-Oct-19 11:27N 22°43' E 113°25'686823463.2
2017-Oct-19 11:27N 31°31' E 121°36'6662399094.0
2017-Oct-19 11:27N 23°03' E 113°31'194494.4
2017-Oct-19 11:27N 22°46' E 113°22'3714732.9
2017-Oct-19 11:27N 22°13' E 113°06'477019.1
2017-Oct-19 11:26N 22°51' E 113°35'1139883.1
2017-Oct-19 11:26N 23°01' E 113°31'65846.5
2017-Oct-19 11:26N 23°06' E 113°25'141334.3
2017-Oct-19 11:25N 22°56' E 113°37'1527895.3
2017-Oct-19 11:25N 22°41' E 113°41'1913727.7
2017-Oct-19 11:25N 22°47' E 113°21'196195.3
2017-Oct-19 11:25N 23°03' E 113°32'610001.4
2017-Oct-19 11:25N 22°58' E 113°30'1311719.9
2017-Oct-19 11:25N 22°48' E 113°21'133482.8
2017-Oct-19 11:25N 22°49' E 113°34'668171767.4
2017-Oct-19 11:25N 31°29' E 121°25'678116175.7
2017-Oct-19 11:24N 22°36' E 113°36'91068.7
2017-Oct-19 11:24N 22°42' E 113°29'67593515.3
2017-Oct-19 11:23N 31°24' E 121°30'6581183872.4
2017-Oct-19 11:23N 23°05' E 113°29'827433.5
2017-Oct-19 11:23N 23°02' E 113°21'2215589.5
2017-Oct-19 11:23N 22°44' E 113°34'92087.3
2017-Oct-19 11:23N 22°53' E 113°33'141028.7
2017-Oct-19 11:22N 22°50' E 113°18'1221387.6
2017-Oct-19 11:22N 22°55' E 113°30'157684.8
2017-Oct-19 11:22N 22°43' E 113°41'201624.0
2017-Oct-19 11:21N 23°02' E 113°31'4505.2
2017-Oct-19 11:21N 22°59' E 113°34'82457.9
2017-Oct-19 11:21N 22°51' E 113°35'66585525.9
2017-Oct-19 11:20N 31°24' E 121°31'659395264.5
2017-Oct-19 11:20N 22°59' E 113°34'487.9
2017-Oct-19 11:17N 22°59' E 113°39'8640.7
2017-Oct-19 11:16N 23°01' E 113°31'22565.0
2017-Oct-19 11:14N 22°59' E 113°08'192496.2
2017-Oct-19 11:14N 22°55' E 113°27'66946306.3
2017-Oct-19 11:13N 31°18' E 121°43'67057451.9
2017-Oct-19 11:12N 22°47' E 113°36'131477.1
2017-Oct-19 11:11N 22°59' E 113°39'65631507.5
2017-Oct-19 11:10N 31°24' E 121°31'66655733.3
2017-Oct-19 11:09N 22°52' E 113°33'668400972.3
2017-Oct-19 11:09N 31°06' E 121°58'151431.1
2017-Oct-19 11:09N 30°55' E 122°09'449854.7
2017-Oct-19 11:08N 31°24' E 121°31'67575964.9
2017-Oct-19 11:08N 22°28' E 113°50'67538596.8
2017-Oct-19 11:07N 31°24' E 121°31'232028.4
2017-Oct-19 11:06N 31°21' E 121°57'533160.1
2017-Oct-19 11:05N 31°05' E 120°59'39154111.2
2017-Oct-19 11:05N 37°36' E 121°25'96338526.5
2017-Oct-19 11:03N 23°03' E 113°32'21451.4
2017-Oct-19 11:01N 22°44' E 113°39'444516002299.6
2017-Oct-19 11:01N 44°09' E 028°40'442615932996.6
2017-Oct-19 11:00N 23°02' E 113°31'1112948.2
2017-Oct-19 11:00N 22°51' E 113°31'829422.1
2017-Oct-19 11:00N 22°57' E 113°37'6602375584.1
2017-Oct-19 11:00N 31°25' E 121°31'44847.1
2017-Oct-19 11:00N 31°21' E 121°32'6632388501.2
2017-Oct-19 11:00N 22°52' E 113°33'35876.4
2017-Oct-19 11:00N 22°54' E 113°35'663795400.9
2017-Oct-19 11:00N 31°27' E 121°28'661475741.5
2017-Oct-19 11:00N 22°58' E 113°33'59211756.9
2017-Oct-19 11:00N 22°42' E 114°35'9783520350.0
2017-Oct-19 11:00N 37°50' E 121°36'10223678024.8
2017-Oct-19 11:00N 22°24' E 113°15'3238701.3
2017-Oct-19 11:00N 22°55' E 113°27'96286.5
2017-Oct-19 11:00N 22°50' E 113°18'6682406444.6
2017-Oct-19 11:00N 31°15' E 121°31'659474837.3
2017-Oct-19 11:00N 22°54' E 113°29'6701205596.5
2017-Oct-19 11:00N 31°22' E 121°40'372446965.1
2017-Oct-19 11:00N 37°34' E 121°23'9671160527.1
2017-Oct-19 11:00N 22°55' E 113°36'6641195231.1
2017-Oct-19 11:00N 30°56' E 122°09'662476468.7
2017-Oct-19 11:00N 22°59' E 113°34'659790587.9
2017-Oct-19 11:00N 31°25' E 121°29'665598428.7
2017-Oct-19 11:00N 22°51' E 113°35'620900.3
2017-Oct-19 11:00N 22°57' E 113°37'1430857943.8
2017-Oct-19 10:59N 01°11' E 103°39'20841875651.5
2017-Oct-19 10:59N 31°24' E 121°30'678813673.9
2017-Oct-19 10:59N 22°47' E 113°18'1513873.8
2017-Oct-19 10:59N 22°44' E 113°34'711935.3
2017-Oct-19 10:59N 22°51' E 113°35'25777.8
2017-Oct-19 10:59N 22°50' E 113°34'34731.4
2017-Oct-19 10:59N 22°52' E 113°34'666799556.8
2017-Oct-19 10:59N 31°25' E 121°32'1629288.2
2017-Oct-19 10:59N 31°37' E 121°18'6472329050.0
2017-Oct-19 10:59N 22°41' E 114°31'59213032.0
2017-Oct-19 10:59N 23°03' E 113°32'658592602.0
2017-Oct-19 10:59N 31°23' E 121°34'6662397004.1
2017-Oct-19 10:59N 22°53' E 113°33'56371.5
2017-Oct-19 10:59N 22°57' E 113°37'6659352.5
2017-Oct-19 10:59N 22°21' E 114°37'2023456.4
2017-Oct-19 10:59N 22°41' E 114°36'6442317232.5
2017-Oct-19 10:59N 31°37' E 121°15'6701205524.0
2017-Oct-19 10:59N 22°45' E 113°39'83099.3
2017-Oct-19 10:59N 22°45' E 113°31'1517748.7
2017-Oct-19 10:59N 22°59' E 113°31'621796.5
2017-Oct-19 10:59N 22°53' E 113°30'197355145.0
2017-Oct-19 10:58N 21°16' E 110°25'203243710.0
2017-Oct-19 10:58N 22°56' E 113°36'53191210.1
2017-Oct-19 10:58N 22°40' E 114°31'5734177.2
2017-Oct-19 10:58N 22°52' E 113°31'1017827.6
2017-Oct-19 10:58N 22°59' E 113°39'1221609.5
2017-Oct-19 10:58N 22°55' E 113°27'6232068.5
2017-Oct-19 10:58N 22°41' E 114°33'641769678.0
2017-Oct-19 10:58N 31°24' E 121°31'32113580.6
2017-Oct-19 10:58N 31°05' E 122°00'6681202832.7
2017-Oct-19 10:58N 22°55' E 113°30'665199390.8
2017-Oct-19 10:58N 31°32' E 121°20'40144510.6
2017-Oct-19 10:58N 31°07' E 121°56'3511392.6
2017-Oct-19 10:58N 31°29' E 121°25'6662398788.0
2017-Oct-19 10:58N 22°53' E 113°31'669126816.6
2017-Oct-19 10:57N 31°22' E 121°40'669301267.7
2017-Oct-19 10:57N 22°49' E 113°37'102180.6
2017-Oct-19 10:57N 22°42' E 113°44'635207822.5
2017-Oct-19 10:57N 31°06' E 120°58'405291741.0
2017-Oct-19 10:57N 37°50' E 121°35'987236854.5
2017-Oct-19 10:56N 22°36' E 114°24'6213956.4
2017-Oct-19 10:56N 23°06' E 113°25'1347599.1
2017-Oct-19 10:56N 22°56' E 113°36'247262.3
2017-Oct-19 10:56N 22°47' E 113°11'7453085.0
2017-Oct-19 10:56N 22°40' E 114°31'549648.4
2017-Oct-19 10:55N 22°50' E 113°34'107014.0
2017-Oct-19 10:55N 22°59' E 113°34'651781153.0
2017-Oct-19 10:55N 31°14' E 121°29'658394636.9
2017-Oct-19 10:55N 22°53' E 113°31'42847.8
2017-Oct-19 10:55N 22°54' E 113°35'671805510.0
2017-Oct-19 10:55N 31°17' E 121°54'726316.2
2017-Oct-19 10:55N 31°21' E 121°47'649106227.6
2017-Oct-19 10:55N 22°41' E 114°32'6491168503.2
2017-Oct-19 10:55N 31°21' E 121°47'5858.0
2017-Oct-19 10:54N 31°18' E 121°43'664298629.0
2017-Oct-19 10:54N 22°55' E 113°36'221568.4
2017-Oct-19 10:53N 22°34' E 113°29'263924.2
2017-Oct-19 10:53N 22°59' E 113°39'648583573.9
2017-Oct-19 10:53N 31°14' E 121°29'65448079.7
2017-Oct-19 10:52N 22°58' E 113°30'559867.1
2017-Oct-19 10:52N 22°36' E 114°24'6143780.1
2017-Oct-19 10:52N 22°49' E 113°20'123411.5
2017-Oct-19 10:51N 22°52' E 113°33'67437923.5
2017-Oct-19 10:50N 31°31' E 121°36'68484852.5
2017-Oct-19 10:50N 22°59' E 113°07'675242978.6
2017-Oct-19 10:50N 31°32' E 121°21'65444445.7
2017-Oct-19 10:49N 23°05' E 113°34'191218.7
2017-Oct-19 10:48N 22°47' E 113°36'141944.9
2017-Oct-19 10:48N 23°00' E 113°35'658789818.6
2017-Oct-19 10:47N 31°24' E 121°31'66011582.0
2017-Oct-19 10:44N 23°01' E 113°31'67320528.1
2017-Oct-19 10:42N 31°21' E 121°57'681144201.4
2017-Oct-19 10:42N 22°47' E 113°36'235846.6
2017-Oct-19 10:42N 22°44' E 113°12'271163.6
2017-Oct-19 10:40N 23°03' E 113°32'387.9
2017-Oct-19 10:38N 23°05' E 113°29'0 8.1
2017-Oct-19 10:37N 23°05' E 113°29'658131540.9
2017-Oct-19 10:37N 31°28' E 121°25'4373.7
2017-Oct-19 10:36N 31°26' E 121°29'657197041.9
2017-Oct-19 10:36N 22°34' E 114°16'528096.7
2017-Oct-19 10:35N 23°03' E 113°30'7313083.8
2017-Oct-19 10:35N 21°52' E 113°16'725104446.6
2017-Oct-19 10:35N 31°35' E 121°19'67711547.5
2017-Oct-19 10:31N 22°42' E 113°29'67657935.7
2017-Oct-19 10:31N 31°27' E 121°28'6442316910.5
2017-Oct-19 10:31N 22°41' E 114°32'54194571.5
2017-Oct-19 10:30N 22°50' E 113°34'6712417153.0
2017-Oct-19 10:30N 31°23' E 121°40'20917527176.3
2017-Oct-19 10:30N 01°08' E 103°39'14331720182.9
2017-Oct-19 10:30N 22°57' E 113°37'828432.7
2017-Oct-19 10:30N 22°50' E 113°34'43154442.3
2017-Oct-19 10:30N 22°34' E 114°17'448216133667.3
2017-Oct-19 10:30N 44°09' E 028°40'443015949002.1
2017-Oct-19 10:30N 22°59' E 113°34'14659.7
2017-Oct-19 10:30N 22°60' E 113°35'661792833.0
2017-Oct-19 10:30N 31°22' E 121°37'25675.8
2017-Oct-19 10:30N 31°21' E 121°38'1346363.3
2017-Oct-19 10:30N 31°28' E 121°25'911321.2
2017-Oct-19 10:30N 31°21' E 121°32'1036507.1
2017-Oct-19 10:30N 31°29' E 121°25'4047825.8
2017-Oct-19 10:30N 31°04' E 122°02'662595943.1
2017-Oct-19 10:30N 22°57' E 113°38'6592372536.4
2017-Oct-19 10:30N 31°26' E 121°29'6602376746.1
2017-Oct-19 10:30N 22°57' E 113°37'813769.4
2017-Oct-19 10:30N 22°54' E 113°29'186025.2
2017-Oct-19 10:30N 22°42' E 113°44'3256804.3
2017-Oct-19 10:30N 22°44' E 113°10'6842463888.6
2017-Oct-19 10:30N 31°25' E 121°29'663795347.9
2017-Oct-19 10:30N 22°57' E 113°30'1347188.4
2017-Oct-19 10:30N 22°46' E 113°22'6691204172.7
2017-Oct-19 10:30N 31°15' E 121°30'932932.7
2017-Oct-19 10:30N 31°24' E 121°31'7121281915.8
2017-Oct-19 10:30N 22°13' E 113°06'42151417.7
2017-Oct-19 10:30N 22°54' E 113°17'1812937.8
2017-Oct-19 10:30N 23°00' E 113°35'658789818.6
2017-Oct-19 10:29N 31°24' E 121°31'651468499.7
2017-Oct-19 10:29N 22°36' E 114°24'56100623.2
2017-Oct-19 10:29N 23°02' E 113°31'668601113.9
2017-Oct-19 10:29N 31°31' E 121°36'668801422.2
2017-Oct-19 10:29N 22°57' E 113°37'611388.6
2017-Oct-19 10:29N 22°51' E 113°35'95540.1
2017-Oct-19 10:29N 22°44' E 113°41'149830.4
2017-Oct-19 10:29N 22°56' E 113°36'620353.6
2017-Oct-19 10:29N 22°51' E 113°34'13080.1
2017-Oct-19 10:29N 22°52' E 113°33'932795.1
2017-Oct-19 10:29N 22°59' E 113°39'829144.7
2017-Oct-19 10:29N 22°53' E 113°33'2125235.6
2017-Oct-19 10:29N 22°47' E 113°11'2646967.5
2017-Oct-19 10:29N 22°58' E 113°37'5363152.6
2017-Oct-19 10:29N 22°41' E 114°31'9641734888.5
2017-Oct-19 10:29N 37°36' E 121°25'964289309.1
2017-Oct-19 10:29N 22°40' E 114°31'65116131.5
2017-Oct-19 10:29N 23°06' E 113°26'69249491.4
2017-Oct-19 10:29N 22°41' E 114°36'62112065.2
2017-Oct-19 10:28N 22°53' E 113°30'50180817.4
2017-Oct-19 10:28N 22°19' E 114°10'674346681.0
2017-Oct-19 10:28N 31°25' E 121°32'6742427071.6
2017-Oct-19 10:28N 22°45' E 113°31'813971.0
2017-Oct-19 10:28N 22°52' E 113°31'1770.3
2017-Oct-19 10:28N 22°53' E 113°31'6691204895.9
2017-Oct-19 10:28N 31°22' E 121°40'646581576.4
2017-Oct-19 10:28N 22°40' E 114°31'980504189.8
2017-Oct-19 10:28N 37°50' E 121°33'385346671.0
2017-Oct-19 10:28N 31°25' E 121°32'643462825.1
2017-Oct-19 10:28N 22°41' E 114°33'60215051.7
2017-Oct-19 10:28N 22°55' E 113°30'672484081.2
2017-Oct-19 10:28N 31°21' E 121°47'712072.3
2017-Oct-19 10:28N 31°22' E 121°40'147273.2
2017-Oct-19 10:28N 31°29' E 121°25'658107664.1
2017-Oct-19 10:27N 23°03' E 113°32'649292068.2
2017-Oct-19 10:27N 31°14' E 121°30'6571183478.2
2017-Oct-19 10:27N 22°49' E 113°37'2975.7
2017-Oct-19 10:27N 22°47' E 113°36'133530.8
2017-Oct-19 10:27N 22°59' E 113°34'81452.6
2017-Oct-19 10:26N 22°51' E 113°35'1315183.2
2017-Oct-19 10:26N 23°03' E 113°30'1119739.7
2017-Oct-19 10:26N 22°54' E 113°23'677406288.3
2017-Oct-19 10:26N 31°21' E 121°47'1555371.4
2017-Oct-19 10:26N 31°15' E 121°31'6541176467.1
2017-Oct-19 10:26N 22°58' E 113°33'91760.0
2017-Oct-19 10:26N 22°49' E 113°35'91587.5
2017-Oct-19 10:26N 22°55' E 113°27'666299742.7
2017-Oct-19 10:25N 31°32' E 121°20'665478922.5
2017-Oct-19 10:25N 22°51' E 113°35'123848.4
2017-Oct-19 10:25N 23°02' E 113°31'916416.4
2017-Oct-19 10:25N 22°54' E 113°35'121395.3
2017-Oct-19 10:25N 22°53' E 113°22'68449264.7
2017-Oct-19 10:24N 31°21' E 121°57'6752429753.1
2017-Oct-19 10:24N 22°55' E 113°36'61651.3
2017-Oct-19 10:24N 22°49' E 113°34'182759.8
2017-Oct-19 10:23N 23°06' E 113°25'6612381027.8
2017-Oct-19 10:23N 31°37' E 121°18'56390.9
2017-Oct-19 10:23N 31°32' E 121°21'675269990.1
2017-Oct-19 10:23N 22°59' E 113°07'67797552.5
2017-Oct-19 10:22N 31°10' E 121°51'6622382593.5
2017-Oct-19 10:22N 22°56' E 113°37'124005.2
2017-Oct-19 10:22N 22°44' E 113°34'144343.4
2017-Oct-19 10:22N 22°58' E 113°30'17353.7
2017-Oct-19 10:19N 22°41' E 113°31'67671527.0
2017-Oct-19 10:19N 31°24' E 121°31'71241356.1
2017-Oct-19 10:18N 22°13' E 113°05'4523119.7
2017-Oct-19 10:18N 22°50' E 113°34'15872.1
2017-Oct-19 10:16N 22°36' E 113°26'286001.1
2017-Oct-19 10:16N 23°04' E 113°26'826716.1
2017-Oct-19 10:15N 22°22' E 114°42'65498110.3
2017-Oct-19 10:15N 31°18' E 121°43'31749.0
2017-Oct-19 10:15N 31°16' E 121°45'662158888.9
2017-Oct-19 10:15N 22°60' E 113°32'7727.2
2017-Oct-19 10:14N 22°55' E 113°26'2225875.7
2017-Oct-19 10:14N 22°35' E 113°36'281906.2
2017-Oct-19 10:13N 23°03' E 113°32'568015.8
2017-Oct-19 10:13N 22°36' E 114°24'61325.7
2017-Oct-19 10:02N 23°06' E 113°27'6181347661.4
2017-Oct-19 10:01N 49°12' W 123°09'539419416855.2
2017-Oct-19 10:00N 31°15' E 121°30'6601187128.1
2017-Oct-19 10:00N 22°46' E 113°38'6681202991.0
2017-Oct-19 10:00N 31°33' E 121°20'6612380543.1
2017-Oct-19 10:00N 22°59' E 113°33'725226.8
2017-Oct-19 10:00N 22°52' E 113°33'6701206727.8
2017-Oct-19 10:00N 31°23' E 121°40'6602374727.8
2017-Oct-19 10:00N 22°33' E 114°20'6562361309.8
2017-Oct-19 10:00N 31°13' E 121°48'6692407793.8
2017-Oct-19 10:00N 22°50' E 113°34'5498053.8
2017-Oct-19 10:00N 22°41' E 114°32'51185004.6
2017-Oct-19 10:00N 22°47' E 113°37'932285.7
2017-Oct-19 10:00N 22°56' E 113°36'9723498539.0
2017-Oct-19 10:00N 37°39' E 121°27'385461753.5
2017-Oct-19 10:00N 31°14' E 121°30'6571182245.8
2017-Oct-19 10:00N 22°55' E 113°30'63585.9
2017-Oct-19 10:00N 22°50' E 113°35'668343769.3
2017-Oct-19 10:00N 31°21' E 121°40'1911.9
2017-Oct-19 10:00N 31°22' E 121°40'372669218.9
2017-Oct-19 10:00N 37°34' E 121°23'9641156715.2
2017-Oct-19 10:00N 22°60' E 113°32'723836.0
2017-Oct-19 10:00N 22°53' E 113°30'73453.5
2017-Oct-19 10:00N 22°59' E 113°34'1761619.7
2017-Oct-19 10:00N 22°46' E 113°22'6761216704.8
2017-Oct-19 10:00N 31°25' E 121°29'712512472.4
2017-Oct-19 10:00N 22°13' E 113°06'9165828.8
2017-Oct-19 09:59N 22°23' E 114°44'14275136257.3
2017-Oct-19 09:59N 01°10' E 103°46'14241708463.9
2017-Oct-19 09:59N 22°53' E 113°31'666599141.4
2017-Oct-19 09:59N 31°29' E 121°24'6721209456.3
2017-Oct-19 09:59N 22°56' E 113°16'2036521.0
2017-Oct-19 09:59N 22°44' E 113°34'310934.5
2017-Oct-19 09:59N 22°47' E 113°36'1214531.6
2017-Oct-19 09:59N 22°58' E 113°33'14315150200.7
2017-Oct-19 09:59N 01°12' E 103°36'1416728449.3
2017-Oct-19 09:59N 22°39' E 113°41'1448671.5
2017-Oct-19 09:59N 22°51' E 113°34'22406.5
2017-Oct-19 09:59N 22°53' E 113°33'414623.9
2017-Oct-19 09:59N 22°56' E 113°36'663596361.5
2017-Oct-19 09:59N 31°20' E 121°39'6622381761.9
2017-Oct-19 09:59N 23°01' E 113°31'659148387.4
2017-Oct-19 09:59N 31°31' E 121°22'6441159069.7
2017-Oct-19 09:59N 22°41' E 114°31'84151711.2
2017-Oct-19 09:59N 22°12' E 113°06'47170213.7
2017-Oct-19 09:59N 22°55' E 113°27'196704465.0
2017-Oct-19 09:58N 21°16' E 110°25'218783383.2
2017-Oct-19 09:58N 22°19' E 114°10'48173968.1
2017-Oct-19 09:58N 22°56' E 113°37'5226916.1
2017-Oct-19 09:58N 22°40' E 114°31'56203089.3
2017-Oct-19 09:58N 22°52' E 113°31'827942.0
2017-Oct-19 09:58N 22°45' E 113°31'6154822.4
2017-Oct-19 09:58N 22°41' E 114°36'642256785.5
2017-Oct-19 09:58N 31°25' E 121°32'6602376249.5
2017-Oct-19 09:58N 23°02' E 113°31'66801.0
2017-Oct-19 09:58N 23°06' E 113°26'21415.3
2017-Oct-19 09:58N 23°05' E 113°29'6375235.9
2017-Oct-19 09:58N 22°40' E 114°31'5834973.6
2017-Oct-19 09:58N 22°55' E 113°30'666599628.5
2017-Oct-19 09:58N 31°25' E 121°32'74806.5
2017-Oct-19 09:58N 31°29' E 121°25'684175826.9
2017-Oct-19 09:57N 22°37' E 113°24'103708.4
2017-Oct-19 09:57N 22°45' E 113°31'1618743.0
2017-Oct-19 09:57N 23°00' E 113°32'662397268.3
2017-Oct-19 09:57N 31°18' E 121°43'1036133.5
2017-Oct-19 09:57N 31°21' E 121°32'664796296.0
2017-Oct-19 09:57N 22°50' E 113°36'2165.6
2017-Oct-19 09:56N 22°51' E 113°35'1346601.0
2017-Oct-19 09:56N 23°03' E 113°30'1011491.7
2017-Oct-19 09:56N 22°55' E 113°36'164021.8
2017-Oct-19 09:56N 22°43' E 113°25'68194277.6
2017-Oct-19 09:56N 31°22' E 121°40'663198846.0
2017-Oct-19 09:55N 22°57' E 113°37'64559.9
2017-Oct-19 09:55N 22°51' E 113°35'82316.9
2017-Oct-19 09:55N 22°58' E 113°30'622259.8
2017-Oct-19 09:55N 22°54' E 113°35'499291.7
2017-Oct-19 09:55N 22°36' E 114°24'53189162.8
2017-Oct-19 09:55N 22°53' E 113°31'1118929.4
2017-Oct-19 09:55N 22°48' E 113°21'683492002.6
2017-Oct-19 09:55N 31°21' E 121°47'6482332096.5
2017-Oct-19 09:55N 22°41' E 114°33'643110189.6
2017-Oct-19 09:54N 31°20' E 121°39'689177102.5
2017-Oct-19 09:54N 22°46' E 113°05'686129994.9
2017-Oct-19 09:54N 31°25' E 121°29'118164.7
2017-Oct-19 09:54N 31°14' E 121°30'118248.9
2017-Oct-19 09:54N 31°25' E 121°30'669150418.2
2017-Oct-19 09:53N 22°46' E 113°38'157499.0
2017-Oct-19 09:53N 22°60' E 113°35'115569.2
2017-Oct-19 09:53N 22°49' E 113°34'183027.4
2017-Oct-19 09:53N 23°06' E 113°27'978587067.3
2017-Oct-19 09:53N 37°50' E 121°32'99259505.0
2017-Oct-19 09:52N 22°53' E 113°22'141663.9
2017-Oct-19 09:51N 22°49' E 113°37'89477.3
2017-Oct-19 09:51N 22°57' E 113°36'66095085.0
2017-Oct-19 09:51N 31°24' E 121°30'661125289.6
2017-Oct-19 09:50N 23°05' E 113°23'188155.3
2017-Oct-19 09:50N 22°50' E 113°34'67092745.3
2017-Oct-19 09:50N 31°37' E 121°18'67997723.1
2017-Oct-19 09:49N 22°47' E 113°21'68582151.6
2017-Oct-19 09:49N 31°31' E 121°36'667240132.3
2017-Oct-19 09:49N 23°05' E 113°28'66345048.5
2017-Oct-19 09:48N 31°25' E 121°38'61179.6
2017-Oct-19 09:47N 31°24' E 121°31'21244.3
2017-Oct-19 09:47N 31°22' E 121°30'371007.7
2017-Oct-19 09:45N 31°02' E 122°06'67127458.9
2017-Oct-19 09:44N 22°49' E 113°35'102516.5
2017-Oct-19 09:43N 22°60' E 113°32'54773.2
2017-Oct-19 09:39N 22°12' E 113°06'4511580.6
2017-Oct-19 09:39N 22°47' E 113°36'41593.0
2017-Oct-19 09:35N 22°18' E 114°07'66731996.1
2017-Oct-19 09:34N 30°44' E 122°13'65576043.8
2017-Oct-19 09:33N 23°05' E 113°29'10350.3
2017-Oct-19 09:31N 22°55' E 113°26'973109445.5
2017-Oct-19 09:31N 37°36' E 121°25'9911188690.9
2017-Oct-19 09:31N 22°36' E 113°25'4438887628.0
2017-Oct-19 09:31N 44°09' E 028°40'625722524707.6
2017-Oct-19 09:31N 49°12' W 123°09'53859692539.3
2017-Oct-19 09:30N 31°27' E 121°27'1139894.0
2017-Oct-19 09:30N 31°23' E 121°40'6811226698.5
2017-Oct-19 09:30N 22°43' E 113°26'6772438356.0
2017-Oct-19 09:30N 31°28' E 121°27'6422312257.4
2017-Oct-19 09:30N 22°41' E 114°33'57204480.2
2017-Oct-19 09:30N 22°52' E 113°33'5090353.2
2017-Oct-19 09:30N 22°31' E 114°22'47168121.8
2017-Oct-19 09:30N 22°49' E 113°36'47168469.3
2017-Oct-19 09:30N 22°12' E 113°06'5667651.2
2017-Oct-19 09:30N 23°04' E 113°29'1035148.9
2017-Oct-19 09:30N 22°57' E 113°37'1323676.0
2017-Oct-19 09:30N 23°06' E 113°26'1555073.6
2017-Oct-19 09:30N 22°52' E 113°33'1034663.8
2017-Oct-19 09:30N 22°44' E 113°27'679488538.2
2017-Oct-19 09:30N 31°20' E 121°42'6692408928.8
2017-Oct-19 09:30N 22°49' E 113°37'9901782450.1
2017-Oct-19 09:30N 37°50' E 121°32'9831770262.9
2017-Oct-19 09:30N 22°57' E 113°36'9833540327.0
2017-Oct-19 09:30N 37°50' E 121°31'979881275.3
2017-Oct-19 09:30N 23°04' E 113°29'1426041.3
2017-Oct-19 09:30N 22°50' E 113°35'971874286.6
2017-Oct-19 09:30N 37°34' E 121°23'362325496.5
2017-Oct-19 09:30N 31°32' E 121°22'1554759.9
2017-Oct-19 09:30N 31°25' E 121°38'666799188.4
2017-Oct-19 09:30N 22°55' E 113°36'661476137.8
2017-Oct-19 09:30N 31°25' E 121°29'676405542.2
2017-Oct-19 09:30N 22°46' E 113°22'6762433392.6
2017-Oct-19 09:29N 31°25' E 121°29'1529.3
2017-Oct-19 09:29N 31°24' E 121°30'671345017.4
2017-Oct-19 09:29N 22°44' E 113°34'723806.0
2017-Oct-19 09:29N 22°51' E 113°35'670804053.1
2017-Oct-19 09:29N 31°01' E 122°07'2693681.2
2017-Oct-19 09:29N 31°18' E 121°44'673807150.9
2017-Oct-19 09:29N 22°44' E 113°36'56347.8
2017-Oct-19 09:29N 22°49' E 113°34'828158.9
2017-Oct-19 09:29N 22°57' E 113°37'58724.9
2017-Oct-19 09:29N 22°53' E 113°33'41828.0
2017-Oct-19 09:29N 22°56' E 113°36'78083.5
2017-Oct-19 09:29N 23°01' E 113°31'669344257.5
2017-Oct-19 09:29N 31°23' E 121°49'24423.8
2017-Oct-19 09:29N 31°21' E 121°47'666479649.6
2017-Oct-19 09:29N 23°03' E 113°30'815093.6
2017-Oct-19 09:29N 22°55' E 113°27'4785106.9
2017-Oct-19 09:28N 22°12' E 113°06'60214694.9
2017-Oct-19 09:28N 22°19' E 114°10'4886984.1
2017-Oct-19 09:28N 22°56' E 113°37'1345933.2
2017-Oct-19 09:28N 22°45' E 113°31'6761217615.3
2017-Oct-19 09:28N 31°22' E 121°40'85438.6
2017-Oct-19 09:28N 31°25' E 121°32'668600974.5
2017-Oct-19 09:28N 22°52' E 113°31'668343451.2
2017-Oct-19 09:28N 31°25' E 121°32'6452322240.8
2017-Oct-19 09:28N 22°40' E 114°31'59105548.6
2017-Oct-19 09:28N 22°58' E 113°30'415411.7
2017-Oct-19 09:28N 23°02' E 113°31'6457534.7
2017-Oct-19 09:28N 22°41' E 114°36'5666891.0
2017-Oct-19 09:28N 22°47' E 113°36'977879198.8
2017-Oct-19 09:28N 37°36' E 121°25'960864305.7
2017-Oct-19 09:28N 23°05' E 113°34'1311683.4
2017-Oct-19 09:28N 22°53' E 113°31'109401.4
2017-Oct-19 09:28N 22°48' E 113°21'677811893.8
2017-Oct-19 09:28N 31°29' E 121°25'666798768.3
2017-Oct-19 09:28N 22°55' E 113°30'62683.9
2017-Oct-19 09:27N 22°51' E 113°35'0558.2
2017-Oct-19 09:27N 22°51' E 113°35'669300946.9
2017-Oct-19 09:27N 31°22' E 121°40'663795768.8
2017-Oct-19 09:27N 23°00' E 113°32'5921110.7
2017-Oct-19 09:27N 22°41' E 114°32'652213359.3
2017-Oct-19 09:27N 31°23' E 121°50'669219105.3
2017-Oct-19 09:27N 22°59' E 113°34'660474930.4
2017-Oct-19 09:27N 31°33' E 121°19'652156507.9
2017-Oct-19 09:26N 22°36' E 114°24'6425457.6
2017-Oct-19 09:26N 23°05' E 113°23'653391904.2
2017-Oct-19 09:26N 31°14' E 121°30'2024051.8
2017-Oct-19 09:26N 31°32' E 121°20'6661198379.5
2017-Oct-19 09:26N 22°51' E 113°34'19922370.7
2017-Oct-19 09:25N 21°16' E 110°25'19563736.0
2017-Oct-19 09:25N 22°55' E 113°26'101366.2
2017-Oct-19 09:25N 23°05' E 113°29'7823279.7
2017-Oct-19 09:25N 21°50' E 113°08'738110640.3
2017-Oct-19 09:24N 31°31' E 121°36'676152182.0
2017-Oct-19 09:24N 22°47' E 113°36'153230.4
2017-Oct-19 09:24N 23°01' E 113°31'662113507.6
2017-Oct-19 09:23N 31°37' E 121°18'661169921.9
2017-Oct-19 09:23N 22°60' E 113°35'41473.8
2017-Oct-19 09:23N 22°59' E 113°39'657147773.2
2017-Oct-19 09:23N 31°24' E 121°31'6671200585.3
2017-Oct-19 09:23N 22°49' E 113°35'4381.8
2017-Oct-19 09:22N 22°54' E 113°35'4916049.3
2017-Oct-19 09:22N 22°36' E 114°24'6512344794.7
2017-Oct-19 09:22N 31°28' E 121°25'65951609.9
2017-Oct-19 09:21N 22°57' E 113°37'333450.9
2017-Oct-19 09:20N 22°43' E 113°05'302860.5
2017-Oct-19 09:20N 22°60' E 113°32'662132403.3
2017-Oct-19 09:19N 31°20' E 121°39'661238029.3
2017-Oct-19 09:19N 22°57' E 113°37'11621.0
2017-Oct-19 09:18N 23°05' E 113°29'656131155.9
2017-Oct-19 09:18N 31°21' E 121°32'438525937.2
2017-Oct-19 09:18N 24°33' E 118°31'44237035.0
2017-Oct-19 09:17N 31°26' E 121°29'38630902.7
2017-Oct-19 09:16N 37°52' E 121°31'980252058.6
2017-Oct-19 09:16N 23°03' E 113°32'66033455.7
2017-Oct-19 09:15N 31°18' E 121°43'67710329.1
2017-Oct-19 09:11N 22°28' E 113°50'67421270.2
2017-Oct-19 09:09N 31°22' E 121°30'66362782.2
2017-Oct-19 09:09N 22°50' E 113°38'202988.0
2017-Oct-19 09:08N 23°06' E 113°25'142240956.9
2017-Oct-19 09:06N 01°15' E 104°02'1410112770.8
2017-Oct-19 09:05N 22°47' E 113°37'173807.0
2017-Oct-19 09:05N 23°03' E 113°32'136.4
2017-Oct-19 09:04N 23°03' E 113°32'66118880.8
2017-Oct-19 09:02N 31°06' E 121°58'145128.4
2017-Oct-19 09:02N 31°18' E 121°50'4488234147.0
2017-Oct-19 09:01N 44°09' E 028°40'625722524707.6
2017-Oct-19 09:01N 49°12' W 123°09'539419419387.8
2017-Oct-19 09:00N 31°14' E 121°30'2176188.4
2017-Oct-19 09:00N 31°22' E 121°52'388697905.5
2017-Oct-19 09:00N 37°50' E 121°30'405182033.6
2017-Oct-19 09:00N 31°06' E 121°58'2226380.4
2017-Oct-19 09:00N 31°21' E 121°39'1527.9
2017-Oct-19 09:00N 31°22' E 121°40'611139.2
2017-Oct-19 09:00N 31°23' E 121°47'2850729.1
2017-Oct-19 09:00N 31°37' E 121°18'374448656.8
2017-Oct-19 09:00N 37°51' E 121°32'188273.0
2017-Oct-19 09:00N 37°34' E 121°23'3751351534.9
2017-Oct-19 09:00N 31°19' E 121°45'225979.1
2017-Oct-19 09:00N 31°31' E 121°24'228943.5
2017-Oct-19 08:59N 31°21' E 121°47'1518098.1
2017-Oct-19 08:59N 31°24' E 121°30'21529.7
2017-Oct-19 08:59N 31°22' E 121°30'20732488042.1
2017-Oct-19 08:59N 01°22' E 103°38'2410456623.0
2017-Oct-19 08:59N 37°50' E 121°30'39388354.6
2017-Oct-19 08:59N 31°18' E 121°50'20811070474.6
2017-Oct-19 08:59N 01°12' E 103°52'14232561606.5
2017-Oct-19 08:59N 22°57' E 113°32'6621191449.2
2017-Oct-19 08:59N 31°28' E 121°25'1347457.5
2017-Oct-19 08:58N 31°23' E 121°40'311350.0
2017-Oct-19 08:58N 31°20' E 121°39'6622384814.7
2017-Oct-19 08:58N 22°59' E 113°33'517162.9
2017-Oct-19 08:58N 23°03' E 113°30'1034834.0
2017-Oct-19 08:58N 22°53' E 113°30'931541.7
2017-Oct-19 08:58N 22°45' E 113°31'1448941.6
2017-Oct-19 08:58N 22°57' E 113°37'63224.7
2017-Oct-19 08:58N 22°51' E 113°35'59212591.5
2017-Oct-19 08:58N 22°36' E 114°37'6375557.0
2017-Oct-19 08:58N 22°52' E 113°31'200180166.0
2017-Oct-19 08:58N 21°11' E 110°25'8561027059.2
2017-Oct-19 08:58N 31°25' E 121°30'712343.6
2017-Oct-19 08:58N 31°30' E 121°23'6442317848.7
2017-Oct-19 08:58N 22°41' E 114°31'51184342.8
2017-Oct-19 08:58N 22°47' E 113°36'57205194.0
2017-Oct-19 08:58N 21°53' E 113°14'7242607688.2
2017-Oct-19 08:58N 31°25' E 121°32'660297035.5
2017-Oct-19 08:58N 23°06' E 113°26'1450252.2
2017-Oct-19 08:58N 22°54' E 113°34'414482.4
2017-Oct-19 08:58N 22°57' E 113°37'52188781.3
2017-Oct-19 08:58N 22°40' E 114°31'56315.9
2017-Oct-19 08:58N 22°41' E 114°36'6274131.2
2017-Oct-19 08:58N 22°53' E 113°31'667480144.8
2017-Oct-19 08:58N 31°29' E 121°25'666342329.3
2017-Oct-19 08:58N 22°55' E 113°30'5829977.4
2017-Oct-19 08:57N 22°40' E 114°31'5819076.7
2017-Oct-19 08:57N 23°00' E 113°32'6035751.5
2017-Oct-19 08:57N 22°41' E 114°33'5751120.0
2017-Oct-19 08:57N 22°52' E 113°33'516919.6
2017-Oct-19 08:57N 22°49' E 113°37'814258.7
2017-Oct-19 08:57N 22°57' E 113°36'1311461.5
2017-Oct-19 08:57N 22°44' E 113°36'992510264.0
2017-Oct-19 08:57N 37°48' E 121°29'10321857698.2
2017-Oct-19 08:57N 22°13' E 113°06'7142569870.8
2017-Oct-19 08:57N 31°24' E 121°34'6672401980.4
2017-Oct-19 08:57N 22°50' E 113°35'910615.8
2017-Oct-19 08:57N 22°59' E 113°34'661475700.4
2017-Oct-19 08:57N 31°39' E 121°14'198339.4
2017-Oct-19 08:56N 31°25' E 121°29'046.4
2017-Oct-19 08:56N 31°25' E 121°29'660594146.2
2017-Oct-19 08:56N 22°56' E 113°36'4989066.0
2017-Oct-19 08:56N 22°36' E 114°24'4987412.3
2017-Oct-19 08:56N 22°52' E 113°35'76616.3
2017-Oct-19 08:56N 22°44' E 113°34'2382437.5
2017-Oct-19 08:56N 23°05' E 113°23'1113602.6
2017-Oct-19 08:56N 22°58' E 113°33'1018532.5
2017-Oct-19 08:56N 23°06' E 113°25'1018592.2
2017-Oct-19 08:56N 22°60' E 113°35'23956.6
2017-Oct-19 08:56N 22°60' E 113°32'77909.5
2017-Oct-19 08:56N 22°53' E 113°33'14141697174.3
2017-Oct-19 08:56N 01°14' E 104°01'14115080866.9
2017-Oct-19 08:56N 22°50' E 113°34'123956.9
2017-Oct-19 08:56N 23°01' E 113°31'5518103.2
2017-Oct-19 08:56N 22°19' E 114°09'5566173.6
2017-Oct-19 08:56N 23°01' E 113°31'201362522.2
2017-Oct-19 08:55N 21°16' E 110°25'17369167.5
2017-Oct-19 08:55N 22°46' E 113°04'690414105.8
2017-Oct-19 08:55N 31°22' E 121°40'671142139.1
2017-Oct-19 08:55N 22°47' E 113°36'1730164.2
2017-Oct-19 08:55N 23°03' E 113°31'287515831.8
2017-Oct-19 08:55N 24°34' E 118°28'288345808.1
2017-Oct-19 08:55N 22°48' E 113°36'1761960.2
2017-Oct-19 08:55N 23°05' E 113°34'52565.5
2017-Oct-19 08:55N 23°05' E 113°29'2125091.5
2017-Oct-19 08:55N 22°45' E 113°24'167398.3
2017-Oct-19 08:55N 22°56' E 113°37'63372.4
2017-Oct-19 08:54N 22°52' E 113°33'2781.0
2017-Oct-19 08:54N 22°50' E 113°34'564520322444.1
2017-Oct-19 08:54N 48°60' E 001°59'56372536830.5
2017-Oct-19 08:54N 23°00' E 113°35'660593563.4
2017-Oct-19 08:54N 31°25' E 121°32'6622381795.8
2017-Oct-19 08:54N 22°56' E 113°37'5311980.6
2017-Oct-19 08:54N 22°41' E 114°32'6510166.6
2017-Oct-19 08:53N 22°46' E 113°22'122058.2
2017-Oct-19 08:53N 22°51' E 113°34'71827.5
2017-Oct-19 08:53N 22°57' E 113°37'83197.7
2017-Oct-19 08:53N 22°49' E 113°35'211978.1
2017-Oct-19 08:52N 23°02' E 113°16'666126229.3
2017-Oct-19 08:52N 31°21' E 121°32'65587362.5
2017-Oct-19 08:51N 23°03' E 113°32'784474.5
2017-Oct-19 08:50N 22°11' E 114°35'6834982.6
2017-Oct-19 08:50N 22°49' E 113°34'676243230.2
2017-Oct-19 08:50N 31°31' E 121°36'6901242154.7
2017-Oct-19 08:50N 22°47' E 113°11'252159.4
2017-Oct-19 08:49N 22°50' E 113°38'161870.3
2017-Oct-19 08:49N 22°48' E 113°21'10619.3
2017-Oct-19 08:48N 22°55' E 113°14'224669.1
2017-Oct-19 08:47N 23°04' E 113°36'13222.6
2017-Oct-19 08:44N 22°55' E 113°26'11243.2
2017-Oct-19 08:41N 22°50' E 113°36'666104170.8
2017-Oct-19 08:41N 31°32' E 121°20'65728495.5
2017-Oct-19 08:40N 23°03' E 113°32'8016938.4
2017-Oct-19 08:39N 22°34' E 114°53'834170.7
2017-Oct-19 08:38N 23°05' E 113°29'4174278.2
2017-Oct-19 08:38N 22°28' E 113°50'3310765.5
2017-Oct-19 08:38N 22°35' E 114°24'554025.0
2017-Oct-19 08:37N 22°58' E 113°30'13184.0
2017-Oct-19 08:33N 22°48' E 113°21'6201162938.9
2017-Oct-19 08:31N 49°12' W 123°09'64247708317.7
2017-Oct-19 08:30N 21°11' E 110°25'206740846.8
2017-Oct-19 08:30N 22°56' E 113°36'11750.1
2017-Oct-19 08:30N 22°57' E 113°37'5394803.8
2017-Oct-19 08:30N 22°41' E 114°31'65234252.2
2017-Oct-19 08:30N 22°48' E 113°21'1119708.1
2017-Oct-19 08:30N 22°55' E 113°30'622578.3
2017-Oct-19 08:30N 23°01' E 113°31'61220525.5
2017-Oct-19 08:30N 22°26' E 114°25'59105527.0
2017-Oct-19 08:30N 22°59' E 113°33'6622382058.7
2017-Oct-19 08:30N 31°23' E 121°34'46476.4
2017-Oct-19 08:30N 31°25' E 121°30'657472729.0
2017-Oct-19 08:30N 23°02' E 113°36'656590724.9
2017-Oct-19 08:30N 31°28' E 121°27'6662398622.9
2017-Oct-19 08:30N 22°49' E 113°37'89359.3
2017-Oct-19 08:30N 22°57' E 113°35'9831769460.0
2017-Oct-19 08:30N 37°50' E 121°30'24122170615.3
2017-Oct-19 08:30N 01°14' E 103°54'23942154759.0
2017-Oct-19 08:30N 37°34' E 121°23'963866892.1
2017-Oct-19 08:30N 23°01' E 113°31'1120367.7
2017-Oct-19 08:30N 22°54' E 113°21'1425858.0
2017-Oct-19 08:30N 22°57' E 113°37'14225117946.0
2017-Oct-19 08:30N 01°13' E 103°57'14165098924.6
2017-Oct-19 08:30N 22°52' E 113°35'14897.0
2017-Oct-19 08:30N 22°50' E 113°35'931847.5
2017-Oct-19 08:30N 22°59' E 113°34'12005.6
2017-Oct-19 08:30N 23°00' E 113°35'6632387941.3
2017-Oct-19 08:30N 31°18' E 121°48'651260233.3
2017-Oct-19 08:29N 22°32' E 114°38'647775980.1
2017-Oct-19 08:29N 31°25' E 121°29'7122562362.1
2017-Oct-19 08:29N 22°13' E 113°06'7122562224.2
2017-Oct-19 08:29N 31°25' E 121°29'650780404.3
2017-Oct-19 08:29N 22°36' E 114°24'53190380.0
2017-Oct-19 08:29N 22°53' E 113°30'1012235.4
2017-Oct-19 08:29N 22°46' E 113°38'311690.7
2017-Oct-19 08:29N 22°44' E 113°34'65117165.6
2017-Oct-19 08:29N 22°11' E 114°35'85102268.2
2017-Oct-19 08:29N 23°05' E 113°23'28242.1
2017-Oct-19 08:29N 23°06' E 113°25'4352014.3
2017-Oct-19 08:29N 22°28' E 113°50'34123417.7
2017-Oct-19 08:29N 22°60' E 113°35'42105.4
2017-Oct-19 08:29N 22°59' E 113°39'518331.6
2017-Oct-19 08:29N 22°55' E 113°36'4987751.6
2017-Oct-19 08:29N 22°35' E 114°24'14161019874.2
2017-Oct-19 08:29N 01°26' E 103°41'14152546804.6
2017-Oct-19 08:29N 22°56' E 113°36'9833539571.9
2017-Oct-19 08:29N 37°50' E 121°30'389233304.8
2017-Oct-19 08:29N 31°22' E 121°40'6642389351.7
2017-Oct-19 08:29N 22°58' E 113°33'56201267.1
2017-Oct-19 08:29N 22°40' E 114°31'73131869.5
2017-Oct-19 08:29N 23°03' E 113°15'190136986.4
2017-Oct-19 08:28N 21°16' E 110°25'244878267.5
2017-Oct-19 08:28N 22°41' E 114°32'3054311.4
2017-Oct-19 08:28N 22°19' E 114°10'6742426794.7
2017-Oct-19 08:28N 31°20' E 121°39'6612378684.7
2017-Oct-19 08:28N 23°03' E 113°30'135209.2
2017-Oct-19 08:28N 22°51' E 113°35'42838.9
2017-Oct-19 08:28N 22°52' E 113°31'104385.4
2017-Oct-19 08:28N 23°02' E 113°31'1658230.7
2017-Oct-19 08:28N 22°47' E 113°36'35123.1
2017-Oct-19 08:28N 22°50' E 113°36'6672401501.3
2017-Oct-19 08:28N 31°25' E 121°32'642577767.3
2017-Oct-19 08:28N 22°41' E 114°36'9771172749.7
2017-Oct-19 08:28N 37°51' E 121°29'1527488.7
2017-Oct-19 08:28N 37°36' E 121°25'965868900.3
2017-Oct-19 08:28N 23°01' E 113°31'56200805.8
2017-Oct-19 08:28N 22°36' E 114°24'5650613.8
2017-Oct-19 08:28N 22°45' E 113°24'6771218960.3
2017-Oct-19 08:28N 31°29' E 121°25'6672400707.9
2017-Oct-19 08:28N 22°53' E 113°31'57103012.2
2017-Oct-19 08:28N 22°40' E 114°31'53190130.1
2017-Oct-19 08:28N 22°57' E 113°37'814091.7
2017-Oct-19 08:28N 23°03' E 113°32'656393400.6
2017-Oct-19 08:27N 31°22' E 121°30'664796846.7
2017-Oct-19 08:27N 22°52' E 113°33'93450.8
2017-Oct-19 08:27N 23°00' E 113°32'661594899.5
2017-Oct-19 08:27N 31°25' E 121°32'86798.3
2017-Oct-19 08:27N 31°22' E 121°40'674404425.0
2017-Oct-19 08:27N 22°44' E 113°36'1243412.9
2017-Oct-19 08:27N 22°56' E 113°37'5465095.2
2017-Oct-19 08:27N 22°41' E 114°33'6827162.0
2017-Oct-19 08:27N 22°48' E 113°20'668400660.8
2017-Oct-19 08:27N 31°14' E 121°30'650780195.1
2017-Oct-19 08:27N 23°06' E 113°27'671483181.9
2017-Oct-19 08:27N 31°21' E 121°56'6711208576.1
2017-Oct-19 08:27N 23°06' E 113°26'659474241.2
2017-Oct-19 08:26N 31°24' E 121°31'660339414.1
2017-Oct-19 08:26N 22°60' E 113°32'52751.5
2017-Oct-19 08:26N 22°55' E 113°36'92466.3
2017-Oct-19 08:26N 23°03' E 113°32'1018671.4
2017-Oct-19 08:26N 22°53' E 113°33'21428.1
2017-Oct-19 08:26N 22°51' E 113°34'71156.2
2017-Oct-19 08:26N 22°55' E 113°27'113232.3
2017-Oct-19 08:25N 22°45' E 113°31'1315534.3
2017-Oct-19 08:25N 22°56' E 113°37'3457.1
2017-Oct-19 08:25N 22°54' E 113°35'122093.0
2017-Oct-19 08:25N 22°53' E 113°22'41050.8
2017-Oct-19 08:24N 22°55' E 113°26'1311454.9
2017-Oct-19 08:24N 23°04' E 113°16'668218754.8
2017-Oct-19 08:24N 31°37' E 121°18'66617385.6
2017-Oct-19 08:22N 22°54' E 113°34'51643.8
2017-Oct-19 08:22N 22°58' E 113°30'4163.7
2017-Oct-19 08:20N 23°02' E 113°31'233557.1
2017-Oct-19 08:20N 22°47' E 113°11'281616.1
2017-Oct-19 08:19N 23°05' E 113°34'173314.7
2017-Oct-19 08:19N 22°49' E 113°37'67426668.2
2017-Oct-19 08:17N 31°31' E 121°36'66627884.7
2017-Oct-19 08:16N 23°05' E 113°29'656337211.1
2017-Oct-19 08:15N 31°21' E 121°32'665104038.6
2017-Oct-19 08:15N 22°49' E 113°35'66851178.3
2017-Oct-19 08:14N 31°11' E 121°51'1922698.7
2017-Oct-19 08:14N 31°24' E 121°35'671482978.7
2017-Oct-19 08:14N 22°43' E 113°41'344272.1
2017-Oct-19 08:14N 22°59' E 113°07'91415.1
2017-Oct-19 08:13N 22°54' E 113°16'6801224515.5
2017-Oct-19 08:13N 31°18' E 121°50'397438.8
2017-Oct-19 08:13N 31°41' E 121°12'6415408.0
2017-Oct-19 08:13N 30°59' E 122°10'2917393.9
2017-Oct-19 08:13N 31°21' E 121°47'123593.0
2017-Oct-19 08:12N 31°20' E 121°33'81255.0
2017-Oct-19 08:12N 31°18' E 121°43'3500.5
2017-Oct-19 08:12N 31°16' E 121°45'27631.9
2017-Oct-19 08:09N 31°32' E 121°20'253717.0
2017-Oct-19 08:09N 31°23' E 121°47'331770.5
2017-Oct-19 08:07N 30°57' E 122°11'43111755.7
2017-Oct-19 08:05N 24°33' E 118°30'302135983.9
2017-Oct-19 08:05N 22°47' E 113°21'581055.3
2017-Oct-19 08:02N 21°51' E 113°10'703068.1
2017-Oct-19 08:01N 22°56' E 113°36'618222255449.8
2017-Oct-19 08:00N 49°12' W 123°09'536719320878.5
2017-Oct-19 08:00N 31°20' E 121°59'6731211725.4
2017-Oct-19 08:00N 23°01' E 113°31'6632387405.2
2017-Oct-19 08:00N 31°22' E 121°40'558620110836.2
2017-Oct-19 08:00N 48°56' E 002°02'563620289335.0
2017-Oct-19 08:00N 22°59' E 113°34'44307974336.1
2017-Oct-19 08:00N 44°09' E 028°40'443415962767.2
2017-Oct-19 08:00N 22°52' E 113°33'1527383.1
2017-Oct-19 08:00N 22°47' E 113°17'6792444361.6
2017-Oct-19 08:00N 31°27' E 121°27'1036673.3
2017-Oct-19 08:00N 31°34' E 121°18'34121974.1
2017-Oct-19 08:00N 31°12' E 121°49'2177371.1
2017-Oct-19 08:00N 31°26' E 121°29'669602043.4
2017-Oct-19 08:00N 22°44' E 113°39'9833540018.5
2017-Oct-19 08:00N 37°40' E 121°28'968696874.1
2017-Oct-19 08:00N 23°05' E 113°29'1730321.2
2017-Oct-19 08:00N 22°49' E 113°35'813815.5
2017-Oct-19 08:00N 22°57' E 113°37'11846.7
2017-Oct-19 08:00N 22°56' E 113°37'2112420.7
2017-Oct-19 08:00N 23°03' E 113°16'73261769.3
2017-Oct-19 08:00N 21°51' E 113°10'57204205.8
2017-Oct-19 08:00N 22°47' E 113°17'6822455822.1
2017-Oct-19 08:00N 31°22' E 121°40'3721340895.4
2017-Oct-19 08:00N 37°34' E 121°23'3691326768.5
2017-Oct-19 08:00N 31°25' E 121°32'39058.5
2017-Oct-19 08:00N 31°25' E 121°29'6612380500.2
2017-Oct-19 08:00N 22°23' E 114°25'664796378.2
2017-Oct-19 08:00N 31°24' E 121°35'118037.2
2017-Oct-19 08:00N 31°14' E 121°30'1762239.7
2017-Oct-19 08:00N 31°23' E 121°47'6742427860.0
2017-Oct-19 08:00N 22°53' E 113°30'6662397914.3
2017-Oct-19 08:00N 31°29' E 121°24'228670.4
2017-Oct-19 07:59N 31°21' E 121°47'719431698.3
2017-Oct-19 07:59N 22°13' E 113°06'7122563832.3
2017-Oct-19 07:59N 31°24' E 121°30'651780821.3
2017-Oct-19 07:59N 22°36' E 114°24'4742365.6
2017-Oct-19 07:59N 22°44' E 113°34'6701206764.9
2017-Oct-19 07:59N 31°25' E 121°29'6591186508.2
2017-Oct-19 07:59N 23°01' E 113°31'658338222.0
2017-Oct-19 07:59N 31°21' E 121°32'6551179394.1
2017-Oct-19 07:59N 23°03' E 113°32'1244439.9
2017-Oct-19 07:59N 22°51' E 113°34'61120.5
2017-Oct-19 07:59N 22°56' E 113°36'667343157.1
2017-Oct-19 07:59N 31°18' E 121°50'1864520.7
2017-Oct-19 07:59N 31°31' E 121°36'860773925.3
2017-Oct-19 07:58N 21°16' E 110°25'854768917.1
2017-Oct-19 07:58N 31°20' E 121°39'661792894.9
2017-Oct-19 07:58N 23°03' E 113°30'6572365167.2
2017-Oct-19 07:58N 31°22' E 121°30'6711207980.0
2017-Oct-19 07:58N 22°45' E 113°31'6375573.7
2017-Oct-19 07:58N 22°29' E 114°37'6533407.4
2017-Oct-19 07:58N 22°52' E 113°31'6732421395.1
2017-Oct-19 07:58N 31°18' E 121°50'6912487313.3
2017-Oct-19 07:58N 22°42' E 113°14'2017847.3
2017-Oct-19 07:58N 22°53' E 113°31'44969.6
2017-Oct-19 07:58N 22°55' E 113°27'668601050.3
2017-Oct-19 07:58N 31°25' E 121°32'6612378929.7
2017-Oct-19 07:58N 22°57' E 113°37'42704.2
2017-Oct-19 07:58N 22°54' E 113°35'9713495422.0
2017-Oct-19 07:58N 37°36' E 121°25'967497366.1
2017-Oct-19 07:58N 22°58' E 113°33'661793160.8
2017-Oct-19 07:58N 31°29' E 121°25'663477534.1
2017-Oct-19 07:58N 22°58' E 113°30'664398206.5
2017-Oct-19 07:57N 31°38' E 121°14'6671200086.8
2017-Oct-19 07:57N 22°51' E 113°35'61533.7
2017-Oct-19 07:57N 22°55' E 113°30'711954.3
2017-Oct-19 07:57N 23°02' E 113°31'41603.1
2017-Oct-19 07:57N 23°05' E 113°29'81139.1
2017-Oct-19 07:57N 23°00' E 113°35'1017355.1
2017-Oct-19 07:57N 22°50' E 113°35'1712.1
2017-Oct-19 07:57N 22°50' E 113°36'7709.7
2017-Oct-19 07:56N 22°57' E 113°36'61200.7
2017-Oct-19 07:56N 23°01' E 113°31'14281284835.7
2017-Oct-19 07:56N 01°11' E 103°51'14285140460.3
2017-Oct-19 07:56N 22°60' E 113°35'113446.5
2017-Oct-19 07:55N 22°50' E 113°36'121069.7
2017-Oct-19 07:55N 22°45' E 113°24'214964.4
2017-Oct-19 07:54N 22°59' E 113°40'653335769.1
2017-Oct-19 07:54N 31°18' E 121°34'3714829.6
2017-Oct-19 07:54N 30°58' E 122°10'68145415.1
2017-Oct-19 07:53N 22°59' E 113°07'2615518.9
2017-Oct-19 07:53N 22°50' E 113°34'1821378.8
2017-Oct-19 07:53N 23°06' E 113°25'141125.1
2017-Oct-19 07:52N 22°54' E 113°18'182516.6
2017-Oct-19 07:52N 22°47' E 113°36'671482858.4
2017-Oct-19 07:52N 30°56' E 122°11'658789558.3
2017-Oct-19 07:52N 23°05' E 113°34'65757661.6
2017-Oct-19 07:51N 31°37' E 121°18'72364.8
2017-Oct-19 07:51N 31°41' E 121°11'68266327.2
2017-Oct-19 07:50N 22°47' E 113°15'62316.3
2017-Oct-19 07:50N 22°47' E 113°21'181031.8
2017-Oct-19 07:49N 23°04' E 113°29'2014084.1
2017-Oct-19 07:49N 22°45' E 113°31'29452894.5
2017-Oct-19 07:49N 24°34' E 118°28'286128705.4
2017-Oct-19 07:49N 23°03' E 113°32'124170.5
2017-Oct-19 07:48N 22°52' E 113°33'66889074.0
2017-Oct-19 07:48N 31°18' E 121°43'66442673.1
2017-Oct-19 07:47N 23°05' E 113°23'217407.9
2017-Oct-19 07:47N 22°47' E 113°11'68146271.5
2017-Oct-19 07:46N 31°32' E 121°20'65878953.3
2017-Oct-19 07:45N 23°06' E 113°27'8684.9
2017-Oct-19 07:45N 22°60' E 113°32'24873.7
2017-Oct-19 07:43N 22°35' E 113°36'2716203.1
2017-Oct-19 07:43N 23°02' E 113°31'163851.4
2017-Oct-19 07:43N 22°51' E 113°18'67735306.6
2017-Oct-19 07:42N 31°16' E 121°45'66133033.4
2017-Oct-19 07:40N 23°02' E 113°31'65013456.6
2017-Oct-19 07:38N 31°13' E 121°30'713978.0
2017-Oct-19 07:36N 31°59' E 120°26'64949739.3
2017-Oct-19 07:36N 23°05' E 113°29'66110623.7
2017-Oct-19 07:32N 31°23' E 121°38'670114853.4
2017-Oct-19 07:32N 22°49' E 113°35'4437253567.9
2017-Oct-19 07:31N 44°09' E 028°40'443515964756.1
2017-Oct-19 07:31N 22°52' E 113°33'517682.1
2017-Oct-19 07:30N 22°56' E 113°36'13588.4
2017-Oct-19 07:30N 22°56' E 113°37'663795921.8
2017-Oct-19 07:30N 31°23' E 121°38'26578.3
2017-Oct-19 07:30N 31°23' E 121°40'558320098807.4
2017-Oct-19 07:30N 48°59' E 002°04'564020302321.9
2017-Oct-19 07:30N 22°52' E 113°33'201362461.7
2017-Oct-19 07:30N 21°11' E 110°25'8483052745.6
2017-Oct-19 07:30N 31°14' E 121°30'1347708.7
2017-Oct-19 07:30N 31°16' E 121°45'6621191825.0
2017-Oct-19 07:30N 23°00' E 113°32'6622383598.0
2017-Oct-19 07:30N 31°16' E 121°45'663795389.7
2017-Oct-19 07:30N 22°59' E 113°33'61827418648.8
2017-Oct-19 07:30N 49°12' W 123°09'77799335360.2
2017-Oct-19 07:30N 01°09' E 103°47'14255129654.5
2017-Oct-19 07:30N 22°55' E 113°30'810166.0
2017-Oct-19 07:30N 22°49' E 113°37'518133.3
2017-Oct-19 07:30N 22°44' E 113°36'6701206897.3
2017-Oct-19 07:30N 31°31' E 121°21'6602376935.7
2017-Oct-19 07:30N 22°56' E 113°37'663477084.7
2017-Oct-19 07:30N 31°18' E 121°43'6612380515.6
2017-Oct-19 07:30N 23°06' E 113°26'2174002.3
2017-Oct-19 07:30N 22°47' E 113°17'9811766155.2
2017-Oct-19 07:30N 37°34' E 121°23'9711165513.0
2017-Oct-19 07:30N 22°34' E 114°20'4540740.4
2017-Oct-19 07:30N 22°57' E 113°37'0566.4
2017-Oct-19 07:30N 22°57' E 113°37'668801891.3
2017-Oct-19 07:30N 31°23' E 121°47'2814491.0
2017-Oct-19 07:29N 31°37' E 121°18'154838.3
2017-Oct-19 07:29N 31°25' E 121°29'712854120.7
2017-Oct-19 07:29N 22°13' E 113°06'76275197.5
2017-Oct-19 07:29N 22°36' E 114°24'9723497557.0
2017-Oct-19 07:29N 37°36' E 121°26'1513701.4
2017-Oct-19 07:29N 37°51' E 121°32'9791175143.3
2017-Oct-19 07:29N 23°06' E 113°25'6631193368.1
2017-Oct-19 07:29N 31°22' E 121°40'1035625.8
2017-Oct-19 07:29N 31°25' E 121°29'664597761.6
2017-Oct-19 07:29N 22°53' E 113°33'1037342.8
2017-Oct-19 07:29N 23°03' E 113°32'2511189.0
2017-Oct-19 07:29N 22°47' E 113°11'257472.4
2017-Oct-19 07:29N 22°45' E 113°38'667600625.3
2017-Oct-19 07:29N 31°23' E 121°30'6571182519.7
2017-Oct-19 07:29N 22°60' E 113°35'204183641.3
2017-Oct-19 07:28N 21°16' E 110°25'197177572.6
2017-Oct-19 07:28N 22°53' E 113°30'6662398631.1
2017-Oct-19 07:28N 31°30' E 121°24'6791221612.1
2017-Oct-19 07:28N 22°47' E 113°17'1345341.3
2017-Oct-19 07:28N 22°45' E 113°31'75171.4
2017-Oct-19 07:28N 22°50' E 113°36'26574.3
2017-Oct-19 07:28N 22°51' E 113°35'41774.3
2017-Oct-19 07:28N 22°52' E 113°31'6732421395.1
2017-Oct-19 07:28N 31°18' E 121°50'117733.3
2017-Oct-19 07:28N 31°20' E 122°02'6771217799.4
2017-Oct-19 07:28N 22°55' E 113°36'663795727.3
2017-Oct-19 07:28N 31°25' E 121°32'6612377816.3
2017-Oct-19 07:28N 23°02' E 113°31'668801024.7
2017-Oct-19 07:28N 31°31' E 121°36'667300185.9
2017-Oct-19 07:28N 23°03' E 113°30'6592371932.1
2017-Oct-19 07:28N 31°29' E 121°25'6611188940.8
2017-Oct-19 07:28N 22°58' E 113°33'413744.0
2017-Oct-19 07:28N 23°01' E 113°31'6601188358.6
2017-Oct-19 07:28N 31°29' E 121°25'139579.0
2017-Oct-19 07:28N 31°38' E 121°14'672605181.3
2017-Oct-19 07:27N 22°54' E 113°21'29839748.9
2017-Oct-19 07:27N 24°37' E 118°26'44087935.0
2017-Oct-19 07:27N 31°22' E 121°40'668481164.0
2017-Oct-19 07:27N 22°52' E 113°35'813568.9
2017-Oct-19 07:27N 22°59' E 113°34'14011.2
2017-Oct-19 07:27N 23°00' E 113°35'117875.5
2017-Oct-19 07:27N 22°49' E 113°35'185507.3
2017-Oct-19 07:26N 22°48' E 113°15'6792444958.0
2017-Oct-19 07:26N 31°24' E 121°30'662397054.3
2017-Oct-19 07:26N 22°55' E 113°36'6542353448.5
2017-Oct-19 07:26N 31°58' E 120°26'6822150.0
2017-Oct-19 07:26N 31°21' E 121°32'2112706.1
2017-Oct-19 07:26N 31°37' E 121°16'60107372.9
2017-Oct-19 07:26N 30°59' E 122°10'414106329.6
2017-Oct-19 07:26N 37°51' E 121°33'3871394223.5
2017-Oct-19 07:26N 31°24' E 121°35'662149027.8
2017-Oct-19 07:25N 22°60' E 113°32'156879.8
2017-Oct-19 07:25N 22°44' E 113°34'185406.2
2017-Oct-19 07:25N 23°02' E 113°31'2591428.0
2017-Oct-19 07:25N 22°44' E 113°12'2645932.0
2017-Oct-19 07:25N 22°44' E 113°40'413887.2
2017-Oct-19 07:25N 22°47' E 113°36'74276.0
2017-Oct-19 07:25N 22°54' E 113°35'134410.4
2017-Oct-19 07:25N 22°45' E 113°24'10860.4
2017-Oct-19 07:24N 22°50' E 113°34'669185283.6
2017-Oct-19 07:24N 31°41' E 121°12'2731.2
2017-Oct-19 07:24N 31°39' E 121°13'3413701.1
2017-Oct-19 07:23N 31°21' E 121°47'664341328.7
2017-Oct-19 07:23N 23°04' E 113°32'3911752.4
2017-Oct-19 07:23N 22°28' E 113°50'319345.2
2017-Oct-19 07:23N 22°57' E 113°36'1658120.3
2017-Oct-19 07:23N 23°03' E 113°19'302625.8
2017-Oct-19 07:22N 22°43' E 113°43'2412172.2
2017-Oct-19 07:22N 22°50' E 113°19'996256111.2
2017-Oct-19 07:22N 37°50' E 121°33'991209839.3
2017-Oct-19 07:22N 22°49' E 113°34'662476428.8
2017-Oct-19 07:21N 31°15' E 121°33'65246975.2
2017-Oct-19 07:21N 23°05' E 113°29'660791974.3
2017-Oct-19 07:21N 31°16' E 121°45'101197.7
2017-Oct-19 07:20N 31°08' E 121°53'202035.0
2017-Oct-19 07:20N 31°13' E 121°30'2058172315.6
2017-Oct-19 07:19N 01°27' E 103°45'1417364483.7
2017-Oct-19 07:19N 23°03' E 113°32'19804.6
2017-Oct-19 07:17N 22°47' E 113°21'3714721.5
2017-Oct-19 07:17N 22°14' E 113°05'562156.1
2017-Oct-19 07:15N 23°06' E 113°27'5621.4
2017-Oct-19 07:15N 23°02' E 113°31'657338131.6
2017-Oct-19 07:15N 31°31' E 121°18'521399.1
2017-Oct-19 07:13N 31°58' E 120°25'7123322.3
2017-Oct-19 07:12N 31°13' E 121°30'65928929.3
2017-Oct-19 07:11N 22°55' E 113°26'545271.0
2017-Oct-19 07:10N 22°19' E 114°10'345818.1
2017-Oct-19 07:10N 22°34' E 113°37'35126608.4
2017-Oct-19 07:10N 23°03' E 113°16'22626.2
2017-Oct-19 07:08N 22°49' E 113°35'491.5
2017-Oct-19 07:05N 22°46' E 113°38'666479536.5
2017-Oct-19 07:05N 31°13' E 121°42'66130111.7
2017-Oct-19 07:04N 22°58' E 113°30'8197235.8
2017-Oct-19 07:04N 22°26' E 114°51'98354338.9
2017-Oct-19 07:03N 22°12' E 113°06'341643.0
2017-Oct-19 07:02N 22°44' E 113°16'23809.5
2017-Oct-19 07:01N 23°06' E 113°26'1324269.9
2017-Oct-19 07:00N 22°56' E 113°37'6642388638.4
2017-Oct-19 07:00N 31°22' E 121°39'6642389171.0
2017-Oct-19 07:00N 22°59' E 113°33'6612378047.1
2017-Oct-19 07:00N 31°33' E 121°19'1346628.3
2017-Oct-19 07:00N 31°25' E 121°31'8573084617.9
2017-Oct-19 07:00N 21°11' E 110°25'207745961.2
2017-Oct-19 07:00N 22°57' E 113°37'563820295962.9
2017-Oct-19 07:00N 48°59' E 002°04'563910149433.4
2017-Oct-19 07:00N 22°52' E 113°33'23128.9
2017-Oct-19 07:00N 22°53' E 113°31'725744.7
2017-Oct-19 07:00N 23°00' E 113°32'76322.0
2017-Oct-19 07:00N 22°53' E 113°30'9723500650.6
2017-Oct-19 07:00N 37°36' E 121°23'9643469202.4
2017-Oct-19 07:00N 23°03' E 113°30'6502341606.9
2017-Oct-19 07:00N 31°14' E 121°30'6612380241.7
2017-Oct-19 07:00N 22°54' E 113°23'1322851.7
2017-Oct-19 07:00N 22°57' E 113°37'660395773.9
2017-Oct-19 07:00N 31°32' E 121°20'6702413146.9
2017-Oct-19 07:00N 22°44' E 113°36'1346555.5
2017-Oct-19 07:00N 22°57' E 113°37'6622382201.6
2017-Oct-19 07:00N 31°24' E 121°35'6682405374.6
2017-Oct-19 07:00N 22°49' E 113°37'610756.5
2017-Oct-19 07:00N 22°55' E 113°36'1917156.6
2017-Oct-19 07:00N 22°47' E 113°17'9811766165.1
2017-Oct-19 07:00N 37°34' E 121°23'986709922.7
2017-Oct-19 07:00N 22°34' E 113°37'2278222.8
2017-Oct-19 07:00N 22°55' E 113°33'6652392662.3
2017-Oct-19 07:00N 31°39' E 121°14'661793351.7
2017-Oct-19 07:00N 22°59' E 113°34'6681201968.4
2017-Oct-19 07:00N 31°23' E 121°47'2527.4
2017-Oct-19 06:59N 31°21' E 121°47'6831230095.2
2017-Oct-19 06:59N 22°48' E 113°20'1425381.5
2017-Oct-19 06:59N 22°50' E 113°35'666798642.0
2017-Oct-19 06:59N 31°24' E 121°30'6792444974.9
2017-Oct-19 06:59N 22°48' E 113°15'6791221698.8
2017-Oct-19 06:59N 31°25' E 121°29'7122562362.1
2017-Oct-19 06:59N 22°13' E 113°06'5090843.7
2017-Oct-19 06:59N 22°55' E 113°36'1410209.2
2017-Oct-19 06:59N 23°06' E 113°25'661595248.8
2017-Oct-19 06:59N 31°37' E 121°18'667600548.6
2017-Oct-19 06:59N 22°53' E 113°33'23570.2
2017-Oct-19 06:59N 22°51' E 113°34'6651197709.7
2017-Oct-19 06:59N 31°25' E 121°29'98049.5
2017-Oct-19 06:59N 31°31' E 121°36'6691204184.1
2017-Oct-19 06:59N 22°57' E 113°36'14335159166.8
2017-Oct-19 06:59N 01°06' E 103°43'14222558772.0
2017-Oct-19 06:59N 22°44' E 113°34'6711206989.8
2017-Oct-19 06:59N 31°31' E 121°21'2816967.8
2017-Oct-19 06:59N 31°18' E 121°50'666299837.7
2017-Oct-19 06:58N 23°01' E 113°31'724266.4
2017-Oct-19 06:58N 22°56' E 113°36'1416855.6
2017-Oct-19 06:58N 22°43' E 113°42'669602417.9
2017-Oct-19 06:58N 31°20' E 121°39'6621191190.9
2017-Oct-19 06:58N 23°01' E 113°31'117904.8
2017-Oct-19 06:58N 22°51' E 113°35'229871.6
2017-Oct-19 06:58N 23°04' E 113°16'673173007.9
2017-Oct-19 06:58N 31°18' E 121°50'175088.7
2017-Oct-19 06:58N 31°25' E 121°32'78339.5
2017-Oct-19 06:58N 31°29' E 121°25'663596913.6
2017-Oct-19 06:58N 22°58' E 113°30'6662397670.3
2017-Oct-19 06:58N 31°22' E 121°40'266751.0
2017-Oct-19 06:57N 31°38' E 121°16'669602185.2
2017-Oct-19 06:57N 22°50' E 113°34'671241493.0
2017-Oct-19 06:57N 31°22' E 121°40'671804921.2
2017-Oct-19 06:57N 22°49' E 113°34'669401634.3
2017-Oct-19 06:57N 31°18' E 121°43'6672402403.6
2017-Oct-19 06:57N 22°55' E 113°30'71210.9
2017-Oct-19 06:57N 23°00' E 113°35'651156334.5
2017-Oct-19 06:56N 31°59' E 120°27'674606604.7
2017-Oct-19 06:56N 22°44' E 113°16'63334.9
2017-Oct-19 06:56N 22°48' E 113°21'2936.9
2017-Oct-19 06:56N 22°46' E 113°22'30283566.0
2017-Oct-19 06:56N 24°40' E 118°27'295132753.7
2017-Oct-19 06:56N 22°45' E 113°31'74118.0
2017-Oct-19 06:56N 22°44' E 113°38'2327777.2
2017-Oct-19 06:56N 23°02' E 113°22'123970.1
2017-Oct-19 06:55N 22°60' E 113°35'1720982.6
2017-Oct-19 06:55N 22°48' E 113°21'173192.5
2017-Oct-19 06:55N 23°02' E 113°31'1619403.4
2017-Oct-19 06:55N 22°47' E 113°36'1210566.6
2017-Oct-19 06:55N 22°55' E 113°27'74251.4
2017-Oct-19 06:55N 22°54' E 113°35'664184002.4
2017-Oct-19 06:55N 31°38' E 121°14'373672143.4
2017-Oct-19 06:55N 37°51' E 121°33'990356470.9
2017-Oct-19 06:54N 22°52' E 113°33'681816687.6
2017-Oct-19 06:54N 31°20' E 122°02'134411.2
2017-Oct-19 06:54N 31°11' E 121°50'660169613.8
2017-Oct-19 06:54N 23°05' E 113°29'65887700.5
2017-Oct-19 06:53N 31°24' E 121°31'6672400400.7
2017-Oct-19 06:53N 22°49' E 113°35'667184757.3
2017-Oct-19 06:53N 31°30' E 121°24'658157804.3
2017-Oct-19 06:53N 23°03' E 113°32'259947.3
2017-Oct-19 06:53N 22°47' E 113°11'618469.1
2017-Oct-19 06:52N 22°19' E 114°10'67315053.4
2017-Oct-19 06:50N 31°31' E 121°21'660103255.5
2017-Oct-19 06:49N 22°60' E 113°32'66266166.8
2017-Oct-19 06:49N 31°37' E 121°16'66047510.1
2017-Oct-19 06:48N 23°04' E 113°29'16969.6
2017-Oct-19 06:47N 22°49' E 113°35'140675537.0
2017-Oct-19 06:46N 01°27' E 103°45'1404210616.5
2017-Oct-19 06:45N 22°47' E 113°36'5407.4
2017-Oct-19 06:45N 22°52' E 113°35'66914241.5
2017-Oct-19 06:42N 31°02' E 122°04'10110377.3
2017-Oct-19 06:41N 31°58' E 120°25'661125237.3
2017-Oct-19 06:41N 22°46' E 113°38'18826.8
2017-Oct-19 06:40N 23°03' E 113°32'19349.6
2017-Oct-19 06:36N 22°47' E 113°21'16163.3
2017-Oct-19 06:31N 22°59' E 113°33'516238.7
2017-Oct-19 06:31N 22°57' E 113°37'1345259.1
2017-Oct-19 06:31N 22°44' E 113°36'1214706.1
2017-Oct-19 06:30N 22°56' E 113°37'13391.6
2017-Oct-19 06:30N 22°56' E 113°36'611485.1
2017-Oct-19 06:30N 22°50' E 113°35'725921.1
2017-Oct-19 06:30N 22°57' E 113°37'1138155.3
2017-Oct-19 06:30N 22°55' E 113°26'5160742.8
2017-Oct-19 06:30N 22°34' E 114°16'661792891.4
2017-Oct-19 06:30N 31°23' E 121°40'6692408622.9
2017-Oct-19 06:30N 22°53' E 113°34'1417272.8
2017-Oct-19 06:30N 23°06' E 113°26'9633465222.5
2017-Oct-19 06:30N 37°36' E 121°23'3741346030.8
2017-Oct-19 06:30N 31°22' E 121°40'6622384848.8
2017-Oct-19 06:30N 23°03' E 113°30'652586680.5
2017-Oct-19 06:30N 31°60' E 120°27'56101014.1
2017-Oct-19 06:30N 31°30' E 121°23'726055.8
2017-Oct-19 06:30N 31°36' E 121°18'667400470.7
2017-Oct-19 06:30N 22°49' E 113°37'139626.9
2017-Oct-19 06:30N 23°01' E 113°31'9631733703.8
2017-Oct-19 06:30N 37°34' E 121°23'964346945.0
2017-Oct-19 06:30N 22°59' E 113°34'415917.5
2017-Oct-19 06:30N 22°55' E 113°36'36111.7
2017-Oct-19 06:30N 22°52' E 113°35'672186155.0
2017-Oct-19 06:29N 31°21' E 121°47'106969.1
2017-Oct-19 06:29N 31°22' E 121°36'620196.1
2017-Oct-19 06:29N 31°24' E 121°30'651780821.3
2017-Oct-19 06:29N 22°36' E 114°24'6502341359.1
2017-Oct-19 06:29N 31°25' E 121°29'7122562378.4
2017-Oct-19 06:29N 22°13' E 113°06'7142570308.6
2017-Oct-19 06:29N 31°24' E 121°34'668300484.3
2017-Oct-19 06:29N 22°53' E 113°30'1119100.9
2017-Oct-19 06:29N 22°46' E 113°22'6772436182.6
2017-Oct-19 06:29N 31°30' E 121°24'6652394109.9
2017-Oct-19 06:29N 22°53' E 113°33'44753.1
2017-Oct-19 06:29N 22°49' E 113°35'666479749.9
2017-Oct-19 06:29N 31°25' E 121°29'6651197701.6
2017-Oct-19 06:29N 22°51' E 113°34'669602365.6
2017-Oct-19 06:29N 31°22' E 121°40'2072510.5
2017-Oct-19 06:29N 31°32' E 121°20'6681201945.4
2017-Oct-19 06:29N 22°45' E 113°39'1244625.1
2017-Oct-19 06:29N 22°57' E 113°36'662340277.2
2017-Oct-19 06:29N 31°34' E 121°19'851510835.5
2017-Oct-19 06:28N 21°16' E 110°25'202145092.9
2017-Oct-19 06:28N 23°01' E 113°31'983353818.2
2017-Oct-19 06:28N 37°52' E 121°32'991445953.7
2017-Oct-19 06:28N 22°52' E 113°31'14281713447.9
2017-Oct-19 06:28N 01°07' E 103°39'14252564753.4
2017-Oct-19 06:28N 22°47' E 113°36'124696.3
2017-Oct-19 06:28N 22°55' E 113°27'668480840.0
2017-Oct-19 06:28N 31°25' E 121°32'31982.9
2017-Oct-19 06:28N 31°24' E 121°35'108701.9
2017-Oct-19 06:28N 31°29' E 121°25'658473779.0
2017-Oct-19 06:28N 23°03' E 113°32'135702.1
2017-Oct-19 06:27N 22°51' E 113°35'105862.5
2017-Oct-19 06:27N 23°00' E 113°32'2018084.3
2017-Oct-19 06:27N 22°47' E 113°15'2014458.2
2017-Oct-19 06:27N 22°58' E 113°33'517916.5
2017-Oct-19 06:27N 23°03' E 113°32'91468.6
2017-Oct-19 06:27N 22°55' E 113°30'1120221.0
2017-Oct-19 06:27N 22°44' E 113°34'0101.0
2017-Oct-19 06:27N 22°44' E 113°34'670401721.7
2017-Oct-19 06:26N 31°22' E 121°30'674127622.1
2017-Oct-19 06:26N 22°28' E 113°50'318501.8
2017-Oct-19 06:26N 22°56' E 113°36'133031.9
2017-Oct-19 06:26N 22°45' E 113°31'675186849.4
2017-Oct-19 06:25N 31°20' E 121°39'660297144.2
2017-Oct-19 06:25N 22°60' E 113°35'27917.6
2017-Oct-19 06:25N 22°60' E 113°32'55913.3
2017-Oct-19 06:25N 22°57' E 113°37'66099027.7
2017-Oct-19 06:25N 31°35' E 121°17'668150298.8
2017-Oct-19 06:25N 22°50' E 113°34'61060.6
2017-Oct-19 06:24N 22°56' E 113°36'112015.3
2017-Oct-19 06:24N 23°05' E 113°29'2216.0
2017-Oct-19 06:23N 23°06' E 113°27'290522317.2
2017-Oct-19 06:23N 24°40' E 118°27'443177245.6
2017-Oct-19 06:23N 31°37' E 121°18'67163613.4
2017-Oct-19 06:23N 22°44' E 113°38'62917.8
2017-Oct-19 06:22N 22°50' E 113°35'4532373.6
2017-Oct-19 06:22N 22°19' E 114°10'21931605.9
2017-Oct-19 06:22N 21°11' E 110°25'20461199.8
2017-Oct-19 06:22N 22°54' E 113°35'15541.1
2017-Oct-19 06:20N 23°06' E 113°25'113212.0
2017-Oct-19 06:20N 22°55' E 113°26'6592371093.2
2017-Oct-19 06:20N 31°13' E 121°30'2749344.2
2017-Oct-19 06:20N 31°04' E 122°01'665478818.7
2017-Oct-19 06:20N 23°05' E 113°23'6681202813.3
2017-Oct-19 06:20N 31°18' E 121°50'1656812.7
2017-Oct-19 06:20N 31°21' E 121°32'139372.2
2017-Oct-19 06:20N 31°15' E 121°46'43223.6
2017-Oct-19 06:20N 31°18' E 121°50'689413144.0
2017-Oct-19 06:19N 22°47' E 113°11'683117093.7
2017-Oct-19 06:19N 31°37' E 121°17'352773.9
2017-Oct-19 06:18N 31°14' E 121°47'1410004.3
2017-Oct-19 06:18N 31°20' E 122°02'162552.0
2017-Oct-19 06:18N 31°18' E 121°43'378340259.9
2017-Oct-19 06:18N 37°36' E 121°26'993446760.4
2017-Oct-19 06:18N 22°18' E 114°09'675404726.6
2017-Oct-19 06:18N 31°16' E 121°45'8910.0
2017-Oct-19 06:17N 31°23' E 121°47'67125975.9
2017-Oct-19 06:16N 22°58' E 113°30'141095.6
2017-Oct-19 06:15N 22°45' E 113°23'68544816.1
2017-Oct-19 06:14N 31°31' E 121°36'201337.0
2017-Oct-19 06:13N 31°38' E 121°14'31963.0
2017-Oct-19 06:13N 31°41' E 121°12'67887231.0
2017-Oct-19 06:12N 22°45' E 113°24'67230227.2
2017-Oct-19 06:11N 30°48' E 122°07'64018881.3
2017-Oct-19 06:09N 22°24' E 114°46'654392176.1
2017-Oct-19 06:09N 31°42' E 121°08'66017349.9
2017-Oct-19 06:07N 23°02' E 113°31'284209.0
2017-Oct-19 06:06N 22°46' E 113°05'282688.9
2017-Oct-19 06:06N 22°19' E 113°11'7068647.1
2017-Oct-19 06:01N 31°22' E 121°37'071.2
2017-Oct-19 06:01N 31°22' E 121°36'538219376631.8
2017-Oct-19 06:01N 49°12' W 123°09'537819362452.4
2017-Oct-19 06:00N 31°23' E 121°40'1552253.4
2017-Oct-19 06:00N 31°12' E 121°30'1222195.6
2017-Oct-19 06:00N 31°22' E 121°37'610698.7
2017-Oct-19 06:00N 31°22' E 121°30'44708045218.1
2017-Oct-19 06:00N 44°09' E 028°40'42207595726.6
2017-Oct-19 06:00N 37°53' E 121°31'9853544884.4
2017-Oct-19 06:00N 22°59' E 113°33'725926.1
2017-Oct-19 06:00N 22°52' E 113°33'621159.2
2017-Oct-19 06:00N 22°57' E 113°37'6612379016.3
2017-Oct-19 06:00N 31°24' E 121°33'372334727.1
2017-Oct-19 06:00N 37°36' E 121°23'9633465222.5
2017-Oct-19 06:00N 23°06' E 113°26'2278917.0
2017-Oct-19 06:00N 22°47' E 113°15'2175717.6
2017-Oct-19 06:00N 22°58' E 113°33'814390.6
2017-Oct-19 06:00N 22°51' E 113°35'44855.5
2017-Oct-19 06:00N 22°53' E 113°31'6652395077.4
2017-Oct-19 06:00N 31°32' E 121°20'6662395985.9
2017-Oct-19 06:00N 22°52' E 113°33'668343615.5
2017-Oct-19 06:00N 31°18' E 121°43'33596.6
2017-Oct-19 06:00N 31°16' E 121°45'379454314.9
2017-Oct-19 06:00N 37°34' E 121°23'9743505758.9
2017-Oct-19 06:00N 22°47' E 113°38'1348274.1
2017-Oct-19 06:00N 22°45' E 113°23'1018225.3
2017-Oct-19 06:00N 22°44' E 113°34'933652.4
2017-Oct-19 06:00N 22°54' E 113°35'45186.5
2017-Oct-19 06:00N 22°55' E 113°30'610103.7
2017-Oct-19 06:00N 22°59' E 113°34'6571183014.0
2017-Oct-19 06:00N 31°21' E 121°32'1345165.5
2017-Oct-19 06:00N 31°16' E 121°45'62152.4
2017-Oct-19 05:59N 31°21' E 121°47'673808118.9
2017-Oct-19 05:59N 22°53' E 113°30'1311268.1
2017-Oct-19 05:59N 23°06' E 113°27'6582368470.1
2017-Oct-19 05:59N 31°25' E 121°29'15302.4
2017-Oct-19 05:59N 31°24' E 121°30'20863754276.1
2017-Oct-19 05:59N 01°11' E 103°37'14111016133.6
2017-Oct-19 05:59N 22°28' E 113°50'4352020.5
2017-Oct-19 05:59N 23°06' E 113°25'6631193352.0
2017-Oct-19 05:59N 31°22' E 121°40'680489725.5
2017-Oct-19 05:59N 22°46' E 113°22'1244837.5
2017-Oct-19 05:59N 22°53' E 113°33'830582.3
2017-Oct-19 05:59N 23°01' E 113°31'288502.1
2017-Oct-19 05:59N 22°46' E 113°05'6941248580.4
2017-Oct-19 05:59N 31°18' E 121°50'667218353.3
2017-Oct-19 05:59N 22°57' E 113°36'6672401775.2
2017-Oct-19 05:59N 31°18' E 121°50'678271247.5
2017-Oct-19 05:58N 22°19' E 114°10'4958933.3
2017-Oct-19 05:58N 22°56' E 113°36'6692408672.3
2017-Oct-19 05:58N 31°31' E 121°36'681613108.6
2017-Oct-19 05:58N 22°45' E 113°31'82540.2
2017-Oct-19 05:58N 22°52' E 113°31'6691204215.1
2017-Oct-19 05:58N 31°37' E 121°18'857771100.3
2017-Oct-19 05:58N 21°11' E 110°25'205738978.2
2017-Oct-19 05:58N 22°55' E 113°36'1315635.2
2017-Oct-19 05:58N 23°05' E 113°27'1011772.6
2017-Oct-19 05:58N 22°55' E 113°27'668141425.4
2017-Oct-19 05:58N 31°25' E 121°32'6641195140.1
2017-Oct-19 05:58N 22°58' E 113°30'678813201.9
2017-Oct-19 05:57N 31°20' E 122°02'6751215025.6
2017-Oct-19 05:57N 22°56' E 113°37'25721.4
2017-Oct-19 05:57N 22°55' E 113°36'63288.6
2017-Oct-19 05:57N 23°00' E 113°32'175408.0
2017-Oct-19 05:57N 22°44' E 113°36'673186335.7
2017-Oct-19 05:57N 31°41' E 121°12'6681202804.9
2017-Oct-19 05:57N 22°49' E 113°37'1833044.4
2017-Oct-19 05:57N 22°47' E 113°17'2137897.3
2017-Oct-19 05:57N 23°05' E 113°29'143980.5
2017-Oct-19 05:57N 22°52' E 113°35'70253070.8
2017-Oct-19 05:57N 22°24' E 114°44'653294009.4
2017-Oct-19 05:56N 31°22' E 121°40'679611311.1
2017-Oct-19 05:56N 22°45' E 113°25'676405573.4
2017-Oct-19 05:56N 31°32' E&nb